<?xml version="1.0" encoding="UTF-8" standalone="no" ?>
<gpx xmlns="http://www.topografix.com/GPX/1/1" xmlns:xsi="http://www.w3.org/2001/XMLSchema-instance" xsi:schemaLocation="http://www.topografix.com/GPX/1/1 http://www.topografix.com/GPX/1/1/gpx.xsd" version="1.1" creator="VisuGPX - https://www.visugpx.com">
  <metadata>
    <name>Aiguille Verte du Chinaillon (74 Bornes)</name>
    <desc><![CDATA[Aiguille Verte du Chinaillon]]></desc>
  </metadata>
  <trk>
    <name><![CDATA[suuntoapp-Hiking-2021-11-20T08-39-57Z]]></name>
    <trkseg>
      <trkpt lat="45.97616" lon="6.45567">
        <ele>1373</ele>
        <time>2021-11-20T08:39:57Z</time>
      </trkpt>
      <trkpt lat="45.97618" lon="6.45568">
        <ele>1373</ele>
        <time>2021-11-20T08:40:10Z</time>
      </trkpt>
      <trkpt lat="45.97617" lon="6.45569">
        <ele>1373</ele>
        <time>2021-11-20T08:40:35Z</time>
      </trkpt>
      <trkpt lat="45.97615" lon="6.45572">
        <ele>1373</ele>
        <time>2021-11-20T08:40:38Z</time>
      </trkpt>
      <trkpt lat="45.97616" lon="6.45575">
        <ele>1372</ele>
        <time>2021-11-20T08:40:42Z</time>
      </trkpt>
      <trkpt lat="45.97617" lon="6.45576">
        <ele>1372</ele>
        <time>2021-11-20T08:40:49Z</time>
      </trkpt>
      <trkpt lat="45.97615" lon="6.45575">
        <ele>1372</ele>
        <time>2021-11-20T08:40:54Z</time>
      </trkpt>
      <trkpt lat="45.97614" lon="6.45574">
        <ele>1372</ele>
        <time>2021-11-20T08:41:00Z</time>
      </trkpt>
      <trkpt lat="45.97614" lon="6.45572">
        <ele>1372</ele>
        <time>2021-11-20T08:41:02Z</time>
      </trkpt>
      <trkpt lat="45.97615" lon="6.45568">
        <ele>1372</ele>
        <time>2021-11-20T08:41:04Z</time>
      </trkpt>
      <trkpt lat="45.97615" lon="6.45565">
        <ele>1372</ele>
        <time>2021-11-20T08:41:06Z</time>
      </trkpt>
      <trkpt lat="45.97616" lon="6.45561">
        <ele>1372</ele>
        <time>2021-11-20T08:41:08Z</time>
      </trkpt>
      <trkpt lat="45.97616" lon="6.45558">
        <ele>1372</ele>
        <time>2021-11-20T08:41:10Z</time>
      </trkpt>
      <trkpt lat="45.97617" lon="6.45555">
        <ele>1372</ele>
        <time>2021-11-20T08:41:13Z</time>
      </trkpt>
      <trkpt lat="45.97618" lon="6.45552">
        <ele>1372</ele>
        <time>2021-11-20T08:41:15Z</time>
      </trkpt>
      <trkpt lat="45.97619" lon="6.45549">
        <ele>1372</ele>
        <time>2021-11-20T08:41:17Z</time>
      </trkpt>
      <trkpt lat="45.97619" lon="6.45547">
        <ele>1372</ele>
        <time>2021-11-20T08:41:19Z</time>
      </trkpt>
      <trkpt lat="45.9762" lon="6.45544">
        <ele>1373</ele>
        <time>2021-11-20T08:41:21Z</time>
      </trkpt>
      <trkpt lat="45.9762" lon="6.45541">
        <ele>1373</ele>
        <time>2021-11-20T08:41:23Z</time>
      </trkpt>
      <trkpt lat="45.97621" lon="6.45538">
        <ele>1373</ele>
        <time>2021-11-20T08:41:25Z</time>
      </trkpt>
      <trkpt lat="45.97621" lon="6.45535">
        <ele>1373</ele>
        <time>2021-11-20T08:41:27Z</time>
      </trkpt>
      <trkpt lat="45.97621" lon="6.45532">
        <ele>1373</ele>
        <time>2021-11-20T08:41:29Z</time>
      </trkpt>
      <trkpt lat="45.97621" lon="6.45528">
        <ele>1374</ele>
        <time>2021-11-20T08:41:32Z</time>
      </trkpt>
      <trkpt lat="45.9762" lon="6.45526">
        <ele>1374</ele>
        <time>2021-11-20T08:41:33Z</time>
      </trkpt>
      <trkpt lat="45.97619" lon="6.45523">
        <ele>1374</ele>
        <time>2021-11-20T08:41:35Z</time>
      </trkpt>
      <trkpt lat="45.97621" lon="6.45521">
        <ele>1374</ele>
        <time>2021-11-20T08:41:43Z</time>
      </trkpt>
      <trkpt lat="45.9762" lon="6.45518">
        <ele>1374</ele>
        <time>2021-11-20T08:41:46Z</time>
      </trkpt>
      <trkpt lat="45.97619" lon="6.45515">
        <ele>1375</ele>
        <time>2021-11-20T08:41:49Z</time>
      </trkpt>
      <trkpt lat="45.97617" lon="6.45512">
        <ele>1375</ele>
        <time>2021-11-20T08:41:52Z</time>
      </trkpt>
      <trkpt lat="45.97616" lon="6.45509">
        <ele>1375</ele>
        <time>2021-11-20T08:41:55Z</time>
      </trkpt>
      <trkpt lat="45.97616" lon="6.45506">
        <ele>1376</ele>
        <time>2021-11-20T08:41:58Z</time>
      </trkpt>
      <trkpt lat="45.97614" lon="6.45503">
        <ele>1376</ele>
        <time>2021-11-20T08:42:01Z</time>
      </trkpt>
      <trkpt lat="45.97613" lon="6.455">
        <ele>1376</ele>
        <time>2021-11-20T08:42:04Z</time>
      </trkpt>
      <trkpt lat="45.97612" lon="6.45498">
        <ele>1376</ele>
        <time>2021-11-20T08:42:07Z</time>
      </trkpt>
      <trkpt lat="45.97611" lon="6.45495">
        <ele>1377</ele>
        <time>2021-11-20T08:42:10Z</time>
      </trkpt>
      <trkpt lat="45.97609" lon="6.45493">
        <ele>1377</ele>
        <time>2021-11-20T08:42:14Z</time>
      </trkpt>
      <trkpt lat="45.97608" lon="6.4549">
        <ele>1378</ele>
        <time>2021-11-20T08:42:17Z</time>
      </trkpt>
      <trkpt lat="45.97608" lon="6.45487">
        <ele>1378</ele>
        <time>2021-11-20T08:42:20Z</time>
      </trkpt>
      <trkpt lat="45.97606" lon="6.45484">
        <ele>1378</ele>
        <time>2021-11-20T08:42:23Z</time>
      </trkpt>
      <trkpt lat="45.97605" lon="6.45482">
        <ele>1378</ele>
        <time>2021-11-20T08:42:26Z</time>
      </trkpt>
      <trkpt lat="45.97604" lon="6.45478">
        <ele>1378</ele>
        <time>2021-11-20T08:42:29Z</time>
      </trkpt>
      <trkpt lat="45.97603" lon="6.45476">
        <ele>1379</ele>
        <time>2021-11-20T08:42:31Z</time>
      </trkpt>
      <trkpt lat="45.97602" lon="6.45473">
        <ele>1379</ele>
        <time>2021-11-20T08:42:34Z</time>
      </trkpt>
      <trkpt lat="45.97602" lon="6.4547">
        <ele>1380</ele>
        <time>2021-11-20T08:42:37Z</time>
      </trkpt>
      <trkpt lat="45.97602" lon="6.45467">
        <ele>1380</ele>
        <time>2021-11-20T08:42:40Z</time>
      </trkpt>
      <trkpt lat="45.97601" lon="6.45463">
        <ele>1381</ele>
        <time>2021-11-20T08:42:44Z</time>
      </trkpt>
      <trkpt lat="45.97601" lon="6.4546">
        <ele>1382</ele>
        <time>2021-11-20T08:42:49Z</time>
      </trkpt>
      <trkpt lat="45.97601" lon="6.45457">
        <ele>1382</ele>
        <time>2021-11-20T08:42:51Z</time>
      </trkpt>
      <trkpt lat="45.97601" lon="6.45454">
        <ele>1382</ele>
        <time>2021-11-20T08:42:54Z</time>
      </trkpt>
      <trkpt lat="45.97601" lon="6.45451">
        <ele>1383</ele>
        <time>2021-11-20T08:42:57Z</time>
      </trkpt>
      <trkpt lat="45.97601" lon="6.45448">
        <ele>1383</ele>
        <time>2021-11-20T08:43:00Z</time>
      </trkpt>
      <trkpt lat="45.97601" lon="6.45445">
        <ele>1383</ele>
        <time>2021-11-20T08:43:03Z</time>
      </trkpt>
      <trkpt lat="45.976" lon="6.45443">
        <ele>1383</ele>
        <time>2021-11-20T08:43:07Z</time>
      </trkpt>
      <trkpt lat="45.97601" lon="6.4544">
        <ele>1384</ele>
        <time>2021-11-20T08:43:10Z</time>
      </trkpt>
      <trkpt lat="45.976" lon="6.45437">
        <ele>1385</ele>
        <time>2021-11-20T08:43:13Z</time>
      </trkpt>
      <trkpt lat="45.976" lon="6.45434">
        <ele>1385</ele>
        <time>2021-11-20T08:43:16Z</time>
      </trkpt>
      <trkpt lat="45.976" lon="6.45431">
        <ele>1385</ele>
        <time>2021-11-20T08:43:19Z</time>
      </trkpt>
      <trkpt lat="45.97599" lon="6.45428">
        <ele>1385</ele>
        <time>2021-11-20T08:43:22Z</time>
      </trkpt>
      <trkpt lat="45.97598" lon="6.45425">
        <ele>1386</ele>
        <time>2021-11-20T08:43:25Z</time>
      </trkpt>
      <trkpt lat="45.97597" lon="6.45423">
        <ele>1386</ele>
        <time>2021-11-20T08:43:27Z</time>
      </trkpt>
      <trkpt lat="45.97596" lon="6.4542">
        <ele>1386</ele>
        <time>2021-11-20T08:43:29Z</time>
      </trkpt>
      <trkpt lat="45.97595" lon="6.45417">
        <ele>1387</ele>
        <time>2021-11-20T08:43:32Z</time>
      </trkpt>
      <trkpt lat="45.97595" lon="6.45415">
        <ele>1388</ele>
        <time>2021-11-20T08:43:35Z</time>
      </trkpt>
      <trkpt lat="45.97594" lon="6.45412">
        <ele>1388</ele>
        <time>2021-11-20T08:43:38Z</time>
      </trkpt>
      <trkpt lat="45.97592" lon="6.4541">
        <ele>1388</ele>
        <time>2021-11-20T08:43:41Z</time>
      </trkpt>
      <trkpt lat="45.97592" lon="6.45407">
        <ele>1388</ele>
        <time>2021-11-20T08:43:45Z</time>
      </trkpt>
      <trkpt lat="45.97591" lon="6.45405">
        <ele>1389</ele>
        <time>2021-11-20T08:43:48Z</time>
      </trkpt>
      <trkpt lat="45.9759" lon="6.45402">
        <ele>1389</ele>
        <time>2021-11-20T08:43:51Z</time>
      </trkpt>
      <trkpt lat="45.97589" lon="6.45399">
        <ele>1390</ele>
        <time>2021-11-20T08:43:55Z</time>
      </trkpt>
      <trkpt lat="45.97588" lon="6.45397">
        <ele>1391</ele>
        <time>2021-11-20T08:43:58Z</time>
      </trkpt>
      <trkpt lat="45.97586" lon="6.45394">
        <ele>1391</ele>
        <time>2021-11-20T08:44:02Z</time>
      </trkpt>
      <trkpt lat="45.97586" lon="6.45391">
        <ele>1391</ele>
        <time>2021-11-20T08:44:05Z</time>
      </trkpt>
      <trkpt lat="45.97585" lon="6.45389">
        <ele>1392</ele>
        <time>2021-11-20T08:44:09Z</time>
      </trkpt>
      <trkpt lat="45.97585" lon="6.45386">
        <ele>1392</ele>
        <time>2021-11-20T08:44:12Z</time>
      </trkpt>
      <trkpt lat="45.97585" lon="6.45383">
        <ele>1393</ele>
        <time>2021-11-20T08:44:15Z</time>
      </trkpt>
      <trkpt lat="45.97584" lon="6.4538">
        <ele>1393</ele>
        <time>2021-11-20T08:44:18Z</time>
      </trkpt>
      <trkpt lat="45.97584" lon="6.45377">
        <ele>1394</ele>
        <time>2021-11-20T08:44:21Z</time>
      </trkpt>
      <trkpt lat="45.97585" lon="6.45374">
        <ele>1394</ele>
        <time>2021-11-20T08:44:23Z</time>
      </trkpt>
      <trkpt lat="45.97585" lon="6.45371">
        <ele>1395</ele>
        <time>2021-11-20T08:44:26Z</time>
      </trkpt>
      <trkpt lat="45.97586" lon="6.45367">
        <ele>1394</ele>
        <time>2021-11-20T08:44:29Z</time>
      </trkpt>
      <trkpt lat="45.97587" lon="6.45364">
        <ele>1395</ele>
        <time>2021-11-20T08:44:32Z</time>
      </trkpt>
      <trkpt lat="45.97587" lon="6.4536">
        <ele>1395</ele>
        <time>2021-11-20T08:44:35Z</time>
      </trkpt>
      <trkpt lat="45.97588" lon="6.45358">
        <ele>1395</ele>
        <time>2021-11-20T08:44:37Z</time>
      </trkpt>
      <trkpt lat="45.97588" lon="6.45355">
        <ele>1395</ele>
        <time>2021-11-20T08:44:39Z</time>
      </trkpt>
      <trkpt lat="45.97589" lon="6.45352">
        <ele>1396</ele>
        <time>2021-11-20T08:44:43Z</time>
      </trkpt>
      <trkpt lat="45.9759" lon="6.45349">
        <ele>1396</ele>
        <time>2021-11-20T08:44:46Z</time>
      </trkpt>
      <trkpt lat="45.97591" lon="6.45347">
        <ele>1396</ele>
        <time>2021-11-20T08:44:49Z</time>
      </trkpt>
      <trkpt lat="45.97592" lon="6.45344">
        <ele>1397</ele>
        <time>2021-11-20T08:44:52Z</time>
      </trkpt>
      <trkpt lat="45.97593" lon="6.45342">
        <ele>1397</ele>
        <time>2021-11-20T08:44:55Z</time>
      </trkpt>
      <trkpt lat="45.97594" lon="6.45339">
        <ele>1398</ele>
        <time>2021-11-20T08:44:58Z</time>
      </trkpt>
      <trkpt lat="45.97595" lon="6.45337">
        <ele>1398</ele>
        <time>2021-11-20T08:45:01Z</time>
      </trkpt>
      <trkpt lat="45.97596" lon="6.45334">
        <ele>1398</ele>
        <time>2021-11-20T08:45:04Z</time>
      </trkpt>
      <trkpt lat="45.97597" lon="6.45332">
        <ele>1398</ele>
        <time>2021-11-20T08:45:07Z</time>
      </trkpt>
      <trkpt lat="45.97598" lon="6.45329">
        <ele>1399</ele>
        <time>2021-11-20T08:45:10Z</time>
      </trkpt>
      <trkpt lat="45.97598" lon="6.45327">
        <ele>1399</ele>
        <time>2021-11-20T08:45:13Z</time>
      </trkpt>
      <trkpt lat="45.97599" lon="6.45324">
        <ele>1400</ele>
        <time>2021-11-20T08:45:15Z</time>
      </trkpt>
      <trkpt lat="45.97599" lon="6.45321">
        <ele>1401</ele>
        <time>2021-11-20T08:45:18Z</time>
      </trkpt>
      <trkpt lat="45.97598" lon="6.45319">
        <ele>1401</ele>
        <time>2021-11-20T08:45:22Z</time>
      </trkpt>
      <trkpt lat="45.97598" lon="6.45316">
        <ele>1401</ele>
        <time>2021-11-20T08:45:25Z</time>
      </trkpt>
      <trkpt lat="45.97597" lon="6.45312">
        <ele>1402</ele>
        <time>2021-11-20T08:45:28Z</time>
      </trkpt>
      <trkpt lat="45.97596" lon="6.45309">
        <ele>1403</ele>
        <time>2021-11-20T08:45:31Z</time>
      </trkpt>
      <trkpt lat="45.97595" lon="6.45306">
        <ele>1403</ele>
        <time>2021-11-20T08:45:34Z</time>
      </trkpt>
      <trkpt lat="45.97594" lon="6.45303">
        <ele>1403</ele>
        <time>2021-11-20T08:45:37Z</time>
      </trkpt>
      <trkpt lat="45.97593" lon="6.453">
        <ele>1403</ele>
        <time>2021-11-20T08:45:39Z</time>
      </trkpt>
      <trkpt lat="45.97592" lon="6.45297">
        <ele>1403</ele>
        <time>2021-11-20T08:45:42Z</time>
      </trkpt>
      <trkpt lat="45.97591" lon="6.45295">
        <ele>1404</ele>
        <time>2021-11-20T08:45:46Z</time>
      </trkpt>
      <trkpt lat="45.97591" lon="6.45292">
        <ele>1405</ele>
        <time>2021-11-20T08:45:48Z</time>
      </trkpt>
      <trkpt lat="45.9759" lon="6.4529">
        <ele>1405</ele>
        <time>2021-11-20T08:45:51Z</time>
      </trkpt>
      <trkpt lat="45.9759" lon="6.45287">
        <ele>1405</ele>
        <time>2021-11-20T08:45:54Z</time>
      </trkpt>
      <trkpt lat="45.97589" lon="6.45284">
        <ele>1406</ele>
        <time>2021-11-20T08:45:58Z</time>
      </trkpt>
      <trkpt lat="45.97588" lon="6.45281">
        <ele>1407</ele>
        <time>2021-11-20T08:46:01Z</time>
      </trkpt>
      <trkpt lat="45.97587" lon="6.45278">
        <ele>1407</ele>
        <time>2021-11-20T08:46:04Z</time>
      </trkpt>
      <trkpt lat="45.97586" lon="6.45276">
        <ele>1407</ele>
        <time>2021-11-20T08:46:07Z</time>
      </trkpt>
      <trkpt lat="45.97585" lon="6.45273">
        <ele>1407</ele>
        <time>2021-11-20T08:46:10Z</time>
      </trkpt>
      <trkpt lat="45.97584" lon="6.45271">
        <ele>1407</ele>
        <time>2021-11-20T08:46:13Z</time>
      </trkpt>
      <trkpt lat="45.97583" lon="6.45268">
        <ele>1407</ele>
        <time>2021-11-20T08:46:16Z</time>
      </trkpt>
      <trkpt lat="45.97582" lon="6.45265">
        <ele>1407</ele>
        <time>2021-11-20T08:46:18Z</time>
      </trkpt>
      <trkpt lat="45.97581" lon="6.45262">
        <ele>1409</ele>
        <time>2021-11-20T08:46:21Z</time>
      </trkpt>
      <trkpt lat="45.9758" lon="6.4526">
        <ele>1409</ele>
        <time>2021-11-20T08:46:24Z</time>
      </trkpt>
      <trkpt lat="45.97579" lon="6.45258">
        <ele>1409</ele>
        <time>2021-11-20T08:46:27Z</time>
      </trkpt>
      <trkpt lat="45.97577" lon="6.45256">
        <ele>1409</ele>
        <time>2021-11-20T08:46:30Z</time>
      </trkpt>
      <trkpt lat="45.97576" lon="6.45254">
        <ele>1410</ele>
        <time>2021-11-20T08:46:33Z</time>
      </trkpt>
      <trkpt lat="45.97574" lon="6.45252">
        <ele>1410</ele>
        <time>2021-11-20T08:46:37Z</time>
      </trkpt>
      <trkpt lat="45.97573" lon="6.4525">
        <ele>1411</ele>
        <time>2021-11-20T08:46:40Z</time>
      </trkpt>
      <trkpt lat="45.97571" lon="6.45248">
        <ele>1411</ele>
        <time>2021-11-20T08:46:43Z</time>
      </trkpt>
      <trkpt lat="45.9757" lon="6.45245">
        <ele>1411</ele>
        <time>2021-11-20T08:46:46Z</time>
      </trkpt>
      <trkpt lat="45.97569" lon="6.45243">
        <ele>1412</ele>
        <time>2021-11-20T08:46:49Z</time>
      </trkpt>
      <trkpt lat="45.97568" lon="6.4524">
        <ele>1412</ele>
        <time>2021-11-20T08:46:52Z</time>
      </trkpt>
      <trkpt lat="45.97567" lon="6.45237">
        <ele>1412</ele>
        <time>2021-11-20T08:46:55Z</time>
      </trkpt>
      <trkpt lat="45.97565" lon="6.45235">
        <ele>1413</ele>
        <time>2021-11-20T08:46:57Z</time>
      </trkpt>
      <trkpt lat="45.97564" lon="6.45232">
        <ele>1414</ele>
        <time>2021-11-20T08:47:00Z</time>
      </trkpt>
      <trkpt lat="45.97563" lon="6.45228">
        <ele>1414</ele>
        <time>2021-11-20T08:47:03Z</time>
      </trkpt>
      <trkpt lat="45.97562" lon="6.45225">
        <ele>1414</ele>
        <time>2021-11-20T08:47:06Z</time>
      </trkpt>
      <trkpt lat="45.97561" lon="6.45221">
        <ele>1414</ele>
        <time>2021-11-20T08:47:09Z</time>
      </trkpt>
      <trkpt lat="45.9756" lon="6.45219">
        <ele>1414</ele>
        <time>2021-11-20T08:47:11Z</time>
      </trkpt>
      <trkpt lat="45.97559" lon="6.45216">
        <ele>1415</ele>
        <time>2021-11-20T08:47:15Z</time>
      </trkpt>
      <trkpt lat="45.97558" lon="6.45212">
        <ele>1415</ele>
        <time>2021-11-20T08:47:18Z</time>
      </trkpt>
      <trkpt lat="45.97557" lon="6.45209">
        <ele>1415</ele>
        <time>2021-11-20T08:47:21Z</time>
      </trkpt>
      <trkpt lat="45.97557" lon="6.45206">
        <ele>1416</ele>
        <time>2021-11-20T08:47:24Z</time>
      </trkpt>
      <trkpt lat="45.97556" lon="6.45203">
        <ele>1417</ele>
        <time>2021-11-20T08:47:27Z</time>
      </trkpt>
      <trkpt lat="45.97556" lon="6.452">
        <ele>1417</ele>
        <time>2021-11-20T08:47:30Z</time>
      </trkpt>
      <trkpt lat="45.97556" lon="6.45198">
        <ele>1417</ele>
        <time>2021-11-20T08:47:33Z</time>
      </trkpt>
      <trkpt lat="45.97555" lon="6.45195">
        <ele>1418</ele>
        <time>2021-11-20T08:47:36Z</time>
      </trkpt>
      <trkpt lat="45.97554" lon="6.45192">
        <ele>1418</ele>
        <time>2021-11-20T08:47:39Z</time>
      </trkpt>
      <trkpt lat="45.97554" lon="6.4519">
        <ele>1418</ele>
        <time>2021-11-20T08:47:42Z</time>
      </trkpt>
      <trkpt lat="45.97553" lon="6.45187">
        <ele>1419</ele>
        <time>2021-11-20T08:47:45Z</time>
      </trkpt>
      <trkpt lat="45.97552" lon="6.45185">
        <ele>1419</ele>
        <time>2021-11-20T08:47:48Z</time>
      </trkpt>
      <trkpt lat="45.97551" lon="6.45182">
        <ele>1420</ele>
        <time>2021-11-20T08:47:52Z</time>
      </trkpt>
      <trkpt lat="45.9755" lon="6.45179">
        <ele>1421</ele>
        <time>2021-11-20T08:47:55Z</time>
      </trkpt>
      <trkpt lat="45.97549" lon="6.45177">
        <ele>1422</ele>
        <time>2021-11-20T08:47:58Z</time>
      </trkpt>
      <trkpt lat="45.97548" lon="6.45175">
        <ele>1422</ele>
        <time>2021-11-20T08:48:01Z</time>
      </trkpt>
      <trkpt lat="45.97547" lon="6.45172">
        <ele>1423</ele>
        <time>2021-11-20T08:48:04Z</time>
      </trkpt>
      <trkpt lat="45.97546" lon="6.4517">
        <ele>1423</ele>
        <time>2021-11-20T08:48:07Z</time>
      </trkpt>
      <trkpt lat="45.97545" lon="6.45167">
        <ele>1424</ele>
        <time>2021-11-20T08:48:11Z</time>
      </trkpt>
      <trkpt lat="45.97545" lon="6.45165">
        <ele>1424</ele>
        <time>2021-11-20T08:48:14Z</time>
      </trkpt>
      <trkpt lat="45.97544" lon="6.45162">
        <ele>1425</ele>
        <time>2021-11-20T08:48:17Z</time>
      </trkpt>
      <trkpt lat="45.97545" lon="6.45159">
        <ele>1425</ele>
        <time>2021-11-20T08:48:20Z</time>
      </trkpt>
      <trkpt lat="45.97545" lon="6.45156">
        <ele>1425</ele>
        <time>2021-11-20T08:48:23Z</time>
      </trkpt>
      <trkpt lat="45.97546" lon="6.45153">
        <ele>1426</ele>
        <time>2021-11-20T08:48:26Z</time>
      </trkpt>
      <trkpt lat="45.97548" lon="6.45152">
        <ele>1426</ele>
        <time>2021-11-20T08:48:29Z</time>
      </trkpt>
      <trkpt lat="45.9755" lon="6.45152">
        <ele>1426</ele>
        <time>2021-11-20T08:48:31Z</time>
      </trkpt>
      <trkpt lat="45.97551" lon="6.4515">
        <ele>1427</ele>
        <time>2021-11-20T08:48:36Z</time>
      </trkpt>
      <trkpt lat="45.97551" lon="6.45147">
        <ele>1427</ele>
        <time>2021-11-20T08:48:59Z</time>
      </trkpt>
      <trkpt lat="45.97549" lon="6.45148">
        <ele>1427</ele>
        <time>2021-11-20T08:51:46Z</time>
      </trkpt>
      <trkpt lat="45.97549" lon="6.45145">
        <ele>1427</ele>
        <time>2021-11-20T08:51:56Z</time>
      </trkpt>
      <trkpt lat="45.97549" lon="6.45142">
        <ele>1428</ele>
        <time>2021-11-20T08:52:01Z</time>
      </trkpt>
      <trkpt lat="45.9755" lon="6.4514">
        <ele>1428</ele>
        <time>2021-11-20T08:52:05Z</time>
      </trkpt>
      <trkpt lat="45.97551" lon="6.45137">
        <ele>1429</ele>
        <time>2021-11-20T08:52:09Z</time>
      </trkpt>
      <trkpt lat="45.97552" lon="6.45134">
        <ele>1429</ele>
        <time>2021-11-20T08:52:13Z</time>
      </trkpt>
      <trkpt lat="45.97552" lon="6.45131">
        <ele>1430</ele>
        <time>2021-11-20T08:52:18Z</time>
      </trkpt>
      <trkpt lat="45.97553" lon="6.45128">
        <ele>1430</ele>
        <time>2021-11-20T08:52:20Z</time>
      </trkpt>
      <trkpt lat="45.97553" lon="6.45125">
        <ele>1431</ele>
        <time>2021-11-20T08:52:23Z</time>
      </trkpt>
      <trkpt lat="45.97552" lon="6.45122">
        <ele>1431</ele>
        <time>2021-11-20T08:52:26Z</time>
      </trkpt>
      <trkpt lat="45.97552" lon="6.4512">
        <ele>1431</ele>
        <time>2021-11-20T08:52:30Z</time>
      </trkpt>
      <trkpt lat="45.9755" lon="6.45118">
        <ele>1432</ele>
        <time>2021-11-20T08:52:34Z</time>
      </trkpt>
      <trkpt lat="45.97548" lon="6.45118">
        <ele>1432</ele>
        <time>2021-11-20T08:52:38Z</time>
      </trkpt>
      <trkpt lat="45.97545" lon="6.45118">
        <ele>1432</ele>
        <time>2021-11-20T08:52:41Z</time>
      </trkpt>
      <trkpt lat="45.97544" lon="6.45117">
        <ele>1432</ele>
        <time>2021-11-20T08:52:43Z</time>
      </trkpt>
      <trkpt lat="45.97542" lon="6.45115">
        <ele>1432</ele>
        <time>2021-11-20T08:52:46Z</time>
      </trkpt>
      <trkpt lat="45.97539" lon="6.45113">
        <ele>1432</ele>
        <time>2021-11-20T08:52:49Z</time>
      </trkpt>
      <trkpt lat="45.97538" lon="6.4511">
        <ele>1433</ele>
        <time>2021-11-20T08:52:52Z</time>
      </trkpt>
      <trkpt lat="45.97536" lon="6.45108">
        <ele>1433</ele>
        <time>2021-11-20T08:52:55Z</time>
      </trkpt>
      <trkpt lat="45.97534" lon="6.45106">
        <ele>1433</ele>
        <time>2021-11-20T08:52:57Z</time>
      </trkpt>
      <trkpt lat="45.97532" lon="6.45104">
        <ele>1433</ele>
        <time>2021-11-20T08:53:00Z</time>
      </trkpt>
      <trkpt lat="45.9753" lon="6.45102">
        <ele>1435</ele>
        <time>2021-11-20T08:53:03Z</time>
      </trkpt>
      <trkpt lat="45.97528" lon="6.451">
        <ele>1435</ele>
        <time>2021-11-20T08:53:06Z</time>
      </trkpt>
      <trkpt lat="45.97527" lon="6.45098">
        <ele>1435</ele>
        <time>2021-11-20T08:53:09Z</time>
      </trkpt>
      <trkpt lat="45.97525" lon="6.45096">
        <ele>1435</ele>
        <time>2021-11-20T08:53:12Z</time>
      </trkpt>
      <trkpt lat="45.97523" lon="6.45094">
        <ele>1435</ele>
        <time>2021-11-20T08:53:15Z</time>
      </trkpt>
      <trkpt lat="45.97521" lon="6.45092">
        <ele>1436</ele>
        <time>2021-11-20T08:53:18Z</time>
      </trkpt>
      <trkpt lat="45.97519" lon="6.45089">
        <ele>1436</ele>
        <time>2021-11-20T08:53:22Z</time>
      </trkpt>
      <trkpt lat="45.97518" lon="6.45087">
        <ele>1437</ele>
        <time>2021-11-20T08:53:24Z</time>
      </trkpt>
      <trkpt lat="45.97517" lon="6.45085">
        <ele>1437</ele>
        <time>2021-11-20T08:53:27Z</time>
      </trkpt>
      <trkpt lat="45.97515" lon="6.45081">
        <ele>1438</ele>
        <time>2021-11-20T08:53:31Z</time>
      </trkpt>
      <trkpt lat="45.97514" lon="6.45078">
        <ele>1439</ele>
        <time>2021-11-20T08:53:34Z</time>
      </trkpt>
      <trkpt lat="45.97513" lon="6.45076">
        <ele>1439</ele>
        <time>2021-11-20T08:53:36Z</time>
      </trkpt>
      <trkpt lat="45.97511" lon="6.45073">
        <ele>1439</ele>
        <time>2021-11-20T08:53:39Z</time>
      </trkpt>
      <trkpt lat="45.9751" lon="6.4507">
        <ele>1440</ele>
        <time>2021-11-20T08:53:42Z</time>
      </trkpt>
      <trkpt lat="45.97509" lon="6.45067">
        <ele>1440</ele>
        <time>2021-11-20T08:53:45Z</time>
      </trkpt>
      <trkpt lat="45.97508" lon="6.45065">
        <ele>1440</ele>
        <time>2021-11-20T08:53:48Z</time>
      </trkpt>
      <trkpt lat="45.97506" lon="6.45062">
        <ele>1440</ele>
        <time>2021-11-20T08:53:52Z</time>
      </trkpt>
      <trkpt lat="45.97505" lon="6.45059">
        <ele>1441</ele>
        <time>2021-11-20T08:53:56Z</time>
      </trkpt>
      <trkpt lat="45.97505" lon="6.45057">
        <ele>1442</ele>
        <time>2021-11-20T08:53:59Z</time>
      </trkpt>
      <trkpt lat="45.97505" lon="6.45054">
        <ele>1442</ele>
        <time>2021-11-20T08:54:02Z</time>
      </trkpt>
      <trkpt lat="45.97505" lon="6.45051">
        <ele>1443</ele>
        <time>2021-11-20T08:54:05Z</time>
      </trkpt>
      <trkpt lat="45.97505" lon="6.45048">
        <ele>1443</ele>
        <time>2021-11-20T08:54:08Z</time>
      </trkpt>
      <trkpt lat="45.97507" lon="6.45047">
        <ele>1443</ele>
        <time>2021-11-20T08:54:11Z</time>
      </trkpt>
      <trkpt lat="45.9751" lon="6.45046">
        <ele>1444</ele>
        <time>2021-11-20T08:54:13Z</time>
      </trkpt>
      <trkpt lat="45.97512" lon="6.45047">
        <ele>1444</ele>
        <time>2021-11-20T08:54:17Z</time>
      </trkpt>
      <trkpt lat="45.97513" lon="6.45048">
        <ele>1444</ele>
        <time>2021-11-20T08:54:19Z</time>
      </trkpt>
      <trkpt lat="45.97516" lon="6.45048">
        <ele>1445</ele>
        <time>2021-11-20T08:54:22Z</time>
      </trkpt>
      <trkpt lat="45.97518" lon="6.45049">
        <ele>1445</ele>
        <time>2021-11-20T08:54:24Z</time>
      </trkpt>
      <trkpt lat="45.9752" lon="6.4505">
        <ele>1445</ele>
        <time>2021-11-20T08:54:28Z</time>
      </trkpt>
      <trkpt lat="45.97522" lon="6.45049">
        <ele>1446</ele>
        <time>2021-11-20T08:54:34Z</time>
      </trkpt>
      <trkpt lat="45.97521" lon="6.45046">
        <ele>1447</ele>
        <time>2021-11-20T08:54:37Z</time>
      </trkpt>
      <trkpt lat="45.97521" lon="6.45043">
        <ele>1447</ele>
        <time>2021-11-20T08:54:43Z</time>
      </trkpt>
      <trkpt lat="45.9752" lon="6.45041">
        <ele>1447</ele>
        <time>2021-11-20T08:54:47Z</time>
      </trkpt>
      <trkpt lat="45.97519" lon="6.45038">
        <ele>1447</ele>
        <time>2021-11-20T08:54:50Z</time>
      </trkpt>
      <trkpt lat="45.97519" lon="6.45035">
        <ele>1448</ele>
        <time>2021-11-20T08:54:54Z</time>
      </trkpt>
      <trkpt lat="45.97518" lon="6.45032">
        <ele>1448</ele>
        <time>2021-11-20T08:54:57Z</time>
      </trkpt>
      <trkpt lat="45.97517" lon="6.45028">
        <ele>1448</ele>
        <time>2021-11-20T08:55:00Z</time>
      </trkpt>
      <trkpt lat="45.97516" lon="6.45026">
        <ele>1448</ele>
        <time>2021-11-20T08:55:02Z</time>
      </trkpt>
      <trkpt lat="45.97515" lon="6.45023">
        <ele>1448</ele>
        <time>2021-11-20T08:55:04Z</time>
      </trkpt>
      <trkpt lat="45.97514" lon="6.4502">
        <ele>1449</ele>
        <time>2021-11-20T08:55:07Z</time>
      </trkpt>
      <trkpt lat="45.97513" lon="6.45018">
        <ele>1449</ele>
        <time>2021-11-20T08:55:09Z</time>
      </trkpt>
      <trkpt lat="45.97513" lon="6.45015">
        <ele>1449</ele>
        <time>2021-11-20T08:55:11Z</time>
      </trkpt>
      <trkpt lat="45.97512" lon="6.45013">
        <ele>1450</ele>
        <time>2021-11-20T08:55:13Z</time>
      </trkpt>
      <trkpt lat="45.97511" lon="6.45009">
        <ele>1450</ele>
        <time>2021-11-20T08:55:16Z</time>
      </trkpt>
      <trkpt lat="45.9751" lon="6.45007">
        <ele>1451</ele>
        <time>2021-11-20T08:55:18Z</time>
      </trkpt>
      <trkpt lat="45.9751" lon="6.45004">
        <ele>1450</ele>
        <time>2021-11-20T08:55:20Z</time>
      </trkpt>
      <trkpt lat="45.97509" lon="6.45002">
        <ele>1450</ele>
        <time>2021-11-20T08:55:22Z</time>
      </trkpt>
      <trkpt lat="45.97508" lon="6.44999">
        <ele>1450</ele>
        <time>2021-11-20T08:55:25Z</time>
      </trkpt>
      <trkpt lat="45.97506" lon="6.44996">
        <ele>1451</ele>
        <time>2021-11-20T08:55:28Z</time>
      </trkpt>
      <trkpt lat="45.97505" lon="6.44992">
        <ele>1451</ele>
        <time>2021-11-20T08:55:31Z</time>
      </trkpt>
      <trkpt lat="45.97504" lon="6.44989">
        <ele>1451</ele>
        <time>2021-11-20T08:55:34Z</time>
      </trkpt>
      <trkpt lat="45.97503" lon="6.44987">
        <ele>1451</ele>
        <time>2021-11-20T08:55:36Z</time>
      </trkpt>
      <trkpt lat="45.97501" lon="6.44984">
        <ele>1452</ele>
        <time>2021-11-20T08:55:39Z</time>
      </trkpt>
      <trkpt lat="45.975" lon="6.44981">
        <ele>1452</ele>
        <time>2021-11-20T08:55:42Z</time>
      </trkpt>
      <trkpt lat="45.97498" lon="6.44979">
        <ele>1452</ele>
        <time>2021-11-20T08:55:45Z</time>
      </trkpt>
      <trkpt lat="45.97497" lon="6.44976">
        <ele>1453</ele>
        <time>2021-11-20T08:55:47Z</time>
      </trkpt>
      <trkpt lat="45.97496" lon="6.44973">
        <ele>1453</ele>
        <time>2021-11-20T08:55:50Z</time>
      </trkpt>
      <trkpt lat="45.97494" lon="6.4497">
        <ele>1453</ele>
        <time>2021-11-20T08:55:53Z</time>
      </trkpt>
      <trkpt lat="45.97493" lon="6.44968">
        <ele>1453</ele>
        <time>2021-11-20T08:55:55Z</time>
      </trkpt>
      <trkpt lat="45.97493" lon="6.44965">
        <ele>1454</ele>
        <time>2021-11-20T08:55:57Z</time>
      </trkpt>
      <trkpt lat="45.97491" lon="6.44962">
        <ele>1454</ele>
        <time>2021-11-20T08:56:00Z</time>
      </trkpt>
      <trkpt lat="45.97491" lon="6.44959">
        <ele>1454</ele>
        <time>2021-11-20T08:56:02Z</time>
      </trkpt>
      <trkpt lat="45.9749" lon="6.44956">
        <ele>1454</ele>
        <time>2021-11-20T08:56:05Z</time>
      </trkpt>
      <trkpt lat="45.97489" lon="6.44952">
        <ele>1455</ele>
        <time>2021-11-20T08:56:08Z</time>
      </trkpt>
      <trkpt lat="45.97489" lon="6.44949">
        <ele>1455</ele>
        <time>2021-11-20T08:56:11Z</time>
      </trkpt>
      <trkpt lat="45.97488" lon="6.44946">
        <ele>1455</ele>
        <time>2021-11-20T08:56:14Z</time>
      </trkpt>
      <trkpt lat="45.97488" lon="6.44943">
        <ele>1456</ele>
        <time>2021-11-20T08:56:17Z</time>
      </trkpt>
      <trkpt lat="45.97488" lon="6.4494">
        <ele>1457</ele>
        <time>2021-11-20T08:56:20Z</time>
      </trkpt>
      <trkpt lat="45.97488" lon="6.44936">
        <ele>1457</ele>
        <time>2021-11-20T08:56:23Z</time>
      </trkpt>
      <trkpt lat="45.97488" lon="6.44933">
        <ele>1457</ele>
        <time>2021-11-20T08:56:26Z</time>
      </trkpt>
      <trkpt lat="45.97488" lon="6.44929">
        <ele>1457</ele>
        <time>2021-11-20T08:56:29Z</time>
      </trkpt>
      <trkpt lat="45.97487" lon="6.44926">
        <ele>1458</ele>
        <time>2021-11-20T08:56:33Z</time>
      </trkpt>
      <trkpt lat="45.97488" lon="6.44923">
        <ele>1459</ele>
        <time>2021-11-20T08:56:37Z</time>
      </trkpt>
      <trkpt lat="45.97488" lon="6.4492">
        <ele>1459</ele>
        <time>2021-11-20T08:56:40Z</time>
      </trkpt>
      <trkpt lat="45.97488" lon="6.44917">
        <ele>1459</ele>
        <time>2021-11-20T08:56:43Z</time>
      </trkpt>
      <trkpt lat="45.97487" lon="6.44915">
        <ele>1460</ele>
        <time>2021-11-20T08:56:46Z</time>
      </trkpt>
      <trkpt lat="45.97486" lon="6.44911">
        <ele>1460</ele>
        <time>2021-11-20T08:56:49Z</time>
      </trkpt>
      <trkpt lat="45.97485" lon="6.44907">
        <ele>1460</ele>
        <time>2021-11-20T08:56:52Z</time>
      </trkpt>
      <trkpt lat="45.97485" lon="6.44905">
        <ele>1460</ele>
        <time>2021-11-20T08:56:54Z</time>
      </trkpt>
      <trkpt lat="45.97485" lon="6.44902">
        <ele>1461</ele>
        <time>2021-11-20T08:56:57Z</time>
      </trkpt>
      <trkpt lat="45.97486" lon="6.44899">
        <ele>1462</ele>
        <time>2021-11-20T08:57:01Z</time>
      </trkpt>
      <trkpt lat="45.97488" lon="6.449">
        <ele>1463</ele>
        <time>2021-11-20T08:57:04Z</time>
      </trkpt>
      <trkpt lat="45.9749" lon="6.44902">
        <ele>1463</ele>
        <time>2021-11-20T08:57:07Z</time>
      </trkpt>
      <trkpt lat="45.97492" lon="6.44904">
        <ele>1463</ele>
        <time>2021-11-20T08:57:10Z</time>
      </trkpt>
      <trkpt lat="45.97494" lon="6.44907">
        <ele>1463</ele>
        <time>2021-11-20T08:57:13Z</time>
      </trkpt>
      <trkpt lat="45.97496" lon="6.44909">
        <ele>1463</ele>
        <time>2021-11-20T08:57:16Z</time>
      </trkpt>
      <trkpt lat="45.97497" lon="6.44911">
        <ele>1463</ele>
        <time>2021-11-20T08:57:19Z</time>
      </trkpt>
      <trkpt lat="45.975" lon="6.44913">
        <ele>1463</ele>
        <time>2021-11-20T08:57:22Z</time>
      </trkpt>
      <trkpt lat="45.97502" lon="6.44914">
        <ele>1463</ele>
        <time>2021-11-20T08:57:25Z</time>
      </trkpt>
      <trkpt lat="45.97503" lon="6.44916">
        <ele>1464</ele>
        <time>2021-11-20T08:57:27Z</time>
      </trkpt>
      <trkpt lat="45.97505" lon="6.44917">
        <ele>1465</ele>
        <time>2021-11-20T08:57:30Z</time>
      </trkpt>
      <trkpt lat="45.97507" lon="6.44915">
        <ele>1465</ele>
        <time>2021-11-20T08:57:35Z</time>
      </trkpt>
      <trkpt lat="45.97506" lon="6.44912">
        <ele>1465</ele>
        <time>2021-11-20T08:57:38Z</time>
      </trkpt>
      <trkpt lat="45.97506" lon="6.44909">
        <ele>1466</ele>
        <time>2021-11-20T08:57:41Z</time>
      </trkpt>
      <trkpt lat="45.97505" lon="6.44906">
        <ele>1467</ele>
        <time>2021-11-20T08:57:44Z</time>
      </trkpt>
      <trkpt lat="45.97505" lon="6.44903">
        <ele>1467</ele>
        <time>2021-11-20T08:57:47Z</time>
      </trkpt>
      <trkpt lat="45.97505" lon="6.44899">
        <ele>1468</ele>
        <time>2021-11-20T08:57:50Z</time>
      </trkpt>
      <trkpt lat="45.97504" lon="6.44896">
        <ele>1468</ele>
        <time>2021-11-20T08:57:54Z</time>
      </trkpt>
      <trkpt lat="45.97503" lon="6.44894">
        <ele>1468</ele>
        <time>2021-11-20T08:57:56Z</time>
      </trkpt>
      <trkpt lat="45.97503" lon="6.44892">
        <ele>1468</ele>
        <time>2021-11-20T08:57:59Z</time>
      </trkpt>
      <trkpt lat="45.97503" lon="6.44889">
        <ele>1469</ele>
        <time>2021-11-20T08:58:03Z</time>
      </trkpt>
      <trkpt lat="45.97502" lon="6.44886">
        <ele>1470</ele>
        <time>2021-11-20T08:58:08Z</time>
      </trkpt>
      <trkpt lat="45.97504" lon="6.44884">
        <ele>1471</ele>
        <time>2021-11-20T08:58:13Z</time>
      </trkpt>
      <trkpt lat="45.97505" lon="6.44881">
        <ele>1473</ele>
        <time>2021-11-20T08:58:20Z</time>
      </trkpt>
      <trkpt lat="45.97504" lon="6.44879">
        <ele>1473</ele>
        <time>2021-11-20T08:58:25Z</time>
      </trkpt>
      <trkpt lat="45.97502" lon="6.44877">
        <ele>1474</ele>
        <time>2021-11-20T08:58:30Z</time>
      </trkpt>
      <trkpt lat="45.97501" lon="6.44874">
        <ele>1475</ele>
        <time>2021-11-20T08:58:35Z</time>
      </trkpt>
      <trkpt lat="45.97501" lon="6.44871">
        <ele>1475</ele>
        <time>2021-11-20T08:58:40Z</time>
      </trkpt>
      <trkpt lat="45.975" lon="6.44868">
        <ele>1476</ele>
        <time>2021-11-20T08:58:45Z</time>
      </trkpt>
      <trkpt lat="45.975" lon="6.44866">
        <ele>1477</ele>
        <time>2021-11-20T08:58:49Z</time>
      </trkpt>
      <trkpt lat="45.97499" lon="6.44862">
        <ele>1478</ele>
        <time>2021-11-20T08:58:53Z</time>
      </trkpt>
      <trkpt lat="45.97499" lon="6.44859">
        <ele>1478</ele>
        <time>2021-11-20T08:58:57Z</time>
      </trkpt>
      <trkpt lat="45.97498" lon="6.44857">
        <ele>1479</ele>
        <time>2021-11-20T08:59:02Z</time>
      </trkpt>
      <trkpt lat="45.97498" lon="6.44854">
        <ele>1479</ele>
        <time>2021-11-20T08:59:07Z</time>
      </trkpt>
      <trkpt lat="45.97497" lon="6.44851">
        <ele>1479</ele>
        <time>2021-11-20T08:59:11Z</time>
      </trkpt>
      <trkpt lat="45.97496" lon="6.44848">
        <ele>1480</ele>
        <time>2021-11-20T08:59:15Z</time>
      </trkpt>
      <trkpt lat="45.97496" lon="6.44845">
        <ele>1480</ele>
        <time>2021-11-20T08:59:18Z</time>
      </trkpt>
      <trkpt lat="45.97495" lon="6.44842">
        <ele>1481</ele>
        <time>2021-11-20T08:59:22Z</time>
      </trkpt>
      <trkpt lat="45.97495" lon="6.4484">
        <ele>1481</ele>
        <time>2021-11-20T08:59:26Z</time>
      </trkpt>
      <trkpt lat="45.97494" lon="6.44836">
        <ele>1482</ele>
        <time>2021-11-20T08:59:30Z</time>
      </trkpt>
      <trkpt lat="45.97493" lon="6.44834">
        <ele>1482</ele>
        <time>2021-11-20T08:59:33Z</time>
      </trkpt>
      <trkpt lat="45.97492" lon="6.44832">
        <ele>1483</ele>
        <time>2021-11-20T08:59:36Z</time>
      </trkpt>
      <trkpt lat="45.97491" lon="6.44829">
        <ele>1483</ele>
        <time>2021-11-20T08:59:39Z</time>
      </trkpt>
      <trkpt lat="45.97491" lon="6.44826">
        <ele>1483</ele>
        <time>2021-11-20T08:59:42Z</time>
      </trkpt>
      <trkpt lat="45.9749" lon="6.44823">
        <ele>1484</ele>
        <time>2021-11-20T08:59:46Z</time>
      </trkpt>
      <trkpt lat="45.9749" lon="6.4482">
        <ele>1485</ele>
        <time>2021-11-20T08:59:50Z</time>
      </trkpt>
      <trkpt lat="45.97489" lon="6.44818">
        <ele>1485</ele>
        <time>2021-11-20T08:59:53Z</time>
      </trkpt>
      <trkpt lat="45.97489" lon="6.44814">
        <ele>1485</ele>
        <time>2021-11-20T08:59:58Z</time>
      </trkpt>
      <trkpt lat="45.97489" lon="6.44811">
        <ele>1486</ele>
        <time>2021-11-20T09:00:01Z</time>
      </trkpt>
      <trkpt lat="45.97487" lon="6.44808">
        <ele>1486</ele>
        <time>2021-11-20T09:00:04Z</time>
      </trkpt>
      <trkpt lat="45.97487" lon="6.44805">
        <ele>1486</ele>
        <time>2021-11-20T09:00:07Z</time>
      </trkpt>
      <trkpt lat="45.97487" lon="6.44802">
        <ele>1487</ele>
        <time>2021-11-20T09:00:11Z</time>
      </trkpt>
      <trkpt lat="45.97487" lon="6.44799">
        <ele>1487</ele>
        <time>2021-11-20T09:00:14Z</time>
      </trkpt>
      <trkpt lat="45.97487" lon="6.44796">
        <ele>1487</ele>
        <time>2021-11-20T09:00:17Z</time>
      </trkpt>
      <trkpt lat="45.97488" lon="6.44792">
        <ele>1488</ele>
        <time>2021-11-20T09:00:20Z</time>
      </trkpt>
      <trkpt lat="45.97489" lon="6.4479">
        <ele>1488</ele>
        <time>2021-11-20T09:00:23Z</time>
      </trkpt>
      <trkpt lat="45.9749" lon="6.44787">
        <ele>1488</ele>
        <time>2021-11-20T09:00:26Z</time>
      </trkpt>
      <trkpt lat="45.97491" lon="6.44784">
        <ele>1489</ele>
        <time>2021-11-20T09:00:29Z</time>
      </trkpt>
      <trkpt lat="45.97491" lon="6.44781">
        <ele>1489</ele>
        <time>2021-11-20T09:00:32Z</time>
      </trkpt>
      <trkpt lat="45.97492" lon="6.44778">
        <ele>1489</ele>
        <time>2021-11-20T09:00:35Z</time>
      </trkpt>
      <trkpt lat="45.97493" lon="6.44776">
        <ele>1489</ele>
        <time>2021-11-20T09:00:38Z</time>
      </trkpt>
      <trkpt lat="45.97494" lon="6.44773">
        <ele>1490</ele>
        <time>2021-11-20T09:00:41Z</time>
      </trkpt>
      <trkpt lat="45.97495" lon="6.44771">
        <ele>1490</ele>
        <time>2021-11-20T09:00:44Z</time>
      </trkpt>
      <trkpt lat="45.97496" lon="6.44768">
        <ele>1490</ele>
        <time>2021-11-20T09:00:47Z</time>
      </trkpt>
      <trkpt lat="45.97498" lon="6.44766">
        <ele>1490</ele>
        <time>2021-11-20T09:00:49Z</time>
      </trkpt>
      <trkpt lat="45.97499" lon="6.44764">
        <ele>1490</ele>
        <time>2021-11-20T09:00:52Z</time>
      </trkpt>
      <trkpt lat="45.97501" lon="6.44761">
        <ele>1490</ele>
        <time>2021-11-20T09:00:55Z</time>
      </trkpt>
      <trkpt lat="45.97502" lon="6.44759">
        <ele>1490</ele>
        <time>2021-11-20T09:00:57Z</time>
      </trkpt>
      <trkpt lat="45.97504" lon="6.44757">
        <ele>1490</ele>
        <time>2021-11-20T09:00:59Z</time>
      </trkpt>
      <trkpt lat="45.97505" lon="6.44756">
        <ele>1490</ele>
        <time>2021-11-20T09:01:01Z</time>
      </trkpt>
      <trkpt lat="45.97507" lon="6.44753">
        <ele>1490</ele>
        <time>2021-11-20T09:01:04Z</time>
      </trkpt>
      <trkpt lat="45.97508" lon="6.44752">
        <ele>1490</ele>
        <time>2021-11-20T09:01:06Z</time>
      </trkpt>
      <trkpt lat="45.9751" lon="6.44749">
        <ele>1490</ele>
        <time>2021-11-20T09:01:09Z</time>
      </trkpt>
      <trkpt lat="45.97511" lon="6.44747">
        <ele>1489</ele>
        <time>2021-11-20T09:01:11Z</time>
      </trkpt>
      <trkpt lat="45.97512" lon="6.44744">
        <ele>1489</ele>
        <time>2021-11-20T09:01:14Z</time>
      </trkpt>
      <trkpt lat="45.97513" lon="6.44741">
        <ele>1490</ele>
        <time>2021-11-20T09:01:18Z</time>
      </trkpt>
      <trkpt lat="45.97512" lon="6.44738">
        <ele>1490</ele>
        <time>2021-11-20T09:01:23Z</time>
      </trkpt>
      <trkpt lat="45.97511" lon="6.44736">
        <ele>1490</ele>
        <time>2021-11-20T09:01:29Z</time>
      </trkpt>
      <trkpt lat="45.97509" lon="6.44733">
        <ele>1491</ele>
        <time>2021-11-20T09:01:33Z</time>
      </trkpt>
      <trkpt lat="45.97508" lon="6.44731">
        <ele>1491</ele>
        <time>2021-11-20T09:01:37Z</time>
      </trkpt>
      <trkpt lat="45.97507" lon="6.44728">
        <ele>1492</ele>
        <time>2021-11-20T09:01:41Z</time>
      </trkpt>
      <trkpt lat="45.97506" lon="6.44726">
        <ele>1492</ele>
        <time>2021-11-20T09:01:44Z</time>
      </trkpt>
      <trkpt lat="45.97505" lon="6.44724">
        <ele>1493</ele>
        <time>2021-11-20T09:01:47Z</time>
      </trkpt>
      <trkpt lat="45.97504" lon="6.44721">
        <ele>1493</ele>
        <time>2021-11-20T09:01:52Z</time>
      </trkpt>
      <trkpt lat="45.97503" lon="6.44718">
        <ele>1494</ele>
        <time>2021-11-20T09:01:56Z</time>
      </trkpt>
      <trkpt lat="45.97503" lon="6.44715">
        <ele>1495</ele>
        <time>2021-11-20T09:02:00Z</time>
      </trkpt>
      <trkpt lat="45.97502" lon="6.44713">
        <ele>1495</ele>
        <time>2021-11-20T09:02:04Z</time>
      </trkpt>
      <trkpt lat="45.97501" lon="6.4471">
        <ele>1495</ele>
        <time>2021-11-20T09:02:07Z</time>
      </trkpt>
      <trkpt lat="45.975" lon="6.44708">
        <ele>1496</ele>
        <time>2021-11-20T09:02:10Z</time>
      </trkpt>
      <trkpt lat="45.975" lon="6.44705">
        <ele>1496</ele>
        <time>2021-11-20T09:02:14Z</time>
      </trkpt>
      <trkpt lat="45.97499" lon="6.44702">
        <ele>1496</ele>
        <time>2021-11-20T09:02:19Z</time>
      </trkpt>
      <trkpt lat="45.97498" lon="6.447">
        <ele>1496</ele>
        <time>2021-11-20T09:02:23Z</time>
      </trkpt>
      <trkpt lat="45.97498" lon="6.44698">
        <ele>1496</ele>
        <time>2021-11-20T09:02:28Z</time>
      </trkpt>
      <trkpt lat="45.97498" lon="6.44695">
        <ele>1496</ele>
        <time>2021-11-20T09:03:24Z</time>
      </trkpt>
      <trkpt lat="45.97499" lon="6.44692">
        <ele>1496</ele>
        <time>2021-11-20T09:03:27Z</time>
      </trkpt>
      <trkpt lat="45.97499" lon="6.44689">
        <ele>1497</ele>
        <time>2021-11-20T09:03:31Z</time>
      </trkpt>
      <trkpt lat="45.975" lon="6.44686">
        <ele>1497</ele>
        <time>2021-11-20T09:03:34Z</time>
      </trkpt>
      <trkpt lat="45.975" lon="6.44683">
        <ele>1497</ele>
        <time>2021-11-20T09:03:37Z</time>
      </trkpt>
      <trkpt lat="45.975" lon="6.44681">
        <ele>1497</ele>
        <time>2021-11-20T09:03:40Z</time>
      </trkpt>
      <trkpt lat="45.97501" lon="6.44678">
        <ele>1497</ele>
        <time>2021-11-20T09:03:43Z</time>
      </trkpt>
      <trkpt lat="45.97501" lon="6.44675">
        <ele>1497</ele>
        <time>2021-11-20T09:03:46Z</time>
      </trkpt>
      <trkpt lat="45.97502" lon="6.44672">
        <ele>1497</ele>
        <time>2021-11-20T09:03:49Z</time>
      </trkpt>
      <trkpt lat="45.97504" lon="6.4467">
        <ele>1497</ele>
        <time>2021-11-20T09:03:53Z</time>
      </trkpt>
      <trkpt lat="45.97505" lon="6.44667">
        <ele>1498</ele>
        <time>2021-11-20T09:03:57Z</time>
      </trkpt>
      <trkpt lat="45.97505" lon="6.44665">
        <ele>1498</ele>
        <time>2021-11-20T09:04:00Z</time>
      </trkpt>
      <trkpt lat="45.97506" lon="6.44662">
        <ele>1499</ele>
        <time>2021-11-20T09:04:03Z</time>
      </trkpt>
      <trkpt lat="45.97507" lon="6.44659">
        <ele>1499</ele>
        <time>2021-11-20T09:04:06Z</time>
      </trkpt>
      <trkpt lat="45.97509" lon="6.44656">
        <ele>1499</ele>
        <time>2021-11-20T09:04:09Z</time>
      </trkpt>
      <trkpt lat="45.9751" lon="6.44654">
        <ele>1499</ele>
        <time>2021-11-20T09:04:12Z</time>
      </trkpt>
      <trkpt lat="45.9751" lon="6.44651">
        <ele>1500</ele>
        <time>2021-11-20T09:04:16Z</time>
      </trkpt>
      <trkpt lat="45.97511" lon="6.44648">
        <ele>1500</ele>
        <time>2021-11-20T09:04:20Z</time>
      </trkpt>
      <trkpt lat="45.97509" lon="6.44646">
        <ele>1500</ele>
        <time>2021-11-20T09:04:25Z</time>
      </trkpt>
      <trkpt lat="45.97507" lon="6.44645">
        <ele>1501</ele>
        <time>2021-11-20T09:04:29Z</time>
      </trkpt>
      <trkpt lat="45.97505" lon="6.44644">
        <ele>1501</ele>
        <time>2021-11-20T09:04:32Z</time>
      </trkpt>
      <trkpt lat="45.97504" lon="6.44641">
        <ele>1501</ele>
        <time>2021-11-20T09:04:36Z</time>
      </trkpt>
      <trkpt lat="45.97505" lon="6.44638">
        <ele>1501</ele>
        <time>2021-11-20T09:04:40Z</time>
      </trkpt>
      <trkpt lat="45.97507" lon="6.44636">
        <ele>1502</ele>
        <time>2021-11-20T09:04:43Z</time>
      </trkpt>
      <trkpt lat="45.97509" lon="6.44635">
        <ele>1502</ele>
        <time>2021-11-20T09:04:46Z</time>
      </trkpt>
      <trkpt lat="45.97511" lon="6.44634">
        <ele>1502</ele>
        <time>2021-11-20T09:04:50Z</time>
      </trkpt>
      <trkpt lat="45.97513" lon="6.44633">
        <ele>1502</ele>
        <time>2021-11-20T09:04:53Z</time>
      </trkpt>
      <trkpt lat="45.97515" lon="6.44631">
        <ele>1503</ele>
        <time>2021-11-20T09:04:59Z</time>
      </trkpt>
      <trkpt lat="45.97516" lon="6.44629">
        <ele>1503</ele>
        <time>2021-11-20T09:05:04Z</time>
      </trkpt>
      <trkpt lat="45.97518" lon="6.44627">
        <ele>1504</ele>
        <time>2021-11-20T09:05:08Z</time>
      </trkpt>
      <trkpt lat="45.97517" lon="6.44624">
        <ele>1504</ele>
        <time>2021-11-20T09:05:15Z</time>
      </trkpt>
      <trkpt lat="45.97516" lon="6.44621">
        <ele>1505</ele>
        <time>2021-11-20T09:05:20Z</time>
      </trkpt>
      <trkpt lat="45.97517" lon="6.44618">
        <ele>1506</ele>
        <time>2021-11-20T09:05:25Z</time>
      </trkpt>
      <trkpt lat="45.97517" lon="6.44616">
        <ele>1506</ele>
        <time>2021-11-20T09:05:30Z</time>
      </trkpt>
      <trkpt lat="45.97516" lon="6.44613">
        <ele>1507</ele>
        <time>2021-11-20T09:05:35Z</time>
      </trkpt>
      <trkpt lat="45.97516" lon="6.4461">
        <ele>1508</ele>
        <time>2021-11-20T09:05:39Z</time>
      </trkpt>
      <trkpt lat="45.97515" lon="6.44607">
        <ele>1508</ele>
        <time>2021-11-20T09:05:44Z</time>
      </trkpt>
      <trkpt lat="45.97515" lon="6.44604">
        <ele>1510</ele>
        <time>2021-11-20T09:05:49Z</time>
      </trkpt>
      <trkpt lat="45.97513" lon="6.44602">
        <ele>1509</ele>
        <time>2021-11-20T09:05:53Z</time>
      </trkpt>
      <trkpt lat="45.97512" lon="6.446">
        <ele>1511</ele>
        <time>2021-11-20T09:05:57Z</time>
      </trkpt>
      <trkpt lat="45.97511" lon="6.44597">
        <ele>1511</ele>
        <time>2021-11-20T09:06:01Z</time>
      </trkpt>
      <trkpt lat="45.97511" lon="6.44594">
        <ele>1511</ele>
        <time>2021-11-20T09:06:05Z</time>
      </trkpt>
      <trkpt lat="45.9751" lon="6.44592">
        <ele>1511</ele>
        <time>2021-11-20T09:06:09Z</time>
      </trkpt>
      <trkpt lat="45.9751" lon="6.44589">
        <ele>1513</ele>
        <time>2021-11-20T09:06:13Z</time>
      </trkpt>
      <trkpt lat="45.97509" lon="6.44586">
        <ele>1513</ele>
        <time>2021-11-20T09:06:17Z</time>
      </trkpt>
      <trkpt lat="45.97508" lon="6.44584">
        <ele>1513</ele>
        <time>2021-11-20T09:06:20Z</time>
      </trkpt>
      <trkpt lat="45.97506" lon="6.44582">
        <ele>1514</ele>
        <time>2021-11-20T09:06:24Z</time>
      </trkpt>
      <trkpt lat="45.97505" lon="6.4458">
        <ele>1514</ele>
        <time>2021-11-20T09:06:27Z</time>
      </trkpt>
      <trkpt lat="45.97503" lon="6.44577">
        <ele>1515</ele>
        <time>2021-11-20T09:06:31Z</time>
      </trkpt>
      <trkpt lat="45.97502" lon="6.44575">
        <ele>1515</ele>
        <time>2021-11-20T09:06:35Z</time>
      </trkpt>
      <trkpt lat="45.97501" lon="6.44572">
        <ele>1516</ele>
        <time>2021-11-20T09:06:39Z</time>
      </trkpt>
      <trkpt lat="45.97499" lon="6.4457">
        <ele>1516</ele>
        <time>2021-11-20T09:06:43Z</time>
      </trkpt>
      <trkpt lat="45.97498" lon="6.44568">
        <ele>1517</ele>
        <time>2021-11-20T09:06:47Z</time>
      </trkpt>
      <trkpt lat="45.97497" lon="6.44565">
        <ele>1517</ele>
        <time>2021-11-20T09:06:51Z</time>
      </trkpt>
      <trkpt lat="45.97496" lon="6.44562">
        <ele>1517</ele>
        <time>2021-11-20T09:06:55Z</time>
      </trkpt>
      <trkpt lat="45.97495" lon="6.44559">
        <ele>1517</ele>
        <time>2021-11-20T09:06:59Z</time>
      </trkpt>
      <trkpt lat="45.97495" lon="6.44556">
        <ele>1518</ele>
        <time>2021-11-20T09:07:03Z</time>
      </trkpt>
      <trkpt lat="45.97495" lon="6.44554">
        <ele>1518</ele>
        <time>2021-11-20T09:07:07Z</time>
      </trkpt>
      <trkpt lat="45.97493" lon="6.44551">
        <ele>1519</ele>
        <time>2021-11-20T09:07:12Z</time>
      </trkpt>
      <trkpt lat="45.97493" lon="6.44548">
        <ele>1520</ele>
        <time>2021-11-20T09:07:16Z</time>
      </trkpt>
      <trkpt lat="45.97493" lon="6.44546">
        <ele>1520</ele>
        <time>2021-11-20T09:07:19Z</time>
      </trkpt>
      <trkpt lat="45.97493" lon="6.44543">
        <ele>1519</ele>
        <time>2021-11-20T09:07:22Z</time>
      </trkpt>
      <trkpt lat="45.97493" lon="6.4454">
        <ele>1520</ele>
        <time>2021-11-20T09:07:26Z</time>
      </trkpt>
      <trkpt lat="45.97493" lon="6.44538">
        <ele>1520</ele>
        <time>2021-11-20T09:07:29Z</time>
      </trkpt>
      <trkpt lat="45.97493" lon="6.44535">
        <ele>1520</ele>
        <time>2021-11-20T09:07:32Z</time>
      </trkpt>
      <trkpt lat="45.97493" lon="6.44532">
        <ele>1520</ele>
        <time>2021-11-20T09:07:36Z</time>
      </trkpt>
      <trkpt lat="45.97493" lon="6.44529">
        <ele>1521</ele>
        <time>2021-11-20T09:07:39Z</time>
      </trkpt>
      <trkpt lat="45.97494" lon="6.44526">
        <ele>1521</ele>
        <time>2021-11-20T09:07:42Z</time>
      </trkpt>
      <trkpt lat="45.97494" lon="6.44523">
        <ele>1522</ele>
        <time>2021-11-20T09:07:46Z</time>
      </trkpt>
      <trkpt lat="45.97495" lon="6.4452">
        <ele>1522</ele>
        <time>2021-11-20T09:07:50Z</time>
      </trkpt>
      <trkpt lat="45.97496" lon="6.44518">
        <ele>1522</ele>
        <time>2021-11-20T09:07:53Z</time>
      </trkpt>
      <trkpt lat="45.97498" lon="6.44516">
        <ele>1522</ele>
        <time>2021-11-20T09:07:57Z</time>
      </trkpt>
      <trkpt lat="45.97499" lon="6.44514">
        <ele>1522</ele>
        <time>2021-11-20T09:08:01Z</time>
      </trkpt>
      <trkpt lat="45.97501" lon="6.44511">
        <ele>1523</ele>
        <time>2021-11-20T09:08:05Z</time>
      </trkpt>
      <trkpt lat="45.97502" lon="6.44508">
        <ele>1523</ele>
        <time>2021-11-20T09:08:08Z</time>
      </trkpt>
      <trkpt lat="45.97504" lon="6.44507">
        <ele>1523</ele>
        <time>2021-11-20T09:08:11Z</time>
      </trkpt>
      <trkpt lat="45.97506" lon="6.44505">
        <ele>1523</ele>
        <time>2021-11-20T09:08:14Z</time>
      </trkpt>
      <trkpt lat="45.97508" lon="6.44504">
        <ele>1523</ele>
        <time>2021-11-20T09:08:17Z</time>
      </trkpt>
      <trkpt lat="45.9751" lon="6.44503">
        <ele>1523</ele>
        <time>2021-11-20T09:08:20Z</time>
      </trkpt>
      <trkpt lat="45.97513" lon="6.44501">
        <ele>1523</ele>
        <time>2021-11-20T09:08:23Z</time>
      </trkpt>
      <trkpt lat="45.97514" lon="6.445">
        <ele>1523</ele>
        <time>2021-11-20T09:08:26Z</time>
      </trkpt>
      <trkpt lat="45.97516" lon="6.44498">
        <ele>1524</ele>
        <time>2021-11-20T09:08:29Z</time>
      </trkpt>
      <trkpt lat="45.97518" lon="6.44496">
        <ele>1524</ele>
        <time>2021-11-20T09:08:32Z</time>
      </trkpt>
      <trkpt lat="45.9752" lon="6.44495">
        <ele>1524</ele>
        <time>2021-11-20T09:08:35Z</time>
      </trkpt>
      <trkpt lat="45.97521" lon="6.44493">
        <ele>1524</ele>
        <time>2021-11-20T09:08:38Z</time>
      </trkpt>
      <trkpt lat="45.97523" lon="6.44492">
        <ele>1524</ele>
        <time>2021-11-20T09:08:41Z</time>
      </trkpt>
      <trkpt lat="45.97525" lon="6.44491">
        <ele>1525</ele>
        <time>2021-11-20T09:08:44Z</time>
      </trkpt>
      <trkpt lat="45.97527" lon="6.44489">
        <ele>1525</ele>
        <time>2021-11-20T09:08:47Z</time>
      </trkpt>
      <trkpt lat="45.97529" lon="6.44488">
        <ele>1525</ele>
        <time>2021-11-20T09:08:50Z</time>
      </trkpt>
      <trkpt lat="45.97531" lon="6.44486">
        <ele>1526</ele>
        <time>2021-11-20T09:08:53Z</time>
      </trkpt>
      <trkpt lat="45.97533" lon="6.44485">
        <ele>1526</ele>
        <time>2021-11-20T09:08:57Z</time>
      </trkpt>
      <trkpt lat="45.97535" lon="6.44483">
        <ele>1526</ele>
        <time>2021-11-20T09:09:00Z</time>
      </trkpt>
      <trkpt lat="45.97536" lon="6.44482">
        <ele>1526</ele>
        <time>2021-11-20T09:09:04Z</time>
      </trkpt>
      <trkpt lat="45.97538" lon="6.4448">
        <ele>1526</ele>
        <time>2021-11-20T09:09:08Z</time>
      </trkpt>
      <trkpt lat="45.9754" lon="6.44478">
        <ele>1526</ele>
        <time>2021-11-20T09:09:11Z</time>
      </trkpt>
      <trkpt lat="45.97542" lon="6.44476">
        <ele>1525</ele>
        <time>2021-11-20T09:09:14Z</time>
      </trkpt>
      <trkpt lat="45.97544" lon="6.44475">
        <ele>1526</ele>
        <time>2021-11-20T09:09:17Z</time>
      </trkpt>
      <trkpt lat="45.97546" lon="6.44473">
        <ele>1526</ele>
        <time>2021-11-20T09:09:20Z</time>
      </trkpt>
      <trkpt lat="45.97548" lon="6.44472">
        <ele>1526</ele>
        <time>2021-11-20T09:09:23Z</time>
      </trkpt>
      <trkpt lat="45.9755" lon="6.44471">
        <ele>1526</ele>
        <time>2021-11-20T09:09:26Z</time>
      </trkpt>
      <trkpt lat="45.97552" lon="6.44471">
        <ele>1526</ele>
        <time>2021-11-20T09:09:30Z</time>
      </trkpt>
      <trkpt lat="45.97554" lon="6.44471">
        <ele>1527</ele>
        <time>2021-11-20T09:09:33Z</time>
      </trkpt>
      <trkpt lat="45.97556" lon="6.44471">
        <ele>1527</ele>
        <time>2021-11-20T09:09:36Z</time>
      </trkpt>
      <trkpt lat="45.97559" lon="6.44471">
        <ele>1527</ele>
        <time>2021-11-20T09:09:39Z</time>
      </trkpt>
      <trkpt lat="45.97561" lon="6.4447">
        <ele>1527</ele>
        <time>2021-11-20T09:09:42Z</time>
      </trkpt>
      <trkpt lat="45.97563" lon="6.4447">
        <ele>1527</ele>
        <time>2021-11-20T09:09:44Z</time>
      </trkpt>
      <trkpt lat="45.97565" lon="6.44469">
        <ele>1527</ele>
        <time>2021-11-20T09:09:47Z</time>
      </trkpt>
      <trkpt lat="45.97568" lon="6.44467">
        <ele>1527</ele>
        <time>2021-11-20T09:09:51Z</time>
      </trkpt>
      <trkpt lat="45.97569" lon="6.44465">
        <ele>1527</ele>
        <time>2021-11-20T09:09:54Z</time>
      </trkpt>
      <trkpt lat="45.97571" lon="6.44464">
        <ele>1528</ele>
        <time>2021-11-20T09:09:57Z</time>
      </trkpt>
      <trkpt lat="45.97573" lon="6.44464">
        <ele>1528</ele>
        <time>2021-11-20T09:10:00Z</time>
      </trkpt>
      <trkpt lat="45.97576" lon="6.44464">
        <ele>1528</ele>
        <time>2021-11-20T09:10:03Z</time>
      </trkpt>
      <trkpt lat="45.97578" lon="6.44464">
        <ele>1528</ele>
        <time>2021-11-20T09:10:06Z</time>
      </trkpt>
      <trkpt lat="45.9758" lon="6.44465">
        <ele>1528</ele>
        <time>2021-11-20T09:10:09Z</time>
      </trkpt>
      <trkpt lat="45.97583" lon="6.44466">
        <ele>1528</ele>
        <time>2021-11-20T09:10:12Z</time>
      </trkpt>
      <trkpt lat="45.97585" lon="6.44466">
        <ele>1528</ele>
        <time>2021-11-20T09:10:15Z</time>
      </trkpt>
      <trkpt lat="45.97587" lon="6.44465">
        <ele>1528</ele>
        <time>2021-11-20T09:10:18Z</time>
      </trkpt>
      <trkpt lat="45.9759" lon="6.44465">
        <ele>1528</ele>
        <time>2021-11-20T09:10:21Z</time>
      </trkpt>
      <trkpt lat="45.97592" lon="6.44466">
        <ele>1528</ele>
        <time>2021-11-20T09:10:23Z</time>
      </trkpt>
      <trkpt lat="45.97594" lon="6.44466">
        <ele>1528</ele>
        <time>2021-11-20T09:10:26Z</time>
      </trkpt>
      <trkpt lat="45.97596" lon="6.44466">
        <ele>1528</ele>
        <time>2021-11-20T09:10:30Z</time>
      </trkpt>
      <trkpt lat="45.97598" lon="6.44465">
        <ele>1528</ele>
        <time>2021-11-20T09:10:33Z</time>
      </trkpt>
      <trkpt lat="45.976" lon="6.44464">
        <ele>1529</ele>
        <time>2021-11-20T09:10:36Z</time>
      </trkpt>
      <trkpt lat="45.97602" lon="6.44464">
        <ele>1529</ele>
        <time>2021-11-20T09:10:40Z</time>
      </trkpt>
      <trkpt lat="45.97604" lon="6.44463">
        <ele>1529</ele>
        <time>2021-11-20T09:10:43Z</time>
      </trkpt>
      <trkpt lat="45.97605" lon="6.44461">
        <ele>1529</ele>
        <time>2021-11-20T09:10:46Z</time>
      </trkpt>
      <trkpt lat="45.97607" lon="6.4446">
        <ele>1529</ele>
        <time>2021-11-20T09:10:55Z</time>
      </trkpt>
      <trkpt lat="45.97609" lon="6.4446">
        <ele>1529</ele>
        <time>2021-11-20T09:10:58Z</time>
      </trkpt>
      <trkpt lat="45.97611" lon="6.44459">
        <ele>1529</ele>
        <time>2021-11-20T09:11:01Z</time>
      </trkpt>
      <trkpt lat="45.97613" lon="6.44458">
        <ele>1529</ele>
        <time>2021-11-20T09:11:04Z</time>
      </trkpt>
      <trkpt lat="45.97615" lon="6.44457">
        <ele>1530</ele>
        <time>2021-11-20T09:11:07Z</time>
      </trkpt>
      <trkpt lat="45.97617" lon="6.44457">
        <ele>1531</ele>
        <time>2021-11-20T09:11:10Z</time>
      </trkpt>
      <trkpt lat="45.97619" lon="6.44457">
        <ele>1531</ele>
        <time>2021-11-20T09:11:14Z</time>
      </trkpt>
      <trkpt lat="45.97621" lon="6.44457">
        <ele>1531</ele>
        <time>2021-11-20T09:11:17Z</time>
      </trkpt>
      <trkpt lat="45.97623" lon="6.44457">
        <ele>1532</ele>
        <time>2021-11-20T09:11:20Z</time>
      </trkpt>
      <trkpt lat="45.97625" lon="6.44456">
        <ele>1533</ele>
        <time>2021-11-20T09:11:23Z</time>
      </trkpt>
      <trkpt lat="45.97627" lon="6.44454">
        <ele>1532</ele>
        <time>2021-11-20T09:11:26Z</time>
      </trkpt>
      <trkpt lat="45.97629" lon="6.44453">
        <ele>1533</ele>
        <time>2021-11-20T09:11:28Z</time>
      </trkpt>
      <trkpt lat="45.97632" lon="6.44452">
        <ele>1533</ele>
        <time>2021-11-20T09:11:31Z</time>
      </trkpt>
      <trkpt lat="45.97634" lon="6.4445">
        <ele>1533</ele>
        <time>2021-11-20T09:11:34Z</time>
      </trkpt>
      <trkpt lat="45.97635" lon="6.44448">
        <ele>1533</ele>
        <time>2021-11-20T09:11:37Z</time>
      </trkpt>
      <trkpt lat="45.97637" lon="6.44445">
        <ele>1533</ele>
        <time>2021-11-20T09:11:40Z</time>
      </trkpt>
      <trkpt lat="45.9764" lon="6.44444">
        <ele>1533</ele>
        <time>2021-11-20T09:11:43Z</time>
      </trkpt>
      <trkpt lat="45.97642" lon="6.44444">
        <ele>1534</ele>
        <time>2021-11-20T09:11:46Z</time>
      </trkpt>
      <trkpt lat="45.97645" lon="6.44443">
        <ele>1534</ele>
        <time>2021-11-20T09:11:49Z</time>
      </trkpt>
      <trkpt lat="45.97647" lon="6.44443">
        <ele>1534</ele>
        <time>2021-11-20T09:11:52Z</time>
      </trkpt>
      <trkpt lat="45.97649" lon="6.44444">
        <ele>1535</ele>
        <time>2021-11-20T09:11:55Z</time>
      </trkpt>
      <trkpt lat="45.97652" lon="6.44445">
        <ele>1535</ele>
        <time>2021-11-20T09:11:58Z</time>
      </trkpt>
      <trkpt lat="45.97653" lon="6.44446">
        <ele>1535</ele>
        <time>2021-11-20T09:12:00Z</time>
      </trkpt>
      <trkpt lat="45.97656" lon="6.44447">
        <ele>1535</ele>
        <time>2021-11-20T09:12:03Z</time>
      </trkpt>
      <trkpt lat="45.97658" lon="6.44448">
        <ele>1535</ele>
        <time>2021-11-20T09:12:06Z</time>
      </trkpt>
      <trkpt lat="45.97661" lon="6.44448">
        <ele>1535</ele>
        <time>2021-11-20T09:12:09Z</time>
      </trkpt>
      <trkpt lat="45.97663" lon="6.44448">
        <ele>1536</ele>
        <time>2021-11-20T09:12:12Z</time>
      </trkpt>
      <trkpt lat="45.97665" lon="6.44447">
        <ele>1537</ele>
        <time>2021-11-20T09:12:15Z</time>
      </trkpt>
      <trkpt lat="45.97667" lon="6.44446">
        <ele>1537</ele>
        <time>2021-11-20T09:12:18Z</time>
      </trkpt>
      <trkpt lat="45.97669" lon="6.44446">
        <ele>1537</ele>
        <time>2021-11-20T09:12:21Z</time>
      </trkpt>
      <trkpt lat="45.97671" lon="6.44446">
        <ele>1537</ele>
        <time>2021-11-20T09:12:24Z</time>
      </trkpt>
      <trkpt lat="45.97673" lon="6.44447">
        <ele>1538</ele>
        <time>2021-11-20T09:12:27Z</time>
      </trkpt>
      <trkpt lat="45.97676" lon="6.44446">
        <ele>1538</ele>
        <time>2021-11-20T09:12:30Z</time>
      </trkpt>
      <trkpt lat="45.97678" lon="6.44446">
        <ele>1538</ele>
        <time>2021-11-20T09:12:33Z</time>
      </trkpt>
      <trkpt lat="45.9768" lon="6.44446">
        <ele>1538</ele>
        <time>2021-11-20T09:12:36Z</time>
      </trkpt>
      <trkpt lat="45.97682" lon="6.44446">
        <ele>1537</ele>
        <time>2021-11-20T09:12:38Z</time>
      </trkpt>
      <trkpt lat="45.97683" lon="6.44446">
        <ele>1538</ele>
        <time>2021-11-20T09:12:40Z</time>
      </trkpt>
      <trkpt lat="45.97686" lon="6.44446">
        <ele>1538</ele>
        <time>2021-11-20T09:12:43Z</time>
      </trkpt>
      <trkpt lat="45.97688" lon="6.44446">
        <ele>1538</ele>
        <time>2021-11-20T09:12:45Z</time>
      </trkpt>
      <trkpt lat="45.9769" lon="6.44445">
        <ele>1538</ele>
        <time>2021-11-20T09:12:47Z</time>
      </trkpt>
      <trkpt lat="45.97692" lon="6.44445">
        <ele>1539</ele>
        <time>2021-11-20T09:12:50Z</time>
      </trkpt>
      <trkpt lat="45.97694" lon="6.44446">
        <ele>1539</ele>
        <time>2021-11-20T09:12:53Z</time>
      </trkpt>
      <trkpt lat="45.97697" lon="6.44447">
        <ele>1539</ele>
        <time>2021-11-20T09:12:56Z</time>
      </trkpt>
      <trkpt lat="45.97699" lon="6.44447">
        <ele>1540</ele>
        <time>2021-11-20T09:12:59Z</time>
      </trkpt>
      <trkpt lat="45.97701" lon="6.44447">
        <ele>1540</ele>
        <time>2021-11-20T09:13:02Z</time>
      </trkpt>
      <trkpt lat="45.97704" lon="6.44447">
        <ele>1540</ele>
        <time>2021-11-20T09:13:05Z</time>
      </trkpt>
      <trkpt lat="45.97706" lon="6.44448">
        <ele>1540</ele>
        <time>2021-11-20T09:13:08Z</time>
      </trkpt>
      <trkpt lat="45.97708" lon="6.44448">
        <ele>1540</ele>
        <time>2021-11-20T09:13:11Z</time>
      </trkpt>
      <trkpt lat="45.97711" lon="6.44447">
        <ele>1541</ele>
        <time>2021-11-20T09:13:14Z</time>
      </trkpt>
      <trkpt lat="45.97713" lon="6.44447">
        <ele>1541</ele>
        <time>2021-11-20T09:13:17Z</time>
      </trkpt>
      <trkpt lat="45.97715" lon="6.44446">
        <ele>1541</ele>
        <time>2021-11-20T09:13:20Z</time>
      </trkpt>
      <trkpt lat="45.97717" lon="6.44445">
        <ele>1541</ele>
        <time>2021-11-20T09:13:23Z</time>
      </trkpt>
      <trkpt lat="45.97719" lon="6.44443">
        <ele>1541</ele>
        <time>2021-11-20T09:13:26Z</time>
      </trkpt>
      <trkpt lat="45.97721" lon="6.44443">
        <ele>1541</ele>
        <time>2021-11-20T09:13:29Z</time>
      </trkpt>
      <trkpt lat="45.97723" lon="6.44442">
        <ele>1541</ele>
        <time>2021-11-20T09:13:32Z</time>
      </trkpt>
      <trkpt lat="45.97724" lon="6.4444">
        <ele>1541</ele>
        <time>2021-11-20T09:13:35Z</time>
      </trkpt>
      <trkpt lat="45.97726" lon="6.44438">
        <ele>1541</ele>
        <time>2021-11-20T09:13:38Z</time>
      </trkpt>
      <trkpt lat="45.97728" lon="6.44439">
        <ele>1541</ele>
        <time>2021-11-20T09:13:40Z</time>
      </trkpt>
      <trkpt lat="45.9773" lon="6.4444">
        <ele>1541</ele>
        <time>2021-11-20T09:13:43Z</time>
      </trkpt>
      <trkpt lat="45.97733" lon="6.44441">
        <ele>1541</ele>
        <time>2021-11-20T09:13:46Z</time>
      </trkpt>
      <trkpt lat="45.97735" lon="6.44441">
        <ele>1541</ele>
        <time>2021-11-20T09:13:49Z</time>
      </trkpt>
      <trkpt lat="45.97737" lon="6.44441">
        <ele>1541</ele>
        <time>2021-11-20T09:13:52Z</time>
      </trkpt>
      <trkpt lat="45.97739" lon="6.44441">
        <ele>1542</ele>
        <time>2021-11-20T09:13:55Z</time>
      </trkpt>
      <trkpt lat="45.97742" lon="6.44441">
        <ele>1543</ele>
        <time>2021-11-20T09:13:58Z</time>
      </trkpt>
      <trkpt lat="45.97744" lon="6.44441">
        <ele>1543</ele>
        <time>2021-11-20T09:14:01Z</time>
      </trkpt>
      <trkpt lat="45.97746" lon="6.44442">
        <ele>1543</ele>
        <time>2021-11-20T09:14:04Z</time>
      </trkpt>
      <trkpt lat="45.97748" lon="6.44442">
        <ele>1543</ele>
        <time>2021-11-20T09:14:07Z</time>
      </trkpt>
      <trkpt lat="45.9775" lon="6.44442">
        <ele>1544</ele>
        <time>2021-11-20T09:14:10Z</time>
      </trkpt>
      <trkpt lat="45.97753" lon="6.44442">
        <ele>1544</ele>
        <time>2021-11-20T09:14:13Z</time>
      </trkpt>
      <trkpt lat="45.97755" lon="6.44442">
        <ele>1545</ele>
        <time>2021-11-20T09:14:16Z</time>
      </trkpt>
      <trkpt lat="45.97757" lon="6.44443">
        <ele>1545</ele>
        <time>2021-11-20T09:14:19Z</time>
      </trkpt>
      <trkpt lat="45.97759" lon="6.44444">
        <ele>1545</ele>
        <time>2021-11-20T09:14:22Z</time>
      </trkpt>
      <trkpt lat="45.97761" lon="6.44443">
        <ele>1545</ele>
        <time>2021-11-20T09:14:25Z</time>
      </trkpt>
      <trkpt lat="45.97763" lon="6.44441">
        <ele>1545</ele>
        <time>2021-11-20T09:14:28Z</time>
      </trkpt>
      <trkpt lat="45.97765" lon="6.4444">
        <ele>1545</ele>
        <time>2021-11-20T09:14:31Z</time>
      </trkpt>
      <trkpt lat="45.97767" lon="6.4444">
        <ele>1545</ele>
        <time>2021-11-20T09:14:33Z</time>
      </trkpt>
      <trkpt lat="45.97769" lon="6.4444">
        <ele>1545</ele>
        <time>2021-11-20T09:14:36Z</time>
      </trkpt>
      <trkpt lat="45.97772" lon="6.4444">
        <ele>1545</ele>
        <time>2021-11-20T09:14:39Z</time>
      </trkpt>
      <trkpt lat="45.97774" lon="6.4444">
        <ele>1545</ele>
        <time>2021-11-20T09:14:42Z</time>
      </trkpt>
      <trkpt lat="45.97777" lon="6.4444">
        <ele>1545</ele>
        <time>2021-11-20T09:14:45Z</time>
      </trkpt>
      <trkpt lat="45.97779" lon="6.44439">
        <ele>1545</ele>
        <time>2021-11-20T09:14:48Z</time>
      </trkpt>
      <trkpt lat="45.97781" lon="6.44438">
        <ele>1545</ele>
        <time>2021-11-20T09:14:51Z</time>
      </trkpt>
      <trkpt lat="45.97783" lon="6.44436">
        <ele>1545</ele>
        <time>2021-11-20T09:14:54Z</time>
      </trkpt>
      <trkpt lat="45.97785" lon="6.44434">
        <ele>1545</ele>
        <time>2021-11-20T09:14:57Z</time>
      </trkpt>
      <trkpt lat="45.97787" lon="6.44432">
        <ele>1545</ele>
        <time>2021-11-20T09:14:59Z</time>
      </trkpt>
      <trkpt lat="45.97789" lon="6.44431">
        <ele>1545</ele>
        <time>2021-11-20T09:15:03Z</time>
      </trkpt>
      <trkpt lat="45.97791" lon="6.44428">
        <ele>1545</ele>
        <time>2021-11-20T09:15:06Z</time>
      </trkpt>
      <trkpt lat="45.97793" lon="6.44426">
        <ele>1545</ele>
        <time>2021-11-20T09:15:08Z</time>
      </trkpt>
      <trkpt lat="45.97795" lon="6.44426">
        <ele>1545</ele>
        <time>2021-11-20T09:15:11Z</time>
      </trkpt>
      <trkpt lat="45.97797" lon="6.44423">
        <ele>1545</ele>
        <time>2021-11-20T09:15:14Z</time>
      </trkpt>
      <trkpt lat="45.97798" lon="6.44421">
        <ele>1545</ele>
        <time>2021-11-20T09:15:16Z</time>
      </trkpt>
      <trkpt lat="45.97799" lon="6.44419">
        <ele>1545</ele>
        <time>2021-11-20T09:15:19Z</time>
      </trkpt>
      <trkpt lat="45.97801" lon="6.44416">
        <ele>1545</ele>
        <time>2021-11-20T09:15:22Z</time>
      </trkpt>
      <trkpt lat="45.97803" lon="6.44415">
        <ele>1545</ele>
        <time>2021-11-20T09:15:24Z</time>
      </trkpt>
      <trkpt lat="45.97805" lon="6.44412">
        <ele>1545</ele>
        <time>2021-11-20T09:15:27Z</time>
      </trkpt>
      <trkpt lat="45.97806" lon="6.44411">
        <ele>1545</ele>
        <time>2021-11-20T09:15:29Z</time>
      </trkpt>
      <trkpt lat="45.97809" lon="6.44409">
        <ele>1545</ele>
        <time>2021-11-20T09:15:32Z</time>
      </trkpt>
      <trkpt lat="45.9781" lon="6.44407">
        <ele>1545</ele>
        <time>2021-11-20T09:15:35Z</time>
      </trkpt>
      <trkpt lat="45.97812" lon="6.44404">
        <ele>1545</ele>
        <time>2021-11-20T09:15:38Z</time>
      </trkpt>
      <trkpt lat="45.97813" lon="6.44401">
        <ele>1545</ele>
        <time>2021-11-20T09:15:41Z</time>
      </trkpt>
      <trkpt lat="45.97815" lon="6.44399">
        <ele>1545</ele>
        <time>2021-11-20T09:15:44Z</time>
      </trkpt>
      <trkpt lat="45.97817" lon="6.44395">
        <ele>1545</ele>
        <time>2021-11-20T09:15:47Z</time>
      </trkpt>
      <trkpt lat="45.97817" lon="6.44393">
        <ele>1545</ele>
        <time>2021-11-20T09:15:49Z</time>
      </trkpt>
      <trkpt lat="45.97819" lon="6.4439">
        <ele>1545</ele>
        <time>2021-11-20T09:15:51Z</time>
      </trkpt>
      <trkpt lat="45.9782" lon="6.44388">
        <ele>1545</ele>
        <time>2021-11-20T09:15:54Z</time>
      </trkpt>
      <trkpt lat="45.97822" lon="6.44387">
        <ele>1545</ele>
        <time>2021-11-20T09:15:56Z</time>
      </trkpt>
      <trkpt lat="45.97825" lon="6.44385">
        <ele>1545</ele>
        <time>2021-11-20T09:15:59Z</time>
      </trkpt>
      <trkpt lat="45.97826" lon="6.44381">
        <ele>1545</ele>
        <time>2021-11-20T09:16:02Z</time>
      </trkpt>
      <trkpt lat="45.97828" lon="6.44378">
        <ele>1545</ele>
        <time>2021-11-20T09:16:05Z</time>
      </trkpt>
      <trkpt lat="45.9783" lon="6.44376">
        <ele>1545</ele>
        <time>2021-11-20T09:16:08Z</time>
      </trkpt>
      <trkpt lat="45.97832" lon="6.44375">
        <ele>1545</ele>
        <time>2021-11-20T09:16:10Z</time>
      </trkpt>
      <trkpt lat="45.97833" lon="6.44375">
        <ele>1545</ele>
        <time>2021-11-20T09:16:12Z</time>
      </trkpt>
      <trkpt lat="45.97836" lon="6.44375">
        <ele>1545</ele>
        <time>2021-11-20T09:16:15Z</time>
      </trkpt>
      <trkpt lat="45.97839" lon="6.44376">
        <ele>1545</ele>
        <time>2021-11-20T09:16:18Z</time>
      </trkpt>
      <trkpt lat="45.9784" lon="6.44377">
        <ele>1546</ele>
        <time>2021-11-20T09:16:20Z</time>
      </trkpt>
      <trkpt lat="45.97842" lon="6.44378">
        <ele>1546</ele>
        <time>2021-11-20T09:16:22Z</time>
      </trkpt>
      <trkpt lat="45.97844" lon="6.4438">
        <ele>1546</ele>
        <time>2021-11-20T09:16:24Z</time>
      </trkpt>
      <trkpt lat="45.97846" lon="6.44382">
        <ele>1546</ele>
        <time>2021-11-20T09:16:27Z</time>
      </trkpt>
      <trkpt lat="45.97847" lon="6.44383">
        <ele>1546</ele>
        <time>2021-11-20T09:16:30Z</time>
      </trkpt>
      <trkpt lat="45.97849" lon="6.44385">
        <ele>1546</ele>
        <time>2021-11-20T09:16:33Z</time>
      </trkpt>
      <trkpt lat="45.9785" lon="6.44387">
        <ele>1547</ele>
        <time>2021-11-20T09:16:37Z</time>
      </trkpt>
      <trkpt lat="45.97852" lon="6.44389">
        <ele>1547</ele>
        <time>2021-11-20T09:16:41Z</time>
      </trkpt>
      <trkpt lat="45.97854" lon="6.44391">
        <ele>1548</ele>
        <time>2021-11-20T09:16:44Z</time>
      </trkpt>
      <trkpt lat="45.97855" lon="6.44393">
        <ele>1549</ele>
        <time>2021-11-20T09:16:47Z</time>
      </trkpt>
      <trkpt lat="45.97857" lon="6.44396">
        <ele>1549</ele>
        <time>2021-11-20T09:16:50Z</time>
      </trkpt>
      <trkpt lat="45.97859" lon="6.44399">
        <ele>1549</ele>
        <time>2021-11-20T09:16:54Z</time>
      </trkpt>
      <trkpt lat="45.97861" lon="6.444">
        <ele>1549</ele>
        <time>2021-11-20T09:16:56Z</time>
      </trkpt>
      <trkpt lat="45.97863" lon="6.44403">
        <ele>1549</ele>
        <time>2021-11-20T09:16:59Z</time>
      </trkpt>
      <trkpt lat="45.97864" lon="6.44405">
        <ele>1550</ele>
        <time>2021-11-20T09:17:02Z</time>
      </trkpt>
      <trkpt lat="45.97865" lon="6.44408">
        <ele>1550</ele>
        <time>2021-11-20T09:17:05Z</time>
      </trkpt>
      <trkpt lat="45.97866" lon="6.4441">
        <ele>1550</ele>
        <time>2021-11-20T09:17:08Z</time>
      </trkpt>
      <trkpt lat="45.97867" lon="6.44413">
        <ele>1550</ele>
        <time>2021-11-20T09:17:11Z</time>
      </trkpt>
      <trkpt lat="45.97868" lon="6.44415">
        <ele>1550</ele>
        <time>2021-11-20T09:17:13Z</time>
      </trkpt>
      <trkpt lat="45.97871" lon="6.44416">
        <ele>1550</ele>
        <time>2021-11-20T09:17:17Z</time>
      </trkpt>
      <trkpt lat="45.97873" lon="6.44416">
        <ele>1551</ele>
        <time>2021-11-20T09:17:20Z</time>
      </trkpt>
      <trkpt lat="45.97875" lon="6.44417">
        <ele>1551</ele>
        <time>2021-11-20T09:17:23Z</time>
      </trkpt>
      <trkpt lat="45.97877" lon="6.44419">
        <ele>1551</ele>
        <time>2021-11-20T09:17:26Z</time>
      </trkpt>
      <trkpt lat="45.97879" lon="6.44421">
        <ele>1552</ele>
        <time>2021-11-20T09:17:29Z</time>
      </trkpt>
      <trkpt lat="45.97881" lon="6.44423">
        <ele>1552</ele>
        <time>2021-11-20T09:17:32Z</time>
      </trkpt>
      <trkpt lat="45.97883" lon="6.44425">
        <ele>1552</ele>
        <time>2021-11-20T09:17:34Z</time>
      </trkpt>
      <trkpt lat="45.97884" lon="6.44427">
        <ele>1553</ele>
        <time>2021-11-20T09:17:36Z</time>
      </trkpt>
      <trkpt lat="45.97886" lon="6.4443">
        <ele>1553</ele>
        <time>2021-11-20T09:17:39Z</time>
      </trkpt>
      <trkpt lat="45.97887" lon="6.44431">
        <ele>1553</ele>
        <time>2021-11-20T09:17:41Z</time>
      </trkpt>
      <trkpt lat="45.97889" lon="6.44433">
        <ele>1553</ele>
        <time>2021-11-20T09:17:44Z</time>
      </trkpt>
      <trkpt lat="45.97891" lon="6.44435">
        <ele>1553</ele>
        <time>2021-11-20T09:17:47Z</time>
      </trkpt>
      <trkpt lat="45.97892" lon="6.44436">
        <ele>1553</ele>
        <time>2021-11-20T09:17:49Z</time>
      </trkpt>
      <trkpt lat="45.97894" lon="6.44438">
        <ele>1554</ele>
        <time>2021-11-20T09:17:52Z</time>
      </trkpt>
      <trkpt lat="45.97896" lon="6.4444">
        <ele>1554</ele>
        <time>2021-11-20T09:17:55Z</time>
      </trkpt>
      <trkpt lat="45.97897" lon="6.44441">
        <ele>1554</ele>
        <time>2021-11-20T09:17:58Z</time>
      </trkpt>
      <trkpt lat="45.97899" lon="6.44443">
        <ele>1554</ele>
        <time>2021-11-20T09:18:01Z</time>
      </trkpt>
      <trkpt lat="45.97901" lon="6.44445">
        <ele>1554</ele>
        <time>2021-11-20T09:18:04Z</time>
      </trkpt>
      <trkpt lat="45.97902" lon="6.44447">
        <ele>1555</ele>
        <time>2021-11-20T09:18:07Z</time>
      </trkpt>
      <trkpt lat="45.97903" lon="6.44449">
        <ele>1555</ele>
        <time>2021-11-20T09:18:10Z</time>
      </trkpt>
      <trkpt lat="45.97905" lon="6.44451">
        <ele>1555</ele>
        <time>2021-11-20T09:18:13Z</time>
      </trkpt>
      <trkpt lat="45.97907" lon="6.44452">
        <ele>1555</ele>
        <time>2021-11-20T09:18:16Z</time>
      </trkpt>
      <trkpt lat="45.97909" lon="6.44454">
        <ele>1555</ele>
        <time>2021-11-20T09:18:19Z</time>
      </trkpt>
      <trkpt lat="45.97911" lon="6.44456">
        <ele>1555</ele>
        <time>2021-11-20T09:18:22Z</time>
      </trkpt>
      <trkpt lat="45.97913" lon="6.44458">
        <ele>1556</ele>
        <time>2021-11-20T09:18:25Z</time>
      </trkpt>
      <trkpt lat="45.97915" lon="6.44459">
        <ele>1556</ele>
        <time>2021-11-20T09:18:28Z</time>
      </trkpt>
      <trkpt lat="45.97917" lon="6.44461">
        <ele>1556</ele>
        <time>2021-11-20T09:18:31Z</time>
      </trkpt>
      <trkpt lat="45.97919" lon="6.44463">
        <ele>1556</ele>
        <time>2021-11-20T09:18:34Z</time>
      </trkpt>
      <trkpt lat="45.97921" lon="6.44464">
        <ele>1556</ele>
        <time>2021-11-20T09:18:36Z</time>
      </trkpt>
      <trkpt lat="45.97923" lon="6.44465">
        <ele>1556</ele>
        <time>2021-11-20T09:18:39Z</time>
      </trkpt>
      <trkpt lat="45.97925" lon="6.44465">
        <ele>1556</ele>
        <time>2021-11-20T09:18:43Z</time>
      </trkpt>
      <trkpt lat="45.97927" lon="6.44466">
        <ele>1557</ele>
        <time>2021-11-20T09:18:47Z</time>
      </trkpt>
      <trkpt lat="45.97929" lon="6.44466">
        <ele>1557</ele>
        <time>2021-11-20T09:18:50Z</time>
      </trkpt>
      <trkpt lat="45.97931" lon="6.44467">
        <ele>1557</ele>
        <time>2021-11-20T09:18:53Z</time>
      </trkpt>
      <trkpt lat="45.97933" lon="6.44467">
        <ele>1557</ele>
        <time>2021-11-20T09:18:56Z</time>
      </trkpt>
      <trkpt lat="45.97935" lon="6.44467">
        <ele>1558</ele>
        <time>2021-11-20T09:18:59Z</time>
      </trkpt>
      <trkpt lat="45.97937" lon="6.44466">
        <ele>1558</ele>
        <time>2021-11-20T09:19:03Z</time>
      </trkpt>
      <trkpt lat="45.97939" lon="6.44465">
        <ele>1558</ele>
        <time>2021-11-20T09:19:07Z</time>
      </trkpt>
      <trkpt lat="45.97942" lon="6.44466">
        <ele>1559</ele>
        <time>2021-11-20T09:19:11Z</time>
      </trkpt>
      <trkpt lat="45.97943" lon="6.44468">
        <ele>1560</ele>
        <time>2021-11-20T09:19:14Z</time>
      </trkpt>
      <trkpt lat="45.97945" lon="6.4447">
        <ele>1560</ele>
        <time>2021-11-20T09:19:17Z</time>
      </trkpt>
      <trkpt lat="45.97947" lon="6.44472">
        <ele>1560</ele>
        <time>2021-11-20T09:19:20Z</time>
      </trkpt>
      <trkpt lat="45.97949" lon="6.44474">
        <ele>1560</ele>
        <time>2021-11-20T09:19:24Z</time>
      </trkpt>
      <trkpt lat="45.97951" lon="6.44477">
        <ele>1561</ele>
        <time>2021-11-20T09:19:28Z</time>
      </trkpt>
      <trkpt lat="45.97952" lon="6.44479">
        <ele>1562</ele>
        <time>2021-11-20T09:19:32Z</time>
      </trkpt>
      <trkpt lat="45.97953" lon="6.44481">
        <ele>1562</ele>
        <time>2021-11-20T09:19:35Z</time>
      </trkpt>
      <trkpt lat="45.97955" lon="6.44483">
        <ele>1562</ele>
        <time>2021-11-20T09:19:38Z</time>
      </trkpt>
      <trkpt lat="45.97957" lon="6.44483">
        <ele>1562</ele>
        <time>2021-11-20T09:19:41Z</time>
      </trkpt>
      <trkpt lat="45.97959" lon="6.44484">
        <ele>1562</ele>
        <time>2021-11-20T09:19:44Z</time>
      </trkpt>
      <trkpt lat="45.97961" lon="6.44484">
        <ele>1564</ele>
        <time>2021-11-20T09:19:48Z</time>
      </trkpt>
      <trkpt lat="45.97963" lon="6.44485">
        <ele>1564</ele>
        <time>2021-11-20T09:19:51Z</time>
      </trkpt>
      <trkpt lat="45.97965" lon="6.44484">
        <ele>1564</ele>
        <time>2021-11-20T09:19:55Z</time>
      </trkpt>
      <trkpt lat="45.97968" lon="6.44485">
        <ele>1565</ele>
        <time>2021-11-20T09:20:00Z</time>
      </trkpt>
      <trkpt lat="45.9797" lon="6.44486">
        <ele>1565</ele>
        <time>2021-11-20T09:20:02Z</time>
      </trkpt>
      <trkpt lat="45.97972" lon="6.44487">
        <ele>1565</ele>
        <time>2021-11-20T09:20:07Z</time>
      </trkpt>
      <trkpt lat="45.97974" lon="6.44488">
        <ele>1565</ele>
        <time>2021-11-20T09:20:10Z</time>
      </trkpt>
      <trkpt lat="45.97975" lon="6.44488">
        <ele>1566</ele>
        <time>2021-11-20T09:20:13Z</time>
      </trkpt>
      <trkpt lat="45.97978" lon="6.44489">
        <ele>1566</ele>
        <time>2021-11-20T09:20:16Z</time>
      </trkpt>
      <trkpt lat="45.97979" lon="6.4449">
        <ele>1566</ele>
        <time>2021-11-20T09:20:19Z</time>
      </trkpt>
      <trkpt lat="45.97981" lon="6.44491">
        <ele>1566</ele>
        <time>2021-11-20T09:20:22Z</time>
      </trkpt>
      <trkpt lat="45.97983" lon="6.44492">
        <ele>1567</ele>
        <time>2021-11-20T09:20:25Z</time>
      </trkpt>
      <trkpt lat="45.97985" lon="6.44493">
        <ele>1567</ele>
        <time>2021-11-20T09:20:28Z</time>
      </trkpt>
      <trkpt lat="45.97987" lon="6.44493">
        <ele>1568</ele>
        <time>2021-11-20T09:20:31Z</time>
      </trkpt>
      <trkpt lat="45.97989" lon="6.44493">
        <ele>1568</ele>
        <time>2021-11-20T09:20:34Z</time>
      </trkpt>
      <trkpt lat="45.97991" lon="6.44494">
        <ele>1569</ele>
        <time>2021-11-20T09:20:38Z</time>
      </trkpt>
      <trkpt lat="45.97993" lon="6.44494">
        <ele>1569</ele>
        <time>2021-11-20T09:20:42Z</time>
      </trkpt>
      <trkpt lat="45.97995" lon="6.44495">
        <ele>1569</ele>
        <time>2021-11-20T09:20:45Z</time>
      </trkpt>
      <trkpt lat="45.97997" lon="6.44495">
        <ele>1570</ele>
        <time>2021-11-20T09:20:48Z</time>
      </trkpt>
      <trkpt lat="45.97999" lon="6.44496">
        <ele>1570</ele>
        <time>2021-11-20T09:20:51Z</time>
      </trkpt>
      <trkpt lat="45.98001" lon="6.44497">
        <ele>1570</ele>
        <time>2021-11-20T09:20:54Z</time>
      </trkpt>
      <trkpt lat="45.98003" lon="6.44497">
        <ele>1570</ele>
        <time>2021-11-20T09:20:57Z</time>
      </trkpt>
      <trkpt lat="45.98005" lon="6.44498">
        <ele>1571</ele>
        <time>2021-11-20T09:21:00Z</time>
      </trkpt>
      <trkpt lat="45.98007" lon="6.44498">
        <ele>1571</ele>
        <time>2021-11-20T09:21:04Z</time>
      </trkpt>
      <trkpt lat="45.98009" lon="6.44499">
        <ele>1571</ele>
        <time>2021-11-20T09:21:08Z</time>
      </trkpt>
      <trkpt lat="45.98011" lon="6.445">
        <ele>1571</ele>
        <time>2021-11-20T09:21:12Z</time>
      </trkpt>
      <trkpt lat="45.98012" lon="6.44502">
        <ele>1571</ele>
        <time>2021-11-20T09:21:15Z</time>
      </trkpt>
      <trkpt lat="45.98014" lon="6.44504">
        <ele>1571</ele>
        <time>2021-11-20T09:21:18Z</time>
      </trkpt>
      <trkpt lat="45.98015" lon="6.44506">
        <ele>1571</ele>
        <time>2021-11-20T09:21:20Z</time>
      </trkpt>
      <trkpt lat="45.98016" lon="6.44508">
        <ele>1571</ele>
        <time>2021-11-20T09:21:22Z</time>
      </trkpt>
      <trkpt lat="45.98017" lon="6.4451">
        <ele>1570</ele>
        <time>2021-11-20T09:21:25Z</time>
      </trkpt>
      <trkpt lat="45.98018" lon="6.44513">
        <ele>1571</ele>
        <time>2021-11-20T09:21:30Z</time>
      </trkpt>
      <trkpt lat="45.98019" lon="6.44516">
        <ele>1571</ele>
        <time>2021-11-20T09:21:34Z</time>
      </trkpt>
      <trkpt lat="45.9802" lon="6.44518">
        <ele>1572</ele>
        <time>2021-11-20T09:21:38Z</time>
      </trkpt>
      <trkpt lat="45.98021" lon="6.44521">
        <ele>1573</ele>
        <time>2021-11-20T09:21:42Z</time>
      </trkpt>
      <trkpt lat="45.98022" lon="6.44523">
        <ele>1574</ele>
        <time>2021-11-20T09:21:46Z</time>
      </trkpt>
      <trkpt lat="45.98025" lon="6.44525">
        <ele>1574</ele>
        <time>2021-11-20T09:21:51Z</time>
      </trkpt>
      <trkpt lat="45.98027" lon="6.44526">
        <ele>1575</ele>
        <time>2021-11-20T09:21:55Z</time>
      </trkpt>
      <trkpt lat="45.98028" lon="6.44527">
        <ele>1575</ele>
        <time>2021-11-20T09:21:59Z</time>
      </trkpt>
      <trkpt lat="45.9803" lon="6.44528">
        <ele>1576</ele>
        <time>2021-11-20T09:22:04Z</time>
      </trkpt>
      <trkpt lat="45.98032" lon="6.44527">
        <ele>1576</ele>
        <time>2021-11-20T09:22:10Z</time>
      </trkpt>
      <trkpt lat="45.98034" lon="6.44525">
        <ele>1576</ele>
        <time>2021-11-20T09:22:14Z</time>
      </trkpt>
      <trkpt lat="45.98036" lon="6.44523">
        <ele>1577</ele>
        <time>2021-11-20T09:22:18Z</time>
      </trkpt>
      <trkpt lat="45.98037" lon="6.44521">
        <ele>1578</ele>
        <time>2021-11-20T09:22:21Z</time>
      </trkpt>
      <trkpt lat="45.98038" lon="6.44519">
        <ele>1578</ele>
        <time>2021-11-20T09:22:24Z</time>
      </trkpt>
      <trkpt lat="45.9804" lon="6.44518">
        <ele>1579</ele>
        <time>2021-11-20T09:22:28Z</time>
      </trkpt>
      <trkpt lat="45.98042" lon="6.44516">
        <ele>1579</ele>
        <time>2021-11-20T09:22:32Z</time>
      </trkpt>
      <trkpt lat="45.98044" lon="6.44515">
        <ele>1579</ele>
        <time>2021-11-20T09:22:36Z</time>
      </trkpt>
      <trkpt lat="45.98046" lon="6.44514">
        <ele>1580</ele>
        <time>2021-11-20T09:22:40Z</time>
      </trkpt>
      <trkpt lat="45.98048" lon="6.44512">
        <ele>1580</ele>
        <time>2021-11-20T09:22:44Z</time>
      </trkpt>
      <trkpt lat="45.9805" lon="6.44511">
        <ele>1581</ele>
        <time>2021-11-20T09:22:48Z</time>
      </trkpt>
      <trkpt lat="45.98052" lon="6.4451">
        <ele>1581</ele>
        <time>2021-11-20T09:22:52Z</time>
      </trkpt>
      <trkpt lat="45.98054" lon="6.44508">
        <ele>1581</ele>
        <time>2021-11-20T09:22:56Z</time>
      </trkpt>
      <trkpt lat="45.98055" lon="6.44507">
        <ele>1582</ele>
        <time>2021-11-20T09:22:59Z</time>
      </trkpt>
      <trkpt lat="45.98057" lon="6.44505">
        <ele>1582</ele>
        <time>2021-11-20T09:23:03Z</time>
      </trkpt>
      <trkpt lat="45.98058" lon="6.44503">
        <ele>1582</ele>
        <time>2021-11-20T09:23:07Z</time>
      </trkpt>
      <trkpt lat="45.9806" lon="6.44501">
        <ele>1582</ele>
        <time>2021-11-20T09:23:11Z</time>
      </trkpt>
      <trkpt lat="45.98061" lon="6.44498">
        <ele>1582</ele>
        <time>2021-11-20T09:23:15Z</time>
      </trkpt>
      <trkpt lat="45.98063" lon="6.44496">
        <ele>1583</ele>
        <time>2021-11-20T09:23:19Z</time>
      </trkpt>
      <trkpt lat="45.98064" lon="6.44493">
        <ele>1584</ele>
        <time>2021-11-20T09:23:23Z</time>
      </trkpt>
      <trkpt lat="45.98065" lon="6.4449">
        <ele>1584</ele>
        <time>2021-11-20T09:23:27Z</time>
      </trkpt>
      <trkpt lat="45.98065" lon="6.44487">
        <ele>1585</ele>
        <time>2021-11-20T09:23:31Z</time>
      </trkpt>
      <trkpt lat="45.98066" lon="6.44484">
        <ele>1585</ele>
        <time>2021-11-20T09:23:35Z</time>
      </trkpt>
      <trkpt lat="45.98067" lon="6.44481">
        <ele>1585</ele>
        <time>2021-11-20T09:23:38Z</time>
      </trkpt>
      <trkpt lat="45.98068" lon="6.44479">
        <ele>1586</ele>
        <time>2021-11-20T09:23:42Z</time>
      </trkpt>
      <trkpt lat="45.98069" lon="6.44476">
        <ele>1587</ele>
        <time>2021-11-20T09:23:46Z</time>
      </trkpt>
      <trkpt lat="45.9807" lon="6.44473">
        <ele>1587</ele>
        <time>2021-11-20T09:23:50Z</time>
      </trkpt>
      <trkpt lat="45.98071" lon="6.44471">
        <ele>1588</ele>
        <time>2021-11-20T09:23:54Z</time>
      </trkpt>
      <trkpt lat="45.98072" lon="6.44468">
        <ele>1589</ele>
        <time>2021-11-20T09:23:59Z</time>
      </trkpt>
      <trkpt lat="45.98073" lon="6.44465">
        <ele>1589</ele>
        <time>2021-11-20T09:24:03Z</time>
      </trkpt>
      <trkpt lat="45.98074" lon="6.44463">
        <ele>1589</ele>
        <time>2021-11-20T09:24:07Z</time>
      </trkpt>
      <trkpt lat="45.98075" lon="6.4446">
        <ele>1590</ele>
        <time>2021-11-20T09:24:12Z</time>
      </trkpt>
      <trkpt lat="45.98076" lon="6.44458">
        <ele>1591</ele>
        <time>2021-11-20T09:24:17Z</time>
      </trkpt>
      <trkpt lat="45.98077" lon="6.44455">
        <ele>1591</ele>
        <time>2021-11-20T09:24:22Z</time>
      </trkpt>
      <trkpt lat="45.98077" lon="6.44452">
        <ele>1592</ele>
        <time>2021-11-20T09:24:27Z</time>
      </trkpt>
      <trkpt lat="45.98078" lon="6.4445">
        <ele>1593</ele>
        <time>2021-11-20T09:24:31Z</time>
      </trkpt>
      <trkpt lat="45.98078" lon="6.44447">
        <ele>1594</ele>
        <time>2021-11-20T09:24:35Z</time>
      </trkpt>
      <trkpt lat="45.98078" lon="6.44444">
        <ele>1594</ele>
        <time>2021-11-20T09:24:38Z</time>
      </trkpt>
      <trkpt lat="45.98078" lon="6.44441">
        <ele>1594</ele>
        <time>2021-11-20T09:24:42Z</time>
      </trkpt>
      <trkpt lat="45.98078" lon="6.44437">
        <ele>1594</ele>
        <time>2021-11-20T09:24:45Z</time>
      </trkpt>
      <trkpt lat="45.98078" lon="6.44434">
        <ele>1594</ele>
        <time>2021-11-20T09:24:48Z</time>
      </trkpt>
      <trkpt lat="45.98078" lon="6.44432">
        <ele>1594</ele>
        <time>2021-11-20T09:24:51Z</time>
      </trkpt>
      <trkpt lat="45.98078" lon="6.44429">
        <ele>1594</ele>
        <time>2021-11-20T09:24:54Z</time>
      </trkpt>
      <trkpt lat="45.98077" lon="6.44426">
        <ele>1594</ele>
        <time>2021-11-20T09:24:57Z</time>
      </trkpt>
      <trkpt lat="45.98075" lon="6.44424">
        <ele>1595</ele>
        <time>2021-11-20T09:25:00Z</time>
      </trkpt>
      <trkpt lat="45.98073" lon="6.44422">
        <ele>1595</ele>
        <time>2021-11-20T09:25:04Z</time>
      </trkpt>
      <trkpt lat="45.98071" lon="6.44421">
        <ele>1595</ele>
        <time>2021-11-20T09:25:07Z</time>
      </trkpt>
      <trkpt lat="45.98069" lon="6.4442">
        <ele>1596</ele>
        <time>2021-11-20T09:25:11Z</time>
      </trkpt>
      <trkpt lat="45.98068" lon="6.44417">
        <ele>1596</ele>
        <time>2021-11-20T09:25:15Z</time>
      </trkpt>
      <trkpt lat="45.98068" lon="6.44414">
        <ele>1597</ele>
        <time>2021-11-20T09:25:19Z</time>
      </trkpt>
      <trkpt lat="45.98069" lon="6.44412">
        <ele>1597</ele>
        <time>2021-11-20T09:25:22Z</time>
      </trkpt>
      <trkpt lat="45.98071" lon="6.4441">
        <ele>1598</ele>
        <time>2021-11-20T09:25:27Z</time>
      </trkpt>
      <trkpt lat="45.98073" lon="6.44408">
        <ele>1599</ele>
        <time>2021-11-20T09:25:31Z</time>
      </trkpt>
      <trkpt lat="45.98074" lon="6.44405">
        <ele>1600</ele>
        <time>2021-11-20T09:25:36Z</time>
      </trkpt>
      <trkpt lat="45.98075" lon="6.44403">
        <ele>1600</ele>
        <time>2021-11-20T09:25:41Z</time>
      </trkpt>
      <trkpt lat="45.98075" lon="6.444">
        <ele>1601</ele>
        <time>2021-11-20T09:25:47Z</time>
      </trkpt>
      <trkpt lat="45.98076" lon="6.44397">
        <ele>1602</ele>
        <time>2021-11-20T09:25:51Z</time>
      </trkpt>
      <trkpt lat="45.98075" lon="6.44394">
        <ele>1603</ele>
        <time>2021-11-20T09:25:56Z</time>
      </trkpt>
      <trkpt lat="45.98075" lon="6.44391">
        <ele>1603</ele>
        <time>2021-11-20T09:26:00Z</time>
      </trkpt>
      <trkpt lat="45.98075" lon="6.44388">
        <ele>1604</ele>
        <time>2021-11-20T09:26:05Z</time>
      </trkpt>
      <trkpt lat="45.98075" lon="6.44385">
        <ele>1604</ele>
        <time>2021-11-20T09:26:09Z</time>
      </trkpt>
      <trkpt lat="45.98075" lon="6.44383">
        <ele>1606</ele>
        <time>2021-11-20T09:26:13Z</time>
      </trkpt>
      <trkpt lat="45.98074" lon="6.4438">
        <ele>1606</ele>
        <time>2021-11-20T09:26:18Z</time>
      </trkpt>
      <trkpt lat="45.98074" lon="6.44377">
        <ele>1606</ele>
        <time>2021-11-20T09:26:22Z</time>
      </trkpt>
      <trkpt lat="45.98073" lon="6.44374">
        <ele>1607</ele>
        <time>2021-11-20T09:26:26Z</time>
      </trkpt>
      <trkpt lat="45.98074" lon="6.44371">
        <ele>1607</ele>
        <time>2021-11-20T09:26:31Z</time>
      </trkpt>
      <trkpt lat="45.98074" lon="6.44368">
        <ele>1608</ele>
        <time>2021-11-20T09:26:36Z</time>
      </trkpt>
      <trkpt lat="45.98074" lon="6.44365">
        <ele>1609</ele>
        <time>2021-11-20T09:26:41Z</time>
      </trkpt>
      <trkpt lat="45.98074" lon="6.44362">
        <ele>1609</ele>
        <time>2021-11-20T09:26:46Z</time>
      </trkpt>
      <trkpt lat="45.98074" lon="6.44359">
        <ele>1610</ele>
        <time>2021-11-20T09:26:51Z</time>
      </trkpt>
      <trkpt lat="45.98073" lon="6.44356">
        <ele>1611</ele>
        <time>2021-11-20T09:26:55Z</time>
      </trkpt>
      <trkpt lat="45.98074" lon="6.44353">
        <ele>1612</ele>
        <time>2021-11-20T09:26:59Z</time>
      </trkpt>
      <trkpt lat="45.98074" lon="6.44351">
        <ele>1612</ele>
        <time>2021-11-20T09:27:03Z</time>
      </trkpt>
      <trkpt lat="45.98075" lon="6.44347">
        <ele>1612</ele>
        <time>2021-11-20T09:27:08Z</time>
      </trkpt>
      <trkpt lat="45.98075" lon="6.44345">
        <ele>1613</ele>
        <time>2021-11-20T09:27:12Z</time>
      </trkpt>
      <trkpt lat="45.98075" lon="6.44342">
        <ele>1613</ele>
        <time>2021-11-20T09:27:17Z</time>
      </trkpt>
      <trkpt lat="45.98075" lon="6.44339">
        <ele>1614</ele>
        <time>2021-11-20T09:27:21Z</time>
      </trkpt>
      <trkpt lat="45.98076" lon="6.44336">
        <ele>1615</ele>
        <time>2021-11-20T09:27:25Z</time>
      </trkpt>
      <trkpt lat="45.98076" lon="6.44333">
        <ele>1615</ele>
        <time>2021-11-20T09:27:29Z</time>
      </trkpt>
      <trkpt lat="45.98076" lon="6.4433">
        <ele>1616</ele>
        <time>2021-11-20T09:27:34Z</time>
      </trkpt>
      <trkpt lat="45.98077" lon="6.44327">
        <ele>1616</ele>
        <time>2021-11-20T09:27:38Z</time>
      </trkpt>
      <trkpt lat="45.98077" lon="6.44325">
        <ele>1617</ele>
        <time>2021-11-20T09:27:42Z</time>
      </trkpt>
      <trkpt lat="45.98078" lon="6.44321">
        <ele>1617</ele>
        <time>2021-11-20T09:27:46Z</time>
      </trkpt>
      <trkpt lat="45.98078" lon="6.44318">
        <ele>1618</ele>
        <time>2021-11-20T09:27:50Z</time>
      </trkpt>
      <trkpt lat="45.98079" lon="6.44315">
        <ele>1619</ele>
        <time>2021-11-20T09:27:54Z</time>
      </trkpt>
      <trkpt lat="45.98079" lon="6.44312">
        <ele>1620</ele>
        <time>2021-11-20T09:27:58Z</time>
      </trkpt>
      <trkpt lat="45.9808" lon="6.4431">
        <ele>1620</ele>
        <time>2021-11-20T09:28:02Z</time>
      </trkpt>
      <trkpt lat="45.9808" lon="6.44307">
        <ele>1621</ele>
        <time>2021-11-20T09:28:05Z</time>
      </trkpt>
      <trkpt lat="45.98081" lon="6.44304">
        <ele>1621</ele>
        <time>2021-11-20T09:28:09Z</time>
      </trkpt>
      <trkpt lat="45.98081" lon="6.44301">
        <ele>1622</ele>
        <time>2021-11-20T09:28:14Z</time>
      </trkpt>
      <trkpt lat="45.98081" lon="6.44299">
        <ele>1622</ele>
        <time>2021-11-20T09:28:18Z</time>
      </trkpt>
      <trkpt lat="45.98081" lon="6.44295">
        <ele>1623</ele>
        <time>2021-11-20T09:28:23Z</time>
      </trkpt>
      <trkpt lat="45.98082" lon="6.44293">
        <ele>1624</ele>
        <time>2021-11-20T09:28:27Z</time>
      </trkpt>
      <trkpt lat="45.98082" lon="6.4429">
        <ele>1624</ele>
        <time>2021-11-20T09:28:32Z</time>
      </trkpt>
      <trkpt lat="45.98082" lon="6.44287">
        <ele>1625</ele>
        <time>2021-11-20T09:28:36Z</time>
      </trkpt>
      <trkpt lat="45.98082" lon="6.44284">
        <ele>1625</ele>
        <time>2021-11-20T09:28:40Z</time>
      </trkpt>
      <trkpt lat="45.98083" lon="6.44281">
        <ele>1626</ele>
        <time>2021-11-20T09:28:44Z</time>
      </trkpt>
      <trkpt lat="45.98083" lon="6.44278">
        <ele>1626</ele>
        <time>2021-11-20T09:28:48Z</time>
      </trkpt>
      <trkpt lat="45.98084" lon="6.44275">
        <ele>1626</ele>
        <time>2021-11-20T09:28:52Z</time>
      </trkpt>
      <trkpt lat="45.98084" lon="6.44272">
        <ele>1626</ele>
        <time>2021-11-20T09:28:56Z</time>
      </trkpt>
      <trkpt lat="45.98084" lon="6.44269">
        <ele>1627</ele>
        <time>2021-11-20T09:29:00Z</time>
      </trkpt>
      <trkpt lat="45.98086" lon="6.44267">
        <ele>1628</ele>
        <time>2021-11-20T09:29:04Z</time>
      </trkpt>
      <trkpt lat="45.98086" lon="6.44264">
        <ele>1628</ele>
        <time>2021-11-20T09:29:09Z</time>
      </trkpt>
      <trkpt lat="45.98085" lon="6.44261">
        <ele>1628</ele>
        <time>2021-11-20T09:29:14Z</time>
      </trkpt>
      <trkpt lat="45.98084" lon="6.44259">
        <ele>1629</ele>
        <time>2021-11-20T09:29:19Z</time>
      </trkpt>
      <trkpt lat="45.98083" lon="6.44256">
        <ele>1629</ele>
        <time>2021-11-20T09:29:24Z</time>
      </trkpt>
      <trkpt lat="45.98082" lon="6.44247">
        <ele>1630</ele>
        <time>2021-11-20T09:29:59Z</time>
      </trkpt>
      <trkpt lat="45.98082" lon="6.44244">
        <ele>1630</ele>
        <time>2021-11-20T09:30:05Z</time>
      </trkpt>
      <trkpt lat="45.98082" lon="6.44248">
        <ele>1632</ele>
        <time>2021-11-20T09:30:50Z</time>
      </trkpt>
      <trkpt lat="45.98081" lon="6.44252">
        <ele>1631</ele>
        <time>2021-11-20T09:32:57Z</time>
      </trkpt>
      <trkpt lat="45.98083" lon="6.44251">
        <ele>1631</ele>
        <time>2021-11-20T09:34:18Z</time>
      </trkpt>
      <trkpt lat="45.98081" lon="6.44249">
        <ele>1631</ele>
        <time>2021-11-20T09:35:12Z</time>
      </trkpt>
      <trkpt lat="45.9808" lon="6.44246">
        <ele>1631</ele>
        <time>2021-11-20T09:35:27Z</time>
      </trkpt>
      <trkpt lat="45.98077" lon="6.44245">
        <ele>1631</ele>
        <time>2021-11-20T09:35:48Z</time>
      </trkpt>
      <trkpt lat="45.98078" lon="6.44248">
        <ele>1631</ele>
        <time>2021-11-20T09:35:54Z</time>
      </trkpt>
      <trkpt lat="45.98079" lon="6.4425">
        <ele>1632</ele>
        <time>2021-11-20T09:35:59Z</time>
      </trkpt>
      <trkpt lat="45.98081" lon="6.44251">
        <ele>1631</ele>
        <time>2021-11-20T09:36:25Z</time>
      </trkpt>
      <trkpt lat="45.98082" lon="6.44249">
        <ele>1631</ele>
        <time>2021-11-20T09:36:34Z</time>
      </trkpt>
      <trkpt lat="45.98084" lon="6.44249">
        <ele>1631</ele>
        <time>2021-11-20T09:37:09Z</time>
      </trkpt>
      <trkpt lat="45.98087" lon="6.44248">
        <ele>1633</ele>
        <time>2021-11-20T09:37:45Z</time>
      </trkpt>
      <trkpt lat="45.98085" lon="6.4425">
        <ele>1632</ele>
        <time>2021-11-20T09:38:15Z</time>
      </trkpt>
      <trkpt lat="45.98083" lon="6.4425">
        <ele>1631</ele>
        <time>2021-11-20T09:41:01Z</time>
      </trkpt>
      <trkpt lat="45.98082" lon="6.44248">
        <ele>1632</ele>
        <time>2021-11-20T09:41:16Z</time>
      </trkpt>
      <trkpt lat="45.98082" lon="6.44245">
        <ele>1633</ele>
        <time>2021-11-20T09:41:21Z</time>
      </trkpt>
      <trkpt lat="45.98081" lon="6.44242">
        <ele>1633</ele>
        <time>2021-11-20T09:41:26Z</time>
      </trkpt>
      <trkpt lat="45.9808" lon="6.4424">
        <ele>1634</ele>
        <time>2021-11-20T09:41:31Z</time>
      </trkpt>
      <trkpt lat="45.98079" lon="6.44236">
        <ele>1634</ele>
        <time>2021-11-20T09:41:37Z</time>
      </trkpt>
      <trkpt lat="45.98078" lon="6.44234">
        <ele>1635</ele>
        <time>2021-11-20T09:41:41Z</time>
      </trkpt>
      <trkpt lat="45.98079" lon="6.44231">
        <ele>1636</ele>
        <time>2021-11-20T09:41:45Z</time>
      </trkpt>
      <trkpt lat="45.98079" lon="6.44228">
        <ele>1636</ele>
        <time>2021-11-20T09:41:49Z</time>
      </trkpt>
      <trkpt lat="45.98078" lon="6.44226">
        <ele>1637</ele>
        <time>2021-11-20T09:41:54Z</time>
      </trkpt>
      <trkpt lat="45.98077" lon="6.44223">
        <ele>1637</ele>
        <time>2021-11-20T09:41:58Z</time>
      </trkpt>
      <trkpt lat="45.98075" lon="6.44221">
        <ele>1637</ele>
        <time>2021-11-20T09:42:01Z</time>
      </trkpt>
      <trkpt lat="45.98074" lon="6.44219">
        <ele>1638</ele>
        <time>2021-11-20T09:42:04Z</time>
      </trkpt>
      <trkpt lat="45.98073" lon="6.44216">
        <ele>1638</ele>
        <time>2021-11-20T09:42:08Z</time>
      </trkpt>
      <trkpt lat="45.98071" lon="6.44214">
        <ele>1639</ele>
        <time>2021-11-20T09:42:13Z</time>
      </trkpt>
      <trkpt lat="45.98069" lon="6.44213">
        <ele>1639</ele>
        <time>2021-11-20T09:42:18Z</time>
      </trkpt>
      <trkpt lat="45.98067" lon="6.44211">
        <ele>1640</ele>
        <time>2021-11-20T09:42:21Z</time>
      </trkpt>
      <trkpt lat="45.98065" lon="6.44208">
        <ele>1640</ele>
        <time>2021-11-20T09:42:25Z</time>
      </trkpt>
      <trkpt lat="45.98064" lon="6.44206">
        <ele>1641</ele>
        <time>2021-11-20T09:42:29Z</time>
      </trkpt>
      <trkpt lat="45.98063" lon="6.44203">
        <ele>1641</ele>
        <time>2021-11-20T09:42:34Z</time>
      </trkpt>
      <trkpt lat="45.98062" lon="6.442">
        <ele>1643</ele>
        <time>2021-11-20T09:42:39Z</time>
      </trkpt>
      <trkpt lat="45.98061" lon="6.44199">
        <ele>1643</ele>
        <time>2021-11-20T09:42:42Z</time>
      </trkpt>
      <trkpt lat="45.98058" lon="6.44198">
        <ele>1643</ele>
        <time>2021-11-20T09:42:45Z</time>
      </trkpt>
      <trkpt lat="45.98056" lon="6.44197">
        <ele>1643</ele>
        <time>2021-11-20T09:42:49Z</time>
      </trkpt>
      <trkpt lat="45.98054" lon="6.44197">
        <ele>1643</ele>
        <time>2021-11-20T09:42:52Z</time>
      </trkpt>
      <trkpt lat="45.98053" lon="6.44195">
        <ele>1643</ele>
        <time>2021-11-20T09:42:55Z</time>
      </trkpt>
      <trkpt lat="45.98051" lon="6.44193">
        <ele>1643</ele>
        <time>2021-11-20T09:42:59Z</time>
      </trkpt>
      <trkpt lat="45.98049" lon="6.44191">
        <ele>1644</ele>
        <time>2021-11-20T09:43:03Z</time>
      </trkpt>
      <trkpt lat="45.98047" lon="6.4419">
        <ele>1644</ele>
        <time>2021-11-20T09:43:07Z</time>
      </trkpt>
      <trkpt lat="45.98045" lon="6.44189">
        <ele>1644</ele>
        <time>2021-11-20T09:43:10Z</time>
      </trkpt>
      <trkpt lat="45.98044" lon="6.44187">
        <ele>1646</ele>
        <time>2021-11-20T09:43:14Z</time>
      </trkpt>
      <trkpt lat="45.98042" lon="6.44185">
        <ele>1647</ele>
        <time>2021-11-20T09:43:19Z</time>
      </trkpt>
      <trkpt lat="45.98041" lon="6.44184">
        <ele>1647</ele>
        <time>2021-11-20T09:43:25Z</time>
      </trkpt>
      <trkpt lat="45.9804" lon="6.44181">
        <ele>1648</ele>
        <time>2021-11-20T09:43:29Z</time>
      </trkpt>
      <trkpt lat="45.98039" lon="6.44179">
        <ele>1648</ele>
        <time>2021-11-20T09:43:33Z</time>
      </trkpt>
      <trkpt lat="45.98038" lon="6.44177">
        <ele>1648</ele>
        <time>2021-11-20T09:43:36Z</time>
      </trkpt>
      <trkpt lat="45.98036" lon="6.44175">
        <ele>1648</ele>
        <time>2021-11-20T09:43:39Z</time>
      </trkpt>
      <trkpt lat="45.98034" lon="6.44175">
        <ele>1648</ele>
        <time>2021-11-20T09:43:42Z</time>
      </trkpt>
      <trkpt lat="45.98032" lon="6.44176">
        <ele>1650</ele>
        <time>2021-11-20T09:43:45Z</time>
      </trkpt>
      <trkpt lat="45.9803" lon="6.44176">
        <ele>1649</ele>
        <time>2021-11-20T09:43:48Z</time>
      </trkpt>
      <trkpt lat="45.98028" lon="6.44176">
        <ele>1650</ele>
        <time>2021-11-20T09:43:52Z</time>
      </trkpt>
      <trkpt lat="45.98026" lon="6.44176">
        <ele>1650</ele>
        <time>2021-11-20T09:43:56Z</time>
      </trkpt>
      <trkpt lat="45.98024" lon="6.44175">
        <ele>1651</ele>
        <time>2021-11-20T09:43:59Z</time>
      </trkpt>
      <trkpt lat="45.98021" lon="6.44174">
        <ele>1651</ele>
        <time>2021-11-20T09:44:02Z</time>
      </trkpt>
      <trkpt lat="45.9802" lon="6.44173">
        <ele>1651</ele>
        <time>2021-11-20T09:44:05Z</time>
      </trkpt>
      <trkpt lat="45.98018" lon="6.44171">
        <ele>1651</ele>
        <time>2021-11-20T09:44:08Z</time>
      </trkpt>
      <trkpt lat="45.98016" lon="6.4417">
        <ele>1652</ele>
        <time>2021-11-20T09:44:11Z</time>
      </trkpt>
      <trkpt lat="45.98014" lon="6.44168">
        <ele>1652</ele>
        <time>2021-11-20T09:44:14Z</time>
      </trkpt>
      <trkpt lat="45.98011" lon="6.44168">
        <ele>1652</ele>
        <time>2021-11-20T09:44:17Z</time>
      </trkpt>
      <trkpt lat="45.98009" lon="6.44169">
        <ele>1653</ele>
        <time>2021-11-20T09:44:20Z</time>
      </trkpt>
      <trkpt lat="45.98007" lon="6.4417">
        <ele>1653</ele>
        <time>2021-11-20T09:44:23Z</time>
      </trkpt>
      <trkpt lat="45.98006" lon="6.44171">
        <ele>1653</ele>
        <time>2021-11-20T09:44:26Z</time>
      </trkpt>
      <trkpt lat="45.98004" lon="6.44172">
        <ele>1653</ele>
        <time>2021-11-20T09:44:29Z</time>
      </trkpt>
      <trkpt lat="45.98002" lon="6.44174">
        <ele>1654</ele>
        <time>2021-11-20T09:44:32Z</time>
      </trkpt>
      <trkpt lat="45.98" lon="6.44175">
        <ele>1654</ele>
        <time>2021-11-20T09:44:35Z</time>
      </trkpt>
      <trkpt lat="45.97998" lon="6.44178">
        <ele>1654</ele>
        <time>2021-11-20T09:44:38Z</time>
      </trkpt>
      <trkpt lat="45.97997" lon="6.4418">
        <ele>1654</ele>
        <time>2021-11-20T09:44:40Z</time>
      </trkpt>
      <trkpt lat="45.97996" lon="6.44183">
        <ele>1654</ele>
        <time>2021-11-20T09:44:42Z</time>
      </trkpt>
      <trkpt lat="45.97994" lon="6.44184">
        <ele>1654</ele>
        <time>2021-11-20T09:44:45Z</time>
      </trkpt>
      <trkpt lat="45.97991" lon="6.44184">
        <ele>1654</ele>
        <time>2021-11-20T09:44:47Z</time>
      </trkpt>
      <trkpt lat="45.97989" lon="6.44182">
        <ele>1654</ele>
        <time>2021-11-20T09:44:50Z</time>
      </trkpt>
      <trkpt lat="45.97987" lon="6.44181">
        <ele>1654</ele>
        <time>2021-11-20T09:44:53Z</time>
      </trkpt>
      <trkpt lat="45.97986" lon="6.4418">
        <ele>1654</ele>
        <time>2021-11-20T09:44:55Z</time>
      </trkpt>
      <trkpt lat="45.97984" lon="6.44179">
        <ele>1654</ele>
        <time>2021-11-20T09:44:57Z</time>
      </trkpt>
      <trkpt lat="45.97982" lon="6.44178">
        <ele>1654</ele>
        <time>2021-11-20T09:44:59Z</time>
      </trkpt>
      <trkpt lat="45.97981" lon="6.44177">
        <ele>1654</ele>
        <time>2021-11-20T09:45:01Z</time>
      </trkpt>
      <trkpt lat="45.97978" lon="6.44175">
        <ele>1655</ele>
        <time>2021-11-20T09:45:04Z</time>
      </trkpt>
      <trkpt lat="45.97976" lon="6.44174">
        <ele>1655</ele>
        <time>2021-11-20T09:45:07Z</time>
      </trkpt>
      <trkpt lat="45.97974" lon="6.44172">
        <ele>1655</ele>
        <time>2021-11-20T09:45:10Z</time>
      </trkpt>
      <trkpt lat="45.97972" lon="6.44171">
        <ele>1656</ele>
        <time>2021-11-20T09:45:13Z</time>
      </trkpt>
      <trkpt lat="45.9797" lon="6.4417">
        <ele>1656</ele>
        <time>2021-11-20T09:45:16Z</time>
      </trkpt>
      <trkpt lat="45.97968" lon="6.44168">
        <ele>1657</ele>
        <time>2021-11-20T09:45:19Z</time>
      </trkpt>
      <trkpt lat="45.97965" lon="6.44167">
        <ele>1657</ele>
        <time>2021-11-20T09:45:22Z</time>
      </trkpt>
      <trkpt lat="45.97964" lon="6.44167">
        <ele>1657</ele>
        <time>2021-11-20T09:45:24Z</time>
      </trkpt>
      <trkpt lat="45.97958" lon="6.44166">
        <ele>1657</ele>
        <time>2021-11-20T09:45:32Z</time>
      </trkpt>
      <trkpt lat="45.97955" lon="6.44166">
        <ele>1658</ele>
        <time>2021-11-20T09:45:35Z</time>
      </trkpt>
      <trkpt lat="45.97953" lon="6.44166">
        <ele>1658</ele>
        <time>2021-11-20T09:45:38Z</time>
      </trkpt>
      <trkpt lat="45.97951" lon="6.44166">
        <ele>1658</ele>
        <time>2021-11-20T09:45:40Z</time>
      </trkpt>
      <trkpt lat="45.97948" lon="6.44167">
        <ele>1659</ele>
        <time>2021-11-20T09:45:43Z</time>
      </trkpt>
      <trkpt lat="45.97946" lon="6.44168">
        <ele>1659</ele>
        <time>2021-11-20T09:45:46Z</time>
      </trkpt>
      <trkpt lat="45.97944" lon="6.44169">
        <ele>1659</ele>
        <time>2021-11-20T09:45:49Z</time>
      </trkpt>
      <trkpt lat="45.97941" lon="6.4417">
        <ele>1659</ele>
        <time>2021-11-20T09:45:52Z</time>
      </trkpt>
      <trkpt lat="45.97939" lon="6.44172">
        <ele>1659</ele>
        <time>2021-11-20T09:45:55Z</time>
      </trkpt>
      <trkpt lat="45.97936" lon="6.44173">
        <ele>1659</ele>
        <time>2021-11-20T09:45:58Z</time>
      </trkpt>
      <trkpt lat="45.97934" lon="6.44173">
        <ele>1659</ele>
        <time>2021-11-20T09:46:01Z</time>
      </trkpt>
      <trkpt lat="45.97932" lon="6.44174">
        <ele>1660</ele>
        <time>2021-11-20T09:46:04Z</time>
      </trkpt>
      <trkpt lat="45.9793" lon="6.44174">
        <ele>1660</ele>
        <time>2021-11-20T09:46:07Z</time>
      </trkpt>
      <trkpt lat="45.97928" lon="6.44172">
        <ele>1660</ele>
        <time>2021-11-20T09:46:10Z</time>
      </trkpt>
      <trkpt lat="45.97926" lon="6.44171">
        <ele>1661</ele>
        <time>2021-11-20T09:46:13Z</time>
      </trkpt>
      <trkpt lat="45.97924" lon="6.44169">
        <ele>1661</ele>
        <time>2021-11-20T09:46:16Z</time>
      </trkpt>
      <trkpt lat="45.97922" lon="6.44167">
        <ele>1661</ele>
        <time>2021-11-20T09:46:19Z</time>
      </trkpt>
      <trkpt lat="45.97921" lon="6.44166">
        <ele>1662</ele>
        <time>2021-11-20T09:46:22Z</time>
      </trkpt>
      <trkpt lat="45.9792" lon="6.44164">
        <ele>1662</ele>
        <time>2021-11-20T09:46:25Z</time>
      </trkpt>
      <trkpt lat="45.97919" lon="6.44161">
        <ele>1663</ele>
        <time>2021-11-20T09:46:28Z</time>
      </trkpt>
      <trkpt lat="45.97917" lon="6.44159">
        <ele>1664</ele>
        <time>2021-11-20T09:46:33Z</time>
      </trkpt>
      <trkpt lat="45.97917" lon="6.44156">
        <ele>1664</ele>
        <time>2021-11-20T09:46:36Z</time>
      </trkpt>
      <trkpt lat="45.97915" lon="6.44154">
        <ele>1664</ele>
        <time>2021-11-20T09:46:40Z</time>
      </trkpt>
      <trkpt lat="45.97915" lon="6.4415">
        <ele>1664</ele>
        <time>2021-11-20T09:46:43Z</time>
      </trkpt>
      <trkpt lat="45.97916" lon="6.44147">
        <ele>1664</ele>
        <time>2021-11-20T09:46:46Z</time>
      </trkpt>
      <trkpt lat="45.97916" lon="6.44143">
        <ele>1664</ele>
        <time>2021-11-20T09:46:49Z</time>
      </trkpt>
      <trkpt lat="45.97917" lon="6.4414">
        <ele>1665</ele>
        <time>2021-11-20T09:46:52Z</time>
      </trkpt>
      <trkpt lat="45.97918" lon="6.44138">
        <ele>1666</ele>
        <time>2021-11-20T09:46:56Z</time>
      </trkpt>
      <trkpt lat="45.97919" lon="6.44135">
        <ele>1667</ele>
        <time>2021-11-20T09:47:00Z</time>
      </trkpt>
      <trkpt lat="45.9792" lon="6.44132">
        <ele>1667</ele>
        <time>2021-11-20T09:47:04Z</time>
      </trkpt>
      <trkpt lat="45.97921" lon="6.4413">
        <ele>1667</ele>
        <time>2021-11-20T09:47:09Z</time>
      </trkpt>
      <trkpt lat="45.97922" lon="6.44127">
        <ele>1668</ele>
        <time>2021-11-20T09:47:14Z</time>
      </trkpt>
      <trkpt lat="45.97923" lon="6.44124">
        <ele>1669</ele>
        <time>2021-11-20T09:47:18Z</time>
      </trkpt>
      <trkpt lat="45.97922" lon="6.44122">
        <ele>1670</ele>
        <time>2021-11-20T09:47:22Z</time>
      </trkpt>
      <trkpt lat="45.97923" lon="6.44119">
        <ele>1670</ele>
        <time>2021-11-20T09:47:27Z</time>
      </trkpt>
      <trkpt lat="45.97924" lon="6.44116">
        <ele>1672</ele>
        <time>2021-11-20T09:47:33Z</time>
      </trkpt>
      <trkpt lat="45.97924" lon="6.44113">
        <ele>1672</ele>
        <time>2021-11-20T09:47:37Z</time>
      </trkpt>
      <trkpt lat="45.97926" lon="6.44112">
        <ele>1673</ele>
        <time>2021-11-20T09:47:41Z</time>
      </trkpt>
      <trkpt lat="45.97928" lon="6.4411">
        <ele>1673</ele>
        <time>2021-11-20T09:47:46Z</time>
      </trkpt>
      <trkpt lat="45.97928" lon="6.44108">
        <ele>1674</ele>
        <time>2021-11-20T09:47:50Z</time>
      </trkpt>
      <trkpt lat="45.9793" lon="6.44107">
        <ele>1674</ele>
        <time>2021-11-20T09:47:55Z</time>
      </trkpt>
      <trkpt lat="45.97931" lon="6.44104">
        <ele>1675</ele>
        <time>2021-11-20T09:48:00Z</time>
      </trkpt>
      <trkpt lat="45.97932" lon="6.44101">
        <ele>1675</ele>
        <time>2021-11-20T09:48:04Z</time>
      </trkpt>
      <trkpt lat="45.97934" lon="6.44099">
        <ele>1677</ele>
        <time>2021-11-20T09:48:10Z</time>
      </trkpt>
      <trkpt lat="45.97935" lon="6.44097">
        <ele>1678</ele>
        <time>2021-11-20T09:48:15Z</time>
      </trkpt>
      <trkpt lat="45.97937" lon="6.44095">
        <ele>1678</ele>
        <time>2021-11-20T09:48:21Z</time>
      </trkpt>
      <trkpt lat="45.97939" lon="6.44094">
        <ele>1679</ele>
        <time>2021-11-20T09:48:26Z</time>
      </trkpt>
      <trkpt lat="45.97941" lon="6.44094">
        <ele>1680</ele>
        <time>2021-11-20T09:48:30Z</time>
      </trkpt>
      <trkpt lat="45.97943" lon="6.44094">
        <ele>1681</ele>
        <time>2021-11-20T09:48:35Z</time>
      </trkpt>
      <trkpt lat="45.97945" lon="6.44096">
        <ele>1680</ele>
        <time>2021-11-20T09:48:39Z</time>
      </trkpt>
      <trkpt lat="45.97946" lon="6.44098">
        <ele>1680</ele>
        <time>2021-11-20T09:48:42Z</time>
      </trkpt>
      <trkpt lat="45.97948" lon="6.441">
        <ele>1680</ele>
        <time>2021-11-20T09:48:46Z</time>
      </trkpt>
      <trkpt lat="45.9795" lon="6.44102">
        <ele>1681</ele>
        <time>2021-11-20T09:48:49Z</time>
      </trkpt>
      <trkpt lat="45.97951" lon="6.44103">
        <ele>1681</ele>
        <time>2021-11-20T09:48:53Z</time>
      </trkpt>
      <trkpt lat="45.97953" lon="6.44104">
        <ele>1681</ele>
        <time>2021-11-20T09:48:57Z</time>
      </trkpt>
      <trkpt lat="45.97955" lon="6.44104">
        <ele>1682</ele>
        <time>2021-11-20T09:49:00Z</time>
      </trkpt>
      <trkpt lat="45.97958" lon="6.44104">
        <ele>1682</ele>
        <time>2021-11-20T09:49:03Z</time>
      </trkpt>
      <trkpt lat="45.9796" lon="6.44104">
        <ele>1682</ele>
        <time>2021-11-20T09:49:06Z</time>
      </trkpt>
      <trkpt lat="45.97961" lon="6.44103">
        <ele>1682</ele>
        <time>2021-11-20T09:49:09Z</time>
      </trkpt>
      <trkpt lat="45.97963" lon="6.44102">
        <ele>1683</ele>
        <time>2021-11-20T09:49:13Z</time>
      </trkpt>
      <trkpt lat="45.97965" lon="6.441">
        <ele>1683</ele>
        <time>2021-11-20T09:49:17Z</time>
      </trkpt>
      <trkpt lat="45.97966" lon="6.44098">
        <ele>1685</ele>
        <time>2021-11-20T09:49:21Z</time>
      </trkpt>
      <trkpt lat="45.97968" lon="6.44097">
        <ele>1685</ele>
        <time>2021-11-20T09:49:25Z</time>
      </trkpt>
      <trkpt lat="45.97969" lon="6.44094">
        <ele>1686</ele>
        <time>2021-11-20T09:49:29Z</time>
      </trkpt>
      <trkpt lat="45.97969" lon="6.44091">
        <ele>1686</ele>
        <time>2021-11-20T09:49:35Z</time>
      </trkpt>
      <trkpt lat="45.97968" lon="6.44089">
        <ele>1687</ele>
        <time>2021-11-20T09:49:39Z</time>
      </trkpt>
      <trkpt lat="45.97966" lon="6.44088">
        <ele>1687</ele>
        <time>2021-11-20T09:49:44Z</time>
      </trkpt>
      <trkpt lat="45.97965" lon="6.44085">
        <ele>1688</ele>
        <time>2021-11-20T09:49:50Z</time>
      </trkpt>
      <trkpt lat="45.97964" lon="6.44083">
        <ele>1688</ele>
        <time>2021-11-20T09:49:53Z</time>
      </trkpt>
      <trkpt lat="45.97963" lon="6.4408">
        <ele>1689</ele>
        <time>2021-11-20T09:49:56Z</time>
      </trkpt>
      <trkpt lat="45.97962" lon="6.44077">
        <ele>1689</ele>
        <time>2021-11-20T09:49:59Z</time>
      </trkpt>
      <trkpt lat="45.97961" lon="6.44075">
        <ele>1689</ele>
        <time>2021-11-20T09:50:01Z</time>
      </trkpt>
      <trkpt lat="45.9796" lon="6.44072">
        <ele>1689</ele>
        <time>2021-11-20T09:50:04Z</time>
      </trkpt>
      <trkpt lat="45.97959" lon="6.44069">
        <ele>1689</ele>
        <time>2021-11-20T09:50:07Z</time>
      </trkpt>
      <trkpt lat="45.97959" lon="6.44066">
        <ele>1689</ele>
        <time>2021-11-20T09:50:10Z</time>
      </trkpt>
      <trkpt lat="45.97959" lon="6.44063">
        <ele>1690</ele>
        <time>2021-11-20T09:50:13Z</time>
      </trkpt>
      <trkpt lat="45.9796" lon="6.4406">
        <ele>1690</ele>
        <time>2021-11-20T09:50:16Z</time>
      </trkpt>
      <trkpt lat="45.9796" lon="6.44057">
        <ele>1691</ele>
        <time>2021-11-20T09:50:19Z</time>
      </trkpt>
      <trkpt lat="45.9796" lon="6.44054">
        <ele>1692</ele>
        <time>2021-11-20T09:50:23Z</time>
      </trkpt>
      <trkpt lat="45.9796" lon="6.44052">
        <ele>1692</ele>
        <time>2021-11-20T09:50:27Z</time>
      </trkpt>
      <trkpt lat="45.97959" lon="6.44049">
        <ele>1692</ele>
        <time>2021-11-20T09:50:31Z</time>
      </trkpt>
      <trkpt lat="45.97958" lon="6.44047">
        <ele>1693</ele>
        <time>2021-11-20T09:50:36Z</time>
      </trkpt>
      <trkpt lat="45.97957" lon="6.44044">
        <ele>1693</ele>
        <time>2021-11-20T09:50:40Z</time>
      </trkpt>
      <trkpt lat="45.97955" lon="6.44042">
        <ele>1694</ele>
        <time>2021-11-20T09:50:44Z</time>
      </trkpt>
      <trkpt lat="45.97954" lon="6.44041">
        <ele>1695</ele>
        <time>2021-11-20T09:50:48Z</time>
      </trkpt>
      <trkpt lat="45.97952" lon="6.4404">
        <ele>1695</ele>
        <time>2021-11-20T09:50:52Z</time>
      </trkpt>
      <trkpt lat="45.97949" lon="6.44039">
        <ele>1696</ele>
        <time>2021-11-20T09:50:56Z</time>
      </trkpt>
      <trkpt lat="45.97947" lon="6.44039">
        <ele>1696</ele>
        <time>2021-11-20T09:50:59Z</time>
      </trkpt>
      <trkpt lat="45.97945" lon="6.44038">
        <ele>1697</ele>
        <time>2021-11-20T09:51:02Z</time>
      </trkpt>
      <trkpt lat="45.97944" lon="6.44038">
        <ele>1697</ele>
        <time>2021-11-20T09:51:05Z</time>
      </trkpt>
      <trkpt lat="45.97942" lon="6.44036">
        <ele>1697</ele>
        <time>2021-11-20T09:51:08Z</time>
      </trkpt>
      <trkpt lat="45.9794" lon="6.44034">
        <ele>1698</ele>
        <time>2021-11-20T09:51:12Z</time>
      </trkpt>
      <trkpt lat="45.97938" lon="6.44032">
        <ele>1698</ele>
        <time>2021-11-20T09:51:15Z</time>
      </trkpt>
      <trkpt lat="45.97935" lon="6.44031">
        <ele>1698</ele>
        <time>2021-11-20T09:51:18Z</time>
      </trkpt>
      <trkpt lat="45.97933" lon="6.44029">
        <ele>1698</ele>
        <time>2021-11-20T09:51:21Z</time>
      </trkpt>
      <trkpt lat="45.97931" lon="6.44027">
        <ele>1698</ele>
        <time>2021-11-20T09:51:24Z</time>
      </trkpt>
      <trkpt lat="45.9793" lon="6.44024">
        <ele>1698</ele>
        <time>2021-11-20T09:51:27Z</time>
      </trkpt>
      <trkpt lat="45.97929" lon="6.44021">
        <ele>1698</ele>
        <time>2021-11-20T09:51:30Z</time>
      </trkpt>
      <trkpt lat="45.97928" lon="6.4402">
        <ele>1700</ele>
        <time>2021-11-20T09:51:33Z</time>
      </trkpt>
      <trkpt lat="45.97926" lon="6.44017">
        <ele>1700</ele>
        <time>2021-11-20T09:51:36Z</time>
      </trkpt>
      <trkpt lat="45.97925" lon="6.44015">
        <ele>1700</ele>
        <time>2021-11-20T09:51:39Z</time>
      </trkpt>
      <trkpt lat="45.97925" lon="6.44012">
        <ele>1701</ele>
        <time>2021-11-20T09:51:42Z</time>
      </trkpt>
      <trkpt lat="45.97926" lon="6.44009">
        <ele>1701</ele>
        <time>2021-11-20T09:51:45Z</time>
      </trkpt>
      <trkpt lat="45.97928" lon="6.44008">
        <ele>1702</ele>
        <time>2021-11-20T09:51:48Z</time>
      </trkpt>
      <trkpt lat="45.9793" lon="6.44007">
        <ele>1703</ele>
        <time>2021-11-20T09:51:52Z</time>
      </trkpt>
      <trkpt lat="45.97932" lon="6.44005">
        <ele>1703</ele>
        <time>2021-11-20T09:51:56Z</time>
      </trkpt>
      <trkpt lat="45.97934" lon="6.44004">
        <ele>1704</ele>
        <time>2021-11-20T09:52:01Z</time>
      </trkpt>
      <trkpt lat="45.97934" lon="6.44001">
        <ele>1703</ele>
        <time>2021-11-20T09:52:05Z</time>
      </trkpt>
      <trkpt lat="45.97935" lon="6.43998">
        <ele>1704</ele>
        <time>2021-11-20T09:52:09Z</time>
      </trkpt>
      <trkpt lat="45.97934" lon="6.43995">
        <ele>1704</ele>
        <time>2021-11-20T09:52:13Z</time>
      </trkpt>
      <trkpt lat="45.97933" lon="6.43993">
        <ele>1705</ele>
        <time>2021-11-20T09:52:17Z</time>
      </trkpt>
      <trkpt lat="45.97933" lon="6.4399">
        <ele>1706</ele>
        <time>2021-11-20T09:52:20Z</time>
      </trkpt>
      <trkpt lat="45.97935" lon="6.43989">
        <ele>1707</ele>
        <time>2021-11-20T09:52:24Z</time>
      </trkpt>
      <trkpt lat="45.97937" lon="6.4399">
        <ele>1707</ele>
        <time>2021-11-20T09:52:28Z</time>
      </trkpt>
      <trkpt lat="45.97939" lon="6.43991">
        <ele>1708</ele>
        <time>2021-11-20T09:52:33Z</time>
      </trkpt>
      <trkpt lat="45.97941" lon="6.43989">
        <ele>1709</ele>
        <time>2021-11-20T09:52:39Z</time>
      </trkpt>
      <trkpt lat="45.97941" lon="6.43987">
        <ele>1709</ele>
        <time>2021-11-20T09:52:44Z</time>
      </trkpt>
      <trkpt lat="45.97941" lon="6.43983">
        <ele>1709</ele>
        <time>2021-11-20T09:52:48Z</time>
      </trkpt>
      <trkpt lat="45.97941" lon="6.4398">
        <ele>1710</ele>
        <time>2021-11-20T09:52:52Z</time>
      </trkpt>
      <trkpt lat="45.9794" lon="6.43977">
        <ele>1710</ele>
        <time>2021-11-20T09:52:56Z</time>
      </trkpt>
      <trkpt lat="45.9794" lon="6.43975">
        <ele>1712</ele>
        <time>2021-11-20T09:53:01Z</time>
      </trkpt>
      <trkpt lat="45.9794" lon="6.43972">
        <ele>1712</ele>
        <time>2021-11-20T09:53:05Z</time>
      </trkpt>
      <trkpt lat="45.97938" lon="6.4397">
        <ele>1713</ele>
        <time>2021-11-20T09:53:11Z</time>
      </trkpt>
      <trkpt lat="45.97937" lon="6.43967">
        <ele>1713</ele>
        <time>2021-11-20T09:53:16Z</time>
      </trkpt>
      <trkpt lat="45.97935" lon="6.43966">
        <ele>1713</ele>
        <time>2021-11-20T09:53:21Z</time>
      </trkpt>
      <trkpt lat="45.97934" lon="6.43964">
        <ele>1714</ele>
        <time>2021-11-20T09:53:25Z</time>
      </trkpt>
      <trkpt lat="45.97932" lon="6.43963">
        <ele>1715</ele>
        <time>2021-11-20T09:53:29Z</time>
      </trkpt>
      <trkpt lat="45.97931" lon="6.4396">
        <ele>1716</ele>
        <time>2021-11-20T09:53:34Z</time>
      </trkpt>
      <trkpt lat="45.9793" lon="6.43958">
        <ele>1717</ele>
        <time>2021-11-20T09:53:39Z</time>
      </trkpt>
      <trkpt lat="45.97928" lon="6.43957">
        <ele>1718</ele>
        <time>2021-11-20T09:53:44Z</time>
      </trkpt>
      <trkpt lat="45.97926" lon="6.43955">
        <ele>1719</ele>
        <time>2021-11-20T09:53:49Z</time>
      </trkpt>
      <trkpt lat="45.97925" lon="6.43953">
        <ele>1718</ele>
        <time>2021-11-20T09:53:54Z</time>
      </trkpt>
      <trkpt lat="45.97923" lon="6.43952">
        <ele>1718</ele>
        <time>2021-11-20T09:53:58Z</time>
      </trkpt>
      <trkpt lat="45.97921" lon="6.43951">
        <ele>1718</ele>
        <time>2021-11-20T09:54:02Z</time>
      </trkpt>
      <trkpt lat="45.97921" lon="6.43948">
        <ele>1719</ele>
        <time>2021-11-20T09:54:07Z</time>
      </trkpt>
      <trkpt lat="45.97923" lon="6.43946">
        <ele>1720</ele>
        <time>2021-11-20T09:54:11Z</time>
      </trkpt>
      <trkpt lat="45.97924" lon="6.43944">
        <ele>1720</ele>
        <time>2021-11-20T09:54:15Z</time>
      </trkpt>
      <trkpt lat="45.97925" lon="6.43942">
        <ele>1721</ele>
        <time>2021-11-20T09:54:19Z</time>
      </trkpt>
      <trkpt lat="45.97927" lon="6.4394">
        <ele>1722</ele>
        <time>2021-11-20T09:54:23Z</time>
      </trkpt>
      <trkpt lat="45.97928" lon="6.43938">
        <ele>1722</ele>
        <time>2021-11-20T09:54:27Z</time>
      </trkpt>
      <trkpt lat="45.97928" lon="6.43934">
        <ele>1723</ele>
        <time>2021-11-20T09:54:34Z</time>
      </trkpt>
      <trkpt lat="45.97927" lon="6.43933">
        <ele>1724</ele>
        <time>2021-11-20T09:54:39Z</time>
      </trkpt>
      <trkpt lat="45.97926" lon="6.4393">
        <ele>1724</ele>
        <time>2021-11-20T09:54:43Z</time>
      </trkpt>
      <trkpt lat="45.97924" lon="6.43928">
        <ele>1725</ele>
        <time>2021-11-20T09:54:47Z</time>
      </trkpt>
      <trkpt lat="45.97923" lon="6.43925">
        <ele>1726</ele>
        <time>2021-11-20T09:54:51Z</time>
      </trkpt>
      <trkpt lat="45.97923" lon="6.43923">
        <ele>1726</ele>
        <time>2021-11-20T09:54:55Z</time>
      </trkpt>
      <trkpt lat="45.97921" lon="6.4392">
        <ele>1727</ele>
        <time>2021-11-20T09:54:59Z</time>
      </trkpt>
      <trkpt lat="45.97921" lon="6.43917">
        <ele>1727</ele>
        <time>2021-11-20T09:55:03Z</time>
      </trkpt>
      <trkpt lat="45.97922" lon="6.43915">
        <ele>1727</ele>
        <time>2021-11-20T09:55:07Z</time>
      </trkpt>
      <trkpt lat="45.97923" lon="6.43913">
        <ele>1728</ele>
        <time>2021-11-20T09:55:10Z</time>
      </trkpt>
      <trkpt lat="45.97924" lon="6.4391">
        <ele>1728</ele>
        <time>2021-11-20T09:55:15Z</time>
      </trkpt>
      <trkpt lat="45.97926" lon="6.43909">
        <ele>1729</ele>
        <time>2021-11-20T09:55:19Z</time>
      </trkpt>
      <trkpt lat="45.97928" lon="6.43907">
        <ele>1730</ele>
        <time>2021-11-20T09:55:23Z</time>
      </trkpt>
      <trkpt lat="45.97929" lon="6.43905">
        <ele>1730</ele>
        <time>2021-11-20T09:55:26Z</time>
      </trkpt>
      <trkpt lat="45.97931" lon="6.43903">
        <ele>1730</ele>
        <time>2021-11-20T09:55:29Z</time>
      </trkpt>
      <trkpt lat="45.97933" lon="6.43902">
        <ele>1730</ele>
        <time>2021-11-20T09:55:32Z</time>
      </trkpt>
      <trkpt lat="45.97935" lon="6.439">
        <ele>1730</ele>
        <time>2021-11-20T09:55:35Z</time>
      </trkpt>
      <trkpt lat="45.97937" lon="6.43899">
        <ele>1731</ele>
        <time>2021-11-20T09:55:38Z</time>
      </trkpt>
      <trkpt lat="45.97939" lon="6.43898">
        <ele>1731</ele>
        <time>2021-11-20T09:55:41Z</time>
      </trkpt>
      <trkpt lat="45.97941" lon="6.43897">
        <ele>1732</ele>
        <time>2021-11-20T09:55:44Z</time>
      </trkpt>
      <trkpt lat="45.97944" lon="6.43897">
        <ele>1732</ele>
        <time>2021-11-20T09:55:47Z</time>
      </trkpt>
      <trkpt lat="45.97946" lon="6.43896">
        <ele>1732</ele>
        <time>2021-11-20T09:55:50Z</time>
      </trkpt>
      <trkpt lat="45.97948" lon="6.43896">
        <ele>1732</ele>
        <time>2021-11-20T09:55:53Z</time>
      </trkpt>
      <trkpt lat="45.9795" lon="6.43896">
        <ele>1732</ele>
        <time>2021-11-20T09:55:56Z</time>
      </trkpt>
      <trkpt lat="45.97952" lon="6.43896">
        <ele>1733</ele>
        <time>2021-11-20T09:55:59Z</time>
      </trkpt>
      <trkpt lat="45.97954" lon="6.43896">
        <ele>1733</ele>
        <time>2021-11-20T09:56:02Z</time>
      </trkpt>
      <trkpt lat="45.97956" lon="6.43895">
        <ele>1733</ele>
        <time>2021-11-20T09:56:06Z</time>
      </trkpt>
      <trkpt lat="45.97958" lon="6.43894">
        <ele>1733</ele>
        <time>2021-11-20T09:56:09Z</time>
      </trkpt>
      <trkpt lat="45.9796" lon="6.43895">
        <ele>1734</ele>
        <time>2021-11-20T09:56:12Z</time>
      </trkpt>
      <trkpt lat="45.97962" lon="6.43894">
        <ele>1734</ele>
        <time>2021-11-20T09:56:15Z</time>
      </trkpt>
      <trkpt lat="45.97963" lon="6.43894">
        <ele>1735</ele>
        <time>2021-11-20T09:56:18Z</time>
      </trkpt>
      <trkpt lat="45.97965" lon="6.43893">
        <ele>1735</ele>
        <time>2021-11-20T09:56:21Z</time>
      </trkpt>
      <trkpt lat="45.97967" lon="6.43893">
        <ele>1735</ele>
        <time>2021-11-20T09:56:24Z</time>
      </trkpt>
      <trkpt lat="45.97969" lon="6.43892">
        <ele>1736</ele>
        <time>2021-11-20T09:56:28Z</time>
      </trkpt>
      <trkpt lat="45.97971" lon="6.43892">
        <ele>1737</ele>
        <time>2021-11-20T09:56:31Z</time>
      </trkpt>
      <trkpt lat="45.97973" lon="6.43892">
        <ele>1737</ele>
        <time>2021-11-20T09:56:34Z</time>
      </trkpt>
      <trkpt lat="45.97975" lon="6.43891">
        <ele>1737</ele>
        <time>2021-11-20T09:56:37Z</time>
      </trkpt>
      <trkpt lat="45.97977" lon="6.43891">
        <ele>1738</ele>
        <time>2021-11-20T09:56:40Z</time>
      </trkpt>
      <trkpt lat="45.97979" lon="6.4389">
        <ele>1738</ele>
        <time>2021-11-20T09:56:44Z</time>
      </trkpt>
      <trkpt lat="45.97981" lon="6.43888">
        <ele>1739</ele>
        <time>2021-11-20T09:56:48Z</time>
      </trkpt>
      <trkpt lat="45.97982" lon="6.43886">
        <ele>1740</ele>
        <time>2021-11-20T09:56:53Z</time>
      </trkpt>
      <trkpt lat="45.97984" lon="6.43884">
        <ele>1741</ele>
        <time>2021-11-20T09:56:58Z</time>
      </trkpt>
      <trkpt lat="45.97985" lon="6.43882">
        <ele>1741</ele>
        <time>2021-11-20T09:57:03Z</time>
      </trkpt>
      <trkpt lat="45.97986" lon="6.4388">
        <ele>1742</ele>
        <time>2021-11-20T09:57:08Z</time>
      </trkpt>
      <trkpt lat="45.97986" lon="6.43877">
        <ele>1743</ele>
        <time>2021-11-20T09:57:12Z</time>
      </trkpt>
      <trkpt lat="45.97986" lon="6.43874">
        <ele>1743</ele>
        <time>2021-11-20T09:57:16Z</time>
      </trkpt>
      <trkpt lat="45.97985" lon="6.43872">
        <ele>1743</ele>
        <time>2021-11-20T09:57:20Z</time>
      </trkpt>
      <trkpt lat="45.97983" lon="6.4387">
        <ele>1743</ele>
        <time>2021-11-20T09:57:24Z</time>
      </trkpt>
      <trkpt lat="45.97981" lon="6.43869">
        <ele>1744</ele>
        <time>2021-11-20T09:57:27Z</time>
      </trkpt>
      <trkpt lat="45.97979" lon="6.43868">
        <ele>1745</ele>
        <time>2021-11-20T09:57:31Z</time>
      </trkpt>
      <trkpt lat="45.97977" lon="6.43867">
        <ele>1745</ele>
        <time>2021-11-20T09:57:34Z</time>
      </trkpt>
      <trkpt lat="45.97975" lon="6.43866">
        <ele>1745</ele>
        <time>2021-11-20T09:57:38Z</time>
      </trkpt>
      <trkpt lat="45.97973" lon="6.43865">
        <ele>1746</ele>
        <time>2021-11-20T09:57:42Z</time>
      </trkpt>
      <trkpt lat="45.97971" lon="6.43865">
        <ele>1746</ele>
        <time>2021-11-20T09:57:45Z</time>
      </trkpt>
      <trkpt lat="45.97969" lon="6.43864">
        <ele>1747</ele>
        <time>2021-11-20T09:57:48Z</time>
      </trkpt>
      <trkpt lat="45.97967" lon="6.43862">
        <ele>1747</ele>
        <time>2021-11-20T09:57:51Z</time>
      </trkpt>
      <trkpt lat="45.97967" lon="6.43859">
        <ele>1748</ele>
        <time>2021-11-20T09:57:54Z</time>
      </trkpt>
      <trkpt lat="45.97967" lon="6.43857">
        <ele>1748</ele>
        <time>2021-11-20T09:57:57Z</time>
      </trkpt>
      <trkpt lat="45.97969" lon="6.43855">
        <ele>1748</ele>
        <time>2021-11-20T09:58:01Z</time>
      </trkpt>
      <trkpt lat="45.9797" lon="6.43853">
        <ele>1749</ele>
        <time>2021-11-20T09:58:07Z</time>
      </trkpt>
      <trkpt lat="45.97972" lon="6.43851">
        <ele>1749</ele>
        <time>2021-11-20T09:58:11Z</time>
      </trkpt>
      <trkpt lat="45.97973" lon="6.43849">
        <ele>1750</ele>
        <time>2021-11-20T09:58:16Z</time>
      </trkpt>
      <trkpt lat="45.97975" lon="6.43848">
        <ele>1750</ele>
        <time>2021-11-20T09:58:21Z</time>
      </trkpt>
      <trkpt lat="45.97977" lon="6.43846">
        <ele>1750</ele>
        <time>2021-11-20T09:58:25Z</time>
      </trkpt>
      <trkpt lat="45.97979" lon="6.43845">
        <ele>1751</ele>
        <time>2021-11-20T09:58:29Z</time>
      </trkpt>
      <trkpt lat="45.9798" lon="6.43843">
        <ele>1752</ele>
        <time>2021-11-20T09:58:33Z</time>
      </trkpt>
      <trkpt lat="45.97982" lon="6.43841">
        <ele>1752</ele>
        <time>2021-11-20T09:58:38Z</time>
      </trkpt>
      <trkpt lat="45.97983" lon="6.43838">
        <ele>1752</ele>
        <time>2021-11-20T09:58:41Z</time>
      </trkpt>
      <trkpt lat="45.97984" lon="6.43836">
        <ele>1753</ele>
        <time>2021-11-20T09:58:44Z</time>
      </trkpt>
      <trkpt lat="45.97986" lon="6.43834">
        <ele>1754</ele>
        <time>2021-11-20T09:58:48Z</time>
      </trkpt>
      <trkpt lat="45.97988" lon="6.43833">
        <ele>1753</ele>
        <time>2021-11-20T09:58:52Z</time>
      </trkpt>
      <trkpt lat="45.97989" lon="6.43831">
        <ele>1754</ele>
        <time>2021-11-20T09:58:57Z</time>
      </trkpt>
      <trkpt lat="45.97991" lon="6.43829">
        <ele>1755</ele>
        <time>2021-11-20T09:59:01Z</time>
      </trkpt>
      <trkpt lat="45.97991" lon="6.43826">
        <ele>1756</ele>
        <time>2021-11-20T09:59:06Z</time>
      </trkpt>
      <trkpt lat="45.97991" lon="6.43823">
        <ele>1756</ele>
        <time>2021-11-20T09:59:12Z</time>
      </trkpt>
      <trkpt lat="45.97991" lon="6.4382">
        <ele>1757</ele>
        <time>2021-11-20T09:59:16Z</time>
      </trkpt>
      <trkpt lat="45.97991" lon="6.43817">
        <ele>1758</ele>
        <time>2021-11-20T09:59:21Z</time>
      </trkpt>
      <trkpt lat="45.97989" lon="6.43815">
        <ele>1758</ele>
        <time>2021-11-20T09:59:25Z</time>
      </trkpt>
      <trkpt lat="45.97988" lon="6.43813">
        <ele>1758</ele>
        <time>2021-11-20T09:59:30Z</time>
      </trkpt>
      <trkpt lat="45.97986" lon="6.43812">
        <ele>1759</ele>
        <time>2021-11-20T09:59:35Z</time>
      </trkpt>
      <trkpt lat="45.97984" lon="6.4381">
        <ele>1760</ele>
        <time>2021-11-20T09:59:39Z</time>
      </trkpt>
      <trkpt lat="45.97982" lon="6.43807">
        <ele>1760</ele>
        <time>2021-11-20T09:59:43Z</time>
      </trkpt>
      <trkpt lat="45.97981" lon="6.43805">
        <ele>1761</ele>
        <time>2021-11-20T09:59:47Z</time>
      </trkpt>
      <trkpt lat="45.97979" lon="6.43803">
        <ele>1762</ele>
        <time>2021-11-20T09:59:51Z</time>
      </trkpt>
      <trkpt lat="45.97978" lon="6.43801">
        <ele>1762</ele>
        <time>2021-11-20T09:59:54Z</time>
      </trkpt>
      <trkpt lat="45.97978" lon="6.43798">
        <ele>1763</ele>
        <time>2021-11-20T09:59:58Z</time>
      </trkpt>
      <trkpt lat="45.97978" lon="6.43795">
        <ele>1763</ele>
        <time>2021-11-20T10:00:01Z</time>
      </trkpt>
      <trkpt lat="45.97977" lon="6.43793">
        <ele>1764</ele>
        <time>2021-11-20T10:00:04Z</time>
      </trkpt>
      <trkpt lat="45.97975" lon="6.43791">
        <ele>1764</ele>
        <time>2021-11-20T10:00:07Z</time>
      </trkpt>
      <trkpt lat="45.97974" lon="6.43789">
        <ele>1764</ele>
        <time>2021-11-20T10:00:11Z</time>
      </trkpt>
      <trkpt lat="45.97973" lon="6.43787">
        <ele>1765</ele>
        <time>2021-11-20T10:00:14Z</time>
      </trkpt>
      <trkpt lat="45.97972" lon="6.43785">
        <ele>1765</ele>
        <time>2021-11-20T10:00:17Z</time>
      </trkpt>
      <trkpt lat="45.97971" lon="6.43782">
        <ele>1766</ele>
        <time>2021-11-20T10:00:20Z</time>
      </trkpt>
      <trkpt lat="45.9797" lon="6.4378">
        <ele>1766</ele>
        <time>2021-11-20T10:00:23Z</time>
      </trkpt>
      <trkpt lat="45.97969" lon="6.43777">
        <ele>1766</ele>
        <time>2021-11-20T10:00:27Z</time>
      </trkpt>
      <trkpt lat="45.97968" lon="6.43774">
        <ele>1766</ele>
        <time>2021-11-20T10:00:30Z</time>
      </trkpt>
      <trkpt lat="45.97967" lon="6.43771">
        <ele>1766</ele>
        <time>2021-11-20T10:00:34Z</time>
      </trkpt>
      <trkpt lat="45.97966" lon="6.43769">
        <ele>1767</ele>
        <time>2021-11-20T10:00:38Z</time>
      </trkpt>
      <trkpt lat="45.97966" lon="6.43766">
        <ele>1767</ele>
        <time>2021-11-20T10:00:43Z</time>
      </trkpt>
      <trkpt lat="45.97966" lon="6.43763">
        <ele>1768</ele>
        <time>2021-11-20T10:00:47Z</time>
      </trkpt>
      <trkpt lat="45.97967" lon="6.4376">
        <ele>1769</ele>
        <time>2021-11-20T10:00:50Z</time>
      </trkpt>
      <trkpt lat="45.97967" lon="6.43758">
        <ele>1769</ele>
        <time>2021-11-20T10:00:55Z</time>
      </trkpt>
      <trkpt lat="45.97969" lon="6.43756">
        <ele>1769</ele>
        <time>2021-11-20T10:00:59Z</time>
      </trkpt>
      <trkpt lat="45.97969" lon="6.43753">
        <ele>1769</ele>
        <time>2021-11-20T10:01:02Z</time>
      </trkpt>
      <trkpt lat="45.97968" lon="6.4375">
        <ele>1769</ele>
        <time>2021-11-20T10:01:05Z</time>
      </trkpt>
      <trkpt lat="45.97967" lon="6.43748">
        <ele>1769</ele>
        <time>2021-11-20T10:01:08Z</time>
      </trkpt>
      <trkpt lat="45.97966" lon="6.43745">
        <ele>1769</ele>
        <time>2021-11-20T10:01:11Z</time>
      </trkpt>
      <trkpt lat="45.97965" lon="6.43742">
        <ele>1769</ele>
        <time>2021-11-20T10:01:14Z</time>
      </trkpt>
      <trkpt lat="45.97963" lon="6.43739">
        <ele>1769</ele>
        <time>2021-11-20T10:01:17Z</time>
      </trkpt>
      <trkpt lat="45.97962" lon="6.43736">
        <ele>1769</ele>
        <time>2021-11-20T10:01:20Z</time>
      </trkpt>
      <trkpt lat="45.97961" lon="6.43733">
        <ele>1769</ele>
        <time>2021-11-20T10:01:23Z</time>
      </trkpt>
      <trkpt lat="45.9796" lon="6.4373">
        <ele>1769</ele>
        <time>2021-11-20T10:01:26Z</time>
      </trkpt>
      <trkpt lat="45.9796" lon="6.43727">
        <ele>1770</ele>
        <time>2021-11-20T10:01:29Z</time>
      </trkpt>
      <trkpt lat="45.9796" lon="6.43724">
        <ele>1770</ele>
        <time>2021-11-20T10:01:32Z</time>
      </trkpt>
      <trkpt lat="45.9796" lon="6.43721">
        <ele>1770</ele>
        <time>2021-11-20T10:01:35Z</time>
      </trkpt>
      <trkpt lat="45.97959" lon="6.43718">
        <ele>1771</ele>
        <time>2021-11-20T10:01:38Z</time>
      </trkpt>
      <trkpt lat="45.97959" lon="6.43715">
        <ele>1771</ele>
        <time>2021-11-20T10:01:41Z</time>
      </trkpt>
      <trkpt lat="45.97958" lon="6.43713">
        <ele>1771</ele>
        <time>2021-11-20T10:01:44Z</time>
      </trkpt>
      <trkpt lat="45.97957" lon="6.4371">
        <ele>1771</ele>
        <time>2021-11-20T10:01:47Z</time>
      </trkpt>
      <trkpt lat="45.97957" lon="6.43707">
        <ele>1772</ele>
        <time>2021-11-20T10:01:50Z</time>
      </trkpt>
      <trkpt lat="45.97956" lon="6.43704">
        <ele>1772</ele>
        <time>2021-11-20T10:01:53Z</time>
      </trkpt>
      <trkpt lat="45.97956" lon="6.43702">
        <ele>1773</ele>
        <time>2021-11-20T10:01:56Z</time>
      </trkpt>
      <trkpt lat="45.97955" lon="6.43699">
        <ele>1773</ele>
        <time>2021-11-20T10:01:59Z</time>
      </trkpt>
      <trkpt lat="45.97955" lon="6.43697">
        <ele>1774</ele>
        <time>2021-11-20T10:02:02Z</time>
      </trkpt>
      <trkpt lat="45.97955" lon="6.43693">
        <ele>1773</ele>
        <time>2021-11-20T10:02:05Z</time>
      </trkpt>
      <trkpt lat="45.97956" lon="6.43691">
        <ele>1773</ele>
        <time>2021-11-20T10:02:08Z</time>
      </trkpt>
      <trkpt lat="45.97957" lon="6.43688">
        <ele>1774</ele>
        <time>2021-11-20T10:02:11Z</time>
      </trkpt>
      <trkpt lat="45.97958" lon="6.43684">
        <ele>1774</ele>
        <time>2021-11-20T10:02:14Z</time>
      </trkpt>
      <trkpt lat="45.97959" lon="6.43682">
        <ele>1774</ele>
        <time>2021-11-20T10:02:17Z</time>
      </trkpt>
      <trkpt lat="45.97958" lon="6.43679">
        <ele>1774</ele>
        <time>2021-11-20T10:02:21Z</time>
      </trkpt>
      <trkpt lat="45.97958" lon="6.43675">
        <ele>1774</ele>
        <time>2021-11-20T10:02:26Z</time>
      </trkpt>
      <trkpt lat="45.97958" lon="6.43672">
        <ele>1774</ele>
        <time>2021-11-20T10:02:29Z</time>
      </trkpt>
      <trkpt lat="45.97958" lon="6.4367">
        <ele>1774</ele>
        <time>2021-11-20T10:02:31Z</time>
      </trkpt>
      <trkpt lat="45.97958" lon="6.43666">
        <ele>1773</ele>
        <time>2021-11-20T10:02:34Z</time>
      </trkpt>
      <trkpt lat="45.97957" lon="6.43662">
        <ele>1773</ele>
        <time>2021-11-20T10:02:37Z</time>
      </trkpt>
      <trkpt lat="45.97957" lon="6.4366">
        <ele>1774</ele>
        <time>2021-11-20T10:02:40Z</time>
      </trkpt>
      <trkpt lat="45.97957" lon="6.43656">
        <ele>1774</ele>
        <time>2021-11-20T10:02:43Z</time>
      </trkpt>
      <trkpt lat="45.97957" lon="6.43654">
        <ele>1775</ele>
        <time>2021-11-20T10:02:46Z</time>
      </trkpt>
      <trkpt lat="45.97957" lon="6.4365">
        <ele>1775</ele>
        <time>2021-11-20T10:02:50Z</time>
      </trkpt>
      <trkpt lat="45.97956" lon="6.43647">
        <ele>1776</ele>
        <time>2021-11-20T10:02:54Z</time>
      </trkpt>
      <trkpt lat="45.97956" lon="6.43644">
        <ele>1776</ele>
        <time>2021-11-20T10:02:59Z</time>
      </trkpt>
      <trkpt lat="45.97956" lon="6.43641">
        <ele>1776</ele>
        <time>2021-11-20T10:03:03Z</time>
      </trkpt>
      <trkpt lat="45.97956" lon="6.43638">
        <ele>1777</ele>
        <time>2021-11-20T10:03:08Z</time>
      </trkpt>
      <trkpt lat="45.97956" lon="6.43636">
        <ele>1778</ele>
        <time>2021-11-20T10:03:12Z</time>
      </trkpt>
      <trkpt lat="45.97957" lon="6.43633">
        <ele>1778</ele>
        <time>2021-11-20T10:03:17Z</time>
      </trkpt>
      <trkpt lat="45.97958" lon="6.4363">
        <ele>1779</ele>
        <time>2021-11-20T10:03:21Z</time>
      </trkpt>
      <trkpt lat="45.97959" lon="6.43627">
        <ele>1780</ele>
        <time>2021-11-20T10:03:25Z</time>
      </trkpt>
      <trkpt lat="45.9796" lon="6.43625">
        <ele>1780</ele>
        <time>2021-11-20T10:03:28Z</time>
      </trkpt>
      <trkpt lat="45.97962" lon="6.43624">
        <ele>1780</ele>
        <time>2021-11-20T10:03:31Z</time>
      </trkpt>
      <trkpt lat="45.97965" lon="6.43624">
        <ele>1780</ele>
        <time>2021-11-20T10:03:34Z</time>
      </trkpt>
      <trkpt lat="45.97967" lon="6.43625">
        <ele>1780</ele>
        <time>2021-11-20T10:03:38Z</time>
      </trkpt>
      <trkpt lat="45.97969" lon="6.43625">
        <ele>1780</ele>
        <time>2021-11-20T10:03:41Z</time>
      </trkpt>
      <trkpt lat="45.97972" lon="6.43626">
        <ele>1780</ele>
        <time>2021-11-20T10:03:44Z</time>
      </trkpt>
      <trkpt lat="45.97974" lon="6.43626">
        <ele>1781</ele>
        <time>2021-11-20T10:03:47Z</time>
      </trkpt>
      <trkpt lat="45.97976" lon="6.43627">
        <ele>1781</ele>
        <time>2021-11-20T10:03:50Z</time>
      </trkpt>
      <trkpt lat="45.97979" lon="6.43628">
        <ele>1781</ele>
        <time>2021-11-20T10:03:53Z</time>
      </trkpt>
      <trkpt lat="45.97981" lon="6.43629">
        <ele>1781</ele>
        <time>2021-11-20T10:03:56Z</time>
      </trkpt>
      <trkpt lat="45.97983" lon="6.4363">
        <ele>1782</ele>
        <time>2021-11-20T10:03:58Z</time>
      </trkpt>
      <trkpt lat="45.97985" lon="6.43631">
        <ele>1782</ele>
        <time>2021-11-20T10:04:01Z</time>
      </trkpt>
      <trkpt lat="45.97987" lon="6.43632">
        <ele>1782</ele>
        <time>2021-11-20T10:04:04Z</time>
      </trkpt>
      <trkpt lat="45.9799" lon="6.43634">
        <ele>1782</ele>
        <time>2021-11-20T10:04:07Z</time>
      </trkpt>
      <trkpt lat="45.97992" lon="6.43635">
        <ele>1783</ele>
        <time>2021-11-20T10:04:10Z</time>
      </trkpt>
      <trkpt lat="45.97994" lon="6.43635">
        <ele>1783</ele>
        <time>2021-11-20T10:04:13Z</time>
      </trkpt>
      <trkpt lat="45.97994" lon="6.43632">
        <ele>1784</ele>
        <time>2021-11-20T10:04:17Z</time>
      </trkpt>
      <trkpt lat="45.97993" lon="6.43629">
        <ele>1785</ele>
        <time>2021-11-20T10:04:20Z</time>
      </trkpt>
      <trkpt lat="45.97992" lon="6.43626">
        <ele>1785</ele>
        <time>2021-11-20T10:04:24Z</time>
      </trkpt>
      <trkpt lat="45.97991" lon="6.43624">
        <ele>1786</ele>
        <time>2021-11-20T10:04:27Z</time>
      </trkpt>
      <trkpt lat="45.97989" lon="6.43621">
        <ele>1786</ele>
        <time>2021-11-20T10:04:30Z</time>
      </trkpt>
      <trkpt lat="45.97988" lon="6.43619">
        <ele>1786</ele>
        <time>2021-11-20T10:04:34Z</time>
      </trkpt>
      <trkpt lat="45.97986" lon="6.43617">
        <ele>1786</ele>
        <time>2021-11-20T10:04:36Z</time>
      </trkpt>
      <trkpt lat="45.97984" lon="6.43614">
        <ele>1787</ele>
        <time>2021-11-20T10:04:40Z</time>
      </trkpt>
      <trkpt lat="45.97983" lon="6.43613">
        <ele>1787</ele>
        <time>2021-11-20T10:04:43Z</time>
      </trkpt>
      <trkpt lat="45.97981" lon="6.43611">
        <ele>1787</ele>
        <time>2021-11-20T10:04:47Z</time>
      </trkpt>
      <trkpt lat="45.97979" lon="6.43608">
        <ele>1787</ele>
        <time>2021-11-20T10:04:51Z</time>
      </trkpt>
      <trkpt lat="45.97979" lon="6.43606">
        <ele>1788</ele>
        <time>2021-11-20T10:04:56Z</time>
      </trkpt>
      <trkpt lat="45.97977" lon="6.43604">
        <ele>1789</ele>
        <time>2021-11-20T10:05:00Z</time>
      </trkpt>
      <trkpt lat="45.97975" lon="6.43602">
        <ele>1789</ele>
        <time>2021-11-20T10:05:04Z</time>
      </trkpt>
      <trkpt lat="45.97974" lon="6.43601">
        <ele>1789</ele>
        <time>2021-11-20T10:05:07Z</time>
      </trkpt>
      <trkpt lat="45.97972" lon="6.43599">
        <ele>1789</ele>
        <time>2021-11-20T10:05:10Z</time>
      </trkpt>
      <trkpt lat="45.9797" lon="6.43598">
        <ele>1789</ele>
        <time>2021-11-20T10:05:13Z</time>
      </trkpt>
      <trkpt lat="45.97969" lon="6.43597">
        <ele>1790</ele>
        <time>2021-11-20T10:05:16Z</time>
      </trkpt>
      <trkpt lat="45.97967" lon="6.43595">
        <ele>1791</ele>
        <time>2021-11-20T10:05:20Z</time>
      </trkpt>
      <trkpt lat="45.97966" lon="6.43592">
        <ele>1791</ele>
        <time>2021-11-20T10:05:24Z</time>
      </trkpt>
      <trkpt lat="45.97965" lon="6.4359">
        <ele>1791</ele>
        <time>2021-11-20T10:05:28Z</time>
      </trkpt>
      <trkpt lat="45.97964" lon="6.43588">
        <ele>1792</ele>
        <time>2021-11-20T10:05:33Z</time>
      </trkpt>
      <trkpt lat="45.97963" lon="6.43585">
        <ele>1793</ele>
        <time>2021-11-20T10:05:38Z</time>
      </trkpt>
      <trkpt lat="45.97963" lon="6.43583">
        <ele>1794</ele>
        <time>2021-11-20T10:05:44Z</time>
      </trkpt>
      <trkpt lat="45.97961" lon="6.43581">
        <ele>1795</ele>
        <time>2021-11-20T10:05:48Z</time>
      </trkpt>
      <trkpt lat="45.9796" lon="6.43578">
        <ele>1795</ele>
        <time>2021-11-20T10:05:53Z</time>
      </trkpt>
      <trkpt lat="45.97958" lon="6.43577">
        <ele>1796</ele>
        <time>2021-11-20T10:05:57Z</time>
      </trkpt>
      <trkpt lat="45.97957" lon="6.43576">
        <ele>1796</ele>
        <time>2021-11-20T10:06:02Z</time>
      </trkpt>
      <trkpt lat="45.97955" lon="6.43576">
        <ele>1797</ele>
        <time>2021-11-20T10:06:07Z</time>
      </trkpt>
      <trkpt lat="45.97953" lon="6.43575">
        <ele>1797</ele>
        <time>2021-11-20T10:06:11Z</time>
      </trkpt>
      <trkpt lat="45.97951" lon="6.43574">
        <ele>1798</ele>
        <time>2021-11-20T10:06:14Z</time>
      </trkpt>
      <trkpt lat="45.97949" lon="6.43573">
        <ele>1798</ele>
        <time>2021-11-20T10:06:17Z</time>
      </trkpt>
      <trkpt lat="45.97948" lon="6.43571">
        <ele>1799</ele>
        <time>2021-11-20T10:06:20Z</time>
      </trkpt>
      <trkpt lat="45.97946" lon="6.43569">
        <ele>1799</ele>
        <time>2021-11-20T10:06:24Z</time>
      </trkpt>
      <trkpt lat="45.97944" lon="6.43567">
        <ele>1800</ele>
        <time>2021-11-20T10:06:28Z</time>
      </trkpt>
      <trkpt lat="45.97943" lon="6.43565">
        <ele>1800</ele>
        <time>2021-11-20T10:06:32Z</time>
      </trkpt>
      <trkpt lat="45.97941" lon="6.43564">
        <ele>1800</ele>
        <time>2021-11-20T10:06:36Z</time>
      </trkpt>
      <trkpt lat="45.9794" lon="6.43562">
        <ele>1801</ele>
        <time>2021-11-20T10:06:40Z</time>
      </trkpt>
      <trkpt lat="45.97938" lon="6.43561">
        <ele>1801</ele>
        <time>2021-11-20T10:06:44Z</time>
      </trkpt>
      <trkpt lat="45.97936" lon="6.43559">
        <ele>1802</ele>
        <time>2021-11-20T10:06:49Z</time>
      </trkpt>
      <trkpt lat="45.97935" lon="6.43558">
        <ele>1803</ele>
        <time>2021-11-20T10:06:53Z</time>
      </trkpt>
      <trkpt lat="45.97933" lon="6.43557">
        <ele>1804</ele>
        <time>2021-11-20T10:06:58Z</time>
      </trkpt>
      <trkpt lat="45.97931" lon="6.43555">
        <ele>1804</ele>
        <time>2021-11-20T10:07:03Z</time>
      </trkpt>
      <trkpt lat="45.97931" lon="6.43552">
        <ele>1804</ele>
        <time>2021-11-20T10:07:07Z</time>
      </trkpt>
      <trkpt lat="45.9793" lon="6.43549">
        <ele>1805</ele>
        <time>2021-11-20T10:07:13Z</time>
      </trkpt>
      <trkpt lat="45.97931" lon="6.43546">
        <ele>1806</ele>
        <time>2021-11-20T10:07:19Z</time>
      </trkpt>
      <trkpt lat="45.97933" lon="6.43545">
        <ele>1807</ele>
        <time>2021-11-20T10:07:23Z</time>
      </trkpt>
      <trkpt lat="45.97934" lon="6.43544">
        <ele>1807</ele>
        <time>2021-11-20T10:07:28Z</time>
      </trkpt>
      <trkpt lat="45.97936" lon="6.43542">
        <ele>1808</ele>
        <time>2021-11-20T10:07:32Z</time>
      </trkpt>
      <trkpt lat="45.97938" lon="6.43542">
        <ele>1809</ele>
        <time>2021-11-20T10:07:36Z</time>
      </trkpt>
      <trkpt lat="45.9794" lon="6.4354">
        <ele>1809</ele>
        <time>2021-11-20T10:07:40Z</time>
      </trkpt>
      <trkpt lat="45.97942" lon="6.4354">
        <ele>1809</ele>
        <time>2021-11-20T10:07:44Z</time>
      </trkpt>
      <trkpt lat="45.97944" lon="6.43539">
        <ele>1810</ele>
        <time>2021-11-20T10:07:47Z</time>
      </trkpt>
      <trkpt lat="45.97947" lon="6.43538">
        <ele>1810</ele>
        <time>2021-11-20T10:07:51Z</time>
      </trkpt>
      <trkpt lat="45.97948" lon="6.43539">
        <ele>1810</ele>
        <time>2021-11-20T10:07:54Z</time>
      </trkpt>
      <trkpt lat="45.9795" lon="6.43539">
        <ele>1810</ele>
        <time>2021-11-20T10:07:58Z</time>
      </trkpt>
      <trkpt lat="45.97952" lon="6.43537">
        <ele>1810</ele>
        <time>2021-11-20T10:08:03Z</time>
      </trkpt>
      <trkpt lat="45.97953" lon="6.43535">
        <ele>1811</ele>
        <time>2021-11-20T10:08:07Z</time>
      </trkpt>
      <trkpt lat="45.97953" lon="6.43532">
        <ele>1813</ele>
        <time>2021-11-20T10:08:13Z</time>
      </trkpt>
      <trkpt lat="45.97951" lon="6.4353">
        <ele>1813</ele>
        <time>2021-11-20T10:08:17Z</time>
      </trkpt>
      <trkpt lat="45.97949" lon="6.43528">
        <ele>1813</ele>
        <time>2021-11-20T10:08:20Z</time>
      </trkpt>
      <trkpt lat="45.97948" lon="6.43527">
        <ele>1814</ele>
        <time>2021-11-20T10:08:23Z</time>
      </trkpt>
      <trkpt lat="45.97947" lon="6.43524">
        <ele>1814</ele>
        <time>2021-11-20T10:08:27Z</time>
      </trkpt>
      <trkpt lat="45.97946" lon="6.43521">
        <ele>1814</ele>
        <time>2021-11-20T10:08:32Z</time>
      </trkpt>
      <trkpt lat="45.97946" lon="6.43518">
        <ele>1815</ele>
        <time>2021-11-20T10:08:36Z</time>
      </trkpt>
      <trkpt lat="45.97945" lon="6.43515">
        <ele>1816</ele>
        <time>2021-11-20T10:08:42Z</time>
      </trkpt>
      <trkpt lat="45.97943" lon="6.43513">
        <ele>1817</ele>
        <time>2021-11-20T10:08:47Z</time>
      </trkpt>
      <trkpt lat="45.97941" lon="6.43511">
        <ele>1818</ele>
        <time>2021-11-20T10:08:52Z</time>
      </trkpt>
      <trkpt lat="45.9794" lon="6.43509">
        <ele>1818</ele>
        <time>2021-11-20T10:08:56Z</time>
      </trkpt>
      <trkpt lat="45.97939" lon="6.43507">
        <ele>1819</ele>
        <time>2021-11-20T10:09:01Z</time>
      </trkpt>
      <trkpt lat="45.97937" lon="6.43505">
        <ele>1819</ele>
        <time>2021-11-20T10:09:06Z</time>
      </trkpt>
      <trkpt lat="45.97936" lon="6.43503">
        <ele>1820</ele>
        <time>2021-11-20T10:09:10Z</time>
      </trkpt>
      <trkpt lat="45.97935" lon="6.435">
        <ele>1820</ele>
        <time>2021-11-20T10:09:15Z</time>
      </trkpt>
      <trkpt lat="45.97934" lon="6.43497">
        <ele>1822</ele>
        <time>2021-11-20T10:09:21Z</time>
      </trkpt>
      <trkpt lat="45.97933" lon="6.43495">
        <ele>1822</ele>
        <time>2021-11-20T10:09:25Z</time>
      </trkpt>
      <trkpt lat="45.97931" lon="6.43493">
        <ele>1823</ele>
        <time>2021-11-20T10:09:29Z</time>
      </trkpt>
      <trkpt lat="45.9793" lon="6.4349">
        <ele>1823</ele>
        <time>2021-11-20T10:09:33Z</time>
      </trkpt>
      <trkpt lat="45.97929" lon="6.43488">
        <ele>1824</ele>
        <time>2021-11-20T10:09:38Z</time>
      </trkpt>
      <trkpt lat="45.97928" lon="6.43486">
        <ele>1824</ele>
        <time>2021-11-20T10:09:41Z</time>
      </trkpt>
      <trkpt lat="45.97927" lon="6.43483">
        <ele>1825</ele>
        <time>2021-11-20T10:09:45Z</time>
      </trkpt>
      <trkpt lat="45.97926" lon="6.43481">
        <ele>1825</ele>
        <time>2021-11-20T10:09:49Z</time>
      </trkpt>
      <trkpt lat="45.97927" lon="6.43478">
        <ele>1826</ele>
        <time>2021-11-20T10:09:53Z</time>
      </trkpt>
      <trkpt lat="45.97928" lon="6.43475">
        <ele>1827</ele>
        <time>2021-11-20T10:09:58Z</time>
      </trkpt>
      <trkpt lat="45.97926" lon="6.43473">
        <ele>1828</ele>
        <time>2021-11-20T10:10:05Z</time>
      </trkpt>
      <trkpt lat="45.97925" lon="6.43471">
        <ele>1828</ele>
        <time>2021-11-20T10:10:08Z</time>
      </trkpt>
      <trkpt lat="45.97924" lon="6.43468">
        <ele>1829</ele>
        <time>2021-11-20T10:10:12Z</time>
      </trkpt>
      <trkpt lat="45.97923" lon="6.43466">
        <ele>1829</ele>
        <time>2021-11-20T10:10:15Z</time>
      </trkpt>
      <trkpt lat="45.97922" lon="6.43464">
        <ele>1830</ele>
        <time>2021-11-20T10:10:20Z</time>
      </trkpt>
      <trkpt lat="45.97921" lon="6.43461">
        <ele>1831</ele>
        <time>2021-11-20T10:10:25Z</time>
      </trkpt>
      <trkpt lat="45.97921" lon="6.43458">
        <ele>1831</ele>
        <time>2021-11-20T10:10:30Z</time>
      </trkpt>
      <trkpt lat="45.97922" lon="6.43455">
        <ele>1832</ele>
        <time>2021-11-20T10:10:36Z</time>
      </trkpt>
      <trkpt lat="45.97921" lon="6.43452">
        <ele>1833</ele>
        <time>2021-11-20T10:10:43Z</time>
      </trkpt>
      <trkpt lat="45.97921" lon="6.43449">
        <ele>1833</ele>
        <time>2021-11-20T10:10:46Z</time>
      </trkpt>
      <trkpt lat="45.9792" lon="6.43446">
        <ele>1834</ele>
        <time>2021-11-20T10:10:50Z</time>
      </trkpt>
      <trkpt lat="45.97918" lon="6.43444">
        <ele>1834</ele>
        <time>2021-11-20T10:10:53Z</time>
      </trkpt>
      <trkpt lat="45.97917" lon="6.43442">
        <ele>1834</ele>
        <time>2021-11-20T10:10:56Z</time>
      </trkpt>
      <trkpt lat="45.97916" lon="6.4344">
        <ele>1834</ele>
        <time>2021-11-20T10:10:59Z</time>
      </trkpt>
      <trkpt lat="45.97915" lon="6.43437">
        <ele>1835</ele>
        <time>2021-11-20T10:11:04Z</time>
      </trkpt>
      <trkpt lat="45.97913" lon="6.43435">
        <ele>1835</ele>
        <time>2021-11-20T10:11:08Z</time>
      </trkpt>
      <trkpt lat="45.97912" lon="6.43432">
        <ele>1836</ele>
        <time>2021-11-20T10:11:12Z</time>
      </trkpt>
      <trkpt lat="45.97911" lon="6.4343">
        <ele>1836</ele>
        <time>2021-11-20T10:11:15Z</time>
      </trkpt>
      <trkpt lat="45.9791" lon="6.43427">
        <ele>1836</ele>
        <time>2021-11-20T10:11:19Z</time>
      </trkpt>
      <trkpt lat="45.97909" lon="6.43425">
        <ele>1837</ele>
        <time>2021-11-20T10:11:24Z</time>
      </trkpt>
      <trkpt lat="45.97908" lon="6.43421">
        <ele>1837</ele>
        <time>2021-11-20T10:11:28Z</time>
      </trkpt>
      <trkpt lat="45.97908" lon="6.43418">
        <ele>1837</ele>
        <time>2021-11-20T10:11:32Z</time>
      </trkpt>
      <trkpt lat="45.97907" lon="6.43415">
        <ele>1838</ele>
        <time>2021-11-20T10:11:35Z</time>
      </trkpt>
      <trkpt lat="45.97906" lon="6.43413">
        <ele>1838</ele>
        <time>2021-11-20T10:11:38Z</time>
      </trkpt>
      <trkpt lat="45.97906" lon="6.4341">
        <ele>1838</ele>
        <time>2021-11-20T10:11:41Z</time>
      </trkpt>
      <trkpt lat="45.97905" lon="6.43408">
        <ele>1838</ele>
        <time>2021-11-20T10:11:44Z</time>
      </trkpt>
      <trkpt lat="45.97903" lon="6.43405">
        <ele>1838</ele>
        <time>2021-11-20T10:11:48Z</time>
      </trkpt>
      <trkpt lat="45.97902" lon="6.43403">
        <ele>1838</ele>
        <time>2021-11-20T10:11:52Z</time>
      </trkpt>
      <trkpt lat="45.97902" lon="6.434">
        <ele>1839</ele>
        <time>2021-11-20T10:11:56Z</time>
      </trkpt>
      <trkpt lat="45.97901" lon="6.43397">
        <ele>1839</ele>
        <time>2021-11-20T10:12:00Z</time>
      </trkpt>
      <trkpt lat="45.97901" lon="6.43394">
        <ele>1839</ele>
        <time>2021-11-20T10:12:06Z</time>
      </trkpt>
      <trkpt lat="45.97901" lon="6.43391">
        <ele>1840</ele>
        <time>2021-11-20T10:12:10Z</time>
      </trkpt>
      <trkpt lat="45.979" lon="6.43389">
        <ele>1840</ele>
        <time>2021-11-20T10:12:14Z</time>
      </trkpt>
      <trkpt lat="45.97899" lon="6.43386">
        <ele>1841</ele>
        <time>2021-11-20T10:12:19Z</time>
      </trkpt>
      <trkpt lat="45.97899" lon="6.43383">
        <ele>1842</ele>
        <time>2021-11-20T10:12:24Z</time>
      </trkpt>
      <trkpt lat="45.97899" lon="6.4338">
        <ele>1842</ele>
        <time>2021-11-20T10:12:29Z</time>
      </trkpt>
      <trkpt lat="45.97898" lon="6.43378">
        <ele>1843</ele>
        <time>2021-11-20T10:12:33Z</time>
      </trkpt>
      <trkpt lat="45.97897" lon="6.43375">
        <ele>1844</ele>
        <time>2021-11-20T10:12:38Z</time>
      </trkpt>
      <trkpt lat="45.97897" lon="6.43372">
        <ele>1844</ele>
        <time>2021-11-20T10:12:43Z</time>
      </trkpt>
      <trkpt lat="45.97897" lon="6.4337">
        <ele>1845</ele>
        <time>2021-11-20T10:12:49Z</time>
      </trkpt>
      <trkpt lat="45.97897" lon="6.43367">
        <ele>1846</ele>
        <time>2021-11-20T10:12:53Z</time>
      </trkpt>
      <trkpt lat="45.97896" lon="6.43364">
        <ele>1846</ele>
        <time>2021-11-20T10:12:57Z</time>
      </trkpt>
      <trkpt lat="45.97895" lon="6.43361">
        <ele>1846</ele>
        <time>2021-11-20T10:13:01Z</time>
      </trkpt>
      <trkpt lat="45.97895" lon="6.43359">
        <ele>1847</ele>
        <time>2021-11-20T10:13:06Z</time>
      </trkpt>
      <trkpt lat="45.97894" lon="6.43356">
        <ele>1848</ele>
        <time>2021-11-20T10:13:11Z</time>
      </trkpt>
      <trkpt lat="45.97892" lon="6.43354">
        <ele>1848</ele>
        <time>2021-11-20T10:13:16Z</time>
      </trkpt>
      <trkpt lat="45.97892" lon="6.43351">
        <ele>1848</ele>
        <time>2021-11-20T10:13:20Z</time>
      </trkpt>
      <trkpt lat="45.97891" lon="6.43348">
        <ele>1849</ele>
        <time>2021-11-20T10:13:24Z</time>
      </trkpt>
      <trkpt lat="45.9789" lon="6.43346">
        <ele>1849</ele>
        <time>2021-11-20T10:13:27Z</time>
      </trkpt>
      <trkpt lat="45.9789" lon="6.43343">
        <ele>1850</ele>
        <time>2021-11-20T10:13:31Z</time>
      </trkpt>
      <trkpt lat="45.97889" lon="6.4334">
        <ele>1850</ele>
        <time>2021-11-20T10:13:35Z</time>
      </trkpt>
      <trkpt lat="45.97888" lon="6.43337">
        <ele>1851</ele>
        <time>2021-11-20T10:13:39Z</time>
      </trkpt>
      <trkpt lat="45.97888" lon="6.43334">
        <ele>1851</ele>
        <time>2021-11-20T10:13:43Z</time>
      </trkpt>
      <trkpt lat="45.97888" lon="6.43331">
        <ele>1852</ele>
        <time>2021-11-20T10:13:47Z</time>
      </trkpt>
      <trkpt lat="45.97887" lon="6.43328">
        <ele>1852</ele>
        <time>2021-11-20T10:13:50Z</time>
      </trkpt>
      <trkpt lat="45.97887" lon="6.43325">
        <ele>1852</ele>
        <time>2021-11-20T10:13:53Z</time>
      </trkpt>
      <trkpt lat="45.97886" lon="6.43322">
        <ele>1851</ele>
        <time>2021-11-20T10:13:55Z</time>
      </trkpt>
      <trkpt lat="45.97885" lon="6.43319">
        <ele>1851</ele>
        <time>2021-11-20T10:13:58Z</time>
      </trkpt>
      <trkpt lat="45.97885" lon="6.43316">
        <ele>1852</ele>
        <time>2021-11-20T10:14:01Z</time>
      </trkpt>
      <trkpt lat="45.97884" lon="6.43313">
        <ele>1852</ele>
        <time>2021-11-20T10:14:05Z</time>
      </trkpt>
      <trkpt lat="45.97883" lon="6.43309">
        <ele>1852</ele>
        <time>2021-11-20T10:14:09Z</time>
      </trkpt>
      <trkpt lat="45.97882" lon="6.43307">
        <ele>1852</ele>
        <time>2021-11-20T10:14:12Z</time>
      </trkpt>
      <trkpt lat="45.97882" lon="6.43304">
        <ele>1853</ele>
        <time>2021-11-20T10:14:16Z</time>
      </trkpt>
      <trkpt lat="45.97881" lon="6.43301">
        <ele>1854</ele>
        <time>2021-11-20T10:14:20Z</time>
      </trkpt>
      <trkpt lat="45.97881" lon="6.43298">
        <ele>1854</ele>
        <time>2021-11-20T10:14:23Z</time>
      </trkpt>
      <trkpt lat="45.97881" lon="6.43295">
        <ele>1854</ele>
        <time>2021-11-20T10:14:27Z</time>
      </trkpt>
      <trkpt lat="45.9788" lon="6.43293">
        <ele>1854</ele>
        <time>2021-11-20T10:14:30Z</time>
      </trkpt>
      <trkpt lat="45.9788" lon="6.4329">
        <ele>1854</ele>
        <time>2021-11-20T10:14:33Z</time>
      </trkpt>
      <trkpt lat="45.9788" lon="6.43286">
        <ele>1855</ele>
        <time>2021-11-20T10:14:37Z</time>
      </trkpt>
      <trkpt lat="45.9788" lon="6.43283">
        <ele>1855</ele>
        <time>2021-11-20T10:14:42Z</time>
      </trkpt>
      <trkpt lat="45.9788" lon="6.4328">
        <ele>1855</ele>
        <time>2021-11-20T10:14:46Z</time>
      </trkpt>
      <trkpt lat="45.9788" lon="6.43278">
        <ele>1856</ele>
        <time>2021-11-20T10:14:50Z</time>
      </trkpt>
      <trkpt lat="45.9788" lon="6.43274">
        <ele>1857</ele>
        <time>2021-11-20T10:14:55Z</time>
      </trkpt>
      <trkpt lat="45.97879" lon="6.43272">
        <ele>1857</ele>
        <time>2021-11-20T10:14:58Z</time>
      </trkpt>
      <trkpt lat="45.97879" lon="6.43269">
        <ele>1857</ele>
        <time>2021-11-20T10:15:01Z</time>
      </trkpt>
      <trkpt lat="45.97879" lon="6.43266">
        <ele>1857</ele>
        <time>2021-11-20T10:15:04Z</time>
      </trkpt>
      <trkpt lat="45.97878" lon="6.43264">
        <ele>1857</ele>
        <time>2021-11-20T10:15:08Z</time>
      </trkpt>
      <trkpt lat="45.97877" lon="6.43261">
        <ele>1857</ele>
        <time>2021-11-20T10:15:11Z</time>
      </trkpt>
      <trkpt lat="45.97876" lon="6.43258">
        <ele>1858</ele>
        <time>2021-11-20T10:15:15Z</time>
      </trkpt>
      <trkpt lat="45.97876" lon="6.43256">
        <ele>1858</ele>
        <time>2021-11-20T10:15:18Z</time>
      </trkpt>
      <trkpt lat="45.97875" lon="6.43253">
        <ele>1858</ele>
        <time>2021-11-20T10:15:22Z</time>
      </trkpt>
      <trkpt lat="45.97874" lon="6.43251">
        <ele>1859</ele>
        <time>2021-11-20T10:15:26Z</time>
      </trkpt>
      <trkpt lat="45.97872" lon="6.43249">
        <ele>1859</ele>
        <time>2021-11-20T10:15:30Z</time>
      </trkpt>
      <trkpt lat="45.97871" lon="6.43247">
        <ele>1860</ele>
        <time>2021-11-20T10:15:34Z</time>
      </trkpt>
      <trkpt lat="45.9787" lon="6.43244">
        <ele>1860</ele>
        <time>2021-11-20T10:15:38Z</time>
      </trkpt>
      <trkpt lat="45.97869" lon="6.43241">
        <ele>1861</ele>
        <time>2021-11-20T10:15:42Z</time>
      </trkpt>
      <trkpt lat="45.97869" lon="6.43239">
        <ele>1861</ele>
        <time>2021-11-20T10:15:46Z</time>
      </trkpt>
      <trkpt lat="45.97868" lon="6.43236">
        <ele>1862</ele>
        <time>2021-11-20T10:15:50Z</time>
      </trkpt>
      <trkpt lat="45.97868" lon="6.43233">
        <ele>1863</ele>
        <time>2021-11-20T10:15:55Z</time>
      </trkpt>
      <trkpt lat="45.97867" lon="6.4323">
        <ele>1863</ele>
        <time>2021-11-20T10:16:00Z</time>
      </trkpt>
      <trkpt lat="45.97866" lon="6.43227">
        <ele>1863</ele>
        <time>2021-11-20T10:16:03Z</time>
      </trkpt>
      <trkpt lat="45.97864" lon="6.43225">
        <ele>1863</ele>
        <time>2021-11-20T10:16:06Z</time>
      </trkpt>
      <trkpt lat="45.97863" lon="6.43223">
        <ele>1864</ele>
        <time>2021-11-20T10:16:09Z</time>
      </trkpt>
      <trkpt lat="45.97861" lon="6.43221">
        <ele>1864</ele>
        <time>2021-11-20T10:16:12Z</time>
      </trkpt>
      <trkpt lat="45.9786" lon="6.43219">
        <ele>1864</ele>
        <time>2021-11-20T10:16:16Z</time>
      </trkpt>
      <trkpt lat="45.97858" lon="6.43217">
        <ele>1865</ele>
        <time>2021-11-20T10:16:19Z</time>
      </trkpt>
      <trkpt lat="45.97856" lon="6.43216">
        <ele>1865</ele>
        <time>2021-11-20T10:16:23Z</time>
      </trkpt>
      <trkpt lat="45.97855" lon="6.43215">
        <ele>1865</ele>
        <time>2021-11-20T10:16:27Z</time>
      </trkpt>
      <trkpt lat="45.97853" lon="6.43213">
        <ele>1866</ele>
        <time>2021-11-20T10:16:31Z</time>
      </trkpt>
      <trkpt lat="45.97851" lon="6.43212">
        <ele>1867</ele>
        <time>2021-11-20T10:16:35Z</time>
      </trkpt>
      <trkpt lat="45.9785" lon="6.4321">
        <ele>1867</ele>
        <time>2021-11-20T10:16:39Z</time>
      </trkpt>
      <trkpt lat="45.97848" lon="6.43208">
        <ele>1867</ele>
        <time>2021-11-20T10:16:44Z</time>
      </trkpt>
      <trkpt lat="45.97847" lon="6.43206">
        <ele>1868</ele>
        <time>2021-11-20T10:16:49Z</time>
      </trkpt>
      <trkpt lat="45.97846" lon="6.43204">
        <ele>1868</ele>
        <time>2021-11-20T10:16:53Z</time>
      </trkpt>
      <trkpt lat="45.97844" lon="6.43202">
        <ele>1869</ele>
        <time>2021-11-20T10:16:58Z</time>
      </trkpt>
      <trkpt lat="45.97843" lon="6.432">
        <ele>1870</ele>
        <time>2021-11-20T10:17:04Z</time>
      </trkpt>
      <trkpt lat="45.97841" lon="6.43199">
        <ele>1871</ele>
        <time>2021-11-20T10:17:10Z</time>
      </trkpt>
      <trkpt lat="45.97839" lon="6.43198">
        <ele>1872</ele>
        <time>2021-11-20T10:17:18Z</time>
      </trkpt>
      <trkpt lat="45.97837" lon="6.43197">
        <ele>1873</ele>
        <time>2021-11-20T10:17:23Z</time>
      </trkpt>
      <trkpt lat="45.97837" lon="6.43195">
        <ele>1874</ele>
        <time>2021-11-20T10:17:30Z</time>
      </trkpt>
      <trkpt lat="45.97837" lon="6.43192">
        <ele>1874</ele>
        <time>2021-11-20T10:17:36Z</time>
      </trkpt>
      <trkpt lat="45.97839" lon="6.4319">
        <ele>1874</ele>
        <time>2021-11-20T10:17:40Z</time>
      </trkpt>
      <trkpt lat="45.97841" lon="6.43189">
        <ele>1875</ele>
        <time>2021-11-20T10:17:44Z</time>
      </trkpt>
      <trkpt lat="45.97842" lon="6.43188">
        <ele>1876</ele>
        <time>2021-11-20T10:17:48Z</time>
      </trkpt>
      <trkpt lat="45.97844" lon="6.43187">
        <ele>1877</ele>
        <time>2021-11-20T10:17:52Z</time>
      </trkpt>
      <trkpt lat="45.97845" lon="6.43185">
        <ele>1877</ele>
        <time>2021-11-20T10:17:56Z</time>
      </trkpt>
      <trkpt lat="45.97847" lon="6.43183">
        <ele>1878</ele>
        <time>2021-11-20T10:18:01Z</time>
      </trkpt>
      <trkpt lat="45.97849" lon="6.43181">
        <ele>1879</ele>
        <time>2021-11-20T10:18:06Z</time>
      </trkpt>
      <trkpt lat="45.97848" lon="6.43179">
        <ele>1879</ele>
        <time>2021-11-20T10:18:11Z</time>
      </trkpt>
      <trkpt lat="45.97846" lon="6.43177">
        <ele>1880</ele>
        <time>2021-11-20T10:18:17Z</time>
      </trkpt>
      <trkpt lat="45.97845" lon="6.43175">
        <ele>1881</ele>
        <time>2021-11-20T10:18:23Z</time>
      </trkpt>
      <trkpt lat="45.97844" lon="6.43172">
        <ele>1881</ele>
        <time>2021-11-20T10:18:28Z</time>
      </trkpt>
      <trkpt lat="45.97843" lon="6.4317">
        <ele>1882</ele>
        <time>2021-11-20T10:18:32Z</time>
      </trkpt>
      <trkpt lat="45.97841" lon="6.43168">
        <ele>1883</ele>
        <time>2021-11-20T10:18:37Z</time>
      </trkpt>
      <trkpt lat="45.97841" lon="6.43166">
        <ele>1883</ele>
        <time>2021-11-20T10:18:44Z</time>
      </trkpt>
      <trkpt lat="45.97839" lon="6.43164">
        <ele>1885</ele>
        <time>2021-11-20T10:18:53Z</time>
      </trkpt>
      <trkpt lat="45.97837" lon="6.43165">
        <ele>1886</ele>
        <time>2021-11-20T10:18:59Z</time>
      </trkpt>
      <trkpt lat="45.97835" lon="6.43164">
        <ele>1887</ele>
        <time>2021-11-20T10:19:02Z</time>
      </trkpt>
      <trkpt lat="45.97834" lon="6.43163">
        <ele>1887</ele>
        <time>2021-11-20T10:19:05Z</time>
      </trkpt>
      <trkpt lat="45.97832" lon="6.43161">
        <ele>1887</ele>
        <time>2021-11-20T10:19:08Z</time>
      </trkpt>
      <trkpt lat="45.9783" lon="6.43159">
        <ele>1887</ele>
        <time>2021-11-20T10:19:11Z</time>
      </trkpt>
      <trkpt lat="45.97829" lon="6.43157">
        <ele>1887</ele>
        <time>2021-11-20T10:19:14Z</time>
      </trkpt>
      <trkpt lat="45.97827" lon="6.43155">
        <ele>1888</ele>
        <time>2021-11-20T10:19:19Z</time>
      </trkpt>
      <trkpt lat="45.97826" lon="6.43153">
        <ele>1889</ele>
        <time>2021-11-20T10:19:23Z</time>
      </trkpt>
      <trkpt lat="45.97825" lon="6.4315">
        <ele>1889</ele>
        <time>2021-11-20T10:19:28Z</time>
      </trkpt>
      <trkpt lat="45.97825" lon="6.43147">
        <ele>1889</ele>
        <time>2021-11-20T10:19:33Z</time>
      </trkpt>
      <trkpt lat="45.97827" lon="6.43149">
        <ele>1889</ele>
        <time>2021-11-20T10:19:52Z</time>
      </trkpt>
      <trkpt lat="45.97828" lon="6.43151">
        <ele>1889</ele>
        <time>2021-11-20T10:19:57Z</time>
      </trkpt>
      <trkpt lat="45.97826" lon="6.4315">
        <ele>1889</ele>
        <time>2021-11-20T10:21:13Z</time>
      </trkpt>
      <trkpt lat="45.97824" lon="6.43148">
        <ele>1889</ele>
        <time>2021-11-20T10:21:16Z</time>
      </trkpt>
      <trkpt lat="45.97822" lon="6.43148">
        <ele>1889</ele>
        <time>2021-11-20T10:21:19Z</time>
      </trkpt>
      <trkpt lat="45.9782" lon="6.43148">
        <ele>1889</ele>
        <time>2021-11-20T10:21:21Z</time>
      </trkpt>
      <trkpt lat="45.97818" lon="6.43147">
        <ele>1889</ele>
        <time>2021-11-20T10:21:23Z</time>
      </trkpt>
      <trkpt lat="45.97817" lon="6.43144">
        <ele>1889</ele>
        <time>2021-11-20T10:21:25Z</time>
      </trkpt>
      <trkpt lat="45.97815" lon="6.43141">
        <ele>1889</ele>
        <time>2021-11-20T10:21:28Z</time>
      </trkpt>
      <trkpt lat="45.97814" lon="6.43138">
        <ele>1888</ele>
        <time>2021-11-20T10:21:31Z</time>
      </trkpt>
      <trkpt lat="45.97813" lon="6.43135">
        <ele>1888</ele>
        <time>2021-11-20T10:21:34Z</time>
      </trkpt>
      <trkpt lat="45.97815" lon="6.43138">
        <ele>1887</ele>
        <time>2021-11-20T10:22:13Z</time>
      </trkpt>
      <trkpt lat="45.97816" lon="6.43141">
        <ele>1888</ele>
        <time>2021-11-20T10:22:16Z</time>
      </trkpt>
      <trkpt lat="45.97817" lon="6.43143">
        <ele>1888</ele>
        <time>2021-11-20T10:22:18Z</time>
      </trkpt>
      <trkpt lat="45.97818" lon="6.43146">
        <ele>1888</ele>
        <time>2021-11-20T10:22:20Z</time>
      </trkpt>
      <trkpt lat="45.9782" lon="6.43148">
        <ele>1889</ele>
        <time>2021-11-20T10:22:23Z</time>
      </trkpt>
      <trkpt lat="45.97822" lon="6.43149">
        <ele>1889</ele>
        <time>2021-11-20T10:22:25Z</time>
      </trkpt>
      <trkpt lat="45.97824" lon="6.43149">
        <ele>1889</ele>
        <time>2021-11-20T10:22:28Z</time>
      </trkpt>
      <trkpt lat="45.97826" lon="6.4315">
        <ele>1889</ele>
        <time>2021-11-20T10:22:31Z</time>
      </trkpt>
      <trkpt lat="45.97827" lon="6.4315">
        <ele>1889</ele>
        <time>2021-11-20T10:22:34Z</time>
      </trkpt>
      <trkpt lat="45.97829" lon="6.43148">
        <ele>1891</ele>
        <time>2021-11-20T10:29:30Z</time>
      </trkpt>
      <trkpt lat="45.97827" lon="6.4315">
        <ele>1891</ele>
        <time>2021-11-20T10:32:04Z</time>
      </trkpt>
      <trkpt lat="45.97829" lon="6.43149">
        <ele>1891</ele>
        <time>2021-11-20T10:32:51Z</time>
      </trkpt>
      <trkpt lat="45.9783" lon="6.43147">
        <ele>1892</ele>
        <time>2021-11-20T10:33:23Z</time>
      </trkpt>
      <trkpt lat="45.97832" lon="6.43145">
        <ele>1892</ele>
        <time>2021-11-20T10:33:26Z</time>
      </trkpt>
      <trkpt lat="45.97832" lon="6.43142">
        <ele>1892</ele>
        <time>2021-11-20T10:33:30Z</time>
      </trkpt>
      <trkpt lat="45.97834" lon="6.4314">
        <ele>1893</ele>
        <time>2021-11-20T10:33:34Z</time>
      </trkpt>
      <trkpt lat="45.97835" lon="6.43138">
        <ele>1894</ele>
        <time>2021-11-20T10:33:39Z</time>
      </trkpt>
      <trkpt lat="45.97836" lon="6.43136">
        <ele>1895</ele>
        <time>2021-11-20T10:33:45Z</time>
      </trkpt>
      <trkpt lat="45.97837" lon="6.43134">
        <ele>1895</ele>
        <time>2021-11-20T10:33:51Z</time>
      </trkpt>
      <trkpt lat="45.97839" lon="6.43134">
        <ele>1895</ele>
        <time>2021-11-20T10:33:56Z</time>
      </trkpt>
      <trkpt lat="45.97841" lon="6.43135">
        <ele>1896</ele>
        <time>2021-11-20T10:34:03Z</time>
      </trkpt>
      <trkpt lat="45.97843" lon="6.43135">
        <ele>1897</ele>
        <time>2021-11-20T10:34:09Z</time>
      </trkpt>
      <trkpt lat="45.97845" lon="6.43136">
        <ele>1898</ele>
        <time>2021-11-20T10:34:15Z</time>
      </trkpt>
      <trkpt lat="45.97847" lon="6.43137">
        <ele>1898</ele>
        <time>2021-11-20T10:34:22Z</time>
      </trkpt>
      <trkpt lat="45.97849" lon="6.43136">
        <ele>1899</ele>
        <time>2021-11-20T10:34:28Z</time>
      </trkpt>
      <trkpt lat="45.97851" lon="6.43137">
        <ele>1900</ele>
        <time>2021-11-20T10:34:34Z</time>
      </trkpt>
      <trkpt lat="45.97852" lon="6.43136">
        <ele>1900</ele>
        <time>2021-11-20T10:34:39Z</time>
      </trkpt>
      <trkpt lat="45.97855" lon="6.43137">
        <ele>1901</ele>
        <time>2021-11-20T10:34:47Z</time>
      </trkpt>
      <trkpt lat="45.97857" lon="6.43136">
        <ele>1902</ele>
        <time>2021-11-20T10:34:54Z</time>
      </trkpt>
      <trkpt lat="45.97859" lon="6.43136">
        <ele>1903</ele>
        <time>2021-11-20T10:35:00Z</time>
      </trkpt>
      <trkpt lat="45.97861" lon="6.43135">
        <ele>1903</ele>
        <time>2021-11-20T10:35:06Z</time>
      </trkpt>
      <trkpt lat="45.97863" lon="6.43135">
        <ele>1904</ele>
        <time>2021-11-20T10:35:12Z</time>
      </trkpt>
      <trkpt lat="45.97865" lon="6.43134">
        <ele>1905</ele>
        <time>2021-11-20T10:35:18Z</time>
      </trkpt>
      <trkpt lat="45.97867" lon="6.43134">
        <ele>1905</ele>
        <time>2021-11-20T10:35:23Z</time>
      </trkpt>
      <trkpt lat="45.97869" lon="6.43134">
        <ele>1907</ele>
        <time>2021-11-20T10:35:28Z</time>
      </trkpt>
      <trkpt lat="45.9787" lon="6.43132">
        <ele>1907</ele>
        <time>2021-11-20T10:35:33Z</time>
      </trkpt>
      <trkpt lat="45.97872" lon="6.43131">
        <ele>1908</ele>
        <time>2021-11-20T10:35:41Z</time>
      </trkpt>
      <trkpt lat="45.97874" lon="6.4313">
        <ele>1909</ele>
        <time>2021-11-20T10:35:48Z</time>
      </trkpt>
      <trkpt lat="45.97876" lon="6.43129">
        <ele>1910</ele>
        <time>2021-11-20T10:35:53Z</time>
      </trkpt>
      <trkpt lat="45.97878" lon="6.43128">
        <ele>1911</ele>
        <time>2021-11-20T10:35:59Z</time>
      </trkpt>
      <trkpt lat="45.9788" lon="6.43128">
        <ele>1912</ele>
        <time>2021-11-20T10:36:05Z</time>
      </trkpt>
      <trkpt lat="45.97882" lon="6.43128">
        <ele>1912</ele>
        <time>2021-11-20T10:36:10Z</time>
      </trkpt>
      <trkpt lat="45.97884" lon="6.43128">
        <ele>1913</ele>
        <time>2021-11-20T10:36:15Z</time>
      </trkpt>
      <trkpt lat="45.97886" lon="6.43128">
        <ele>1913</ele>
        <time>2021-11-20T10:36:22Z</time>
      </trkpt>
      <trkpt lat="45.97888" lon="6.43128">
        <ele>1913</ele>
        <time>2021-11-20T10:36:28Z</time>
      </trkpt>
      <trkpt lat="45.9789" lon="6.43129">
        <ele>1913</ele>
        <time>2021-11-20T10:36:33Z</time>
      </trkpt>
      <trkpt lat="45.97891" lon="6.43129">
        <ele>1915</ele>
        <time>2021-11-20T10:36:38Z</time>
      </trkpt>
      <trkpt lat="45.97893" lon="6.4313">
        <ele>1915</ele>
        <time>2021-11-20T10:36:43Z</time>
      </trkpt>
      <trkpt lat="45.97895" lon="6.43131">
        <ele>1916</ele>
        <time>2021-11-20T10:36:48Z</time>
      </trkpt>
      <trkpt lat="45.97897" lon="6.43131">
        <ele>1916</ele>
        <time>2021-11-20T10:36:53Z</time>
      </trkpt>
      <trkpt lat="45.97899" lon="6.43132">
        <ele>1916</ele>
        <time>2021-11-20T10:36:58Z</time>
      </trkpt>
      <trkpt lat="45.97901" lon="6.43133">
        <ele>1917</ele>
        <time>2021-11-20T10:37:02Z</time>
      </trkpt>
      <trkpt lat="45.97903" lon="6.43134">
        <ele>1917</ele>
        <time>2021-11-20T10:37:06Z</time>
      </trkpt>
      <trkpt lat="45.97905" lon="6.43135">
        <ele>1918</ele>
        <time>2021-11-20T10:37:10Z</time>
      </trkpt>
      <trkpt lat="45.97907" lon="6.43136">
        <ele>1918</ele>
        <time>2021-11-20T10:37:14Z</time>
      </trkpt>
      <trkpt lat="45.97908" lon="6.43137">
        <ele>1919</ele>
        <time>2021-11-20T10:37:19Z</time>
      </trkpt>
      <trkpt lat="45.97911" lon="6.43137">
        <ele>1919</ele>
        <time>2021-11-20T10:37:25Z</time>
      </trkpt>
      <trkpt lat="45.97913" lon="6.43139">
        <ele>1920</ele>
        <time>2021-11-20T10:37:31Z</time>
      </trkpt>
      <trkpt lat="45.97914" lon="6.4314">
        <ele>1921</ele>
        <time>2021-11-20T10:37:35Z</time>
      </trkpt>
      <trkpt lat="45.97916" lon="6.4314">
        <ele>1921</ele>
        <time>2021-11-20T10:37:39Z</time>
      </trkpt>
      <trkpt lat="45.97918" lon="6.43141">
        <ele>1922</ele>
        <time>2021-11-20T10:37:43Z</time>
      </trkpt>
      <trkpt lat="45.9792" lon="6.43143">
        <ele>1922</ele>
        <time>2021-11-20T10:37:47Z</time>
      </trkpt>
      <trkpt lat="45.97922" lon="6.43144">
        <ele>1922</ele>
        <time>2021-11-20T10:37:52Z</time>
      </trkpt>
      <trkpt lat="45.97924" lon="6.43145">
        <ele>1923</ele>
        <time>2021-11-20T10:37:57Z</time>
      </trkpt>
      <trkpt lat="45.97926" lon="6.43146">
        <ele>1923</ele>
        <time>2021-11-20T10:38:02Z</time>
      </trkpt>
      <trkpt lat="45.97928" lon="6.43146">
        <ele>1924</ele>
        <time>2021-11-20T10:38:07Z</time>
      </trkpt>
      <trkpt lat="45.9793" lon="6.43147">
        <ele>1925</ele>
        <time>2021-11-20T10:38:12Z</time>
      </trkpt>
      <trkpt lat="45.97932" lon="6.43147">
        <ele>1926</ele>
        <time>2021-11-20T10:38:18Z</time>
      </trkpt>
      <trkpt lat="45.97934" lon="6.43148">
        <ele>1926</ele>
        <time>2021-11-20T10:38:24Z</time>
      </trkpt>
      <trkpt lat="45.97936" lon="6.43147">
        <ele>1927</ele>
        <time>2021-11-20T10:38:31Z</time>
      </trkpt>
      <trkpt lat="45.97938" lon="6.43147">
        <ele>1928</ele>
        <time>2021-11-20T10:38:36Z</time>
      </trkpt>
      <trkpt lat="45.97939" lon="6.43148">
        <ele>1928</ele>
        <time>2021-11-20T10:38:41Z</time>
      </trkpt>
      <trkpt lat="45.97941" lon="6.43147">
        <ele>1930</ele>
        <time>2021-11-20T10:38:47Z</time>
      </trkpt>
      <trkpt lat="45.97943" lon="6.43148">
        <ele>1931</ele>
        <time>2021-11-20T10:38:53Z</time>
      </trkpt>
      <trkpt lat="45.97945" lon="6.43149">
        <ele>1931</ele>
        <time>2021-11-20T10:39:00Z</time>
      </trkpt>
      <trkpt lat="45.97947" lon="6.43149">
        <ele>1931</ele>
        <time>2021-11-20T10:39:04Z</time>
      </trkpt>
      <trkpt lat="45.97949" lon="6.4315">
        <ele>1932</ele>
        <time>2021-11-20T10:39:08Z</time>
      </trkpt>
      <trkpt lat="45.97951" lon="6.43151">
        <ele>1933</ele>
        <time>2021-11-20T10:39:13Z</time>
      </trkpt>
      <trkpt lat="45.97953" lon="6.43152">
        <ele>1934</ele>
        <time>2021-11-20T10:39:18Z</time>
      </trkpt>
      <trkpt lat="45.97955" lon="6.43153">
        <ele>1934</ele>
        <time>2021-11-20T10:39:24Z</time>
      </trkpt>
      <trkpt lat="45.97957" lon="6.43154">
        <ele>1934</ele>
        <time>2021-11-20T10:39:29Z</time>
      </trkpt>
      <trkpt lat="45.97958" lon="6.43155">
        <ele>1935</ele>
        <time>2021-11-20T10:39:34Z</time>
      </trkpt>
      <trkpt lat="45.9796" lon="6.43156">
        <ele>1935</ele>
        <time>2021-11-20T10:39:39Z</time>
      </trkpt>
      <trkpt lat="45.97962" lon="6.43158">
        <ele>1936</ele>
        <time>2021-11-20T10:39:44Z</time>
      </trkpt>
      <trkpt lat="45.97963" lon="6.43159">
        <ele>1937</ele>
        <time>2021-11-20T10:39:49Z</time>
      </trkpt>
      <trkpt lat="45.97965" lon="6.43161">
        <ele>1937</ele>
        <time>2021-11-20T10:39:55Z</time>
      </trkpt>
      <trkpt lat="45.97966" lon="6.43163">
        <ele>1938</ele>
        <time>2021-11-20T10:40:01Z</time>
      </trkpt>
      <trkpt lat="45.97968" lon="6.43164">
        <ele>1939</ele>
        <time>2021-11-20T10:40:06Z</time>
      </trkpt>
      <trkpt lat="45.9797" lon="6.43166">
        <ele>1939</ele>
        <time>2021-11-20T10:40:11Z</time>
      </trkpt>
      <trkpt lat="45.97972" lon="6.43168">
        <ele>1940</ele>
        <time>2021-11-20T10:40:17Z</time>
      </trkpt>
      <trkpt lat="45.97973" lon="6.43169">
        <ele>1941</ele>
        <time>2021-11-20T10:40:23Z</time>
      </trkpt>
      <trkpt lat="45.97975" lon="6.43171">
        <ele>1941</ele>
        <time>2021-11-20T10:40:28Z</time>
      </trkpt>
      <trkpt lat="45.97977" lon="6.43172">
        <ele>1942</ele>
        <time>2021-11-20T10:40:34Z</time>
      </trkpt>
      <trkpt lat="45.97979" lon="6.43173">
        <ele>1943</ele>
        <time>2021-11-20T10:40:40Z</time>
      </trkpt>
      <trkpt lat="45.97981" lon="6.43175">
        <ele>1943</ele>
        <time>2021-11-20T10:40:46Z</time>
      </trkpt>
      <trkpt lat="45.97982" lon="6.43176">
        <ele>1944</ele>
        <time>2021-11-20T10:40:52Z</time>
      </trkpt>
      <trkpt lat="45.97984" lon="6.43178">
        <ele>1945</ele>
        <time>2021-11-20T10:40:58Z</time>
      </trkpt>
      <trkpt lat="45.97986" lon="6.43178">
        <ele>1945</ele>
        <time>2021-11-20T10:41:04Z</time>
      </trkpt>
      <trkpt lat="45.97988" lon="6.4318">
        <ele>1946</ele>
        <time>2021-11-20T10:41:08Z</time>
      </trkpt>
      <trkpt lat="45.9799" lon="6.43181">
        <ele>1946</ele>
        <time>2021-11-20T10:41:12Z</time>
      </trkpt>
      <trkpt lat="45.97991" lon="6.43182">
        <ele>1947</ele>
        <time>2021-11-20T10:41:16Z</time>
      </trkpt>
      <trkpt lat="45.97993" lon="6.43184">
        <ele>1947</ele>
        <time>2021-11-20T10:41:20Z</time>
      </trkpt>
      <trkpt lat="45.97995" lon="6.43185">
        <ele>1948</ele>
        <time>2021-11-20T10:41:24Z</time>
      </trkpt>
      <trkpt lat="45.97997" lon="6.43187">
        <ele>1948</ele>
        <time>2021-11-20T10:41:27Z</time>
      </trkpt>
      <trkpt lat="45.97999" lon="6.43188">
        <ele>1949</ele>
        <time>2021-11-20T10:41:31Z</time>
      </trkpt>
      <trkpt lat="45.98" lon="6.4319">
        <ele>1949</ele>
        <time>2021-11-20T10:41:35Z</time>
      </trkpt>
      <trkpt lat="45.98002" lon="6.43192">
        <ele>1949</ele>
        <time>2021-11-20T10:41:39Z</time>
      </trkpt>
      <trkpt lat="45.98003" lon="6.43194">
        <ele>1949</ele>
        <time>2021-11-20T10:41:43Z</time>
      </trkpt>
      <trkpt lat="45.98005" lon="6.43196">
        <ele>1949</ele>
        <time>2021-11-20T10:41:47Z</time>
      </trkpt>
      <trkpt lat="45.98007" lon="6.43197">
        <ele>1950</ele>
        <time>2021-11-20T10:41:50Z</time>
      </trkpt>
      <trkpt lat="45.98008" lon="6.432">
        <ele>1950</ele>
        <time>2021-11-20T10:41:54Z</time>
      </trkpt>
      <trkpt lat="45.9801" lon="6.43202">
        <ele>1950</ele>
        <time>2021-11-20T10:41:58Z</time>
      </trkpt>
      <trkpt lat="45.98012" lon="6.43203">
        <ele>1951</ele>
        <time>2021-11-20T10:42:02Z</time>
      </trkpt>
      <trkpt lat="45.98014" lon="6.43205">
        <ele>1951</ele>
        <time>2021-11-20T10:42:06Z</time>
      </trkpt>
      <trkpt lat="45.98016" lon="6.43207">
        <ele>1951</ele>
        <time>2021-11-20T10:42:09Z</time>
      </trkpt>
      <trkpt lat="45.98017" lon="6.43208">
        <ele>1952</ele>
        <time>2021-11-20T10:42:12Z</time>
      </trkpt>
      <trkpt lat="45.98019" lon="6.4321">
        <ele>1952</ele>
        <time>2021-11-20T10:42:16Z</time>
      </trkpt>
      <trkpt lat="45.98021" lon="6.43211">
        <ele>1953</ele>
        <time>2021-11-20T10:42:20Z</time>
      </trkpt>
      <trkpt lat="45.98022" lon="6.43212">
        <ele>1953</ele>
        <time>2021-11-20T10:42:24Z</time>
      </trkpt>
      <trkpt lat="45.98024" lon="6.43214">
        <ele>1954</ele>
        <time>2021-11-20T10:42:28Z</time>
      </trkpt>
      <trkpt lat="45.98026" lon="6.43215">
        <ele>1954</ele>
        <time>2021-11-20T10:42:32Z</time>
      </trkpt>
      <trkpt lat="45.98028" lon="6.43217">
        <ele>1954</ele>
        <time>2021-11-20T10:42:36Z</time>
      </trkpt>
      <trkpt lat="45.98029" lon="6.43218">
        <ele>1955</ele>
        <time>2021-11-20T10:42:40Z</time>
      </trkpt>
      <trkpt lat="45.98031" lon="6.43218">
        <ele>1955</ele>
        <time>2021-11-20T10:42:44Z</time>
      </trkpt>
      <trkpt lat="45.98034" lon="6.4322">
        <ele>1955</ele>
        <time>2021-11-20T10:42:48Z</time>
      </trkpt>
      <trkpt lat="45.98036" lon="6.43221">
        <ele>1957</ele>
        <time>2021-11-20T10:42:52Z</time>
      </trkpt>
      <trkpt lat="45.98037" lon="6.43223">
        <ele>1956</ele>
        <time>2021-11-20T10:42:56Z</time>
      </trkpt>
      <trkpt lat="45.98039" lon="6.43225">
        <ele>1957</ele>
        <time>2021-11-20T10:43:00Z</time>
      </trkpt>
      <trkpt lat="45.98041" lon="6.43226">
        <ele>1957</ele>
        <time>2021-11-20T10:43:04Z</time>
      </trkpt>
      <trkpt lat="45.98043" lon="6.43228">
        <ele>1958</ele>
        <time>2021-11-20T10:43:08Z</time>
      </trkpt>
      <trkpt lat="45.98045" lon="6.43229">
        <ele>1958</ele>
        <time>2021-11-20T10:43:11Z</time>
      </trkpt>
      <trkpt lat="45.98046" lon="6.43231">
        <ele>1959</ele>
        <time>2021-11-20T10:43:14Z</time>
      </trkpt>
      <trkpt lat="45.98048" lon="6.43232">
        <ele>1959</ele>
        <time>2021-11-20T10:43:17Z</time>
      </trkpt>
      <trkpt lat="45.9805" lon="6.43234">
        <ele>1959</ele>
        <time>2021-11-20T10:43:20Z</time>
      </trkpt>
      <trkpt lat="45.98051" lon="6.43235">
        <ele>1959</ele>
        <time>2021-11-20T10:43:23Z</time>
      </trkpt>
      <trkpt lat="45.98053" lon="6.43237">
        <ele>1959</ele>
        <time>2021-11-20T10:43:26Z</time>
      </trkpt>
      <trkpt lat="45.98055" lon="6.4324">
        <ele>1959</ele>
        <time>2021-11-20T10:43:29Z</time>
      </trkpt>
      <trkpt lat="45.98057" lon="6.43243">
        <ele>1959</ele>
        <time>2021-11-20T10:43:32Z</time>
      </trkpt>
      <trkpt lat="45.98059" lon="6.43245">
        <ele>1959</ele>
        <time>2021-11-20T10:43:35Z</time>
      </trkpt>
      <trkpt lat="45.98061" lon="6.43247">
        <ele>1959</ele>
        <time>2021-11-20T10:43:38Z</time>
      </trkpt>
      <trkpt lat="45.98063" lon="6.43247">
        <ele>1959</ele>
        <time>2021-11-20T10:43:41Z</time>
      </trkpt>
      <trkpt lat="45.98065" lon="6.43248">
        <ele>1960</ele>
        <time>2021-11-20T10:43:44Z</time>
      </trkpt>
      <trkpt lat="45.98067" lon="6.43247">
        <ele>1960</ele>
        <time>2021-11-20T10:43:50Z</time>
      </trkpt>
      <trkpt lat="45.98067" lon="6.43244">
        <ele>1962</ele>
        <time>2021-11-20T10:44:01Z</time>
      </trkpt>
      <trkpt lat="45.98065" lon="6.43242">
        <ele>1963</ele>
        <time>2021-11-20T10:44:07Z</time>
      </trkpt>
      <trkpt lat="45.98064" lon="6.4324">
        <ele>1963</ele>
        <time>2021-11-20T10:44:13Z</time>
      </trkpt>
      <trkpt lat="45.98063" lon="6.43237">
        <ele>1964</ele>
        <time>2021-11-20T10:44:19Z</time>
      </trkpt>
      <trkpt lat="45.98062" lon="6.43234">
        <ele>1965</ele>
        <time>2021-11-20T10:44:25Z</time>
      </trkpt>
      <trkpt lat="45.98062" lon="6.43232">
        <ele>1965</ele>
        <time>2021-11-20T10:44:31Z</time>
      </trkpt>
      <trkpt lat="45.98062" lon="6.43229">
        <ele>1967</ele>
        <time>2021-11-20T10:44:37Z</time>
      </trkpt>
      <trkpt lat="45.98061" lon="6.43226">
        <ele>1967</ele>
        <time>2021-11-20T10:44:41Z</time>
      </trkpt>
      <trkpt lat="45.98061" lon="6.43223">
        <ele>1968</ele>
        <time>2021-11-20T10:44:49Z</time>
      </trkpt>
      <trkpt lat="45.98062" lon="6.43221">
        <ele>1969</ele>
        <time>2021-11-20T10:44:54Z</time>
      </trkpt>
      <trkpt lat="45.98064" lon="6.4322">
        <ele>1969</ele>
        <time>2021-11-20T10:44:59Z</time>
      </trkpt>
      <trkpt lat="45.98066" lon="6.43221">
        <ele>1970</ele>
        <time>2021-11-20T10:45:05Z</time>
      </trkpt>
      <trkpt lat="45.98068" lon="6.43222">
        <ele>1971</ele>
        <time>2021-11-20T10:45:12Z</time>
      </trkpt>
      <trkpt lat="45.98069" lon="6.43222">
        <ele>1972</ele>
        <time>2021-11-20T10:45:19Z</time>
      </trkpt>
      <trkpt lat="45.98071" lon="6.43221">
        <ele>1973</ele>
        <time>2021-11-20T10:45:26Z</time>
      </trkpt>
      <trkpt lat="45.98072" lon="6.43219">
        <ele>1973</ele>
        <time>2021-11-20T10:45:31Z</time>
      </trkpt>
      <trkpt lat="45.98074" lon="6.43219">
        <ele>1975</ele>
        <time>2021-11-20T10:45:40Z</time>
      </trkpt>
      <trkpt lat="45.98076" lon="6.43219">
        <ele>1976</ele>
        <time>2021-11-20T10:45:47Z</time>
      </trkpt>
      <trkpt lat="45.98077" lon="6.43217">
        <ele>1976</ele>
        <time>2021-11-20T10:45:53Z</time>
      </trkpt>
      <trkpt lat="45.98079" lon="6.43216">
        <ele>1977</ele>
        <time>2021-11-20T10:45:58Z</time>
      </trkpt>
      <trkpt lat="45.98081" lon="6.43217">
        <ele>1978</ele>
        <time>2021-11-20T10:46:04Z</time>
      </trkpt>
      <trkpt lat="45.98083" lon="6.43219">
        <ele>1979</ele>
        <time>2021-11-20T10:46:10Z</time>
      </trkpt>
      <trkpt lat="45.98084" lon="6.43221">
        <ele>1980</ele>
        <time>2021-11-20T10:46:16Z</time>
      </trkpt>
      <trkpt lat="45.98086" lon="6.43219">
        <ele>1980</ele>
        <time>2021-11-20T10:46:25Z</time>
      </trkpt>
      <trkpt lat="45.98087" lon="6.4322">
        <ele>1981</ele>
        <time>2021-11-20T10:46:29Z</time>
      </trkpt>
      <trkpt lat="45.98089" lon="6.43221">
        <ele>1982</ele>
        <time>2021-11-20T10:46:36Z</time>
      </trkpt>
      <trkpt lat="45.98091" lon="6.43222">
        <ele>1983</ele>
        <time>2021-11-20T10:46:42Z</time>
      </trkpt>
      <trkpt lat="45.98093" lon="6.43221">
        <ele>1984</ele>
        <time>2021-11-20T10:46:50Z</time>
      </trkpt>
      <trkpt lat="45.98095" lon="6.43222">
        <ele>1985</ele>
        <time>2021-11-20T10:46:57Z</time>
      </trkpt>
      <trkpt lat="45.98097" lon="6.43221">
        <ele>1986</ele>
        <time>2021-11-20T10:47:03Z</time>
      </trkpt>
      <trkpt lat="45.98099" lon="6.43222">
        <ele>1986</ele>
        <time>2021-11-20T10:47:10Z</time>
      </trkpt>
      <trkpt lat="45.98101" lon="6.43223">
        <ele>1987</ele>
        <time>2021-11-20T10:47:16Z</time>
      </trkpt>
      <trkpt lat="45.98103" lon="6.43222">
        <ele>1987</ele>
        <time>2021-11-20T10:47:22Z</time>
      </trkpt>
      <trkpt lat="45.98105" lon="6.43222">
        <ele>1988</ele>
        <time>2021-11-20T10:47:28Z</time>
      </trkpt>
      <trkpt lat="45.98106" lon="6.43222">
        <ele>1989</ele>
        <time>2021-11-20T10:47:34Z</time>
      </trkpt>
      <trkpt lat="45.98108" lon="6.43222">
        <ele>1990</ele>
        <time>2021-11-20T10:47:40Z</time>
      </trkpt>
      <trkpt lat="45.9811" lon="6.43223">
        <ele>1991</ele>
        <time>2021-11-20T10:47:46Z</time>
      </trkpt>
      <trkpt lat="45.98112" lon="6.43223">
        <ele>1992</ele>
        <time>2021-11-20T10:47:53Z</time>
      </trkpt>
      <trkpt lat="45.98114" lon="6.43224">
        <ele>1992</ele>
        <time>2021-11-20T10:47:58Z</time>
      </trkpt>
      <trkpt lat="45.98116" lon="6.43224">
        <ele>1993</ele>
        <time>2021-11-20T10:48:06Z</time>
      </trkpt>
      <trkpt lat="45.98118" lon="6.43224">
        <ele>1994</ele>
        <time>2021-11-20T10:48:12Z</time>
      </trkpt>
      <trkpt lat="45.9812" lon="6.43226">
        <ele>1995</ele>
        <time>2021-11-20T10:48:18Z</time>
      </trkpt>
      <trkpt lat="45.98121" lon="6.43226">
        <ele>1995</ele>
        <time>2021-11-20T10:48:24Z</time>
      </trkpt>
      <trkpt lat="45.98123" lon="6.43228">
        <ele>1997</ele>
        <time>2021-11-20T10:48:29Z</time>
      </trkpt>
      <trkpt lat="45.98124" lon="6.4323">
        <ele>1997</ele>
        <time>2021-11-20T10:48:36Z</time>
      </trkpt>
      <trkpt lat="45.98126" lon="6.4323">
        <ele>1999</ele>
        <time>2021-11-20T10:48:43Z</time>
      </trkpt>
      <trkpt lat="45.98128" lon="6.43232">
        <ele>1999</ele>
        <time>2021-11-20T10:48:49Z</time>
      </trkpt>
      <trkpt lat="45.9813" lon="6.43233">
        <ele>2000</ele>
        <time>2021-11-20T10:48:54Z</time>
      </trkpt>
      <trkpt lat="45.98132" lon="6.43232">
        <ele>2001</ele>
        <time>2021-11-20T10:49:01Z</time>
      </trkpt>
      <trkpt lat="45.98133" lon="6.43233">
        <ele>2002</ele>
        <time>2021-11-20T10:49:09Z</time>
      </trkpt>
      <trkpt lat="45.98135" lon="6.43234">
        <ele>2003</ele>
        <time>2021-11-20T10:49:17Z</time>
      </trkpt>
      <trkpt lat="45.98137" lon="6.43234">
        <ele>2003</ele>
        <time>2021-11-20T10:49:22Z</time>
      </trkpt>
      <trkpt lat="45.98139" lon="6.43236">
        <ele>2005</ele>
        <time>2021-11-20T10:49:28Z</time>
      </trkpt>
      <trkpt lat="45.98141" lon="6.43236">
        <ele>2005</ele>
        <time>2021-11-20T10:49:34Z</time>
      </trkpt>
      <trkpt lat="45.98143" lon="6.43237">
        <ele>2006</ele>
        <time>2021-11-20T10:49:40Z</time>
      </trkpt>
      <trkpt lat="45.98145" lon="6.43237">
        <ele>2007</ele>
        <time>2021-11-20T10:49:45Z</time>
      </trkpt>
      <trkpt lat="45.98146" lon="6.43238">
        <ele>2007</ele>
        <time>2021-11-20T10:49:50Z</time>
      </trkpt>
      <trkpt lat="45.98148" lon="6.43239">
        <ele>2007</ele>
        <time>2021-11-20T10:49:55Z</time>
      </trkpt>
      <trkpt lat="45.9815" lon="6.43239">
        <ele>2008</ele>
        <time>2021-11-20T10:50:00Z</time>
      </trkpt>
      <trkpt lat="45.98152" lon="6.4324">
        <ele>2009</ele>
        <time>2021-11-20T10:50:06Z</time>
      </trkpt>
      <trkpt lat="45.98154" lon="6.43241">
        <ele>2009</ele>
        <time>2021-11-20T10:50:11Z</time>
      </trkpt>
      <trkpt lat="45.98156" lon="6.43242">
        <ele>2010</ele>
        <time>2021-11-20T10:50:16Z</time>
      </trkpt>
      <trkpt lat="45.98158" lon="6.43244">
        <ele>2011</ele>
        <time>2021-11-20T10:50:21Z</time>
      </trkpt>
      <trkpt lat="45.98159" lon="6.43245">
        <ele>2011</ele>
        <time>2021-11-20T10:50:27Z</time>
      </trkpt>
      <trkpt lat="45.98161" lon="6.43246">
        <ele>2012</ele>
        <time>2021-11-20T10:50:32Z</time>
      </trkpt>
      <trkpt lat="45.98163" lon="6.43247">
        <ele>2013</ele>
        <time>2021-11-20T10:50:39Z</time>
      </trkpt>
      <trkpt lat="45.98165" lon="6.43246">
        <ele>2015</ele>
        <time>2021-11-20T10:50:48Z</time>
      </trkpt>
      <trkpt lat="45.98167" lon="6.43245">
        <ele>2014</ele>
        <time>2021-11-20T10:50:55Z</time>
      </trkpt>
      <trkpt lat="45.98169" lon="6.43245">
        <ele>2015</ele>
        <time>2021-11-20T10:51:04Z</time>
      </trkpt>
      <trkpt lat="45.9817" lon="6.43246">
        <ele>2016</ele>
        <time>2021-11-20T10:51:10Z</time>
      </trkpt>
      <trkpt lat="45.98172" lon="6.43248">
        <ele>2016</ele>
        <time>2021-11-20T10:51:16Z</time>
      </trkpt>
      <trkpt lat="45.98173" lon="6.4325">
        <ele>2017</ele>
        <time>2021-11-20T10:51:21Z</time>
      </trkpt>
      <trkpt lat="45.98176" lon="6.43251">
        <ele>2018</ele>
        <time>2021-11-20T10:51:26Z</time>
      </trkpt>
      <trkpt lat="45.98176" lon="6.43253">
        <ele>2018</ele>
        <time>2021-11-20T10:51:31Z</time>
      </trkpt>
      <trkpt lat="45.98178" lon="6.43251">
        <ele>2020</ele>
        <time>2021-11-20T10:51:41Z</time>
      </trkpt>
      <trkpt lat="45.98179" lon="6.43249">
        <ele>2020</ele>
        <time>2021-11-20T10:51:48Z</time>
      </trkpt>
      <trkpt lat="45.9818" lon="6.43247">
        <ele>2021</ele>
        <time>2021-11-20T10:51:57Z</time>
      </trkpt>
      <trkpt lat="45.98182" lon="6.43245">
        <ele>2022</ele>
        <time>2021-11-20T10:52:02Z</time>
      </trkpt>
      <trkpt lat="45.98183" lon="6.43247">
        <ele>2023</ele>
        <time>2021-11-20T10:52:12Z</time>
      </trkpt>
      <trkpt lat="45.98185" lon="6.43247">
        <ele>2025</ele>
        <time>2021-11-20T10:52:26Z</time>
      </trkpt>
      <trkpt lat="45.98186" lon="6.43245">
        <ele>2026</ele>
        <time>2021-11-20T10:52:34Z</time>
      </trkpt>
      <trkpt lat="45.98188" lon="6.43244">
        <ele>2027</ele>
        <time>2021-11-20T10:52:42Z</time>
      </trkpt>
      <trkpt lat="45.98189" lon="6.43246">
        <ele>2028</ele>
        <time>2021-11-20T10:52:51Z</time>
      </trkpt>
      <trkpt lat="45.98191" lon="6.43245">
        <ele>2029</ele>
        <time>2021-11-20T10:53:02Z</time>
      </trkpt>
      <trkpt lat="45.98193" lon="6.43247">
        <ele>2030</ele>
        <time>2021-11-20T10:53:12Z</time>
      </trkpt>
      <trkpt lat="45.98195" lon="6.43247">
        <ele>2032</ele>
        <time>2021-11-20T10:53:22Z</time>
      </trkpt>
      <trkpt lat="45.98196" lon="6.43248">
        <ele>2032</ele>
        <time>2021-11-20T10:53:29Z</time>
      </trkpt>
      <trkpt lat="45.98198" lon="6.4325">
        <ele>2033</ele>
        <time>2021-11-20T10:53:33Z</time>
      </trkpt>
      <trkpt lat="45.982" lon="6.4325">
        <ele>2034</ele>
        <time>2021-11-20T10:53:41Z</time>
      </trkpt>
      <trkpt lat="45.98202" lon="6.4325">
        <ele>2035</ele>
        <time>2021-11-20T10:53:50Z</time>
      </trkpt>
      <trkpt lat="45.98204" lon="6.43251">
        <ele>2036</ele>
        <time>2021-11-20T10:53:56Z</time>
      </trkpt>
      <trkpt lat="45.98205" lon="6.43252">
        <ele>2037</ele>
        <time>2021-11-20T10:54:02Z</time>
      </trkpt>
      <trkpt lat="45.98207" lon="6.43254">
        <ele>2037</ele>
        <time>2021-11-20T10:54:08Z</time>
      </trkpt>
      <trkpt lat="45.98209" lon="6.43255">
        <ele>2038</ele>
        <time>2021-11-20T10:54:14Z</time>
      </trkpt>
      <trkpt lat="45.98211" lon="6.43255">
        <ele>2039</ele>
        <time>2021-11-20T10:54:24Z</time>
      </trkpt>
      <trkpt lat="45.98213" lon="6.43257">
        <ele>2039</ele>
        <time>2021-11-20T10:54:30Z</time>
      </trkpt>
      <trkpt lat="45.98214" lon="6.43258">
        <ele>2040</ele>
        <time>2021-11-20T10:54:37Z</time>
      </trkpt>
      <trkpt lat="45.98216" lon="6.43258">
        <ele>2041</ele>
        <time>2021-11-20T10:54:43Z</time>
      </trkpt>
      <trkpt lat="45.98217" lon="6.4326">
        <ele>2042</ele>
        <time>2021-11-20T10:54:49Z</time>
      </trkpt>
      <trkpt lat="45.98219" lon="6.43261">
        <ele>2042</ele>
        <time>2021-11-20T10:54:54Z</time>
      </trkpt>
      <trkpt lat="45.98221" lon="6.43263">
        <ele>2043</ele>
        <time>2021-11-20T10:54:59Z</time>
      </trkpt>
      <trkpt lat="45.98223" lon="6.43264">
        <ele>2043</ele>
        <time>2021-11-20T10:55:04Z</time>
      </trkpt>
      <trkpt lat="45.98224" lon="6.43266">
        <ele>2044</ele>
        <time>2021-11-20T10:55:09Z</time>
      </trkpt>
      <trkpt lat="45.98226" lon="6.43267">
        <ele>2045</ele>
        <time>2021-11-20T10:55:17Z</time>
      </trkpt>
      <trkpt lat="45.98227" lon="6.43269">
        <ele>2044</ele>
        <time>2021-11-20T10:55:44Z</time>
      </trkpt>
      <trkpt lat="45.98226" lon="6.43268">
        <ele>2043</ele>
        <time>2021-11-20T10:56:18Z</time>
      </trkpt>
      <trkpt lat="45.98224" lon="6.43265">
        <ele>2044</ele>
        <time>2021-11-20T10:59:48Z</time>
      </trkpt>
      <trkpt lat="45.98223" lon="6.43263">
        <ele>2044</ele>
        <time>2021-11-20T11:00:28Z</time>
      </trkpt>
      <trkpt lat="45.98225" lon="6.43265">
        <ele>2044</ele>
        <time>2021-11-20T11:00:33Z</time>
      </trkpt>
      <trkpt lat="45.98225" lon="6.43268">
        <ele>2044</ele>
        <time>2021-11-20T11:00:47Z</time>
      </trkpt>
      <trkpt lat="45.98227" lon="6.4327">
        <ele>2044</ele>
        <time>2021-11-20T11:01:04Z</time>
      </trkpt>
      <trkpt lat="45.98225" lon="6.43268">
        <ele>2043</ele>
        <time>2021-11-20T11:02:05Z</time>
      </trkpt>
      <trkpt lat="45.98224" lon="6.43266">
        <ele>2044</ele>
        <time>2021-11-20T11:02:12Z</time>
      </trkpt>
      <trkpt lat="45.98226" lon="6.43267">
        <ele>2044</ele>
        <time>2021-11-20T11:08:52Z</time>
      </trkpt>
      <trkpt lat="45.98224" lon="6.43265">
        <ele>2044</ele>
        <time>2021-11-20T11:09:57Z</time>
      </trkpt>
      <trkpt lat="45.98223" lon="6.43263">
        <ele>2043</ele>
        <time>2021-11-20T11:10:01Z</time>
      </trkpt>
      <trkpt lat="45.98221" lon="6.43263">
        <ele>2043</ele>
        <time>2021-11-20T11:11:06Z</time>
      </trkpt>
      <trkpt lat="45.98219" lon="6.43262">
        <ele>2043</ele>
        <time>2021-11-20T11:11:11Z</time>
      </trkpt>
      <trkpt lat="45.98217" lon="6.4326">
        <ele>2042</ele>
        <time>2021-11-20T11:11:17Z</time>
      </trkpt>
      <trkpt lat="45.98215" lon="6.43259">
        <ele>2042</ele>
        <time>2021-11-20T11:11:26Z</time>
      </trkpt>
      <trkpt lat="45.98214" lon="6.43258">
        <ele>2041</ele>
        <time>2021-11-20T11:11:30Z</time>
      </trkpt>
      <trkpt lat="45.98212" lon="6.43256">
        <ele>2041</ele>
        <time>2021-11-20T11:11:35Z</time>
      </trkpt>
      <trkpt lat="45.9821" lon="6.43256">
        <ele>2040</ele>
        <time>2021-11-20T11:11:41Z</time>
      </trkpt>
      <trkpt lat="45.98209" lon="6.43255">
        <ele>2039</ele>
        <time>2021-11-20T11:11:45Z</time>
      </trkpt>
      <trkpt lat="45.98207" lon="6.43254">
        <ele>2038</ele>
        <time>2021-11-20T11:11:50Z</time>
      </trkpt>
      <trkpt lat="45.98205" lon="6.43252">
        <ele>2036</ele>
        <time>2021-11-20T11:11:55Z</time>
      </trkpt>
      <trkpt lat="45.98203" lon="6.43251">
        <ele>2036</ele>
        <time>2021-11-20T11:12:00Z</time>
      </trkpt>
      <trkpt lat="45.98201" lon="6.43251">
        <ele>2036</ele>
        <time>2021-11-20T11:12:05Z</time>
      </trkpt>
      <trkpt lat="45.98199" lon="6.43251">
        <ele>2035</ele>
        <time>2021-11-20T11:12:11Z</time>
      </trkpt>
      <trkpt lat="45.98198" lon="6.43249">
        <ele>2034</ele>
        <time>2021-11-20T11:12:14Z</time>
      </trkpt>
      <trkpt lat="45.98196" lon="6.43249">
        <ele>2033</ele>
        <time>2021-11-20T11:12:21Z</time>
      </trkpt>
      <trkpt lat="45.98194" lon="6.43249">
        <ele>2032</ele>
        <time>2021-11-20T11:12:26Z</time>
      </trkpt>
      <trkpt lat="45.98192" lon="6.43247">
        <ele>2030</ele>
        <time>2021-11-20T11:12:32Z</time>
      </trkpt>
      <trkpt lat="45.9819" lon="6.43247">
        <ele>2030</ele>
        <time>2021-11-20T11:12:45Z</time>
      </trkpt>
      <trkpt lat="45.98188" lon="6.43245">
        <ele>2028</ele>
        <time>2021-11-20T11:12:53Z</time>
      </trkpt>
      <trkpt lat="45.98188" lon="6.43248">
        <ele>2027</ele>
        <time>2021-11-20T11:13:02Z</time>
      </trkpt>
      <trkpt lat="45.98186" lon="6.43249">
        <ele>2025</ele>
        <time>2021-11-20T11:13:10Z</time>
      </trkpt>
      <trkpt lat="45.98184" lon="6.43247">
        <ele>2024</ele>
        <time>2021-11-20T11:13:15Z</time>
      </trkpt>
      <trkpt lat="45.98183" lon="6.43245">
        <ele>2024</ele>
        <time>2021-11-20T11:13:20Z</time>
      </trkpt>
      <trkpt lat="45.98182" lon="6.43248">
        <ele>2023</ele>
        <time>2021-11-20T11:13:25Z</time>
      </trkpt>
      <trkpt lat="45.98181" lon="6.4325">
        <ele>2023</ele>
        <time>2021-11-20T11:13:29Z</time>
      </trkpt>
      <trkpt lat="45.9818" lon="6.43253">
        <ele>2021</ele>
        <time>2021-11-20T11:13:35Z</time>
      </trkpt>
      <trkpt lat="45.98179" lon="6.43255">
        <ele>2020</ele>
        <time>2021-11-20T11:13:38Z</time>
      </trkpt>
      <trkpt lat="45.98177" lon="6.43253">
        <ele>2019</ele>
        <time>2021-11-20T11:13:41Z</time>
      </trkpt>
      <trkpt lat="45.98175" lon="6.43251">
        <ele>2018</ele>
        <time>2021-11-20T11:13:46Z</time>
      </trkpt>
      <trkpt lat="45.98174" lon="6.4325">
        <ele>2017</ele>
        <time>2021-11-20T11:13:49Z</time>
      </trkpt>
      <trkpt lat="45.98172" lon="6.43248">
        <ele>2017</ele>
        <time>2021-11-20T11:13:53Z</time>
      </trkpt>
      <trkpt lat="45.9817" lon="6.43247">
        <ele>2016</ele>
        <time>2021-11-20T11:13:58Z</time>
      </trkpt>
      <trkpt lat="45.98168" lon="6.43247">
        <ele>2015</ele>
        <time>2021-11-20T11:14:06Z</time>
      </trkpt>
      <trkpt lat="45.98166" lon="6.43249">
        <ele>2015</ele>
        <time>2021-11-20T11:14:11Z</time>
      </trkpt>
      <trkpt lat="45.98164" lon="6.43248">
        <ele>2013</ele>
        <time>2021-11-20T11:14:16Z</time>
      </trkpt>
      <trkpt lat="45.98162" lon="6.43247">
        <ele>2013</ele>
        <time>2021-11-20T11:14:20Z</time>
      </trkpt>
      <trkpt lat="45.9816" lon="6.43246">
        <ele>2011</ele>
        <time>2021-11-20T11:14:27Z</time>
      </trkpt>
      <trkpt lat="45.98158" lon="6.43245">
        <ele>2011</ele>
        <time>2021-11-20T11:14:32Z</time>
      </trkpt>
      <trkpt lat="45.98156" lon="6.43243">
        <ele>2011</ele>
        <time>2021-11-20T11:14:36Z</time>
      </trkpt>
      <trkpt lat="45.98154" lon="6.43242">
        <ele>2010</ele>
        <time>2021-11-20T11:14:39Z</time>
      </trkpt>
      <trkpt lat="45.98152" lon="6.4324">
        <ele>2009</ele>
        <time>2021-11-20T11:14:43Z</time>
      </trkpt>
      <trkpt lat="45.9815" lon="6.43241">
        <ele>2009</ele>
        <time>2021-11-20T11:14:51Z</time>
      </trkpt>
      <trkpt lat="45.98148" lon="6.4324">
        <ele>2008</ele>
        <time>2021-11-20T11:14:54Z</time>
      </trkpt>
      <trkpt lat="45.98146" lon="6.4324">
        <ele>2007</ele>
        <time>2021-11-20T11:14:58Z</time>
      </trkpt>
      <trkpt lat="45.98144" lon="6.43239">
        <ele>2006</ele>
        <time>2021-11-20T11:15:01Z</time>
      </trkpt>
      <trkpt lat="45.98142" lon="6.43238">
        <ele>2006</ele>
        <time>2021-11-20T11:15:04Z</time>
      </trkpt>
      <trkpt lat="45.98139" lon="6.43238">
        <ele>2005</ele>
        <time>2021-11-20T11:15:08Z</time>
      </trkpt>
      <trkpt lat="45.98137" lon="6.43237">
        <ele>2005</ele>
        <time>2021-11-20T11:15:12Z</time>
      </trkpt>
      <trkpt lat="45.98135" lon="6.43236">
        <ele>2003</ele>
        <time>2021-11-20T11:15:16Z</time>
      </trkpt>
      <trkpt lat="45.98134" lon="6.43235">
        <ele>2002</ele>
        <time>2021-11-20T11:15:19Z</time>
      </trkpt>
      <trkpt lat="45.98132" lon="6.43235">
        <ele>2002</ele>
        <time>2021-11-20T11:15:24Z</time>
      </trkpt>
      <trkpt lat="45.9813" lon="6.43234">
        <ele>2001</ele>
        <time>2021-11-20T11:15:27Z</time>
      </trkpt>
      <trkpt lat="45.98128" lon="6.43232">
        <ele>1999</ele>
        <time>2021-11-20T11:15:30Z</time>
      </trkpt>
      <trkpt lat="45.98127" lon="6.43231">
        <ele>1999</ele>
        <time>2021-11-20T11:15:35Z</time>
      </trkpt>
      <trkpt lat="45.98125" lon="6.4323">
        <ele>1998</ele>
        <time>2021-11-20T11:15:39Z</time>
      </trkpt>
      <trkpt lat="45.98123" lon="6.43228">
        <ele>1998</ele>
        <time>2021-11-20T11:15:42Z</time>
      </trkpt>
      <trkpt lat="45.98121" lon="6.43228">
        <ele>1997</ele>
        <time>2021-11-20T11:15:46Z</time>
      </trkpt>
      <trkpt lat="45.98119" lon="6.43226">
        <ele>1996</ele>
        <time>2021-11-20T11:15:50Z</time>
      </trkpt>
      <trkpt lat="45.98117" lon="6.43226">
        <ele>1995</ele>
        <time>2021-11-20T11:15:54Z</time>
      </trkpt>
      <trkpt lat="45.98115" lon="6.43226">
        <ele>1995</ele>
        <time>2021-11-20T11:15:58Z</time>
      </trkpt>
      <trkpt lat="45.98113" lon="6.43225">
        <ele>1993</ele>
        <time>2021-11-20T11:16:02Z</time>
      </trkpt>
      <trkpt lat="45.98111" lon="6.43224">
        <ele>1992</ele>
        <time>2021-11-20T11:16:06Z</time>
      </trkpt>
      <trkpt lat="45.98109" lon="6.43224">
        <ele>1992</ele>
        <time>2021-11-20T11:16:10Z</time>
      </trkpt>
      <trkpt lat="45.98107" lon="6.43224">
        <ele>1991</ele>
        <time>2021-11-20T11:16:13Z</time>
      </trkpt>
      <trkpt lat="45.98105" lon="6.43224">
        <ele>1990</ele>
        <time>2021-11-20T11:16:16Z</time>
      </trkpt>
      <trkpt lat="45.98103" lon="6.43224">
        <ele>1989</ele>
        <time>2021-11-20T11:16:20Z</time>
      </trkpt>
      <trkpt lat="45.98101" lon="6.43224">
        <ele>1988</ele>
        <time>2021-11-20T11:16:23Z</time>
      </trkpt>
      <trkpt lat="45.98099" lon="6.43223">
        <ele>1988</ele>
        <time>2021-11-20T11:16:26Z</time>
      </trkpt>
      <trkpt lat="45.98097" lon="6.43223">
        <ele>1987</ele>
        <time>2021-11-20T11:16:30Z</time>
      </trkpt>
      <trkpt lat="45.98095" lon="6.43223">
        <ele>1986</ele>
        <time>2021-11-20T11:16:35Z</time>
      </trkpt>
      <trkpt lat="45.98093" lon="6.43222">
        <ele>1985</ele>
        <time>2021-11-20T11:16:39Z</time>
      </trkpt>
      <trkpt lat="45.98091" lon="6.43222">
        <ele>1984</ele>
        <time>2021-11-20T11:16:43Z</time>
      </trkpt>
      <trkpt lat="45.98089" lon="6.43221">
        <ele>1984</ele>
        <time>2021-11-20T11:16:47Z</time>
      </trkpt>
      <trkpt lat="45.98087" lon="6.43221">
        <ele>1983</ele>
        <time>2021-11-20T11:16:52Z</time>
      </trkpt>
      <trkpt lat="45.98085" lon="6.43221">
        <ele>1982</ele>
        <time>2021-11-20T11:16:56Z</time>
      </trkpt>
      <trkpt lat="45.98083" lon="6.43219">
        <ele>1981</ele>
        <time>2021-11-20T11:17:00Z</time>
      </trkpt>
      <trkpt lat="45.98082" lon="6.43218">
        <ele>1980</ele>
        <time>2021-11-20T11:17:04Z</time>
      </trkpt>
      <trkpt lat="45.9808" lon="6.43217">
        <ele>1979</ele>
        <time>2021-11-20T11:17:08Z</time>
      </trkpt>
      <trkpt lat="45.98079" lon="6.4322">
        <ele>1979</ele>
        <time>2021-11-20T11:17:12Z</time>
      </trkpt>
      <trkpt lat="45.98077" lon="6.43221">
        <ele>1979</ele>
        <time>2021-11-20T11:17:16Z</time>
      </trkpt>
      <trkpt lat="45.98075" lon="6.43221">
        <ele>1977</ele>
        <time>2021-11-20T11:17:21Z</time>
      </trkpt>
      <trkpt lat="45.98073" lon="6.43221">
        <ele>1976</ele>
        <time>2021-11-20T11:17:25Z</time>
      </trkpt>
      <trkpt lat="45.98071" lon="6.43221">
        <ele>1975</ele>
        <time>2021-11-20T11:17:30Z</time>
      </trkpt>
      <trkpt lat="45.98069" lon="6.43223">
        <ele>1975</ele>
        <time>2021-11-20T11:17:34Z</time>
      </trkpt>
      <trkpt lat="45.98067" lon="6.43223">
        <ele>1974</ele>
        <time>2021-11-20T11:17:38Z</time>
      </trkpt>
      <trkpt lat="45.98065" lon="6.43221">
        <ele>1973</ele>
        <time>2021-11-20T11:17:42Z</time>
      </trkpt>
      <trkpt lat="45.98063" lon="6.43221">
        <ele>1972</ele>
        <time>2021-11-20T11:17:47Z</time>
      </trkpt>
      <trkpt lat="45.98063" lon="6.43224">
        <ele>1971</ele>
        <time>2021-11-20T11:17:51Z</time>
      </trkpt>
      <trkpt lat="45.98063" lon="6.43227">
        <ele>1970</ele>
        <time>2021-11-20T11:17:54Z</time>
      </trkpt>
      <trkpt lat="45.98064" lon="6.4323">
        <ele>1970</ele>
        <time>2021-11-20T11:17:58Z</time>
      </trkpt>
      <trkpt lat="45.98064" lon="6.43233">
        <ele>1969</ele>
        <time>2021-11-20T11:18:01Z</time>
      </trkpt>
      <trkpt lat="45.98064" lon="6.43236">
        <ele>1969</ele>
        <time>2021-11-20T11:18:04Z</time>
      </trkpt>
      <trkpt lat="45.98065" lon="6.43238">
        <ele>1968</ele>
        <time>2021-11-20T11:18:07Z</time>
      </trkpt>
      <trkpt lat="45.98066" lon="6.43241">
        <ele>1966</ele>
        <time>2021-11-20T11:18:11Z</time>
      </trkpt>
      <trkpt lat="45.98067" lon="6.43244">
        <ele>1965</ele>
        <time>2021-11-20T11:18:15Z</time>
      </trkpt>
      <trkpt lat="45.98068" lon="6.43247">
        <ele>1965</ele>
        <time>2021-11-20T11:18:19Z</time>
      </trkpt>
      <trkpt lat="45.98069" lon="6.43249">
        <ele>1965</ele>
        <time>2021-11-20T11:18:23Z</time>
      </trkpt>
      <trkpt lat="45.98067" lon="6.4325">
        <ele>1964</ele>
        <time>2021-11-20T11:18:26Z</time>
      </trkpt>
      <trkpt lat="45.98066" lon="6.43252">
        <ele>1963</ele>
        <time>2021-11-20T11:18:29Z</time>
      </trkpt>
      <trkpt lat="45.98064" lon="6.43251">
        <ele>1963</ele>
        <time>2021-11-20T11:18:32Z</time>
      </trkpt>
      <trkpt lat="45.98062" lon="6.4325">
        <ele>1962</ele>
        <time>2021-11-20T11:18:34Z</time>
      </trkpt>
      <trkpt lat="45.9806" lon="6.43249">
        <ele>1962</ele>
        <time>2021-11-20T11:18:36Z</time>
      </trkpt>
      <trkpt lat="45.98058" lon="6.43247">
        <ele>1962</ele>
        <time>2021-11-20T11:18:38Z</time>
      </trkpt>
      <trkpt lat="45.98057" lon="6.43245">
        <ele>1962</ele>
        <time>2021-11-20T11:18:40Z</time>
      </trkpt>
      <trkpt lat="45.98055" lon="6.43243">
        <ele>1962</ele>
        <time>2021-11-20T11:18:42Z</time>
      </trkpt>
      <trkpt lat="45.98053" lon="6.43241">
        <ele>1962</ele>
        <time>2021-11-20T11:18:44Z</time>
      </trkpt>
      <trkpt lat="45.98052" lon="6.43239">
        <ele>1961</ele>
        <time>2021-11-20T11:18:46Z</time>
      </trkpt>
      <trkpt lat="45.9805" lon="6.43238">
        <ele>1961</ele>
        <time>2021-11-20T11:18:48Z</time>
      </trkpt>
      <trkpt lat="45.98049" lon="6.43236">
        <ele>1961</ele>
        <time>2021-11-20T11:18:50Z</time>
      </trkpt>
      <trkpt lat="45.98048" lon="6.43234">
        <ele>1961</ele>
        <time>2021-11-20T11:18:52Z</time>
      </trkpt>
      <trkpt lat="45.98046" lon="6.43232">
        <ele>1961</ele>
        <time>2021-11-20T11:18:55Z</time>
      </trkpt>
      <trkpt lat="45.98044" lon="6.4323">
        <ele>1961</ele>
        <time>2021-11-20T11:18:58Z</time>
      </trkpt>
      <trkpt lat="45.98042" lon="6.43229">
        <ele>1961</ele>
        <time>2021-11-20T11:19:01Z</time>
      </trkpt>
      <trkpt lat="45.9804" lon="6.43227">
        <ele>1960</ele>
        <time>2021-11-20T11:19:04Z</time>
      </trkpt>
      <trkpt lat="45.98038" lon="6.43225">
        <ele>1960</ele>
        <time>2021-11-20T11:19:07Z</time>
      </trkpt>
      <trkpt lat="45.98036" lon="6.43223">
        <ele>1959</ele>
        <time>2021-11-20T11:19:10Z</time>
      </trkpt>
      <trkpt lat="45.98034" lon="6.43222">
        <ele>1959</ele>
        <time>2021-11-20T11:19:13Z</time>
      </trkpt>
      <trkpt lat="45.98032" lon="6.4322">
        <ele>1959</ele>
        <time>2021-11-20T11:19:16Z</time>
      </trkpt>
      <trkpt lat="45.9803" lon="6.43219">
        <ele>1958</ele>
        <time>2021-11-20T11:19:19Z</time>
      </trkpt>
      <trkpt lat="45.98027" lon="6.43218">
        <ele>1958</ele>
        <time>2021-11-20T11:19:22Z</time>
      </trkpt>
      <trkpt lat="45.98025" lon="6.43217">
        <ele>1957</ele>
        <time>2021-11-20T11:19:24Z</time>
      </trkpt>
      <trkpt lat="45.98024" lon="6.43216">
        <ele>1957</ele>
        <time>2021-11-20T11:19:26Z</time>
      </trkpt>
      <trkpt lat="45.98022" lon="6.43214">
        <ele>1956</ele>
        <time>2021-11-20T11:19:29Z</time>
      </trkpt>
      <trkpt lat="45.98019" lon="6.43212">
        <ele>1956</ele>
        <time>2021-11-20T11:19:32Z</time>
      </trkpt>
      <trkpt lat="45.98018" lon="6.43211">
        <ele>1955</ele>
        <time>2021-11-20T11:19:34Z</time>
      </trkpt>
      <trkpt lat="45.98016" lon="6.43209">
        <ele>1954</ele>
        <time>2021-11-20T11:19:36Z</time>
      </trkpt>
      <trkpt lat="45.98014" lon="6.43208">
        <ele>1954</ele>
        <time>2021-11-20T11:19:38Z</time>
      </trkpt>
      <trkpt lat="45.98013" lon="6.43207">
        <ele>1954</ele>
        <time>2021-11-20T11:19:40Z</time>
      </trkpt>
      <trkpt lat="45.98011" lon="6.43205">
        <ele>1954</ele>
        <time>2021-11-20T11:19:42Z</time>
      </trkpt>
      <trkpt lat="45.9801" lon="6.43203">
        <ele>1954</ele>
        <time>2021-11-20T11:19:44Z</time>
      </trkpt>
      <trkpt lat="45.98008" lon="6.43201">
        <ele>1953</ele>
        <time>2021-11-20T11:19:47Z</time>
      </trkpt>
      <trkpt lat="45.98006" lon="6.43199">
        <ele>1953</ele>
        <time>2021-11-20T11:19:50Z</time>
      </trkpt>
      <trkpt lat="45.98004" lon="6.43198">
        <ele>1953</ele>
        <time>2021-11-20T11:19:52Z</time>
      </trkpt>
      <trkpt lat="45.98002" lon="6.43195">
        <ele>1952</ele>
        <time>2021-11-20T11:19:55Z</time>
      </trkpt>
      <trkpt lat="45.98001" lon="6.43193">
        <ele>1952</ele>
        <time>2021-11-20T11:19:57Z</time>
      </trkpt>
      <trkpt lat="45.97999" lon="6.43191">
        <ele>1952</ele>
        <time>2021-11-20T11:20:00Z</time>
      </trkpt>
      <trkpt lat="45.97997" lon="6.4319">
        <ele>1951</ele>
        <time>2021-11-20T11:20:02Z</time>
      </trkpt>
      <trkpt lat="45.97996" lon="6.43188">
        <ele>1951</ele>
        <time>2021-11-20T11:20:04Z</time>
      </trkpt>
      <trkpt lat="45.97994" lon="6.43187">
        <ele>1951</ele>
        <time>2021-11-20T11:20:06Z</time>
      </trkpt>
      <trkpt lat="45.97992" lon="6.43185">
        <ele>1951</ele>
        <time>2021-11-20T11:20:09Z</time>
      </trkpt>
      <trkpt lat="45.9799" lon="6.43184">
        <ele>1950</ele>
        <time>2021-11-20T11:20:12Z</time>
      </trkpt>
      <trkpt lat="45.97988" lon="6.43182">
        <ele>1950</ele>
        <time>2021-11-20T11:20:15Z</time>
      </trkpt>
      <trkpt lat="45.97986" lon="6.43181">
        <ele>1949</ele>
        <time>2021-11-20T11:20:18Z</time>
      </trkpt>
      <trkpt lat="45.97984" lon="6.4318">
        <ele>1949</ele>
        <time>2021-11-20T11:20:21Z</time>
      </trkpt>
      <trkpt lat="45.97982" lon="6.43179">
        <ele>1948</ele>
        <time>2021-11-20T11:20:24Z</time>
      </trkpt>
      <trkpt lat="45.9798" lon="6.43177">
        <ele>1948</ele>
        <time>2021-11-20T11:20:28Z</time>
      </trkpt>
      <trkpt lat="45.97978" lon="6.43176">
        <ele>1947</ele>
        <time>2021-11-20T11:20:31Z</time>
      </trkpt>
      <trkpt lat="45.97977" lon="6.43174">
        <ele>1946</ele>
        <time>2021-11-20T11:20:34Z</time>
      </trkpt>
      <trkpt lat="45.97975" lon="6.43173">
        <ele>1946</ele>
        <time>2021-11-20T11:20:37Z</time>
      </trkpt>
      <trkpt lat="45.97973" lon="6.43172">
        <ele>1945</ele>
        <time>2021-11-20T11:20:40Z</time>
      </trkpt>
      <trkpt lat="45.97971" lon="6.43171">
        <ele>1944</ele>
        <time>2021-11-20T11:20:43Z</time>
      </trkpt>
      <trkpt lat="45.97969" lon="6.4317">
        <ele>1943</ele>
        <time>2021-11-20T11:20:46Z</time>
      </trkpt>
      <trkpt lat="45.97967" lon="6.43168">
        <ele>1943</ele>
        <time>2021-11-20T11:20:49Z</time>
      </trkpt>
      <trkpt lat="45.97966" lon="6.43166">
        <ele>1942</ele>
        <time>2021-11-20T11:20:52Z</time>
      </trkpt>
      <trkpt lat="45.97964" lon="6.43164">
        <ele>1942</ele>
        <time>2021-11-20T11:20:55Z</time>
      </trkpt>
      <trkpt lat="45.97963" lon="6.43162">
        <ele>1941</ele>
        <time>2021-11-20T11:20:58Z</time>
      </trkpt>
      <trkpt lat="45.97961" lon="6.4316">
        <ele>1939</ele>
        <time>2021-11-20T11:21:01Z</time>
      </trkpt>
      <trkpt lat="45.97959" lon="6.43158">
        <ele>1939</ele>
        <time>2021-11-20T11:21:04Z</time>
      </trkpt>
      <trkpt lat="45.97957" lon="6.43157">
        <ele>1939</ele>
        <time>2021-11-20T11:21:07Z</time>
      </trkpt>
      <trkpt lat="45.97955" lon="6.43156">
        <ele>1938</ele>
        <time>2021-11-20T11:21:10Z</time>
      </trkpt>
      <trkpt lat="45.97953" lon="6.43155">
        <ele>1938</ele>
        <time>2021-11-20T11:21:13Z</time>
      </trkpt>
      <trkpt lat="45.97951" lon="6.43154">
        <ele>1937</ele>
        <time>2021-11-20T11:21:16Z</time>
      </trkpt>
      <trkpt lat="45.97949" lon="6.43153">
        <ele>1936</ele>
        <time>2021-11-20T11:21:19Z</time>
      </trkpt>
      <trkpt lat="45.97947" lon="6.43152">
        <ele>1935</ele>
        <time>2021-11-20T11:21:22Z</time>
      </trkpt>
      <trkpt lat="45.97945" lon="6.43151">
        <ele>1935</ele>
        <time>2021-11-20T11:21:25Z</time>
      </trkpt>
      <trkpt lat="45.97943" lon="6.43151">
        <ele>1934</ele>
        <time>2021-11-20T11:21:28Z</time>
      </trkpt>
      <trkpt lat="45.97941" lon="6.43151">
        <ele>1934</ele>
        <time>2021-11-20T11:21:31Z</time>
      </trkpt>
      <trkpt lat="45.97939" lon="6.4315">
        <ele>1933</ele>
        <time>2021-11-20T11:21:35Z</time>
      </trkpt>
      <trkpt lat="45.97937" lon="6.4315">
        <ele>1932</ele>
        <time>2021-11-20T11:21:39Z</time>
      </trkpt>
      <trkpt lat="45.97935" lon="6.43151">
        <ele>1931</ele>
        <time>2021-11-20T11:21:43Z</time>
      </trkpt>
      <trkpt lat="45.97933" lon="6.43151">
        <ele>1931</ele>
        <time>2021-11-20T11:21:47Z</time>
      </trkpt>
      <trkpt lat="45.97931" lon="6.4315">
        <ele>1929</ele>
        <time>2021-11-20T11:21:51Z</time>
      </trkpt>
      <trkpt lat="45.97929" lon="6.4315">
        <ele>1929</ele>
        <time>2021-11-20T11:21:54Z</time>
      </trkpt>
      <trkpt lat="45.97927" lon="6.43148">
        <ele>1928</ele>
        <time>2021-11-20T11:21:57Z</time>
      </trkpt>
      <trkpt lat="45.97925" lon="6.43148">
        <ele>1928</ele>
        <time>2021-11-20T11:22:00Z</time>
      </trkpt>
      <trkpt lat="45.97923" lon="6.43147">
        <ele>1927</ele>
        <time>2021-11-20T11:22:03Z</time>
      </trkpt>
      <trkpt lat="45.97921" lon="6.43146">
        <ele>1926</ele>
        <time>2021-11-20T11:22:06Z</time>
      </trkpt>
      <trkpt lat="45.97919" lon="6.43145">
        <ele>1926</ele>
        <time>2021-11-20T11:22:09Z</time>
      </trkpt>
      <trkpt lat="45.97916" lon="6.43144">
        <ele>1926</ele>
        <time>2021-11-20T11:22:12Z</time>
      </trkpt>
      <trkpt lat="45.97914" lon="6.43143">
        <ele>1925</ele>
        <time>2021-11-20T11:22:15Z</time>
      </trkpt>
      <trkpt lat="45.97912" lon="6.43142">
        <ele>1924</ele>
        <time>2021-11-20T11:22:18Z</time>
      </trkpt>
      <trkpt lat="45.9791" lon="6.43141">
        <ele>1924</ele>
        <time>2021-11-20T11:22:21Z</time>
      </trkpt>
      <trkpt lat="45.97909" lon="6.43139">
        <ele>1923</ele>
        <time>2021-11-20T11:22:24Z</time>
      </trkpt>
      <trkpt lat="45.97907" lon="6.43139">
        <ele>1923</ele>
        <time>2021-11-20T11:22:27Z</time>
      </trkpt>
      <trkpt lat="45.97905" lon="6.43138">
        <ele>1922</ele>
        <time>2021-11-20T11:22:34Z</time>
      </trkpt>
      <trkpt lat="45.97903" lon="6.43137">
        <ele>1922</ele>
        <time>2021-11-20T11:22:37Z</time>
      </trkpt>
      <trkpt lat="45.97901" lon="6.43136">
        <ele>1921</ele>
        <time>2021-11-20T11:22:40Z</time>
      </trkpt>
      <trkpt lat="45.979" lon="6.43134">
        <ele>1921</ele>
        <time>2021-11-20T11:22:43Z</time>
      </trkpt>
      <trkpt lat="45.97898" lon="6.43133">
        <ele>1921</ele>
        <time>2021-11-20T11:22:46Z</time>
      </trkpt>
      <trkpt lat="45.97896" lon="6.43133">
        <ele>1921</ele>
        <time>2021-11-20T11:22:49Z</time>
      </trkpt>
      <trkpt lat="45.97894" lon="6.43132">
        <ele>1920</ele>
        <time>2021-11-20T11:22:52Z</time>
      </trkpt>
      <trkpt lat="45.97892" lon="6.43132">
        <ele>1919</ele>
        <time>2021-11-20T11:22:55Z</time>
      </trkpt>
      <trkpt lat="45.97889" lon="6.43131">
        <ele>1919</ele>
        <time>2021-11-20T11:22:59Z</time>
      </trkpt>
      <trkpt lat="45.97887" lon="6.43131">
        <ele>1918</ele>
        <time>2021-11-20T11:23:03Z</time>
      </trkpt>
      <trkpt lat="45.97885" lon="6.43131">
        <ele>1917</ele>
        <time>2021-11-20T11:23:07Z</time>
      </trkpt>
      <trkpt lat="45.97883" lon="6.43131">
        <ele>1916</ele>
        <time>2021-11-20T11:23:11Z</time>
      </trkpt>
      <trkpt lat="45.97881" lon="6.43131">
        <ele>1914</ele>
        <time>2021-11-20T11:23:15Z</time>
      </trkpt>
      <trkpt lat="45.97879" lon="6.43132">
        <ele>1914</ele>
        <time>2021-11-20T11:23:19Z</time>
      </trkpt>
      <trkpt lat="45.97876" lon="6.43133">
        <ele>1914</ele>
        <time>2021-11-20T11:23:23Z</time>
      </trkpt>
      <trkpt lat="45.97875" lon="6.43134">
        <ele>1912</ele>
        <time>2021-11-20T11:23:27Z</time>
      </trkpt>
      <trkpt lat="45.97873" lon="6.43135">
        <ele>1911</ele>
        <time>2021-11-20T11:23:32Z</time>
      </trkpt>
      <trkpt lat="45.97871" lon="6.43136">
        <ele>1910</ele>
        <time>2021-11-20T11:23:36Z</time>
      </trkpt>
      <trkpt lat="45.97869" lon="6.43137">
        <ele>1910</ele>
        <time>2021-11-20T11:23:40Z</time>
      </trkpt>
      <trkpt lat="45.97866" lon="6.43137">
        <ele>1909</ele>
        <time>2021-11-20T11:23:44Z</time>
      </trkpt>
      <trkpt lat="45.97864" lon="6.43138">
        <ele>1908</ele>
        <time>2021-11-20T11:23:48Z</time>
      </trkpt>
      <trkpt lat="45.97862" lon="6.43138">
        <ele>1908</ele>
        <time>2021-11-20T11:23:51Z</time>
      </trkpt>
      <trkpt lat="45.9786" lon="6.43139">
        <ele>1907</ele>
        <time>2021-11-20T11:23:55Z</time>
      </trkpt>
      <trkpt lat="45.97858" lon="6.4314">
        <ele>1906</ele>
        <time>2021-11-20T11:24:00Z</time>
      </trkpt>
      <trkpt lat="45.97856" lon="6.4314">
        <ele>1906</ele>
        <time>2021-11-20T11:24:04Z</time>
      </trkpt>
      <trkpt lat="45.97854" lon="6.4314">
        <ele>1905</ele>
        <time>2021-11-20T11:24:08Z</time>
      </trkpt>
      <trkpt lat="45.97852" lon="6.4314">
        <ele>1904</ele>
        <time>2021-11-20T11:24:13Z</time>
      </trkpt>
      <trkpt lat="45.9785" lon="6.4314">
        <ele>1903</ele>
        <time>2021-11-20T11:24:17Z</time>
      </trkpt>
      <trkpt lat="45.97848" lon="6.4314">
        <ele>1903</ele>
        <time>2021-11-20T11:24:21Z</time>
      </trkpt>
      <trkpt lat="45.97846" lon="6.43139">
        <ele>1902</ele>
        <time>2021-11-20T11:24:25Z</time>
      </trkpt>
      <trkpt lat="45.97844" lon="6.43138">
        <ele>1901</ele>
        <time>2021-11-20T11:24:29Z</time>
      </trkpt>
      <trkpt lat="45.97842" lon="6.43138">
        <ele>1900</ele>
        <time>2021-11-20T11:24:32Z</time>
      </trkpt>
      <trkpt lat="45.9784" lon="6.43138">
        <ele>1899</ele>
        <time>2021-11-20T11:24:36Z</time>
      </trkpt>
      <trkpt lat="45.97838" lon="6.43137">
        <ele>1898</ele>
        <time>2021-11-20T11:24:39Z</time>
      </trkpt>
      <trkpt lat="45.97837" lon="6.43135">
        <ele>1898</ele>
        <time>2021-11-20T11:24:42Z</time>
      </trkpt>
      <trkpt lat="45.97835" lon="6.43134">
        <ele>1897</ele>
        <time>2021-11-20T11:24:46Z</time>
      </trkpt>
      <trkpt lat="45.97834" lon="6.43137">
        <ele>1896</ele>
        <time>2021-11-20T11:24:51Z</time>
      </trkpt>
      <trkpt lat="45.97833" lon="6.4314">
        <ele>1896</ele>
        <time>2021-11-20T11:24:55Z</time>
      </trkpt>
      <trkpt lat="45.97832" lon="6.43142">
        <ele>1895</ele>
        <time>2021-11-20T11:24:59Z</time>
      </trkpt>
      <trkpt lat="45.9783" lon="6.43144">
        <ele>1894</ele>
        <time>2021-11-20T11:25:03Z</time>
      </trkpt>
      <trkpt lat="45.97828" lon="6.43146">
        <ele>1893</ele>
        <time>2021-11-20T11:25:07Z</time>
      </trkpt>
      <trkpt lat="45.97826" lon="6.43148">
        <ele>1893</ele>
        <time>2021-11-20T11:25:10Z</time>
      </trkpt>
      <trkpt lat="45.97824" lon="6.43149">
        <ele>1892</ele>
        <time>2021-11-20T11:25:12Z</time>
      </trkpt>
      <trkpt lat="45.97823" lon="6.4315">
        <ele>1892</ele>
        <time>2021-11-20T11:25:15Z</time>
      </trkpt>
      <trkpt lat="45.97821" lon="6.43151">
        <ele>1892</ele>
        <time>2021-11-20T11:25:17Z</time>
      </trkpt>
      <trkpt lat="45.97818" lon="6.43151">
        <ele>1891</ele>
        <time>2021-11-20T11:25:20Z</time>
      </trkpt>
      <trkpt lat="45.97816" lon="6.4315">
        <ele>1891</ele>
        <time>2021-11-20T11:25:23Z</time>
      </trkpt>
      <trkpt lat="45.97814" lon="6.43149">
        <ele>1891</ele>
        <time>2021-11-20T11:25:26Z</time>
      </trkpt>
      <trkpt lat="45.97811" lon="6.43149">
        <ele>1891</ele>
        <time>2021-11-20T11:25:29Z</time>
      </trkpt>
      <trkpt lat="45.97809" lon="6.43149">
        <ele>1890</ele>
        <time>2021-11-20T11:25:31Z</time>
      </trkpt>
      <trkpt lat="45.97807" lon="6.43149">
        <ele>1890</ele>
        <time>2021-11-20T11:25:34Z</time>
      </trkpt>
      <trkpt lat="45.97805" lon="6.43149">
        <ele>1890</ele>
        <time>2021-11-20T11:25:36Z</time>
      </trkpt>
      <trkpt lat="45.97803" lon="6.43149">
        <ele>1890</ele>
        <time>2021-11-20T11:25:38Z</time>
      </trkpt>
      <trkpt lat="45.97801" lon="6.43148">
        <ele>1890</ele>
        <time>2021-11-20T11:25:40Z</time>
      </trkpt>
      <trkpt lat="45.97799" lon="6.43148">
        <ele>1890</ele>
        <time>2021-11-20T11:25:43Z</time>
      </trkpt>
      <trkpt lat="45.97796" lon="6.43147">
        <ele>1889</ele>
        <time>2021-11-20T11:25:46Z</time>
      </trkpt>
      <trkpt lat="45.97794" lon="6.43147">
        <ele>1889</ele>
        <time>2021-11-20T11:25:48Z</time>
      </trkpt>
      <trkpt lat="45.97792" lon="6.43147">
        <ele>1889</ele>
        <time>2021-11-20T11:25:51Z</time>
      </trkpt>
      <trkpt lat="45.9779" lon="6.43147">
        <ele>1889</ele>
        <time>2021-11-20T11:25:53Z</time>
      </trkpt>
      <trkpt lat="45.97788" lon="6.43147">
        <ele>1888</ele>
        <time>2021-11-20T11:25:55Z</time>
      </trkpt>
      <trkpt lat="45.97786" lon="6.43147">
        <ele>1888</ele>
        <time>2021-11-20T11:25:58Z</time>
      </trkpt>
      <trkpt lat="45.97784" lon="6.43147">
        <ele>1889</ele>
        <time>2021-11-20T11:26:01Z</time>
      </trkpt>
      <trkpt lat="45.97781" lon="6.43147">
        <ele>1889</ele>
        <time>2021-11-20T11:26:05Z</time>
      </trkpt>
      <trkpt lat="45.97779" lon="6.43146">
        <ele>1889</ele>
        <time>2021-11-20T11:26:09Z</time>
      </trkpt>
      <trkpt lat="45.97777" lon="6.43146">
        <ele>1890</ele>
        <time>2021-11-20T11:26:12Z</time>
      </trkpt>
      <trkpt lat="45.97775" lon="6.43146">
        <ele>1890</ele>
        <time>2021-11-20T11:26:15Z</time>
      </trkpt>
      <trkpt lat="45.97773" lon="6.43147">
        <ele>1890</ele>
        <time>2021-11-20T11:26:19Z</time>
      </trkpt>
      <trkpt lat="45.97771" lon="6.43147">
        <ele>1890</ele>
        <time>2021-11-20T11:26:22Z</time>
      </trkpt>
      <trkpt lat="45.97769" lon="6.43148">
        <ele>1890</ele>
        <time>2021-11-20T11:26:27Z</time>
      </trkpt>
      <trkpt lat="45.97768" lon="6.43151">
        <ele>1891</ele>
        <time>2021-11-20T11:26:33Z</time>
      </trkpt>
      <trkpt lat="45.97767" lon="6.43154">
        <ele>1892</ele>
        <time>2021-11-20T11:26:40Z</time>
      </trkpt>
      <trkpt lat="45.97766" lon="6.43156">
        <ele>1892</ele>
        <time>2021-11-20T11:26:45Z</time>
      </trkpt>
      <trkpt lat="45.97766" lon="6.43159">
        <ele>1892</ele>
        <time>2021-11-20T11:27:03Z</time>
      </trkpt>
      <trkpt lat="45.97765" lon="6.43162">
        <ele>1891</ele>
        <time>2021-11-20T11:27:14Z</time>
      </trkpt>
      <trkpt lat="45.97765" lon="6.43165">
        <ele>1892</ele>
        <time>2021-11-20T11:28:09Z</time>
      </trkpt>
      <trkpt lat="45.97764" lon="6.43167">
        <ele>1889</ele>
        <time>2021-11-20T11:33:03Z</time>
      </trkpt>
      <trkpt lat="45.97764" lon="6.43164">
        <ele>1890</ele>
        <time>2021-11-20T11:39:49Z</time>
      </trkpt>
      <trkpt lat="45.97762" lon="6.43163">
        <ele>1890</ele>
        <time>2021-11-20T11:40:37Z</time>
      </trkpt>
      <trkpt lat="45.97763" lon="6.4316">
        <ele>1889</ele>
        <time>2021-11-20T11:40:41Z</time>
      </trkpt>
      <trkpt lat="45.97764" lon="6.43159">
        <ele>1889</ele>
        <time>2021-11-20T11:40:59Z</time>
      </trkpt>
      <trkpt lat="45.97766" lon="6.43159">
        <ele>1890</ele>
        <time>2021-11-20T11:41:03Z</time>
      </trkpt>
      <trkpt lat="45.97766" lon="6.43162">
        <ele>1890</ele>
        <time>2021-11-20T11:41:27Z</time>
      </trkpt>
      <trkpt lat="45.97766" lon="6.43159">
        <ele>1891</ele>
        <time>2021-11-20T11:41:46Z</time>
      </trkpt>
      <trkpt lat="45.97765" lon="6.43157">
        <ele>1890</ele>
        <time>2021-11-20T11:41:59Z</time>
      </trkpt>
      <trkpt lat="45.97764" lon="6.4316">
        <ele>1889</ele>
        <time>2021-11-20T11:42:20Z</time>
      </trkpt>
      <trkpt lat="45.97765" lon="6.43162">
        <ele>1890</ele>
        <time>2021-11-20T11:42:29Z</time>
      </trkpt>
      <trkpt lat="45.97765" lon="6.43165">
        <ele>1889</ele>
        <time>2021-11-20T11:44:06Z</time>
      </trkpt>
      <trkpt lat="45.97767" lon="6.43167">
        <ele>1890</ele>
        <time>2021-11-20T12:00:47Z</time>
      </trkpt>
      <trkpt lat="45.97766" lon="6.43164">
        <ele>1889</ele>
        <time>2021-11-20T12:41:25Z</time>
      </trkpt>
      <trkpt lat="45.97764" lon="6.43162">
        <ele>1889</ele>
        <time>2021-11-20T12:41:34Z</time>
      </trkpt>
      <trkpt lat="45.97764" lon="6.4316">
        <ele>1889</ele>
        <time>2021-11-20T12:41:38Z</time>
      </trkpt>
      <trkpt lat="45.97765" lon="6.43157">
        <ele>1889</ele>
        <time>2021-11-20T12:43:48Z</time>
      </trkpt>
      <trkpt lat="45.97765" lon="6.4316">
        <ele>1890</ele>
        <time>2021-11-20T12:47:08Z</time>
      </trkpt>
      <trkpt lat="45.97766" lon="6.43163">
        <ele>1890</ele>
        <time>2021-11-20T12:47:15Z</time>
      </trkpt>
      <trkpt lat="45.97765" lon="6.4316">
        <ele>1889</ele>
        <time>2021-11-20T12:48:15Z</time>
      </trkpt>
      <trkpt lat="45.97765" lon="6.43158">
        <ele>1890</ele>
        <time>2021-11-20T12:48:20Z</time>
      </trkpt>
      <trkpt lat="45.97766" lon="6.43156">
        <ele>1890</ele>
        <time>2021-11-20T12:51:25Z</time>
      </trkpt>
      <trkpt lat="45.97767" lon="6.43153">
        <ele>1889</ele>
        <time>2021-11-20T12:51:45Z</time>
      </trkpt>
      <trkpt lat="45.97768" lon="6.43151">
        <ele>1889</ele>
        <time>2021-11-20T12:51:51Z</time>
      </trkpt>
      <trkpt lat="45.97769" lon="6.43148">
        <ele>1889</ele>
        <time>2021-11-20T12:51:55Z</time>
      </trkpt>
      <trkpt lat="45.9777" lon="6.43146">
        <ele>1888</ele>
        <time>2021-11-20T12:51:57Z</time>
      </trkpt>
      <trkpt lat="45.97772" lon="6.43144">
        <ele>1888</ele>
        <time>2021-11-20T12:52:01Z</time>
      </trkpt>
      <trkpt lat="45.97774" lon="6.43143">
        <ele>1888</ele>
        <time>2021-11-20T12:52:04Z</time>
      </trkpt>
      <trkpt lat="45.97776" lon="6.43142">
        <ele>1888</ele>
        <time>2021-11-20T12:52:07Z</time>
      </trkpt>
      <trkpt lat="45.97778" lon="6.43142">
        <ele>1888</ele>
        <time>2021-11-20T12:52:10Z</time>
      </trkpt>
      <trkpt lat="45.97781" lon="6.43143">
        <ele>1888</ele>
        <time>2021-11-20T12:52:13Z</time>
      </trkpt>
      <trkpt lat="45.97783" lon="6.43142">
        <ele>1887</ele>
        <time>2021-11-20T12:52:16Z</time>
      </trkpt>
      <trkpt lat="45.97786" lon="6.43142">
        <ele>1887</ele>
        <time>2021-11-20T12:52:18Z</time>
      </trkpt>
      <trkpt lat="45.97788" lon="6.43142">
        <ele>1887</ele>
        <time>2021-11-20T12:52:20Z</time>
      </trkpt>
      <trkpt lat="45.9779" lon="6.43143">
        <ele>1886</ele>
        <time>2021-11-20T12:52:22Z</time>
      </trkpt>
      <trkpt lat="45.97792" lon="6.43143">
        <ele>1886</ele>
        <time>2021-11-20T12:52:24Z</time>
      </trkpt>
      <trkpt lat="45.97794" lon="6.43143">
        <ele>1886</ele>
        <time>2021-11-20T12:52:26Z</time>
      </trkpt>
      <trkpt lat="45.97796" lon="6.43143">
        <ele>1886</ele>
        <time>2021-11-20T12:52:28Z</time>
      </trkpt>
      <trkpt lat="45.97798" lon="6.43144">
        <ele>1886</ele>
        <time>2021-11-20T12:52:31Z</time>
      </trkpt>
      <trkpt lat="45.97801" lon="6.43145">
        <ele>1886</ele>
        <time>2021-11-20T12:52:34Z</time>
      </trkpt>
      <trkpt lat="45.97803" lon="6.43145">
        <ele>1886</ele>
        <time>2021-11-20T12:52:36Z</time>
      </trkpt>
      <trkpt lat="45.97805" lon="6.43146">
        <ele>1886</ele>
        <time>2021-11-20T12:52:38Z</time>
      </trkpt>
      <trkpt lat="45.97807" lon="6.43146">
        <ele>1886</ele>
        <time>2021-11-20T12:52:40Z</time>
      </trkpt>
      <trkpt lat="45.97809" lon="6.43146">
        <ele>1886</ele>
        <time>2021-11-20T12:52:42Z</time>
      </trkpt>
      <trkpt lat="45.9781" lon="6.43147">
        <ele>1886</ele>
        <time>2021-11-20T12:52:44Z</time>
      </trkpt>
      <trkpt lat="45.97812" lon="6.43147">
        <ele>1887</ele>
        <time>2021-11-20T12:52:46Z</time>
      </trkpt>
      <trkpt lat="45.97815" lon="6.43148">
        <ele>1887</ele>
        <time>2021-11-20T12:52:49Z</time>
      </trkpt>
      <trkpt lat="45.97817" lon="6.43148">
        <ele>1887</ele>
        <time>2021-11-20T12:52:52Z</time>
      </trkpt>
      <trkpt lat="45.9782" lon="6.43149">
        <ele>1888</ele>
        <time>2021-11-20T12:52:55Z</time>
      </trkpt>
      <trkpt lat="45.97821" lon="6.43151">
        <ele>1889</ele>
        <time>2021-11-20T12:52:57Z</time>
      </trkpt>
      <trkpt lat="45.97822" lon="6.43153">
        <ele>1889</ele>
        <time>2021-11-20T12:52:59Z</time>
      </trkpt>
      <trkpt lat="45.97824" lon="6.43155">
        <ele>1889</ele>
        <time>2021-11-20T12:53:02Z</time>
      </trkpt>
      <trkpt lat="45.97826" lon="6.43157">
        <ele>1889</ele>
        <time>2021-11-20T12:53:05Z</time>
      </trkpt>
      <trkpt lat="45.97829" lon="6.43159">
        <ele>1889</ele>
        <time>2021-11-20T12:53:08Z</time>
      </trkpt>
      <trkpt lat="45.97831" lon="6.43161">
        <ele>1888</ele>
        <time>2021-11-20T12:53:11Z</time>
      </trkpt>
      <trkpt lat="45.97833" lon="6.43163">
        <ele>1888</ele>
        <time>2021-11-20T12:53:13Z</time>
      </trkpt>
      <trkpt lat="45.97835" lon="6.43164">
        <ele>1888</ele>
        <time>2021-11-20T12:53:16Z</time>
      </trkpt>
      <trkpt lat="45.97837" lon="6.43165">
        <ele>1887</ele>
        <time>2021-11-20T12:53:20Z</time>
      </trkpt>
      <trkpt lat="45.97839" lon="6.43164">
        <ele>1887</ele>
        <time>2021-11-20T12:53:26Z</time>
      </trkpt>
      <trkpt lat="45.97841" lon="6.43166">
        <ele>1886</ele>
        <time>2021-11-20T12:53:30Z</time>
      </trkpt>
      <trkpt lat="45.97841" lon="6.43168">
        <ele>1885</ele>
        <time>2021-11-20T12:53:34Z</time>
      </trkpt>
      <trkpt lat="45.97842" lon="6.4317">
        <ele>1884</ele>
        <time>2021-11-20T12:53:38Z</time>
      </trkpt>
      <trkpt lat="45.97843" lon="6.43173">
        <ele>1884</ele>
        <time>2021-11-20T12:53:42Z</time>
      </trkpt>
      <trkpt lat="45.97844" lon="6.43176">
        <ele>1882</ele>
        <time>2021-11-20T12:53:46Z</time>
      </trkpt>
      <trkpt lat="45.97845" lon="6.43179">
        <ele>1882</ele>
        <time>2021-11-20T12:53:50Z</time>
      </trkpt>
      <trkpt lat="45.97847" lon="6.43181">
        <ele>1882</ele>
        <time>2021-11-20T12:53:54Z</time>
      </trkpt>
      <trkpt lat="45.97847" lon="6.43183">
        <ele>1881</ele>
        <time>2021-11-20T12:54:01Z</time>
      </trkpt>
      <trkpt lat="45.97846" lon="6.43185">
        <ele>1880</ele>
        <time>2021-11-20T12:54:04Z</time>
      </trkpt>
      <trkpt lat="45.97845" lon="6.43188">
        <ele>1879</ele>
        <time>2021-11-20T12:54:12Z</time>
      </trkpt>
      <trkpt lat="45.97843" lon="6.4319">
        <ele>1879</ele>
        <time>2021-11-20T12:54:15Z</time>
      </trkpt>
      <trkpt lat="45.97841" lon="6.43191">
        <ele>1879</ele>
        <time>2021-11-20T12:54:18Z</time>
      </trkpt>
      <trkpt lat="45.97839" lon="6.43193">
        <ele>1878</ele>
        <time>2021-11-20T12:54:21Z</time>
      </trkpt>
      <trkpt lat="45.97838" lon="6.43195">
        <ele>1877</ele>
        <time>2021-11-20T12:54:24Z</time>
      </trkpt>
      <trkpt lat="45.97837" lon="6.43197">
        <ele>1877</ele>
        <time>2021-11-20T12:54:27Z</time>
      </trkpt>
      <trkpt lat="45.97836" lon="6.432">
        <ele>1876</ele>
        <time>2021-11-20T12:54:33Z</time>
      </trkpt>
      <trkpt lat="45.97837" lon="6.43203">
        <ele>1874</ele>
        <time>2021-11-20T12:54:37Z</time>
      </trkpt>
      <trkpt lat="45.97839" lon="6.43202">
        <ele>1874</ele>
        <time>2021-11-20T12:54:43Z</time>
      </trkpt>
      <trkpt lat="45.97841" lon="6.43204">
        <ele>1874</ele>
        <time>2021-11-20T12:54:48Z</time>
      </trkpt>
      <trkpt lat="45.97843" lon="6.43204">
        <ele>1872</ele>
        <time>2021-11-20T12:54:53Z</time>
      </trkpt>
      <trkpt lat="45.97845" lon="6.43205">
        <ele>1872</ele>
        <time>2021-11-20T12:54:57Z</time>
      </trkpt>
      <trkpt lat="45.97847" lon="6.43206">
        <ele>1871</ele>
        <time>2021-11-20T12:55:01Z</time>
      </trkpt>
      <trkpt lat="45.97849" lon="6.43208">
        <ele>1871</ele>
        <time>2021-11-20T12:55:05Z</time>
      </trkpt>
      <trkpt lat="45.9785" lon="6.4321">
        <ele>1870</ele>
        <time>2021-11-20T12:55:09Z</time>
      </trkpt>
      <trkpt lat="45.97852" lon="6.43212">
        <ele>1870</ele>
        <time>2021-11-20T12:55:13Z</time>
      </trkpt>
      <trkpt lat="45.97853" lon="6.43214">
        <ele>1869</ele>
        <time>2021-11-20T12:55:16Z</time>
      </trkpt>
      <trkpt lat="45.97855" lon="6.43215">
        <ele>1868</ele>
        <time>2021-11-20T12:55:19Z</time>
      </trkpt>
      <trkpt lat="45.97857" lon="6.43217">
        <ele>1868</ele>
        <time>2021-11-20T12:55:23Z</time>
      </trkpt>
      <trkpt lat="45.97858" lon="6.43218">
        <ele>1868</ele>
        <time>2021-11-20T12:55:26Z</time>
      </trkpt>
      <trkpt lat="45.9786" lon="6.4322">
        <ele>1867</ele>
        <time>2021-11-20T12:55:29Z</time>
      </trkpt>
      <trkpt lat="45.97861" lon="6.43222">
        <ele>1867</ele>
        <time>2021-11-20T12:55:31Z</time>
      </trkpt>
      <trkpt lat="45.97863" lon="6.43224">
        <ele>1866</ele>
        <time>2021-11-20T12:55:33Z</time>
      </trkpt>
      <trkpt lat="45.97864" lon="6.43226">
        <ele>1866</ele>
        <time>2021-11-20T12:55:35Z</time>
      </trkpt>
      <trkpt lat="45.97866" lon="6.43228">
        <ele>1866</ele>
        <time>2021-11-20T12:55:37Z</time>
      </trkpt>
      <trkpt lat="45.97867" lon="6.4323">
        <ele>1866</ele>
        <time>2021-11-20T12:55:39Z</time>
      </trkpt>
      <trkpt lat="45.97868" lon="6.43233">
        <ele>1866</ele>
        <time>2021-11-20T12:55:41Z</time>
      </trkpt>
      <trkpt lat="45.97869" lon="6.43235">
        <ele>1866</ele>
        <time>2021-11-20T12:55:43Z</time>
      </trkpt>
      <trkpt lat="45.9787" lon="6.43238">
        <ele>1865</ele>
        <time>2021-11-20T12:55:46Z</time>
      </trkpt>
      <trkpt lat="45.97871" lon="6.43242">
        <ele>1864</ele>
        <time>2021-11-20T12:55:49Z</time>
      </trkpt>
      <trkpt lat="45.97871" lon="6.43245">
        <ele>1864</ele>
        <time>2021-11-20T12:55:51Z</time>
      </trkpt>
      <trkpt lat="45.97872" lon="6.43248">
        <ele>1863</ele>
        <time>2021-11-20T12:55:54Z</time>
      </trkpt>
      <trkpt lat="45.97873" lon="6.4325">
        <ele>1863</ele>
        <time>2021-11-20T12:55:57Z</time>
      </trkpt>
      <trkpt lat="45.97874" lon="6.43252">
        <ele>1862</ele>
        <time>2021-11-20T12:56:00Z</time>
      </trkpt>
      <trkpt lat="45.97876" lon="6.43254">
        <ele>1862</ele>
        <time>2021-11-20T12:56:03Z</time>
      </trkpt>
      <trkpt lat="45.97877" lon="6.43257">
        <ele>1861</ele>
        <time>2021-11-20T12:56:06Z</time>
      </trkpt>
      <trkpt lat="45.97877" lon="6.43259">
        <ele>1861</ele>
        <time>2021-11-20T12:56:08Z</time>
      </trkpt>
      <trkpt lat="45.97877" lon="6.43263">
        <ele>1860</ele>
        <time>2021-11-20T12:56:11Z</time>
      </trkpt>
      <trkpt lat="45.97878" lon="6.43266">
        <ele>1860</ele>
        <time>2021-11-20T12:56:14Z</time>
      </trkpt>
      <trkpt lat="45.97878" lon="6.4327">
        <ele>1859</ele>
        <time>2021-11-20T12:56:17Z</time>
      </trkpt>
      <trkpt lat="45.97879" lon="6.43274">
        <ele>1859</ele>
        <time>2021-11-20T12:56:20Z</time>
      </trkpt>
      <trkpt lat="45.97879" lon="6.43276">
        <ele>1858</ele>
        <time>2021-11-20T12:56:22Z</time>
      </trkpt>
      <trkpt lat="45.97879" lon="6.4328">
        <ele>1858</ele>
        <time>2021-11-20T12:56:25Z</time>
      </trkpt>
      <trkpt lat="45.97879" lon="6.43283">
        <ele>1858</ele>
        <time>2021-11-20T12:56:27Z</time>
      </trkpt>
      <trkpt lat="45.9788" lon="6.43286">
        <ele>1857</ele>
        <time>2021-11-20T12:56:29Z</time>
      </trkpt>
      <trkpt lat="45.9788" lon="6.43288">
        <ele>1856</ele>
        <time>2021-11-20T12:56:31Z</time>
      </trkpt>
      <trkpt lat="45.9788" lon="6.43291">
        <ele>1856</ele>
        <time>2021-11-20T12:56:33Z</time>
      </trkpt>
      <trkpt lat="45.9788" lon="6.43294">
        <ele>1856</ele>
        <time>2021-11-20T12:56:35Z</time>
      </trkpt>
      <trkpt lat="45.9788" lon="6.43297">
        <ele>1856</ele>
        <time>2021-11-20T12:56:37Z</time>
      </trkpt>
      <trkpt lat="45.9788" lon="6.43301">
        <ele>1856</ele>
        <time>2021-11-20T12:56:39Z</time>
      </trkpt>
      <trkpt lat="45.97881" lon="6.43303">
        <ele>1856</ele>
        <time>2021-11-20T12:56:41Z</time>
      </trkpt>
      <trkpt lat="45.97881" lon="6.43307">
        <ele>1855</ele>
        <time>2021-11-20T12:56:43Z</time>
      </trkpt>
      <trkpt lat="45.97881" lon="6.4331">
        <ele>1854</ele>
        <time>2021-11-20T12:56:45Z</time>
      </trkpt>
      <trkpt lat="45.97882" lon="6.43312">
        <ele>1854</ele>
        <time>2021-11-20T12:56:47Z</time>
      </trkpt>
      <trkpt lat="45.97883" lon="6.43315">
        <ele>1854</ele>
        <time>2021-11-20T12:56:49Z</time>
      </trkpt>
      <trkpt lat="45.97884" lon="6.43318">
        <ele>1853</ele>
        <time>2021-11-20T12:56:51Z</time>
      </trkpt>
      <trkpt lat="45.97885" lon="6.43321">
        <ele>1853</ele>
        <time>2021-11-20T12:56:53Z</time>
      </trkpt>
      <trkpt lat="45.97886" lon="6.43323">
        <ele>1853</ele>
        <time>2021-11-20T12:56:55Z</time>
      </trkpt>
      <trkpt lat="45.97888" lon="6.43326">
        <ele>1853</ele>
        <time>2021-11-20T12:56:58Z</time>
      </trkpt>
      <trkpt lat="45.97888" lon="6.43329">
        <ele>1853</ele>
        <time>2021-11-20T12:57:00Z</time>
      </trkpt>
      <trkpt lat="45.97888" lon="6.43332">
        <ele>1853</ele>
        <time>2021-11-20T12:57:04Z</time>
      </trkpt>
      <trkpt lat="45.97889" lon="6.43334">
        <ele>1853</ele>
        <time>2021-11-20T12:58:44Z</time>
      </trkpt>
      <trkpt lat="45.9789" lon="6.43337">
        <ele>1853</ele>
        <time>2021-11-20T12:58:48Z</time>
      </trkpt>
      <trkpt lat="45.97891" lon="6.4334">
        <ele>1853</ele>
        <time>2021-11-20T12:58:51Z</time>
      </trkpt>
      <trkpt lat="45.97892" lon="6.43343">
        <ele>1853</ele>
        <time>2021-11-20T12:58:54Z</time>
      </trkpt>
      <trkpt lat="45.97893" lon="6.43346">
        <ele>1852</ele>
        <time>2021-11-20T12:58:57Z</time>
      </trkpt>
      <trkpt lat="45.97894" lon="6.43349">
        <ele>1852</ele>
        <time>2021-11-20T12:59:00Z</time>
      </trkpt>
      <trkpt lat="45.97893" lon="6.43352">
        <ele>1852</ele>
        <time>2021-11-20T12:59:03Z</time>
      </trkpt>
      <trkpt lat="45.97892" lon="6.43355">
        <ele>1851</ele>
        <time>2021-11-20T12:59:06Z</time>
      </trkpt>
      <trkpt lat="45.97892" lon="6.43358">
        <ele>1851</ele>
        <time>2021-11-20T12:59:09Z</time>
      </trkpt>
      <trkpt lat="45.97893" lon="6.4336">
        <ele>1851</ele>
        <time>2021-11-20T12:59:15Z</time>
      </trkpt>
      <trkpt lat="45.97894" lon="6.43363">
        <ele>1851</ele>
        <time>2021-11-20T12:59:18Z</time>
      </trkpt>
      <trkpt lat="45.97895" lon="6.43366">
        <ele>1850</ele>
        <time>2021-11-20T12:59:21Z</time>
      </trkpt>
      <trkpt lat="45.97896" lon="6.43368">
        <ele>1849</ele>
        <time>2021-11-20T12:59:24Z</time>
      </trkpt>
      <trkpt lat="45.97896" lon="6.43371">
        <ele>1849</ele>
        <time>2021-11-20T12:59:27Z</time>
      </trkpt>
      <trkpt lat="45.97896" lon="6.43374">
        <ele>1848</ele>
        <time>2021-11-20T12:59:30Z</time>
      </trkpt>
      <trkpt lat="45.97896" lon="6.43377">
        <ele>1848</ele>
        <time>2021-11-20T12:59:34Z</time>
      </trkpt>
      <trkpt lat="45.97896" lon="6.4338">
        <ele>1847</ele>
        <time>2021-11-20T12:59:37Z</time>
      </trkpt>
      <trkpt lat="45.97897" lon="6.43382">
        <ele>1847</ele>
        <time>2021-11-20T12:59:41Z</time>
      </trkpt>
      <trkpt lat="45.97898" lon="6.43385">
        <ele>1846</ele>
        <time>2021-11-20T12:59:45Z</time>
      </trkpt>
      <trkpt lat="45.97899" lon="6.43387">
        <ele>1844</ele>
        <time>2021-11-20T12:59:49Z</time>
      </trkpt>
      <trkpt lat="45.979" lon="6.4339">
        <ele>1844</ele>
        <time>2021-11-20T12:59:54Z</time>
      </trkpt>
      <trkpt lat="45.97902" lon="6.43393">
        <ele>1843</ele>
        <time>2021-11-20T12:59:58Z</time>
      </trkpt>
      <trkpt lat="45.97903" lon="6.43396">
        <ele>1843</ele>
        <time>2021-11-20T13:00:00Z</time>
      </trkpt>
      <trkpt lat="45.97904" lon="6.43399">
        <ele>1842</ele>
        <time>2021-11-20T13:00:03Z</time>
      </trkpt>
      <trkpt lat="45.97904" lon="6.43402">
        <ele>1842</ele>
        <time>2021-11-20T13:00:06Z</time>
      </trkpt>
      <trkpt lat="45.97905" lon="6.43406">
        <ele>1842</ele>
        <time>2021-11-20T13:00:10Z</time>
      </trkpt>
      <trkpt lat="45.97905" lon="6.43409">
        <ele>1841</ele>
        <time>2021-11-20T13:00:13Z</time>
      </trkpt>
      <trkpt lat="45.97906" lon="6.43412">
        <ele>1840</ele>
        <time>2021-11-20T13:00:16Z</time>
      </trkpt>
      <trkpt lat="45.97907" lon="6.43415">
        <ele>1840</ele>
        <time>2021-11-20T13:00:19Z</time>
      </trkpt>
      <trkpt lat="45.97909" lon="6.43417">
        <ele>1839</ele>
        <time>2021-11-20T13:00:21Z</time>
      </trkpt>
      <trkpt lat="45.97909" lon="6.4342">
        <ele>1839</ele>
        <time>2021-11-20T13:00:23Z</time>
      </trkpt>
      <trkpt lat="45.9791" lon="6.43423">
        <ele>1839</ele>
        <time>2021-11-20T13:00:26Z</time>
      </trkpt>
      <trkpt lat="45.9791" lon="6.43427">
        <ele>1839</ele>
        <time>2021-11-20T13:00:29Z</time>
      </trkpt>
      <trkpt lat="45.9791" lon="6.4343">
        <ele>1838</ele>
        <time>2021-11-20T13:00:32Z</time>
      </trkpt>
      <trkpt lat="45.97911" lon="6.43433">
        <ele>1838</ele>
        <time>2021-11-20T13:00:35Z</time>
      </trkpt>
      <trkpt lat="45.97911" lon="6.43436">
        <ele>1838</ele>
        <time>2021-11-20T13:00:38Z</time>
      </trkpt>
      <trkpt lat="45.97911" lon="6.43439">
        <ele>1837</ele>
        <time>2021-11-20T13:00:41Z</time>
      </trkpt>
      <trkpt lat="45.97912" lon="6.43442">
        <ele>1837</ele>
        <time>2021-11-20T13:00:44Z</time>
      </trkpt>
      <trkpt lat="45.97912" lon="6.43444">
        <ele>1836</ele>
        <time>2021-11-20T13:00:47Z</time>
      </trkpt>
      <trkpt lat="45.97914" lon="6.43446">
        <ele>1836</ele>
        <time>2021-11-20T13:00:50Z</time>
      </trkpt>
      <trkpt lat="45.97914" lon="6.43449">
        <ele>1835</ele>
        <time>2021-11-20T13:00:53Z</time>
      </trkpt>
      <trkpt lat="45.97915" lon="6.43452">
        <ele>1835</ele>
        <time>2021-11-20T13:00:57Z</time>
      </trkpt>
      <trkpt lat="45.97916" lon="6.43455">
        <ele>1835</ele>
        <time>2021-11-20T13:01:00Z</time>
      </trkpt>
      <trkpt lat="45.97917" lon="6.43459">
        <ele>1835</ele>
        <time>2021-11-20T13:01:03Z</time>
      </trkpt>
      <trkpt lat="45.97918" lon="6.43461">
        <ele>1834</ele>
        <time>2021-11-20T13:01:06Z</time>
      </trkpt>
      <trkpt lat="45.97919" lon="6.43464">
        <ele>1833</ele>
        <time>2021-11-20T13:01:10Z</time>
      </trkpt>
      <trkpt lat="45.97921" lon="6.43467">
        <ele>1833</ele>
        <time>2021-11-20T13:01:14Z</time>
      </trkpt>
      <trkpt lat="45.97922" lon="6.4347">
        <ele>1832</ele>
        <time>2021-11-20T13:01:18Z</time>
      </trkpt>
      <trkpt lat="45.97922" lon="6.43473">
        <ele>1831</ele>
        <time>2021-11-20T13:01:22Z</time>
      </trkpt>
      <trkpt lat="45.97924" lon="6.43476">
        <ele>1831</ele>
        <time>2021-11-20T13:01:25Z</time>
      </trkpt>
      <trkpt lat="45.97925" lon="6.43479">
        <ele>1831</ele>
        <time>2021-11-20T13:01:28Z</time>
      </trkpt>
      <trkpt lat="45.97926" lon="6.43482">
        <ele>1830</ele>
        <time>2021-11-20T13:01:31Z</time>
      </trkpt>
      <trkpt lat="45.97926" lon="6.43485">
        <ele>1829</ele>
        <time>2021-11-20T13:01:35Z</time>
      </trkpt>
      <trkpt lat="45.97927" lon="6.43486">
        <ele>1829</ele>
        <time>2021-11-20T13:01:38Z</time>
      </trkpt>
      <trkpt lat="45.97929" lon="6.43488">
        <ele>1828</ele>
        <time>2021-11-20T13:01:40Z</time>
      </trkpt>
      <trkpt lat="45.9793" lon="6.4349">
        <ele>1828</ele>
        <time>2021-11-20T13:01:42Z</time>
      </trkpt>
      <trkpt lat="45.97931" lon="6.43493">
        <ele>1827</ele>
        <time>2021-11-20T13:01:45Z</time>
      </trkpt>
      <trkpt lat="45.97933" lon="6.43496">
        <ele>1826</ele>
        <time>2021-11-20T13:01:48Z</time>
      </trkpt>
      <trkpt lat="45.97934" lon="6.43499">
        <ele>1826</ele>
        <time>2021-11-20T13:01:51Z</time>
      </trkpt>
      <trkpt lat="45.97936" lon="6.43501">
        <ele>1826</ele>
        <time>2021-11-20T13:01:54Z</time>
      </trkpt>
      <trkpt lat="45.97936" lon="6.43504">
        <ele>1826</ele>
        <time>2021-11-20T13:01:57Z</time>
      </trkpt>
      <trkpt lat="45.97938" lon="6.43506">
        <ele>1825</ele>
        <time>2021-11-20T13:02:00Z</time>
      </trkpt>
      <trkpt lat="45.97939" lon="6.43509">
        <ele>1824</ele>
        <time>2021-11-20T13:02:03Z</time>
      </trkpt>
      <trkpt lat="45.9794" lon="6.43511">
        <ele>1823</ele>
        <time>2021-11-20T13:02:06Z</time>
      </trkpt>
      <trkpt lat="45.97942" lon="6.43514">
        <ele>1823</ele>
        <time>2021-11-20T13:02:09Z</time>
      </trkpt>
      <trkpt lat="45.97942" lon="6.43516">
        <ele>1822</ele>
        <time>2021-11-20T13:02:12Z</time>
      </trkpt>
      <trkpt lat="45.97944" lon="6.43519">
        <ele>1822</ele>
        <time>2021-11-20T13:02:16Z</time>
      </trkpt>
      <trkpt lat="45.97945" lon="6.43522">
        <ele>1821</ele>
        <time>2021-11-20T13:02:19Z</time>
      </trkpt>
      <trkpt lat="45.97944" lon="6.43525">
        <ele>1820</ele>
        <time>2021-11-20T13:02:22Z</time>
      </trkpt>
      <trkpt lat="45.97946" lon="6.43527">
        <ele>1819</ele>
        <time>2021-11-20T13:02:27Z</time>
      </trkpt>
      <trkpt lat="45.97948" lon="6.43531">
        <ele>1818</ele>
        <time>2021-11-20T13:02:30Z</time>
      </trkpt>
      <trkpt lat="45.97949" lon="6.43533">
        <ele>1818</ele>
        <time>2021-11-20T13:02:33Z</time>
      </trkpt>
      <trkpt lat="45.9795" lon="6.43535">
        <ele>1818</ele>
        <time>2021-11-20T13:02:36Z</time>
      </trkpt>
      <trkpt lat="45.97952" lon="6.43537">
        <ele>1817</ele>
        <time>2021-11-20T13:02:39Z</time>
      </trkpt>
      <trkpt lat="45.97952" lon="6.4354">
        <ele>1817</ele>
        <time>2021-11-20T13:02:42Z</time>
      </trkpt>
      <trkpt lat="45.97952" lon="6.43542">
        <ele>1816</ele>
        <time>2021-11-20T13:02:45Z</time>
      </trkpt>
      <trkpt lat="45.97949" lon="6.43543">
        <ele>1815</ele>
        <time>2021-11-20T13:02:48Z</time>
      </trkpt>
      <trkpt lat="45.97947" lon="6.43543">
        <ele>1814</ele>
        <time>2021-11-20T13:02:51Z</time>
      </trkpt>
      <trkpt lat="45.97944" lon="6.43544">
        <ele>1814</ele>
        <time>2021-11-20T13:02:54Z</time>
      </trkpt>
      <trkpt lat="45.97942" lon="6.43544">
        <ele>1814</ele>
        <time>2021-11-20T13:02:57Z</time>
      </trkpt>
      <trkpt lat="45.9794" lon="6.43543">
        <ele>1813</ele>
        <time>2021-11-20T13:03:00Z</time>
      </trkpt>
      <trkpt lat="45.97938" lon="6.43545">
        <ele>1813</ele>
        <time>2021-11-20T13:03:04Z</time>
      </trkpt>
      <trkpt lat="45.97936" lon="6.43546">
        <ele>1812</ele>
        <time>2021-11-20T13:03:07Z</time>
      </trkpt>
      <trkpt lat="45.97935" lon="6.43547">
        <ele>1811</ele>
        <time>2021-11-20T13:03:10Z</time>
      </trkpt>
      <trkpt lat="45.97933" lon="6.43549">
        <ele>1811</ele>
        <time>2021-11-20T13:03:13Z</time>
      </trkpt>
      <trkpt lat="45.97931" lon="6.4355">
        <ele>1810</ele>
        <time>2021-11-20T13:03:17Z</time>
      </trkpt>
      <trkpt lat="45.97931" lon="6.43553">
        <ele>1809</ele>
        <time>2021-11-20T13:03:22Z</time>
      </trkpt>
      <trkpt lat="45.97932" lon="6.43556">
        <ele>1809</ele>
        <time>2021-11-20T13:03:26Z</time>
      </trkpt>
      <trkpt lat="45.97932" lon="6.43559">
        <ele>1808</ele>
        <time>2021-11-20T13:03:29Z</time>
      </trkpt>
      <trkpt lat="45.97933" lon="6.43561">
        <ele>1808</ele>
        <time>2021-11-20T13:03:33Z</time>
      </trkpt>
      <trkpt lat="45.97935" lon="6.43563">
        <ele>1808</ele>
        <time>2021-11-20T13:03:37Z</time>
      </trkpt>
      <trkpt lat="45.97938" lon="6.43563">
        <ele>1807</ele>
        <time>2021-11-20T13:03:41Z</time>
      </trkpt>
      <trkpt lat="45.9794" lon="6.43564">
        <ele>1806</ele>
        <time>2021-11-20T13:03:46Z</time>
      </trkpt>
      <trkpt lat="45.97942" lon="6.43564">
        <ele>1805</ele>
        <time>2021-11-20T13:03:49Z</time>
      </trkpt>
      <trkpt lat="45.97944" lon="6.43566">
        <ele>1805</ele>
        <time>2021-11-20T13:03:52Z</time>
      </trkpt>
      <trkpt lat="45.97945" lon="6.43568">
        <ele>1804</ele>
        <time>2021-11-20T13:03:55Z</time>
      </trkpt>
      <trkpt lat="45.97947" lon="6.4357">
        <ele>1803</ele>
        <time>2021-11-20T13:03:58Z</time>
      </trkpt>
      <trkpt lat="45.97949" lon="6.43573">
        <ele>1803</ele>
        <time>2021-11-20T13:04:01Z</time>
      </trkpt>
      <trkpt lat="45.97951" lon="6.43575">
        <ele>1802</ele>
        <time>2021-11-20T13:04:04Z</time>
      </trkpt>
      <trkpt lat="45.97953" lon="6.43577">
        <ele>1802</ele>
        <time>2021-11-20T13:04:07Z</time>
      </trkpt>
      <trkpt lat="45.97954" lon="6.43578">
        <ele>1802</ele>
        <time>2021-11-20T13:04:10Z</time>
      </trkpt>
      <trkpt lat="45.97956" lon="6.4358">
        <ele>1802</ele>
        <time>2021-11-20T13:04:13Z</time>
      </trkpt>
      <trkpt lat="45.97958" lon="6.43581">
        <ele>1801</ele>
        <time>2021-11-20T13:04:17Z</time>
      </trkpt>
      <trkpt lat="45.9796" lon="6.43581">
        <ele>1800</ele>
        <time>2021-11-20T13:04:21Z</time>
      </trkpt>
      <trkpt lat="45.97962" lon="6.43584">
        <ele>1800</ele>
        <time>2021-11-20T13:04:24Z</time>
      </trkpt>
      <trkpt lat="45.97963" lon="6.43586">
        <ele>1799</ele>
        <time>2021-11-20T13:04:28Z</time>
      </trkpt>
      <trkpt lat="45.97964" lon="6.43589">
        <ele>1798</ele>
        <time>2021-11-20T13:04:32Z</time>
      </trkpt>
      <trkpt lat="45.97964" lon="6.43592">
        <ele>1797</ele>
        <time>2021-11-20T13:04:35Z</time>
      </trkpt>
      <trkpt lat="45.97966" lon="6.43595">
        <ele>1797</ele>
        <time>2021-11-20T13:04:38Z</time>
      </trkpt>
      <trkpt lat="45.97967" lon="6.43596">
        <ele>1796</ele>
        <time>2021-11-20T13:04:41Z</time>
      </trkpt>
      <trkpt lat="45.9797" lon="6.43598">
        <ele>1795</ele>
        <time>2021-11-20T13:04:44Z</time>
      </trkpt>
      <trkpt lat="45.97972" lon="6.436">
        <ele>1794</ele>
        <time>2021-11-20T13:04:47Z</time>
      </trkpt>
      <trkpt lat="45.97973" lon="6.43602">
        <ele>1794</ele>
        <time>2021-11-20T13:04:50Z</time>
      </trkpt>
      <trkpt lat="45.97975" lon="6.43604">
        <ele>1794</ele>
        <time>2021-11-20T13:04:53Z</time>
      </trkpt>
      <trkpt lat="45.97977" lon="6.43606">
        <ele>1794</ele>
        <time>2021-11-20T13:04:55Z</time>
      </trkpt>
      <trkpt lat="45.97979" lon="6.43607">
        <ele>1793</ele>
        <time>2021-11-20T13:04:57Z</time>
      </trkpt>
      <trkpt lat="45.97981" lon="6.43609">
        <ele>1793</ele>
        <time>2021-11-20T13:05:00Z</time>
      </trkpt>
      <trkpt lat="45.97982" lon="6.4361">
        <ele>1793</ele>
        <time>2021-11-20T13:05:02Z</time>
      </trkpt>
      <trkpt lat="45.97983" lon="6.43612">
        <ele>1793</ele>
        <time>2021-11-20T13:05:05Z</time>
      </trkpt>
      <trkpt lat="45.97986" lon="6.43614">
        <ele>1792</ele>
        <time>2021-11-20T13:05:08Z</time>
      </trkpt>
      <trkpt lat="45.97987" lon="6.43617">
        <ele>1792</ele>
        <time>2021-11-20T13:05:11Z</time>
      </trkpt>
      <trkpt lat="45.97989" lon="6.43619">
        <ele>1791</ele>
        <time>2021-11-20T13:05:14Z</time>
      </trkpt>
      <trkpt lat="45.9799" lon="6.43622">
        <ele>1791</ele>
        <time>2021-11-20T13:05:17Z</time>
      </trkpt>
      <trkpt lat="45.97992" lon="6.43625">
        <ele>1791</ele>
        <time>2021-11-20T13:05:20Z</time>
      </trkpt>
      <trkpt lat="45.97993" lon="6.43628">
        <ele>1790</ele>
        <time>2021-11-20T13:05:23Z</time>
      </trkpt>
      <trkpt lat="45.97994" lon="6.43631">
        <ele>1790</ele>
        <time>2021-11-20T13:05:26Z</time>
      </trkpt>
      <trkpt lat="45.97995" lon="6.43634">
        <ele>1789</ele>
        <time>2021-11-20T13:05:29Z</time>
      </trkpt>
      <trkpt lat="45.97995" lon="6.43636">
        <ele>1788</ele>
        <time>2021-11-20T13:05:31Z</time>
      </trkpt>
      <trkpt lat="45.97992" lon="6.43637">
        <ele>1788</ele>
        <time>2021-11-20T13:05:34Z</time>
      </trkpt>
      <trkpt lat="45.9799" lon="6.43636">
        <ele>1788</ele>
        <time>2021-11-20T13:05:37Z</time>
      </trkpt>
      <trkpt lat="45.97988" lon="6.43635">
        <ele>1788</ele>
        <time>2021-11-20T13:05:39Z</time>
      </trkpt>
      <trkpt lat="45.97986" lon="6.43634">
        <ele>1788</ele>
        <time>2021-11-20T13:05:41Z</time>
      </trkpt>
      <trkpt lat="45.97984" lon="6.43633">
        <ele>1787</ele>
        <time>2021-11-20T13:05:43Z</time>
      </trkpt>
      <trkpt lat="45.97982" lon="6.43632">
        <ele>1787</ele>
        <time>2021-11-20T13:05:45Z</time>
      </trkpt>
      <trkpt lat="45.9798" lon="6.43631">
        <ele>1787</ele>
        <time>2021-11-20T13:05:47Z</time>
      </trkpt>
      <trkpt lat="45.97978" lon="6.43631">
        <ele>1786</ele>
        <time>2021-11-20T13:05:49Z</time>
      </trkpt>
      <trkpt lat="45.97976" lon="6.4363">
        <ele>1786</ele>
        <time>2021-11-20T13:05:51Z</time>
      </trkpt>
      <trkpt lat="45.97974" lon="6.43629">
        <ele>1786</ele>
        <time>2021-11-20T13:05:53Z</time>
      </trkpt>
      <trkpt lat="45.97972" lon="6.43628">
        <ele>1786</ele>
        <time>2021-11-20T13:05:55Z</time>
      </trkpt>
      <trkpt lat="45.9797" lon="6.43629">
        <ele>1786</ele>
        <time>2021-11-20T13:05:57Z</time>
      </trkpt>
      <trkpt lat="45.97969" lon="6.43628">
        <ele>1786</ele>
        <time>2021-11-20T13:05:59Z</time>
      </trkpt>
      <trkpt lat="45.97967" lon="6.43628">
        <ele>1786</ele>
        <time>2021-11-20T13:06:01Z</time>
      </trkpt>
      <trkpt lat="45.97965" lon="6.43628">
        <ele>1786</ele>
        <time>2021-11-20T13:06:03Z</time>
      </trkpt>
      <trkpt lat="45.97963" lon="6.43629">
        <ele>1786</ele>
        <time>2021-11-20T13:06:05Z</time>
      </trkpt>
      <trkpt lat="45.97961" lon="6.4363">
        <ele>1786</ele>
        <time>2021-11-20T13:06:08Z</time>
      </trkpt>
      <trkpt lat="45.97959" lon="6.43632">
        <ele>1786</ele>
        <time>2021-11-20T13:06:11Z</time>
      </trkpt>
      <trkpt lat="45.97958" lon="6.43635">
        <ele>1785</ele>
        <time>2021-11-20T13:06:14Z</time>
      </trkpt>
      <trkpt lat="45.97957" lon="6.43638">
        <ele>1784</ele>
        <time>2021-11-20T13:06:17Z</time>
      </trkpt>
      <trkpt lat="45.97957" lon="6.43641">
        <ele>1784</ele>
        <time>2021-11-20T13:06:20Z</time>
      </trkpt>
      <trkpt lat="45.97957" lon="6.43645">
        <ele>1783</ele>
        <time>2021-11-20T13:06:23Z</time>
      </trkpt>
      <trkpt lat="45.97956" lon="6.43648">
        <ele>1782</ele>
        <time>2021-11-20T13:06:26Z</time>
      </trkpt>
      <trkpt lat="45.97956" lon="6.43652">
        <ele>1782</ele>
        <time>2021-11-20T13:06:29Z</time>
      </trkpt>
      <trkpt lat="45.97955" lon="6.43655">
        <ele>1781</ele>
        <time>2021-11-20T13:06:31Z</time>
      </trkpt>
      <trkpt lat="45.97956" lon="6.43658">
        <ele>1781</ele>
        <time>2021-11-20T13:06:34Z</time>
      </trkpt>
      <trkpt lat="45.97956" lon="6.43661">
        <ele>1781</ele>
        <time>2021-11-20T13:06:36Z</time>
      </trkpt>
      <trkpt lat="45.97956" lon="6.43664">
        <ele>1780</ele>
        <time>2021-11-20T13:06:38Z</time>
      </trkpt>
      <trkpt lat="45.97957" lon="6.43666">
        <ele>1779</ele>
        <time>2021-11-20T13:06:40Z</time>
      </trkpt>
      <trkpt lat="45.97957" lon="6.43669">
        <ele>1779</ele>
        <time>2021-11-20T13:06:42Z</time>
      </trkpt>
      <trkpt lat="45.97958" lon="6.43673">
        <ele>1779</ele>
        <time>2021-11-20T13:06:45Z</time>
      </trkpt>
      <trkpt lat="45.97958" lon="6.43676">
        <ele>1779</ele>
        <time>2021-11-20T13:06:48Z</time>
      </trkpt>
      <trkpt lat="45.97958" lon="6.43679">
        <ele>1779</ele>
        <time>2021-11-20T13:06:52Z</time>
      </trkpt>
      <trkpt lat="45.97959" lon="6.43682">
        <ele>1780</ele>
        <time>2021-11-20T13:06:56Z</time>
      </trkpt>
      <trkpt lat="45.97959" lon="6.43686">
        <ele>1780</ele>
        <time>2021-11-20T13:06:59Z</time>
      </trkpt>
      <trkpt lat="45.97959" lon="6.43689">
        <ele>1779</ele>
        <time>2021-11-20T13:07:01Z</time>
      </trkpt>
      <trkpt lat="45.97958" lon="6.43691">
        <ele>1779</ele>
        <time>2021-11-20T13:07:03Z</time>
      </trkpt>
      <trkpt lat="45.97958" lon="6.43694">
        <ele>1779</ele>
        <time>2021-11-20T13:07:05Z</time>
      </trkpt>
      <trkpt lat="45.97957" lon="6.43697">
        <ele>1779</ele>
        <time>2021-11-20T13:07:07Z</time>
      </trkpt>
      <trkpt lat="45.97956" lon="6.437">
        <ele>1779</ele>
        <time>2021-11-20T13:07:10Z</time>
      </trkpt>
      <trkpt lat="45.97956" lon="6.43703">
        <ele>1779</ele>
        <time>2021-11-20T13:07:13Z</time>
      </trkpt>
      <trkpt lat="45.97956" lon="6.43706">
        <ele>1779</ele>
        <time>2021-11-20T13:07:16Z</time>
      </trkpt>
      <trkpt lat="45.97957" lon="6.43709">
        <ele>1779</ele>
        <time>2021-11-20T13:07:19Z</time>
      </trkpt>
      <trkpt lat="45.97958" lon="6.43712">
        <ele>1778</ele>
        <time>2021-11-20T13:07:22Z</time>
      </trkpt>
      <trkpt lat="45.97959" lon="6.43715">
        <ele>1778</ele>
        <time>2021-11-20T13:07:25Z</time>
      </trkpt>
      <trkpt lat="45.97959" lon="6.43719">
        <ele>1778</ele>
        <time>2021-11-20T13:07:28Z</time>
      </trkpt>
      <trkpt lat="45.9796" lon="6.43722">
        <ele>1777</ele>
        <time>2021-11-20T13:07:31Z</time>
      </trkpt>
      <trkpt lat="45.9796" lon="6.43725">
        <ele>1777</ele>
        <time>2021-11-20T13:07:34Z</time>
      </trkpt>
      <trkpt lat="45.97961" lon="6.43729">
        <ele>1776</ele>
        <time>2021-11-20T13:07:37Z</time>
      </trkpt>
      <trkpt lat="45.97962" lon="6.43731">
        <ele>1776</ele>
        <time>2021-11-20T13:07:39Z</time>
      </trkpt>
      <trkpt lat="45.97963" lon="6.43734">
        <ele>1776</ele>
        <time>2021-11-20T13:07:41Z</time>
      </trkpt>
      <trkpt lat="45.97963" lon="6.43737">
        <ele>1775</ele>
        <time>2021-11-20T13:07:44Z</time>
      </trkpt>
      <trkpt lat="45.97964" lon="6.43741">
        <ele>1775</ele>
        <time>2021-11-20T13:07:47Z</time>
      </trkpt>
      <trkpt lat="45.97966" lon="6.43744">
        <ele>1775</ele>
        <time>2021-11-20T13:07:50Z</time>
      </trkpt>
      <trkpt lat="45.97967" lon="6.43747">
        <ele>1775</ele>
        <time>2021-11-20T13:07:52Z</time>
      </trkpt>
      <trkpt lat="45.97968" lon="6.43749">
        <ele>1775</ele>
        <time>2021-11-20T13:07:54Z</time>
      </trkpt>
      <trkpt lat="45.97968" lon="6.43752">
        <ele>1775</ele>
        <time>2021-11-20T13:07:56Z</time>
      </trkpt>
      <trkpt lat="45.97969" lon="6.43754">
        <ele>1775</ele>
        <time>2021-11-20T13:07:58Z</time>
      </trkpt>
      <trkpt lat="45.9797" lon="6.43757">
        <ele>1775</ele>
        <time>2021-11-20T13:08:00Z</time>
      </trkpt>
      <trkpt lat="45.97969" lon="6.4376">
        <ele>1775</ele>
        <time>2021-11-20T13:08:03Z</time>
      </trkpt>
      <trkpt lat="45.97968" lon="6.43763">
        <ele>1775</ele>
        <time>2021-11-20T13:08:06Z</time>
      </trkpt>
      <trkpt lat="45.97967" lon="6.43765">
        <ele>1775</ele>
        <time>2021-11-20T13:08:09Z</time>
      </trkpt>
      <trkpt lat="45.97966" lon="6.43768">
        <ele>1775</ele>
        <time>2021-11-20T13:08:12Z</time>
      </trkpt>
      <trkpt lat="45.97966" lon="6.43771">
        <ele>1774</ele>
        <time>2021-11-20T13:08:16Z</time>
      </trkpt>
      <trkpt lat="45.97967" lon="6.43774">
        <ele>1774</ele>
        <time>2021-11-20T13:08:19Z</time>
      </trkpt>
      <trkpt lat="45.97968" lon="6.43778">
        <ele>1774</ele>
        <time>2021-11-20T13:08:22Z</time>
      </trkpt>
      <trkpt lat="45.97969" lon="6.4378">
        <ele>1773</ele>
        <time>2021-11-20T13:08:24Z</time>
      </trkpt>
      <trkpt lat="45.9797" lon="6.43782">
        <ele>1773</ele>
        <time>2021-11-20T13:08:26Z</time>
      </trkpt>
      <trkpt lat="45.97971" lon="6.43785">
        <ele>1772</ele>
        <time>2021-11-20T13:08:28Z</time>
      </trkpt>
      <trkpt lat="45.97971" lon="6.43787">
        <ele>1772</ele>
        <time>2021-11-20T13:08:30Z</time>
      </trkpt>
      <trkpt lat="45.97972" lon="6.4379">
        <ele>1771</ele>
        <time>2021-11-20T13:08:32Z</time>
      </trkpt>
      <trkpt lat="45.97972" lon="6.43793">
        <ele>1771</ele>
        <time>2021-11-20T13:08:35Z</time>
      </trkpt>
      <trkpt lat="45.97973" lon="6.43796">
        <ele>1770</ele>
        <time>2021-11-20T13:08:38Z</time>
      </trkpt>
      <trkpt lat="45.97974" lon="6.438">
        <ele>1769</ele>
        <time>2021-11-20T13:08:41Z</time>
      </trkpt>
      <trkpt lat="45.97975" lon="6.43803">
        <ele>1769</ele>
        <time>2021-11-20T13:08:44Z</time>
      </trkpt>
      <trkpt lat="45.97977" lon="6.43805">
        <ele>1768</ele>
        <time>2021-11-20T13:08:47Z</time>
      </trkpt>
      <trkpt lat="45.97978" lon="6.43808">
        <ele>1768</ele>
        <time>2021-11-20T13:08:50Z</time>
      </trkpt>
      <trkpt lat="45.9798" lon="6.43811">
        <ele>1767</ele>
        <time>2021-11-20T13:08:53Z</time>
      </trkpt>
      <trkpt lat="45.97981" lon="6.43813">
        <ele>1767</ele>
        <time>2021-11-20T13:08:55Z</time>
      </trkpt>
      <trkpt lat="45.97983" lon="6.43815">
        <ele>1766</ele>
        <time>2021-11-20T13:08:58Z</time>
      </trkpt>
      <trkpt lat="45.97985" lon="6.43817">
        <ele>1765</ele>
        <time>2021-11-20T13:09:01Z</time>
      </trkpt>
      <trkpt lat="45.97987" lon="6.43819">
        <ele>1765</ele>
        <time>2021-11-20T13:09:04Z</time>
      </trkpt>
      <trkpt lat="45.97988" lon="6.43821">
        <ele>1764</ele>
        <time>2021-11-20T13:09:07Z</time>
      </trkpt>
      <trkpt lat="45.9799" lon="6.43824">
        <ele>1764</ele>
        <time>2021-11-20T13:09:10Z</time>
      </trkpt>
      <trkpt lat="45.9799" lon="6.43827">
        <ele>1763</ele>
        <time>2021-11-20T13:09:13Z</time>
      </trkpt>
      <trkpt lat="45.9799" lon="6.43831">
        <ele>1762</ele>
        <time>2021-11-20T13:09:16Z</time>
      </trkpt>
      <trkpt lat="45.97989" lon="6.43834">
        <ele>1761</ele>
        <time>2021-11-20T13:09:18Z</time>
      </trkpt>
      <trkpt lat="45.97988" lon="6.43837">
        <ele>1761</ele>
        <time>2021-11-20T13:09:21Z</time>
      </trkpt>
      <trkpt lat="45.97987" lon="6.43839">
        <ele>1760</ele>
        <time>2021-11-20T13:09:23Z</time>
      </trkpt>
      <trkpt lat="45.97985" lon="6.43841">
        <ele>1759</ele>
        <time>2021-11-20T13:09:25Z</time>
      </trkpt>
      <trkpt lat="45.97983" lon="6.43843">
        <ele>1759</ele>
        <time>2021-11-20T13:09:28Z</time>
      </trkpt>
      <trkpt lat="45.97982" lon="6.43846">
        <ele>1758</ele>
        <time>2021-11-20T13:09:31Z</time>
      </trkpt>
      <trkpt lat="45.9798" lon="6.43848">
        <ele>1757</ele>
        <time>2021-11-20T13:09:34Z</time>
      </trkpt>
      <trkpt lat="45.97979" lon="6.4385">
        <ele>1757</ele>
        <time>2021-11-20T13:09:36Z</time>
      </trkpt>
      <trkpt lat="45.97977" lon="6.43852">
        <ele>1757</ele>
        <time>2021-11-20T13:09:38Z</time>
      </trkpt>
      <trkpt lat="45.97976" lon="6.43853">
        <ele>1756</ele>
        <time>2021-11-20T13:09:40Z</time>
      </trkpt>
      <trkpt lat="45.97974" lon="6.43855">
        <ele>1756</ele>
        <time>2021-11-20T13:09:43Z</time>
      </trkpt>
      <trkpt lat="45.97972" lon="6.43857">
        <ele>1755</ele>
        <time>2021-11-20T13:09:46Z</time>
      </trkpt>
      <trkpt lat="45.97971" lon="6.43859">
        <ele>1754</ele>
        <time>2021-11-20T13:09:49Z</time>
      </trkpt>
      <trkpt lat="45.97969" lon="6.43861">
        <ele>1754</ele>
        <time>2021-11-20T13:09:53Z</time>
      </trkpt>
      <trkpt lat="45.97966" lon="6.43862">
        <ele>1753</ele>
        <time>2021-11-20T13:09:56Z</time>
      </trkpt>
      <trkpt lat="45.97966" lon="6.43865">
        <ele>1752</ele>
        <time>2021-11-20T13:10:03Z</time>
      </trkpt>
      <trkpt lat="45.97968" lon="6.43867">
        <ele>1752</ele>
        <time>2021-11-20T13:10:06Z</time>
      </trkpt>
      <trkpt lat="45.9797" lon="6.43869">
        <ele>1751</ele>
        <time>2021-11-20T13:10:08Z</time>
      </trkpt>
      <trkpt lat="45.97972" lon="6.4387">
        <ele>1751</ele>
        <time>2021-11-20T13:10:11Z</time>
      </trkpt>
      <trkpt lat="45.97974" lon="6.43871">
        <ele>1751</ele>
        <time>2021-11-20T13:10:14Z</time>
      </trkpt>
      <trkpt lat="45.97976" lon="6.43872">
        <ele>1750</ele>
        <time>2021-11-20T13:10:17Z</time>
      </trkpt>
      <trkpt lat="45.97978" lon="6.43873">
        <ele>1749</ele>
        <time>2021-11-20T13:10:19Z</time>
      </trkpt>
      <trkpt lat="45.9798" lon="6.43874">
        <ele>1749</ele>
        <time>2021-11-20T13:10:21Z</time>
      </trkpt>
      <trkpt lat="45.97981" lon="6.43876">
        <ele>1749</ele>
        <time>2021-11-20T13:10:23Z</time>
      </trkpt>
      <trkpt lat="45.97982" lon="6.43878">
        <ele>1749</ele>
        <time>2021-11-20T13:10:26Z</time>
      </trkpt>
      <trkpt lat="45.97984" lon="6.4388">
        <ele>1749</ele>
        <time>2021-11-20T13:10:29Z</time>
      </trkpt>
      <trkpt lat="45.97985" lon="6.43882">
        <ele>1749</ele>
        <time>2021-11-20T13:10:31Z</time>
      </trkpt>
      <trkpt lat="45.97985" lon="6.43886">
        <ele>1747</ele>
        <time>2021-11-20T13:10:34Z</time>
      </trkpt>
      <trkpt lat="45.97984" lon="6.43889">
        <ele>1747</ele>
        <time>2021-11-20T13:10:37Z</time>
      </trkpt>
      <trkpt lat="45.97982" lon="6.43891">
        <ele>1747</ele>
        <time>2021-11-20T13:10:40Z</time>
      </trkpt>
      <trkpt lat="45.97981" lon="6.43893">
        <ele>1746</ele>
        <time>2021-11-20T13:10:43Z</time>
      </trkpt>
      <trkpt lat="45.97979" lon="6.43895">
        <ele>1745</ele>
        <time>2021-11-20T13:10:46Z</time>
      </trkpt>
      <trkpt lat="45.97977" lon="6.43896">
        <ele>1744</ele>
        <time>2021-11-20T13:10:48Z</time>
      </trkpt>
      <trkpt lat="45.97975" lon="6.43897">
        <ele>1744</ele>
        <time>2021-11-20T13:10:50Z</time>
      </trkpt>
      <trkpt lat="45.97974" lon="6.43898">
        <ele>1743</ele>
        <time>2021-11-20T13:10:52Z</time>
      </trkpt>
      <trkpt lat="45.97972" lon="6.43899">
        <ele>1743</ele>
        <time>2021-11-20T13:10:54Z</time>
      </trkpt>
      <trkpt lat="45.9797" lon="6.43899">
        <ele>1742</ele>
        <time>2021-11-20T13:10:56Z</time>
      </trkpt>
      <trkpt lat="45.97968" lon="6.43899">
        <ele>1742</ele>
        <time>2021-11-20T13:10:58Z</time>
      </trkpt>
      <trkpt lat="45.97965" lon="6.43898">
        <ele>1741</ele>
        <time>2021-11-20T13:11:01Z</time>
      </trkpt>
      <trkpt lat="45.97963" lon="6.43898">
        <ele>1740</ele>
        <time>2021-11-20T13:11:04Z</time>
      </trkpt>
      <trkpt lat="45.9796" lon="6.43899">
        <ele>1740</ele>
        <time>2021-11-20T13:11:07Z</time>
      </trkpt>
      <trkpt lat="45.97958" lon="6.439">
        <ele>1739</ele>
        <time>2021-11-20T13:11:15Z</time>
      </trkpt>
      <trkpt lat="45.97959" lon="6.43902">
        <ele>1739</ele>
        <time>2021-11-20T13:11:24Z</time>
      </trkpt>
      <trkpt lat="45.97959" lon="6.43905">
        <ele>1739</ele>
        <time>2021-11-20T13:11:27Z</time>
      </trkpt>
      <trkpt lat="45.97959" lon="6.43908">
        <ele>1738</ele>
        <time>2021-11-20T13:11:30Z</time>
      </trkpt>
      <trkpt lat="45.97959" lon="6.43911">
        <ele>1737</ele>
        <time>2021-11-20T13:11:34Z</time>
      </trkpt>
      <trkpt lat="45.9796" lon="6.43914">
        <ele>1737</ele>
        <time>2021-11-20T13:11:37Z</time>
      </trkpt>
      <trkpt lat="45.97961" lon="6.43916">
        <ele>1737</ele>
        <time>2021-11-20T13:11:40Z</time>
      </trkpt>
      <trkpt lat="45.97963" lon="6.43918">
        <ele>1736</ele>
        <time>2021-11-20T13:11:43Z</time>
      </trkpt>
      <trkpt lat="45.97964" lon="6.43921">
        <ele>1735</ele>
        <time>2021-11-20T13:11:46Z</time>
      </trkpt>
      <trkpt lat="45.97966" lon="6.43923">
        <ele>1735</ele>
        <time>2021-11-20T13:11:49Z</time>
      </trkpt>
      <trkpt lat="45.97968" lon="6.43926">
        <ele>1734</ele>
        <time>2021-11-20T13:11:52Z</time>
      </trkpt>
      <trkpt lat="45.97969" lon="6.43928">
        <ele>1734</ele>
        <time>2021-11-20T13:11:56Z</time>
      </trkpt>
      <trkpt lat="45.97971" lon="6.4393">
        <ele>1733</ele>
        <time>2021-11-20T13:12:00Z</time>
      </trkpt>
      <trkpt lat="45.97972" lon="6.43932">
        <ele>1732</ele>
        <time>2021-11-20T13:12:04Z</time>
      </trkpt>
      <trkpt lat="45.97973" lon="6.43935">
        <ele>1732</ele>
        <time>2021-11-20T13:12:08Z</time>
      </trkpt>
      <trkpt lat="45.97972" lon="6.43938">
        <ele>1731</ele>
        <time>2021-11-20T13:12:11Z</time>
      </trkpt>
      <trkpt lat="45.97972" lon="6.43942">
        <ele>1730</ele>
        <time>2021-11-20T13:12:15Z</time>
      </trkpt>
      <trkpt lat="45.97972" lon="6.43945">
        <ele>1730</ele>
        <time>2021-11-20T13:12:18Z</time>
      </trkpt>
      <trkpt lat="45.97971" lon="6.43947">
        <ele>1729</ele>
        <time>2021-11-20T13:12:21Z</time>
      </trkpt>
      <trkpt lat="45.9797" lon="6.4395">
        <ele>1728</ele>
        <time>2021-11-20T13:12:24Z</time>
      </trkpt>
      <trkpt lat="45.9797" lon="6.43953">
        <ele>1728</ele>
        <time>2021-11-20T13:12:27Z</time>
      </trkpt>
      <trkpt lat="45.97968" lon="6.43957">
        <ele>1727</ele>
        <time>2021-11-20T13:12:30Z</time>
      </trkpt>
      <trkpt lat="45.97967" lon="6.43959">
        <ele>1726</ele>
        <time>2021-11-20T13:12:33Z</time>
      </trkpt>
      <trkpt lat="45.97966" lon="6.43963">
        <ele>1725</ele>
        <time>2021-11-20T13:12:36Z</time>
      </trkpt>
      <trkpt lat="45.97966" lon="6.43966">
        <ele>1724</ele>
        <time>2021-11-20T13:12:39Z</time>
      </trkpt>
      <trkpt lat="45.97965" lon="6.43969">
        <ele>1723</ele>
        <time>2021-11-20T13:12:42Z</time>
      </trkpt>
      <trkpt lat="45.97965" lon="6.43972">
        <ele>1723</ele>
        <time>2021-11-20T13:12:44Z</time>
      </trkpt>
      <trkpt lat="45.97966" lon="6.43975">
        <ele>1722</ele>
        <time>2021-11-20T13:12:47Z</time>
      </trkpt>
      <trkpt lat="45.97967" lon="6.43979">
        <ele>1722</ele>
        <time>2021-11-20T13:12:50Z</time>
      </trkpt>
      <trkpt lat="45.97967" lon="6.43982">
        <ele>1721</ele>
        <time>2021-11-20T13:12:53Z</time>
      </trkpt>
      <trkpt lat="45.97969" lon="6.43984">
        <ele>1720</ele>
        <time>2021-11-20T13:12:56Z</time>
      </trkpt>
      <trkpt lat="45.97971" lon="6.43985">
        <ele>1719</ele>
        <time>2021-11-20T13:12:59Z</time>
      </trkpt>
      <trkpt lat="45.97973" lon="6.43986">
        <ele>1718</ele>
        <time>2021-11-20T13:13:03Z</time>
      </trkpt>
      <trkpt lat="45.97974" lon="6.43987">
        <ele>1718</ele>
        <time>2021-11-20T13:13:06Z</time>
      </trkpt>
      <trkpt lat="45.97977" lon="6.43988">
        <ele>1718</ele>
        <time>2021-11-20T13:13:09Z</time>
      </trkpt>
      <trkpt lat="45.97979" lon="6.4399">
        <ele>1717</ele>
        <time>2021-11-20T13:13:13Z</time>
      </trkpt>
      <trkpt lat="45.97981" lon="6.43989">
        <ele>1716</ele>
        <time>2021-11-20T13:13:16Z</time>
      </trkpt>
      <trkpt lat="45.97983" lon="6.4399">
        <ele>1715</ele>
        <time>2021-11-20T13:13:19Z</time>
      </trkpt>
      <trkpt lat="45.97984" lon="6.43992">
        <ele>1715</ele>
        <time>2021-11-20T13:13:23Z</time>
      </trkpt>
      <trkpt lat="45.97983" lon="6.43995">
        <ele>1715</ele>
        <time>2021-11-20T13:13:27Z</time>
      </trkpt>
      <trkpt lat="45.97981" lon="6.43997">
        <ele>1713</ele>
        <time>2021-11-20T13:13:30Z</time>
      </trkpt>
      <trkpt lat="45.97979" lon="6.43998">
        <ele>1713</ele>
        <time>2021-11-20T13:13:33Z</time>
      </trkpt>
      <trkpt lat="45.97977" lon="6.43999">
        <ele>1713</ele>
        <time>2021-11-20T13:13:36Z</time>
      </trkpt>
      <trkpt lat="45.97975" lon="6.44001">
        <ele>1712</ele>
        <time>2021-11-20T13:13:39Z</time>
      </trkpt>
      <trkpt lat="45.97973" lon="6.44003">
        <ele>1711</ele>
        <time>2021-11-20T13:13:42Z</time>
      </trkpt>
      <trkpt lat="45.9797" lon="6.44004">
        <ele>1711</ele>
        <time>2021-11-20T13:13:45Z</time>
      </trkpt>
      <trkpt lat="45.97968" lon="6.44006">
        <ele>1710</ele>
        <time>2021-11-20T13:13:48Z</time>
      </trkpt>
      <trkpt lat="45.97967" lon="6.44008">
        <ele>1710</ele>
        <time>2021-11-20T13:13:51Z</time>
      </trkpt>
      <trkpt lat="45.97964" lon="6.4401">
        <ele>1710</ele>
        <time>2021-11-20T13:13:54Z</time>
      </trkpt>
      <trkpt lat="45.97963" lon="6.44012">
        <ele>1709</ele>
        <time>2021-11-20T13:13:58Z</time>
      </trkpt>
      <trkpt lat="45.97962" lon="6.44014">
        <ele>1708</ele>
        <time>2021-11-20T13:14:02Z</time>
      </trkpt>
      <trkpt lat="45.97962" lon="6.44018">
        <ele>1707</ele>
        <time>2021-11-20T13:14:06Z</time>
      </trkpt>
      <trkpt lat="45.97961" lon="6.44021">
        <ele>1706</ele>
        <time>2021-11-20T13:14:09Z</time>
      </trkpt>
      <trkpt lat="45.97961" lon="6.44023">
        <ele>1705</ele>
        <time>2021-11-20T13:14:12Z</time>
      </trkpt>
      <trkpt lat="45.97961" lon="6.44027">
        <ele>1705</ele>
        <time>2021-11-20T13:14:15Z</time>
      </trkpt>
      <trkpt lat="45.9796" lon="6.4403">
        <ele>1704</ele>
        <time>2021-11-20T13:14:18Z</time>
      </trkpt>
      <trkpt lat="45.9796" lon="6.44033">
        <ele>1703</ele>
        <time>2021-11-20T13:14:21Z</time>
      </trkpt>
      <trkpt lat="45.97959" lon="6.44036">
        <ele>1703</ele>
        <time>2021-11-20T13:14:24Z</time>
      </trkpt>
      <trkpt lat="45.97959" lon="6.44039">
        <ele>1702</ele>
        <time>2021-11-20T13:14:28Z</time>
      </trkpt>
      <trkpt lat="45.97959" lon="6.44042">
        <ele>1702</ele>
        <time>2021-11-20T13:14:31Z</time>
      </trkpt>
      <trkpt lat="45.97958" lon="6.44045">
        <ele>1700</ele>
        <time>2021-11-20T13:14:36Z</time>
      </trkpt>
      <trkpt lat="45.97958" lon="6.44047">
        <ele>1699</ele>
        <time>2021-11-20T13:14:39Z</time>
      </trkpt>
      <trkpt lat="45.97959" lon="6.44051">
        <ele>1699</ele>
        <time>2021-11-20T13:14:43Z</time>
      </trkpt>
      <trkpt lat="45.9796" lon="6.44054">
        <ele>1698</ele>
        <time>2021-11-20T13:14:46Z</time>
      </trkpt>
      <trkpt lat="45.9796" lon="6.44057">
        <ele>1697</ele>
        <time>2021-11-20T13:14:49Z</time>
      </trkpt>
      <trkpt lat="45.9796" lon="6.4406">
        <ele>1697</ele>
        <time>2021-11-20T13:14:52Z</time>
      </trkpt>
      <trkpt lat="45.9796" lon="6.44063">
        <ele>1696</ele>
        <time>2021-11-20T13:14:55Z</time>
      </trkpt>
      <trkpt lat="45.9796" lon="6.44067">
        <ele>1695</ele>
        <time>2021-11-20T13:14:58Z</time>
      </trkpt>
      <trkpt lat="45.97959" lon="6.4407">
        <ele>1695</ele>
        <time>2021-11-20T13:15:01Z</time>
      </trkpt>
      <trkpt lat="45.9796" lon="6.44074">
        <ele>1694</ele>
        <time>2021-11-20T13:15:04Z</time>
      </trkpt>
      <trkpt lat="45.9796" lon="6.44076">
        <ele>1694</ele>
        <time>2021-11-20T13:15:06Z</time>
      </trkpt>
      <trkpt lat="45.97961" lon="6.4408">
        <ele>1694</ele>
        <time>2021-11-20T13:15:09Z</time>
      </trkpt>
      <trkpt lat="45.97962" lon="6.44083">
        <ele>1694</ele>
        <time>2021-11-20T13:15:11Z</time>
      </trkpt>
      <trkpt lat="45.97963" lon="6.44085">
        <ele>1693</ele>
        <time>2021-11-20T13:15:13Z</time>
      </trkpt>
      <trkpt lat="45.97964" lon="6.44087">
        <ele>1693</ele>
        <time>2021-11-20T13:15:16Z</time>
      </trkpt>
      <trkpt lat="45.97966" lon="6.44089">
        <ele>1693</ele>
        <time>2021-11-20T13:15:19Z</time>
      </trkpt>
      <trkpt lat="45.97967" lon="6.44092">
        <ele>1693</ele>
        <time>2021-11-20T13:15:24Z</time>
      </trkpt>
      <trkpt lat="45.97967" lon="6.44095">
        <ele>1691</ele>
        <time>2021-11-20T13:15:29Z</time>
      </trkpt>
      <trkpt lat="45.97968" lon="6.44098">
        <ele>1691</ele>
        <time>2021-11-20T13:15:32Z</time>
      </trkpt>
      <trkpt lat="45.97967" lon="6.44101">
        <ele>1690</ele>
        <time>2021-11-20T13:15:36Z</time>
      </trkpt>
      <trkpt lat="45.97966" lon="6.44103">
        <ele>1690</ele>
        <time>2021-11-20T13:15:38Z</time>
      </trkpt>
      <trkpt lat="45.97965" lon="6.44106">
        <ele>1689</ele>
        <time>2021-11-20T13:15:41Z</time>
      </trkpt>
      <trkpt lat="45.97964" lon="6.44108">
        <ele>1688</ele>
        <time>2021-11-20T13:15:44Z</time>
      </trkpt>
      <trkpt lat="45.97962" lon="6.4411">
        <ele>1688</ele>
        <time>2021-11-20T13:15:47Z</time>
      </trkpt>
      <trkpt lat="45.97961" lon="6.44111">
        <ele>1688</ele>
        <time>2021-11-20T13:15:49Z</time>
      </trkpt>
      <trkpt lat="45.97958" lon="6.44111">
        <ele>1688</ele>
        <time>2021-11-20T13:15:52Z</time>
      </trkpt>
      <trkpt lat="45.97956" lon="6.44111">
        <ele>1687</ele>
        <time>2021-11-20T13:15:55Z</time>
      </trkpt>
      <trkpt lat="45.97953" lon="6.4411">
        <ele>1687</ele>
        <time>2021-11-20T13:15:58Z</time>
      </trkpt>
      <trkpt lat="45.97951" lon="6.4411">
        <ele>1687</ele>
        <time>2021-11-20T13:16:01Z</time>
      </trkpt>
      <trkpt lat="45.97949" lon="6.44108">
        <ele>1686</ele>
        <time>2021-11-20T13:16:04Z</time>
      </trkpt>
      <trkpt lat="45.97947" lon="6.44106">
        <ele>1686</ele>
        <time>2021-11-20T13:16:07Z</time>
      </trkpt>
      <trkpt lat="45.97945" lon="6.44104">
        <ele>1686</ele>
        <time>2021-11-20T13:16:10Z</time>
      </trkpt>
      <trkpt lat="45.97943" lon="6.44103">
        <ele>1685</ele>
        <time>2021-11-20T13:16:13Z</time>
      </trkpt>
      <trkpt lat="45.97942" lon="6.44101">
        <ele>1684</ele>
        <time>2021-11-20T13:16:27Z</time>
      </trkpt>
      <trkpt lat="45.9794" lon="6.44099">
        <ele>1684</ele>
        <time>2021-11-20T13:16:32Z</time>
      </trkpt>
      <trkpt lat="45.97937" lon="6.44099">
        <ele>1684</ele>
        <time>2021-11-20T13:16:36Z</time>
      </trkpt>
      <trkpt lat="45.97935" lon="6.441">
        <ele>1684</ele>
        <time>2021-11-20T13:16:40Z</time>
      </trkpt>
      <trkpt lat="45.97934" lon="6.44102">
        <ele>1683</ele>
        <time>2021-11-20T13:16:44Z</time>
      </trkpt>
      <trkpt lat="45.97932" lon="6.44104">
        <ele>1682</ele>
        <time>2021-11-20T13:16:48Z</time>
      </trkpt>
      <trkpt lat="45.97931" lon="6.44106">
        <ele>1681</ele>
        <time>2021-11-20T13:16:52Z</time>
      </trkpt>
      <trkpt lat="45.9793" lon="6.44109">
        <ele>1680</ele>
        <time>2021-11-20T13:16:56Z</time>
      </trkpt>
      <trkpt lat="45.97928" lon="6.4411">
        <ele>1680</ele>
        <time>2021-11-20T13:17:00Z</time>
      </trkpt>
      <trkpt lat="45.97927" lon="6.44113">
        <ele>1679</ele>
        <time>2021-11-20T13:17:04Z</time>
      </trkpt>
      <trkpt lat="45.97926" lon="6.44115">
        <ele>1678</ele>
        <time>2021-11-20T13:17:07Z</time>
      </trkpt>
      <trkpt lat="45.97924" lon="6.44117">
        <ele>1678</ele>
        <time>2021-11-20T13:17:10Z</time>
      </trkpt>
      <trkpt lat="45.97923" lon="6.44119">
        <ele>1676</ele>
        <time>2021-11-20T13:17:13Z</time>
      </trkpt>
      <trkpt lat="45.97922" lon="6.44122">
        <ele>1676</ele>
        <time>2021-11-20T13:17:16Z</time>
      </trkpt>
      <trkpt lat="45.97921" lon="6.44125">
        <ele>1676</ele>
        <time>2021-11-20T13:17:19Z</time>
      </trkpt>
      <trkpt lat="45.97921" lon="6.44128">
        <ele>1675</ele>
        <time>2021-11-20T13:17:22Z</time>
      </trkpt>
      <trkpt lat="45.97921" lon="6.4413">
        <ele>1674</ele>
        <time>2021-11-20T13:17:25Z</time>
      </trkpt>
      <trkpt lat="45.97921" lon="6.44133">
        <ele>1674</ele>
        <time>2021-11-20T13:17:28Z</time>
      </trkpt>
      <trkpt lat="45.9792" lon="6.44136">
        <ele>1674</ele>
        <time>2021-11-20T13:17:31Z</time>
      </trkpt>
      <trkpt lat="45.97918" lon="6.44138">
        <ele>1672</ele>
        <time>2021-11-20T13:17:35Z</time>
      </trkpt>
      <trkpt lat="45.97918" lon="6.44141">
        <ele>1671</ele>
        <time>2021-11-20T13:17:39Z</time>
      </trkpt>
      <trkpt lat="45.97917" lon="6.44144">
        <ele>1670</ele>
        <time>2021-11-20T13:17:42Z</time>
      </trkpt>
      <trkpt lat="45.97916" lon="6.44148">
        <ele>1670</ele>
        <time>2021-11-20T13:17:45Z</time>
      </trkpt>
      <trkpt lat="45.97916" lon="6.44151">
        <ele>1669</ele>
        <time>2021-11-20T13:17:48Z</time>
      </trkpt>
      <trkpt lat="45.97916" lon="6.44153">
        <ele>1668</ele>
        <time>2021-11-20T13:17:50Z</time>
      </trkpt>
      <trkpt lat="45.97916" lon="6.44156">
        <ele>1668</ele>
        <time>2021-11-20T13:17:53Z</time>
      </trkpt>
      <trkpt lat="45.97917" lon="6.44159">
        <ele>1668</ele>
        <time>2021-11-20T13:17:57Z</time>
      </trkpt>
      <trkpt lat="45.97919" lon="6.44162">
        <ele>1667</ele>
        <time>2021-11-20T13:18:01Z</time>
      </trkpt>
      <trkpt lat="45.9792" lon="6.44164">
        <ele>1667</ele>
        <time>2021-11-20T13:18:04Z</time>
      </trkpt>
      <trkpt lat="45.97921" lon="6.44166">
        <ele>1667</ele>
        <time>2021-11-20T13:18:06Z</time>
      </trkpt>
      <trkpt lat="45.97923" lon="6.44168">
        <ele>1666</ele>
        <time>2021-11-20T13:18:09Z</time>
      </trkpt>
      <trkpt lat="45.97925" lon="6.4417">
        <ele>1666</ele>
        <time>2021-11-20T13:18:11Z</time>
      </trkpt>
      <trkpt lat="45.97927" lon="6.44171">
        <ele>1665</ele>
        <time>2021-11-20T13:18:13Z</time>
      </trkpt>
      <trkpt lat="45.97929" lon="6.44172">
        <ele>1665</ele>
        <time>2021-11-20T13:18:16Z</time>
      </trkpt>
      <trkpt lat="45.97932" lon="6.44172">
        <ele>1665</ele>
        <time>2021-11-20T13:18:19Z</time>
      </trkpt>
      <trkpt lat="45.97934" lon="6.44172">
        <ele>1665</ele>
        <time>2021-11-20T13:18:21Z</time>
      </trkpt>
      <trkpt lat="45.97936" lon="6.44171">
        <ele>1665</ele>
        <time>2021-11-20T13:18:24Z</time>
      </trkpt>
      <trkpt lat="45.97938" lon="6.4417">
        <ele>1664</ele>
        <time>2021-11-20T13:18:26Z</time>
      </trkpt>
      <trkpt lat="45.9794" lon="6.44169">
        <ele>1664</ele>
        <time>2021-11-20T13:18:28Z</time>
      </trkpt>
      <trkpt lat="45.97942" lon="6.44168">
        <ele>1662</ele>
        <time>2021-11-20T13:18:30Z</time>
      </trkpt>
      <trkpt lat="45.97943" lon="6.44167">
        <ele>1662</ele>
        <time>2021-11-20T13:18:32Z</time>
      </trkpt>
      <trkpt lat="45.97945" lon="6.44166">
        <ele>1663</ele>
        <time>2021-11-20T13:18:34Z</time>
      </trkpt>
      <trkpt lat="45.97947" lon="6.44166">
        <ele>1663</ele>
        <time>2021-11-20T13:18:36Z</time>
      </trkpt>
      <trkpt lat="45.97949" lon="6.44165">
        <ele>1663</ele>
        <time>2021-11-20T13:18:38Z</time>
      </trkpt>
      <trkpt lat="45.97951" lon="6.44165">
        <ele>1663</ele>
        <time>2021-11-20T13:18:40Z</time>
      </trkpt>
      <trkpt lat="45.97952" lon="6.44165">
        <ele>1663</ele>
        <time>2021-11-20T13:18:42Z</time>
      </trkpt>
      <trkpt lat="45.97954" lon="6.44165">
        <ele>1663</ele>
        <time>2021-11-20T13:18:44Z</time>
      </trkpt>
      <trkpt lat="45.97956" lon="6.44165">
        <ele>1663</ele>
        <time>2021-11-20T13:18:46Z</time>
      </trkpt>
      <trkpt lat="45.97959" lon="6.44165">
        <ele>1662</ele>
        <time>2021-11-20T13:18:49Z</time>
      </trkpt>
      <trkpt lat="45.97961" lon="6.44165">
        <ele>1662</ele>
        <time>2021-11-20T13:18:51Z</time>
      </trkpt>
      <trkpt lat="45.97963" lon="6.44165">
        <ele>1661</ele>
        <time>2021-11-20T13:18:54Z</time>
      </trkpt>
      <trkpt lat="45.97965" lon="6.44167">
        <ele>1661</ele>
        <time>2021-11-20T13:18:58Z</time>
      </trkpt>
      <trkpt lat="45.97967" lon="6.44168">
        <ele>1661</ele>
        <time>2021-11-20T13:19:01Z</time>
      </trkpt>
      <trkpt lat="45.9797" lon="6.44169">
        <ele>1661</ele>
        <time>2021-11-20T13:19:04Z</time>
      </trkpt>
      <trkpt lat="45.97972" lon="6.44171">
        <ele>1660</ele>
        <time>2021-11-20T13:19:07Z</time>
      </trkpt>
      <trkpt lat="45.97974" lon="6.44173">
        <ele>1660</ele>
        <time>2021-11-20T13:19:10Z</time>
      </trkpt>
      <trkpt lat="45.97976" lon="6.44174">
        <ele>1660</ele>
        <time>2021-11-20T13:19:12Z</time>
      </trkpt>
      <trkpt lat="45.97978" lon="6.44175">
        <ele>1659</ele>
        <time>2021-11-20T13:19:14Z</time>
      </trkpt>
      <trkpt lat="45.9798" lon="6.44176">
        <ele>1659</ele>
        <time>2021-11-20T13:19:16Z</time>
      </trkpt>
      <trkpt lat="45.97982" lon="6.44177">
        <ele>1659</ele>
        <time>2021-11-20T13:19:18Z</time>
      </trkpt>
      <trkpt lat="45.97983" lon="6.44179">
        <ele>1659</ele>
        <time>2021-11-20T13:19:20Z</time>
      </trkpt>
      <trkpt lat="45.97985" lon="6.4418">
        <ele>1658</ele>
        <time>2021-11-20T13:19:22Z</time>
      </trkpt>
      <trkpt lat="45.97987" lon="6.44181">
        <ele>1658</ele>
        <time>2021-11-20T13:19:24Z</time>
      </trkpt>
      <trkpt lat="45.97989" lon="6.44182">
        <ele>1658</ele>
        <time>2021-11-20T13:19:26Z</time>
      </trkpt>
      <trkpt lat="45.97991" lon="6.44184">
        <ele>1658</ele>
        <time>2021-11-20T13:19:29Z</time>
      </trkpt>
      <trkpt lat="45.97993" lon="6.44185">
        <ele>1658</ele>
        <time>2021-11-20T13:19:33Z</time>
      </trkpt>
      <trkpt lat="45.97995" lon="6.44182">
        <ele>1656</ele>
        <time>2021-11-20T13:27:24Z</time>
      </trkpt>
      <trkpt lat="45.97996" lon="6.44179">
        <ele>1656</ele>
        <time>2021-11-20T13:27:27Z</time>
      </trkpt>
      <trkpt lat="45.97998" lon="6.44177">
        <ele>1656</ele>
        <time>2021-11-20T13:27:30Z</time>
      </trkpt>
      <trkpt lat="45.97999" lon="6.44176">
        <ele>1655</ele>
        <time>2021-11-20T13:27:32Z</time>
      </trkpt>
      <trkpt lat="45.98001" lon="6.44174">
        <ele>1655</ele>
        <time>2021-11-20T13:27:35Z</time>
      </trkpt>
      <trkpt lat="45.98004" lon="6.44173">
        <ele>1655</ele>
        <time>2021-11-20T13:27:38Z</time>
      </trkpt>
      <trkpt lat="45.98005" lon="6.44172">
        <ele>1655</ele>
        <time>2021-11-20T13:27:40Z</time>
      </trkpt>
      <trkpt lat="45.98008" lon="6.44171">
        <ele>1655</ele>
        <time>2021-11-20T13:27:43Z</time>
      </trkpt>
      <trkpt lat="45.9801" lon="6.44172">
        <ele>1655</ele>
        <time>2021-11-20T13:27:45Z</time>
      </trkpt>
      <trkpt lat="45.98012" lon="6.44173">
        <ele>1655</ele>
        <time>2021-11-20T13:27:47Z</time>
      </trkpt>
      <trkpt lat="45.98014" lon="6.44175">
        <ele>1654</ele>
        <time>2021-11-20T13:27:50Z</time>
      </trkpt>
      <trkpt lat="45.98015" lon="6.44177">
        <ele>1654</ele>
        <time>2021-11-20T13:27:53Z</time>
      </trkpt>
      <trkpt lat="45.98017" lon="6.4418">
        <ele>1653</ele>
        <time>2021-11-20T13:27:56Z</time>
      </trkpt>
      <trkpt lat="45.98019" lon="6.44181">
        <ele>1653</ele>
        <time>2021-11-20T13:27:59Z</time>
      </trkpt>
      <trkpt lat="45.9802" lon="6.44183">
        <ele>1653</ele>
        <time>2021-11-20T13:28:02Z</time>
      </trkpt>
      <trkpt lat="45.98021" lon="6.44186">
        <ele>1652</ele>
        <time>2021-11-20T13:28:06Z</time>
      </trkpt>
      <trkpt lat="45.98021" lon="6.44189">
        <ele>1652</ele>
        <time>2021-11-20T13:28:09Z</time>
      </trkpt>
      <trkpt lat="45.98022" lon="6.44191">
        <ele>1651</ele>
        <time>2021-11-20T13:28:13Z</time>
      </trkpt>
      <trkpt lat="45.98024" lon="6.44191">
        <ele>1651</ele>
        <time>2021-11-20T13:28:16Z</time>
      </trkpt>
      <trkpt lat="45.98027" lon="6.44192">
        <ele>1651</ele>
        <time>2021-11-20T13:28:19Z</time>
      </trkpt>
      <trkpt lat="45.98029" lon="6.44192">
        <ele>1650</ele>
        <time>2021-11-20T13:28:22Z</time>
      </trkpt>
      <trkpt lat="45.98031" lon="6.44193">
        <ele>1650</ele>
        <time>2021-11-20T13:28:25Z</time>
      </trkpt>
      <trkpt lat="45.98033" lon="6.44195">
        <ele>1649</ele>
        <time>2021-11-20T13:28:28Z</time>
      </trkpt>
      <trkpt lat="45.98035" lon="6.44196">
        <ele>1649</ele>
        <time>2021-11-20T13:28:31Z</time>
      </trkpt>
      <trkpt lat="45.98037" lon="6.44196">
        <ele>1649</ele>
        <time>2021-11-20T13:28:34Z</time>
      </trkpt>
      <trkpt lat="45.98039" lon="6.44196">
        <ele>1648</ele>
        <time>2021-11-20T13:28:37Z</time>
      </trkpt>
      <trkpt lat="45.98041" lon="6.44197">
        <ele>1648</ele>
        <time>2021-11-20T13:28:40Z</time>
      </trkpt>
      <trkpt lat="45.98043" lon="6.44198">
        <ele>1647</ele>
        <time>2021-11-20T13:28:44Z</time>
      </trkpt>
      <trkpt lat="45.98045" lon="6.44199">
        <ele>1646</ele>
        <time>2021-11-20T13:28:47Z</time>
      </trkpt>
      <trkpt lat="45.98047" lon="6.442">
        <ele>1645</ele>
        <time>2021-11-20T13:28:50Z</time>
      </trkpt>
      <trkpt lat="45.98049" lon="6.44202">
        <ele>1645</ele>
        <time>2021-11-20T13:28:53Z</time>
      </trkpt>
      <trkpt lat="45.98051" lon="6.44204">
        <ele>1645</ele>
        <time>2021-11-20T13:28:56Z</time>
      </trkpt>
      <trkpt lat="45.98053" lon="6.44206">
        <ele>1645</ele>
        <time>2021-11-20T13:28:59Z</time>
      </trkpt>
      <trkpt lat="45.98054" lon="6.44209">
        <ele>1645</ele>
        <time>2021-11-20T13:29:02Z</time>
      </trkpt>
      <trkpt lat="45.98056" lon="6.44212">
        <ele>1645</ele>
        <time>2021-11-20T13:29:05Z</time>
      </trkpt>
      <trkpt lat="45.98057" lon="6.44215">
        <ele>1644</ele>
        <time>2021-11-20T13:29:09Z</time>
      </trkpt>
      <trkpt lat="45.98058" lon="6.44217">
        <ele>1643</ele>
        <time>2021-11-20T13:29:12Z</time>
      </trkpt>
      <trkpt lat="45.98059" lon="6.44219">
        <ele>1643</ele>
        <time>2021-11-20T13:29:15Z</time>
      </trkpt>
      <trkpt lat="45.98061" lon="6.44221">
        <ele>1642</ele>
        <time>2021-11-20T13:29:19Z</time>
      </trkpt>
      <trkpt lat="45.98063" lon="6.44222">
        <ele>1641</ele>
        <time>2021-11-20T13:29:22Z</time>
      </trkpt>
      <trkpt lat="45.98065" lon="6.44223">
        <ele>1641</ele>
        <time>2021-11-20T13:29:25Z</time>
      </trkpt>
      <trkpt lat="45.98067" lon="6.44223">
        <ele>1641</ele>
        <time>2021-11-20T13:29:28Z</time>
      </trkpt>
      <trkpt lat="45.98069" lon="6.44224">
        <ele>1640</ele>
        <time>2021-11-20T13:29:31Z</time>
      </trkpt>
      <trkpt lat="45.98071" lon="6.44227">
        <ele>1640</ele>
        <time>2021-11-20T13:29:35Z</time>
      </trkpt>
      <trkpt lat="45.98072" lon="6.44229">
        <ele>1639</ele>
        <time>2021-11-20T13:29:38Z</time>
      </trkpt>
      <trkpt lat="45.98074" lon="6.4423">
        <ele>1639</ele>
        <time>2021-11-20T13:29:41Z</time>
      </trkpt>
      <trkpt lat="45.98075" lon="6.44232">
        <ele>1639</ele>
        <time>2021-11-20T13:29:44Z</time>
      </trkpt>
      <trkpt lat="45.98076" lon="6.44235">
        <ele>1638</ele>
        <time>2021-11-20T13:29:47Z</time>
      </trkpt>
      <trkpt lat="45.98077" lon="6.44238">
        <ele>1637</ele>
        <time>2021-11-20T13:29:51Z</time>
      </trkpt>
      <trkpt lat="45.98078" lon="6.44241">
        <ele>1637</ele>
        <time>2021-11-20T13:29:54Z</time>
      </trkpt>
      <trkpt lat="45.98078" lon="6.44244">
        <ele>1636</ele>
        <time>2021-11-20T13:29:57Z</time>
      </trkpt>
      <trkpt lat="45.98079" lon="6.44246">
        <ele>1636</ele>
        <time>2021-11-20T13:30:00Z</time>
      </trkpt>
      <trkpt lat="45.9808" lon="6.44249">
        <ele>1636</ele>
        <time>2021-11-20T13:30:03Z</time>
      </trkpt>
      <trkpt lat="45.98081" lon="6.44252">
        <ele>1635</ele>
        <time>2021-11-20T13:30:06Z</time>
      </trkpt>
      <trkpt lat="45.98082" lon="6.44255">
        <ele>1634</ele>
        <time>2021-11-20T13:30:09Z</time>
      </trkpt>
      <trkpt lat="45.98082" lon="6.44258">
        <ele>1634</ele>
        <time>2021-11-20T13:30:11Z</time>
      </trkpt>
      <trkpt lat="45.98084" lon="6.44261">
        <ele>1634</ele>
        <time>2021-11-20T13:30:14Z</time>
      </trkpt>
      <trkpt lat="45.98085" lon="6.44264">
        <ele>1634</ele>
        <time>2021-11-20T13:30:17Z</time>
      </trkpt>
      <trkpt lat="45.98085" lon="6.44268">
        <ele>1633</ele>
        <time>2021-11-20T13:30:21Z</time>
      </trkpt>
      <trkpt lat="45.98086" lon="6.4427">
        <ele>1633</ele>
        <time>2021-11-20T13:30:23Z</time>
      </trkpt>
      <trkpt lat="45.98087" lon="6.44272">
        <ele>1633</ele>
        <time>2021-11-20T13:30:25Z</time>
      </trkpt>
      <trkpt lat="45.98088" lon="6.44275">
        <ele>1633</ele>
        <time>2021-11-20T13:30:27Z</time>
      </trkpt>
      <trkpt lat="45.98087" lon="6.44277">
        <ele>1632</ele>
        <time>2021-11-20T13:30:30Z</time>
      </trkpt>
      <trkpt lat="45.98086" lon="6.44279">
        <ele>1631</ele>
        <time>2021-11-20T13:30:33Z</time>
      </trkpt>
      <trkpt lat="45.98084" lon="6.4428">
        <ele>1631</ele>
        <time>2021-11-20T13:30:36Z</time>
      </trkpt>
      <trkpt lat="45.98083" lon="6.44283">
        <ele>1630</ele>
        <time>2021-11-20T13:30:40Z</time>
      </trkpt>
      <trkpt lat="45.98082" lon="6.44286">
        <ele>1629</ele>
        <time>2021-11-20T13:30:43Z</time>
      </trkpt>
      <trkpt lat="45.98082" lon="6.44289">
        <ele>1629</ele>
        <time>2021-11-20T13:30:46Z</time>
      </trkpt>
      <trkpt lat="45.98082" lon="6.44292">
        <ele>1628</ele>
        <time>2021-11-20T13:30:49Z</time>
      </trkpt>
      <trkpt lat="45.98081" lon="6.44295">
        <ele>1628</ele>
        <time>2021-11-20T13:30:52Z</time>
      </trkpt>
      <trkpt lat="45.9808" lon="6.44297">
        <ele>1627</ele>
        <time>2021-11-20T13:30:55Z</time>
      </trkpt>
      <trkpt lat="45.98079" lon="6.44301">
        <ele>1627</ele>
        <time>2021-11-20T13:30:58Z</time>
      </trkpt>
      <trkpt lat="45.98079" lon="6.44304">
        <ele>1626</ele>
        <time>2021-11-20T13:31:01Z</time>
      </trkpt>
      <trkpt lat="45.98078" lon="6.44307">
        <ele>1625</ele>
        <time>2021-11-20T13:31:04Z</time>
      </trkpt>
      <trkpt lat="45.98078" lon="6.4431">
        <ele>1624</ele>
        <time>2021-11-20T13:31:07Z</time>
      </trkpt>
      <trkpt lat="45.98078" lon="6.44314">
        <ele>1624</ele>
        <time>2021-11-20T13:31:10Z</time>
      </trkpt>
      <trkpt lat="45.98078" lon="6.44317">
        <ele>1623</ele>
        <time>2021-11-20T13:31:13Z</time>
      </trkpt>
      <trkpt lat="45.98079" lon="6.4432">
        <ele>1623</ele>
        <time>2021-11-20T13:31:15Z</time>
      </trkpt>
      <trkpt lat="45.98078" lon="6.44324">
        <ele>1622</ele>
        <time>2021-11-20T13:31:18Z</time>
      </trkpt>
      <trkpt lat="45.98078" lon="6.44328">
        <ele>1622</ele>
        <time>2021-11-20T13:31:21Z</time>
      </trkpt>
      <trkpt lat="45.98077" lon="6.44331">
        <ele>1621</ele>
        <time>2021-11-20T13:31:24Z</time>
      </trkpt>
      <trkpt lat="45.98076" lon="6.44334">
        <ele>1620</ele>
        <time>2021-11-20T13:31:27Z</time>
      </trkpt>
      <trkpt lat="45.98076" lon="6.44338">
        <ele>1620</ele>
        <time>2021-11-20T13:31:30Z</time>
      </trkpt>
      <trkpt lat="45.98076" lon="6.44341">
        <ele>1619</ele>
        <time>2021-11-20T13:31:33Z</time>
      </trkpt>
      <trkpt lat="45.98076" lon="6.44344">
        <ele>1619</ele>
        <time>2021-11-20T13:31:36Z</time>
      </trkpt>
      <trkpt lat="45.98076" lon="6.44348">
        <ele>1618</ele>
        <time>2021-11-20T13:31:39Z</time>
      </trkpt>
      <trkpt lat="45.98075" lon="6.44351">
        <ele>1617</ele>
        <time>2021-11-20T13:31:42Z</time>
      </trkpt>
      <trkpt lat="45.98074" lon="6.44355">
        <ele>1616</ele>
        <time>2021-11-20T13:31:45Z</time>
      </trkpt>
      <trkpt lat="45.98074" lon="6.44357">
        <ele>1616</ele>
        <time>2021-11-20T13:31:47Z</time>
      </trkpt>
      <trkpt lat="45.98074" lon="6.44361">
        <ele>1616</ele>
        <time>2021-11-20T13:31:50Z</time>
      </trkpt>
      <trkpt lat="45.98074" lon="6.44364">
        <ele>1615</ele>
        <time>2021-11-20T13:31:53Z</time>
      </trkpt>
      <trkpt lat="45.98074" lon="6.44367">
        <ele>1614</ele>
        <time>2021-11-20T13:31:56Z</time>
      </trkpt>
      <trkpt lat="45.98074" lon="6.4437">
        <ele>1613</ele>
        <time>2021-11-20T13:31:59Z</time>
      </trkpt>
      <trkpt lat="45.98074" lon="6.44373">
        <ele>1613</ele>
        <time>2021-11-20T13:32:02Z</time>
      </trkpt>
      <trkpt lat="45.98075" lon="6.44376">
        <ele>1612</ele>
        <time>2021-11-20T13:32:05Z</time>
      </trkpt>
      <trkpt lat="45.98075" lon="6.4438">
        <ele>1612</ele>
        <time>2021-11-20T13:32:08Z</time>
      </trkpt>
      <trkpt lat="45.98076" lon="6.44383">
        <ele>1611</ele>
        <time>2021-11-20T13:32:11Z</time>
      </trkpt>
      <trkpt lat="45.98076" lon="6.44385">
        <ele>1611</ele>
        <time>2021-11-20T13:32:14Z</time>
      </trkpt>
      <trkpt lat="45.98076" lon="6.44388">
        <ele>1610</ele>
        <time>2021-11-20T13:32:17Z</time>
      </trkpt>
      <trkpt lat="45.98075" lon="6.44391">
        <ele>1609</ele>
        <time>2021-11-20T13:32:20Z</time>
      </trkpt>
      <trkpt lat="45.98074" lon="6.44393">
        <ele>1609</ele>
        <time>2021-11-20T13:32:24Z</time>
      </trkpt>
      <trkpt lat="45.98074" lon="6.44396">
        <ele>1609</ele>
        <time>2021-11-20T13:32:27Z</time>
      </trkpt>
      <trkpt lat="45.98075" lon="6.44399">
        <ele>1608</ele>
        <time>2021-11-20T13:32:30Z</time>
      </trkpt>
      <trkpt lat="45.98075" lon="6.44403">
        <ele>1608</ele>
        <time>2021-11-20T13:32:33Z</time>
      </trkpt>
      <trkpt lat="45.98074" lon="6.44405">
        <ele>1606</ele>
        <time>2021-11-20T13:32:36Z</time>
      </trkpt>
      <trkpt lat="45.98075" lon="6.44409">
        <ele>1606</ele>
        <time>2021-11-20T13:32:39Z</time>
      </trkpt>
      <trkpt lat="45.98075" lon="6.44412">
        <ele>1606</ele>
        <time>2021-11-20T13:32:42Z</time>
      </trkpt>
      <trkpt lat="45.98074" lon="6.44415">
        <ele>1605</ele>
        <time>2021-11-20T13:32:45Z</time>
      </trkpt>
      <trkpt lat="45.98073" lon="6.44418">
        <ele>1604</ele>
        <time>2021-11-20T13:32:48Z</time>
      </trkpt>
      <trkpt lat="45.98072" lon="6.44421">
        <ele>1604</ele>
        <time>2021-11-20T13:32:51Z</time>
      </trkpt>
      <trkpt lat="45.98073" lon="6.44424">
        <ele>1603</ele>
        <time>2021-11-20T13:32:56Z</time>
      </trkpt>
      <trkpt lat="45.98074" lon="6.44426">
        <ele>1602</ele>
        <time>2021-11-20T13:33:01Z</time>
      </trkpt>
      <trkpt lat="45.98075" lon="6.44429">
        <ele>1602</ele>
        <time>2021-11-20T13:33:04Z</time>
      </trkpt>
      <trkpt lat="45.98074" lon="6.44432">
        <ele>1601</ele>
        <time>2021-11-20T13:33:07Z</time>
      </trkpt>
      <trkpt lat="45.98075" lon="6.44435">
        <ele>1600</ele>
        <time>2021-11-20T13:33:10Z</time>
      </trkpt>
      <trkpt lat="45.98075" lon="6.44438">
        <ele>1599</ele>
        <time>2021-11-20T13:33:13Z</time>
      </trkpt>
      <trkpt lat="45.98075" lon="6.44441">
        <ele>1599</ele>
        <time>2021-11-20T13:33:16Z</time>
      </trkpt>
      <trkpt lat="45.98075" lon="6.44444">
        <ele>1599</ele>
        <time>2021-11-20T13:33:19Z</time>
      </trkpt>
      <trkpt lat="45.98074" lon="6.44447">
        <ele>1599</ele>
        <time>2021-11-20T13:33:22Z</time>
      </trkpt>
      <trkpt lat="45.98074" lon="6.4445">
        <ele>1599</ele>
        <time>2021-11-20T13:33:25Z</time>
      </trkpt>
      <trkpt lat="45.98075" lon="6.44453">
        <ele>1598</ele>
        <time>2021-11-20T13:33:28Z</time>
      </trkpt>
      <trkpt lat="45.98075" lon="6.44456">
        <ele>1598</ele>
        <time>2021-11-20T13:33:31Z</time>
      </trkpt>
      <trkpt lat="45.98075" lon="6.4446">
        <ele>1598</ele>
        <time>2021-11-20T13:33:34Z</time>
      </trkpt>
      <trkpt lat="45.98075" lon="6.44463">
        <ele>1598</ele>
        <time>2021-11-20T13:33:37Z</time>
      </trkpt>
      <trkpt lat="45.98074" lon="6.44467">
        <ele>1597</ele>
        <time>2021-11-20T13:33:40Z</time>
      </trkpt>
      <trkpt lat="45.98073" lon="6.44469">
        <ele>1596</ele>
        <time>2021-11-20T13:33:43Z</time>
      </trkpt>
      <trkpt lat="45.98073" lon="6.44472">
        <ele>1595</ele>
        <time>2021-11-20T13:33:46Z</time>
      </trkpt>
      <trkpt lat="45.98072" lon="6.44475">
        <ele>1595</ele>
        <time>2021-11-20T13:33:48Z</time>
      </trkpt>
      <trkpt lat="45.9807" lon="6.44478">
        <ele>1594</ele>
        <time>2021-11-20T13:33:51Z</time>
      </trkpt>
      <trkpt lat="45.98069" lon="6.4448">
        <ele>1594</ele>
        <time>2021-11-20T13:33:54Z</time>
      </trkpt>
      <trkpt lat="45.98068" lon="6.44483">
        <ele>1594</ele>
        <time>2021-11-20T13:33:57Z</time>
      </trkpt>
      <trkpt lat="45.98067" lon="6.44487">
        <ele>1592</ele>
        <time>2021-11-20T13:34:00Z</time>
      </trkpt>
      <trkpt lat="45.98066" lon="6.44489">
        <ele>1591</ele>
        <time>2021-11-20T13:34:02Z</time>
      </trkpt>
      <trkpt lat="45.98065" lon="6.44492">
        <ele>1591</ele>
        <time>2021-11-20T13:34:04Z</time>
      </trkpt>
      <trkpt lat="45.98064" lon="6.44495">
        <ele>1591</ele>
        <time>2021-11-20T13:34:07Z</time>
      </trkpt>
      <trkpt lat="45.98064" lon="6.44498">
        <ele>1591</ele>
        <time>2021-11-20T13:34:10Z</time>
      </trkpt>
      <trkpt lat="45.98063" lon="6.44501">
        <ele>1590</ele>
        <time>2021-11-20T13:34:13Z</time>
      </trkpt>
      <trkpt lat="45.98061" lon="6.44504">
        <ele>1589</ele>
        <time>2021-11-20T13:34:16Z</time>
      </trkpt>
      <trkpt lat="45.9806" lon="6.44507">
        <ele>1588</ele>
        <time>2021-11-20T13:34:19Z</time>
      </trkpt>
      <trkpt lat="45.98058" lon="6.44509">
        <ele>1588</ele>
        <time>2021-11-20T13:34:22Z</time>
      </trkpt>
      <trkpt lat="45.98056" lon="6.44512">
        <ele>1587</ele>
        <time>2021-11-20T13:34:25Z</time>
      </trkpt>
      <trkpt lat="45.98054" lon="6.44514">
        <ele>1587</ele>
        <time>2021-11-20T13:34:28Z</time>
      </trkpt>
      <trkpt lat="45.98053" lon="6.44515">
        <ele>1587</ele>
        <time>2021-11-20T13:34:30Z</time>
      </trkpt>
      <trkpt lat="45.98051" lon="6.44516">
        <ele>1587</ele>
        <time>2021-11-20T13:34:32Z</time>
      </trkpt>
      <trkpt lat="45.98049" lon="6.44518">
        <ele>1586</ele>
        <time>2021-11-20T13:34:34Z</time>
      </trkpt>
      <trkpt lat="45.98047" lon="6.44519">
        <ele>1586</ele>
        <time>2021-11-20T13:34:36Z</time>
      </trkpt>
      <trkpt lat="45.98045" lon="6.4452">
        <ele>1585</ele>
        <time>2021-11-20T13:34:38Z</time>
      </trkpt>
      <trkpt lat="45.98043" lon="6.44522">
        <ele>1585</ele>
        <time>2021-11-20T13:34:40Z</time>
      </trkpt>
      <trkpt lat="45.98042" lon="6.44523">
        <ele>1585</ele>
        <time>2021-11-20T13:34:42Z</time>
      </trkpt>
      <trkpt lat="45.98039" lon="6.44524">
        <ele>1584</ele>
        <time>2021-11-20T13:34:45Z</time>
      </trkpt>
      <trkpt lat="45.98037" lon="6.44526">
        <ele>1583</ele>
        <time>2021-11-20T13:34:47Z</time>
      </trkpt>
      <trkpt lat="45.98036" lon="6.44527">
        <ele>1583</ele>
        <time>2021-11-20T13:34:49Z</time>
      </trkpt>
      <trkpt lat="45.98033" lon="6.44528">
        <ele>1583</ele>
        <time>2021-11-20T13:34:52Z</time>
      </trkpt>
      <trkpt lat="45.98032" lon="6.44529">
        <ele>1583</ele>
        <time>2021-11-20T13:34:54Z</time>
      </trkpt>
      <trkpt lat="45.9803" lon="6.44531">
        <ele>1582</ele>
        <time>2021-11-20T13:34:56Z</time>
      </trkpt>
      <trkpt lat="45.98028" lon="6.44531">
        <ele>1582</ele>
        <time>2021-11-20T13:34:58Z</time>
      </trkpt>
      <trkpt lat="45.98026" lon="6.44532">
        <ele>1581</ele>
        <time>2021-11-20T13:35:01Z</time>
      </trkpt>
      <trkpt lat="45.98023" lon="6.44531">
        <ele>1581</ele>
        <time>2021-11-20T13:35:04Z</time>
      </trkpt>
      <trkpt lat="45.98021" lon="6.44529">
        <ele>1580</ele>
        <time>2021-11-20T13:35:07Z</time>
      </trkpt>
      <trkpt lat="45.98019" lon="6.44526">
        <ele>1578</ele>
        <time>2021-11-20T13:35:10Z</time>
      </trkpt>
      <trkpt lat="45.98018" lon="6.44523">
        <ele>1577</ele>
        <time>2021-11-20T13:35:14Z</time>
      </trkpt>
      <trkpt lat="45.98017" lon="6.4452">
        <ele>1577</ele>
        <time>2021-11-20T13:35:17Z</time>
      </trkpt>
      <trkpt lat="45.98016" lon="6.44517">
        <ele>1577</ele>
        <time>2021-11-20T13:35:20Z</time>
      </trkpt>
      <trkpt lat="45.98015" lon="6.44513">
        <ele>1575</ele>
        <time>2021-11-20T13:35:23Z</time>
      </trkpt>
      <trkpt lat="45.98014" lon="6.4451">
        <ele>1575</ele>
        <time>2021-11-20T13:35:25Z</time>
      </trkpt>
      <trkpt lat="45.98013" lon="6.44507">
        <ele>1575</ele>
        <time>2021-11-20T13:35:27Z</time>
      </trkpt>
      <trkpt lat="45.98011" lon="6.44505">
        <ele>1574</ele>
        <time>2021-11-20T13:35:29Z</time>
      </trkpt>
      <trkpt lat="45.98009" lon="6.44503">
        <ele>1574</ele>
        <time>2021-11-20T13:35:32Z</time>
      </trkpt>
      <trkpt lat="45.98007" lon="6.44502">
        <ele>1575</ele>
        <time>2021-11-20T13:35:35Z</time>
      </trkpt>
      <trkpt lat="45.98004" lon="6.44502">
        <ele>1576</ele>
        <time>2021-11-20T13:35:38Z</time>
      </trkpt>
      <trkpt lat="45.98002" lon="6.44501">
        <ele>1576</ele>
        <time>2021-11-20T13:35:40Z</time>
      </trkpt>
      <trkpt lat="45.98001" lon="6.44501">
        <ele>1576</ele>
        <time>2021-11-20T13:35:42Z</time>
      </trkpt>
      <trkpt lat="45.97998" lon="6.445">
        <ele>1575</ele>
        <time>2021-11-20T13:35:44Z</time>
      </trkpt>
      <trkpt lat="45.97996" lon="6.44499">
        <ele>1575</ele>
        <time>2021-11-20T13:35:46Z</time>
      </trkpt>
      <trkpt lat="45.97994" lon="6.44499">
        <ele>1574</ele>
        <time>2021-11-20T13:35:48Z</time>
      </trkpt>
      <trkpt lat="45.97993" lon="6.44498">
        <ele>1574</ele>
        <time>2021-11-20T13:35:50Z</time>
      </trkpt>
      <trkpt lat="45.97991" lon="6.44497">
        <ele>1574</ele>
        <time>2021-11-20T13:35:53Z</time>
      </trkpt>
      <trkpt lat="45.97988" lon="6.44496">
        <ele>1573</ele>
        <time>2021-11-20T13:35:56Z</time>
      </trkpt>
      <trkpt lat="45.97986" lon="6.44496">
        <ele>1573</ele>
        <time>2021-11-20T13:35:59Z</time>
      </trkpt>
      <trkpt lat="45.97983" lon="6.44495">
        <ele>1573</ele>
        <time>2021-11-20T13:36:02Z</time>
      </trkpt>
      <trkpt lat="45.97981" lon="6.44495">
        <ele>1573</ele>
        <time>2021-11-20T13:36:05Z</time>
      </trkpt>
      <trkpt lat="45.97979" lon="6.44494">
        <ele>1572</ele>
        <time>2021-11-20T13:36:07Z</time>
      </trkpt>
      <trkpt lat="45.97977" lon="6.44493">
        <ele>1572</ele>
        <time>2021-11-20T13:36:09Z</time>
      </trkpt>
      <trkpt lat="45.97975" lon="6.44492">
        <ele>1572</ele>
        <time>2021-11-20T13:36:11Z</time>
      </trkpt>
      <trkpt lat="45.97973" lon="6.44491">
        <ele>1572</ele>
        <time>2021-11-20T13:36:13Z</time>
      </trkpt>
      <trkpt lat="45.97971" lon="6.44491">
        <ele>1571</ele>
        <time>2021-11-20T13:36:15Z</time>
      </trkpt>
      <trkpt lat="45.97969" lon="6.4449">
        <ele>1571</ele>
        <time>2021-11-20T13:36:18Z</time>
      </trkpt>
      <trkpt lat="45.97966" lon="6.44489">
        <ele>1570</ele>
        <time>2021-11-20T13:36:21Z</time>
      </trkpt>
      <trkpt lat="45.97965" lon="6.44488">
        <ele>1570</ele>
        <time>2021-11-20T13:36:23Z</time>
      </trkpt>
      <trkpt lat="45.97962" lon="6.44487">
        <ele>1569</ele>
        <time>2021-11-20T13:36:26Z</time>
      </trkpt>
      <trkpt lat="45.97959" lon="6.44487">
        <ele>1568</ele>
        <time>2021-11-20T13:36:29Z</time>
      </trkpt>
      <trkpt lat="45.97957" lon="6.44487">
        <ele>1568</ele>
        <time>2021-11-20T13:36:32Z</time>
      </trkpt>
      <trkpt lat="45.97954" lon="6.44487">
        <ele>1568</ele>
        <time>2021-11-20T13:36:35Z</time>
      </trkpt>
      <trkpt lat="45.97952" lon="6.44486">
        <ele>1568</ele>
        <time>2021-11-20T13:36:38Z</time>
      </trkpt>
      <trkpt lat="45.9795" lon="6.44485">
        <ele>1567</ele>
        <time>2021-11-20T13:36:41Z</time>
      </trkpt>
      <trkpt lat="45.97949" lon="6.44483">
        <ele>1567</ele>
        <time>2021-11-20T13:36:44Z</time>
      </trkpt>
      <trkpt lat="45.97947" lon="6.44481">
        <ele>1567</ele>
        <time>2021-11-20T13:36:47Z</time>
      </trkpt>
      <trkpt lat="45.97945" lon="6.44479">
        <ele>1566</ele>
        <time>2021-11-20T13:36:50Z</time>
      </trkpt>
      <trkpt lat="45.97943" lon="6.44477">
        <ele>1565</ele>
        <time>2021-11-20T13:36:53Z</time>
      </trkpt>
      <trkpt lat="45.97941" lon="6.44474">
        <ele>1564</ele>
        <time>2021-11-20T13:36:56Z</time>
      </trkpt>
      <trkpt lat="45.9794" lon="6.44473">
        <ele>1564</ele>
        <time>2021-11-20T13:36:58Z</time>
      </trkpt>
      <trkpt lat="45.97938" lon="6.44471">
        <ele>1564</ele>
        <time>2021-11-20T13:37:01Z</time>
      </trkpt>
      <trkpt lat="45.97935" lon="6.44471">
        <ele>1564</ele>
        <time>2021-11-20T13:37:04Z</time>
      </trkpt>
      <trkpt lat="45.97933" lon="6.44472">
        <ele>1563</ele>
        <time>2021-11-20T13:37:07Z</time>
      </trkpt>
      <trkpt lat="45.97931" lon="6.44472">
        <ele>1563</ele>
        <time>2021-11-20T13:37:09Z</time>
      </trkpt>
      <trkpt lat="45.97929" lon="6.44472">
        <ele>1563</ele>
        <time>2021-11-20T13:37:11Z</time>
      </trkpt>
      <trkpt lat="45.97927" lon="6.44472">
        <ele>1563</ele>
        <time>2021-11-20T13:37:13Z</time>
      </trkpt>
      <trkpt lat="45.97924" lon="6.44472">
        <ele>1562</ele>
        <time>2021-11-20T13:37:16Z</time>
      </trkpt>
      <trkpt lat="45.97922" lon="6.4447">
        <ele>1562</ele>
        <time>2021-11-20T13:37:19Z</time>
      </trkpt>
      <trkpt lat="45.9792" lon="6.44471">
        <ele>1562</ele>
        <time>2021-11-20T13:37:21Z</time>
      </trkpt>
      <trkpt lat="45.97918" lon="6.44471">
        <ele>1561</ele>
        <time>2021-11-20T13:37:23Z</time>
      </trkpt>
      <trkpt lat="45.97916" lon="6.4447">
        <ele>1561</ele>
        <time>2021-11-20T13:37:25Z</time>
      </trkpt>
      <trkpt lat="45.97914" lon="6.44469">
        <ele>1561</ele>
        <time>2021-11-20T13:37:27Z</time>
      </trkpt>
      <trkpt lat="45.97912" lon="6.44467">
        <ele>1561</ele>
        <time>2021-11-20T13:37:29Z</time>
      </trkpt>
      <trkpt lat="45.9791" lon="6.44466">
        <ele>1561</ele>
        <time>2021-11-20T13:37:31Z</time>
      </trkpt>
      <trkpt lat="45.97909" lon="6.44465">
        <ele>1561</ele>
        <time>2021-11-20T13:37:33Z</time>
      </trkpt>
      <trkpt lat="45.97907" lon="6.44463">
        <ele>1561</ele>
        <time>2021-11-20T13:37:36Z</time>
      </trkpt>
      <trkpt lat="45.97905" lon="6.44461">
        <ele>1561</ele>
        <time>2021-11-20T13:37:38Z</time>
      </trkpt>
      <trkpt lat="45.97903" lon="6.4446">
        <ele>1561</ele>
        <time>2021-11-20T13:37:40Z</time>
      </trkpt>
      <trkpt lat="45.97901" lon="6.44458">
        <ele>1560</ele>
        <time>2021-11-20T13:37:42Z</time>
      </trkpt>
      <trkpt lat="45.97899" lon="6.44457">
        <ele>1560</ele>
        <time>2021-11-20T13:37:44Z</time>
      </trkpt>
      <trkpt lat="45.97897" lon="6.44455">
        <ele>1560</ele>
        <time>2021-11-20T13:37:46Z</time>
      </trkpt>
      <trkpt lat="45.97895" lon="6.44454">
        <ele>1559</ele>
        <time>2021-11-20T13:37:48Z</time>
      </trkpt>
      <trkpt lat="45.97894" lon="6.44452">
        <ele>1559</ele>
        <time>2021-11-20T13:37:50Z</time>
      </trkpt>
      <trkpt lat="45.97892" lon="6.44451">
        <ele>1559</ele>
        <time>2021-11-20T13:37:52Z</time>
      </trkpt>
      <trkpt lat="45.9789" lon="6.44449">
        <ele>1559</ele>
        <time>2021-11-20T13:37:54Z</time>
      </trkpt>
      <trkpt lat="45.97888" lon="6.44448">
        <ele>1559</ele>
        <time>2021-11-20T13:37:56Z</time>
      </trkpt>
      <trkpt lat="45.97886" lon="6.44446">
        <ele>1559</ele>
        <time>2021-11-20T13:37:58Z</time>
      </trkpt>
      <trkpt lat="45.97885" lon="6.44444">
        <ele>1559</ele>
        <time>2021-11-20T13:38:00Z</time>
      </trkpt>
      <trkpt lat="45.97883" lon="6.44443">
        <ele>1559</ele>
        <time>2021-11-20T13:38:02Z</time>
      </trkpt>
      <trkpt lat="45.97882" lon="6.44441">
        <ele>1558</ele>
        <time>2021-11-20T13:38:04Z</time>
      </trkpt>
      <trkpt lat="45.9788" lon="6.44439">
        <ele>1558</ele>
        <time>2021-11-20T13:38:06Z</time>
      </trkpt>
      <trkpt lat="45.97879" lon="6.44437">
        <ele>1558</ele>
        <time>2021-11-20T13:38:08Z</time>
      </trkpt>
      <trkpt lat="45.97877" lon="6.44436">
        <ele>1558</ele>
        <time>2021-11-20T13:38:10Z</time>
      </trkpt>
      <trkpt lat="45.97875" lon="6.44434">
        <ele>1557</ele>
        <time>2021-11-20T13:38:12Z</time>
      </trkpt>
      <trkpt lat="45.97874" lon="6.44432">
        <ele>1557</ele>
        <time>2021-11-20T13:38:14Z</time>
      </trkpt>
      <trkpt lat="45.97872" lon="6.4443">
        <ele>1557</ele>
        <time>2021-11-20T13:38:16Z</time>
      </trkpt>
      <trkpt lat="45.9787" lon="6.44428">
        <ele>1557</ele>
        <time>2021-11-20T13:38:19Z</time>
      </trkpt>
      <trkpt lat="45.97869" lon="6.44427">
        <ele>1556</ele>
        <time>2021-11-20T13:38:21Z</time>
      </trkpt>
      <trkpt lat="45.97866" lon="6.44426">
        <ele>1556</ele>
        <time>2021-11-20T13:38:24Z</time>
      </trkpt>
      <trkpt lat="45.97865" lon="6.44424">
        <ele>1556</ele>
        <time>2021-11-20T13:38:26Z</time>
      </trkpt>
      <trkpt lat="45.97863" lon="6.44423">
        <ele>1555</ele>
        <time>2021-11-20T13:38:28Z</time>
      </trkpt>
      <trkpt lat="45.97861" lon="6.44421">
        <ele>1555</ele>
        <time>2021-11-20T13:38:30Z</time>
      </trkpt>
      <trkpt lat="45.9786" lon="6.44419">
        <ele>1555</ele>
        <time>2021-11-20T13:38:32Z</time>
      </trkpt>
      <trkpt lat="45.97858" lon="6.44417">
        <ele>1554</ele>
        <time>2021-11-20T13:38:34Z</time>
      </trkpt>
      <trkpt lat="45.97857" lon="6.44414">
        <ele>1554</ele>
        <time>2021-11-20T13:38:36Z</time>
      </trkpt>
      <trkpt lat="45.97857" lon="6.44411">
        <ele>1554</ele>
        <time>2021-11-20T13:38:38Z</time>
      </trkpt>
      <trkpt lat="45.97855" lon="6.44409">
        <ele>1554</ele>
        <time>2021-11-20T13:38:40Z</time>
      </trkpt>
      <trkpt lat="45.97854" lon="6.44407">
        <ele>1554</ele>
        <time>2021-11-20T13:38:42Z</time>
      </trkpt>
      <trkpt lat="45.97853" lon="6.44404">
        <ele>1554</ele>
        <time>2021-11-20T13:38:44Z</time>
      </trkpt>
      <trkpt lat="45.97852" lon="6.44402">
        <ele>1553</ele>
        <time>2021-11-20T13:38:46Z</time>
      </trkpt>
      <trkpt lat="45.9785" lon="6.444">
        <ele>1553</ele>
        <time>2021-11-20T13:38:48Z</time>
      </trkpt>
      <trkpt lat="45.97849" lon="6.44398">
        <ele>1553</ele>
        <time>2021-11-20T13:38:50Z</time>
      </trkpt>
      <trkpt lat="45.97848" lon="6.44395">
        <ele>1552</ele>
        <time>2021-11-20T13:38:53Z</time>
      </trkpt>
      <trkpt lat="45.97846" lon="6.44392">
        <ele>1552</ele>
        <time>2021-11-20T13:38:56Z</time>
      </trkpt>
      <trkpt lat="45.97845" lon="6.44391">
        <ele>1552</ele>
        <time>2021-11-20T13:38:58Z</time>
      </trkpt>
      <trkpt lat="45.97843" lon="6.44388">
        <ele>1551</ele>
        <time>2021-11-20T13:39:00Z</time>
      </trkpt>
      <trkpt lat="45.97842" lon="6.44386">
        <ele>1551</ele>
        <time>2021-11-20T13:39:02Z</time>
      </trkpt>
      <trkpt lat="45.97841" lon="6.44384">
        <ele>1551</ele>
        <time>2021-11-20T13:39:04Z</time>
      </trkpt>
      <trkpt lat="45.97839" lon="6.44382">
        <ele>1550</ele>
        <time>2021-11-20T13:39:06Z</time>
      </trkpt>
      <trkpt lat="45.97837" lon="6.44381">
        <ele>1550</ele>
        <time>2021-11-20T13:39:08Z</time>
      </trkpt>
      <trkpt lat="45.97835" lon="6.44379">
        <ele>1550</ele>
        <time>2021-11-20T13:39:10Z</time>
      </trkpt>
      <trkpt lat="45.97832" lon="6.44379">
        <ele>1550</ele>
        <time>2021-11-20T13:39:13Z</time>
      </trkpt>
      <trkpt lat="45.9783" lon="6.4438">
        <ele>1550</ele>
        <time>2021-11-20T13:39:15Z</time>
      </trkpt>
      <trkpt lat="45.97828" lon="6.44383">
        <ele>1550</ele>
        <time>2021-11-20T13:39:18Z</time>
      </trkpt>
      <trkpt lat="45.97827" lon="6.44385">
        <ele>1550</ele>
        <time>2021-11-20T13:39:20Z</time>
      </trkpt>
      <trkpt lat="45.97826" lon="6.44387">
        <ele>1549</ele>
        <time>2021-11-20T13:39:22Z</time>
      </trkpt>
      <trkpt lat="45.97824" lon="6.44389">
        <ele>1549</ele>
        <time>2021-11-20T13:39:24Z</time>
      </trkpt>
      <trkpt lat="45.97822" lon="6.44391">
        <ele>1549</ele>
        <time>2021-11-20T13:39:26Z</time>
      </trkpt>
      <trkpt lat="45.9782" lon="6.44392">
        <ele>1549</ele>
        <time>2021-11-20T13:39:28Z</time>
      </trkpt>
      <trkpt lat="45.97819" lon="6.44394">
        <ele>1549</ele>
        <time>2021-11-20T13:39:30Z</time>
      </trkpt>
      <trkpt lat="45.97818" lon="6.44397">
        <ele>1549</ele>
        <time>2021-11-20T13:39:32Z</time>
      </trkpt>
      <trkpt lat="45.97817" lon="6.44399">
        <ele>1549</ele>
        <time>2021-11-20T13:39:34Z</time>
      </trkpt>
      <trkpt lat="45.97816" lon="6.44403">
        <ele>1549</ele>
        <time>2021-11-20T13:39:37Z</time>
      </trkpt>
      <trkpt lat="45.97815" lon="6.44405">
        <ele>1549</ele>
        <time>2021-11-20T13:39:39Z</time>
      </trkpt>
      <trkpt lat="45.97813" lon="6.44408">
        <ele>1549</ele>
        <time>2021-11-20T13:39:42Z</time>
      </trkpt>
      <trkpt lat="45.97812" lon="6.4441">
        <ele>1549</ele>
        <time>2021-11-20T13:39:44Z</time>
      </trkpt>
      <trkpt lat="45.9781" lon="6.44411">
        <ele>1549</ele>
        <time>2021-11-20T13:39:46Z</time>
      </trkpt>
      <trkpt lat="45.97809" lon="6.44412">
        <ele>1549</ele>
        <time>2021-11-20T13:39:48Z</time>
      </trkpt>
      <trkpt lat="45.97806" lon="6.44415">
        <ele>1549</ele>
        <time>2021-11-20T13:39:51Z</time>
      </trkpt>
      <trkpt lat="45.97805" lon="6.44416">
        <ele>1549</ele>
        <time>2021-11-20T13:39:53Z</time>
      </trkpt>
      <trkpt lat="45.97803" lon="6.44418">
        <ele>1549</ele>
        <time>2021-11-20T13:39:55Z</time>
      </trkpt>
      <trkpt lat="45.97802" lon="6.4442">
        <ele>1549</ele>
        <time>2021-11-20T13:39:57Z</time>
      </trkpt>
      <trkpt lat="45.978" lon="6.44422">
        <ele>1549</ele>
        <time>2021-11-20T13:39:59Z</time>
      </trkpt>
      <trkpt lat="45.97799" lon="6.44424">
        <ele>1548</ele>
        <time>2021-11-20T13:40:01Z</time>
      </trkpt>
      <trkpt lat="45.97797" lon="6.44426">
        <ele>1548</ele>
        <time>2021-11-20T13:40:03Z</time>
      </trkpt>
      <trkpt lat="45.97795" lon="6.44428">
        <ele>1548</ele>
        <time>2021-11-20T13:40:05Z</time>
      </trkpt>
      <trkpt lat="45.97794" lon="6.44429">
        <ele>1548</ele>
        <time>2021-11-20T13:40:07Z</time>
      </trkpt>
      <trkpt lat="45.97792" lon="6.44431">
        <ele>1548</ele>
        <time>2021-11-20T13:40:09Z</time>
      </trkpt>
      <trkpt lat="45.9779" lon="6.44433">
        <ele>1548</ele>
        <time>2021-11-20T13:40:11Z</time>
      </trkpt>
      <trkpt lat="45.97789" lon="6.44434">
        <ele>1548</ele>
        <time>2021-11-20T13:40:13Z</time>
      </trkpt>
      <trkpt lat="45.97787" lon="6.44436">
        <ele>1548</ele>
        <time>2021-11-20T13:40:15Z</time>
      </trkpt>
      <trkpt lat="45.97785" lon="6.44437">
        <ele>1548</ele>
        <time>2021-11-20T13:40:17Z</time>
      </trkpt>
      <trkpt lat="45.97784" lon="6.44439">
        <ele>1548</ele>
        <time>2021-11-20T13:40:19Z</time>
      </trkpt>
      <trkpt lat="45.97782" lon="6.44441">
        <ele>1548</ele>
        <time>2021-11-20T13:40:21Z</time>
      </trkpt>
      <trkpt lat="45.9778" lon="6.44442">
        <ele>1548</ele>
        <time>2021-11-20T13:40:23Z</time>
      </trkpt>
      <trkpt lat="45.97778" lon="6.44443">
        <ele>1548</ele>
        <time>2021-11-20T13:40:25Z</time>
      </trkpt>
      <trkpt lat="45.97776" lon="6.44444">
        <ele>1548</ele>
        <time>2021-11-20T13:40:27Z</time>
      </trkpt>
      <trkpt lat="45.97773" lon="6.44445">
        <ele>1548</ele>
        <time>2021-11-20T13:40:30Z</time>
      </trkpt>
      <trkpt lat="45.97772" lon="6.44446">
        <ele>1548</ele>
        <time>2021-11-20T13:40:32Z</time>
      </trkpt>
      <trkpt lat="45.9777" lon="6.44447">
        <ele>1548</ele>
        <time>2021-11-20T13:40:34Z</time>
      </trkpt>
      <trkpt lat="45.97768" lon="6.44448">
        <ele>1548</ele>
        <time>2021-11-20T13:40:36Z</time>
      </trkpt>
      <trkpt lat="45.97766" lon="6.44448">
        <ele>1548</ele>
        <time>2021-11-20T13:40:38Z</time>
      </trkpt>
      <trkpt lat="45.97764" lon="6.44448">
        <ele>1548</ele>
        <time>2021-11-20T13:40:40Z</time>
      </trkpt>
      <trkpt lat="45.97762" lon="6.44447">
        <ele>1548</ele>
        <time>2021-11-20T13:40:43Z</time>
      </trkpt>
      <trkpt lat="45.9776" lon="6.44447">
        <ele>1548</ele>
        <time>2021-11-20T13:40:45Z</time>
      </trkpt>
      <trkpt lat="45.97758" lon="6.44447">
        <ele>1548</ele>
        <time>2021-11-20T13:40:47Z</time>
      </trkpt>
      <trkpt lat="45.97756" lon="6.44447">
        <ele>1548</ele>
        <time>2021-11-20T13:40:49Z</time>
      </trkpt>
      <trkpt lat="45.97754" lon="6.44447">
        <ele>1548</ele>
        <time>2021-11-20T13:40:51Z</time>
      </trkpt>
      <trkpt lat="45.97752" lon="6.44446">
        <ele>1548</ele>
        <time>2021-11-20T13:40:53Z</time>
      </trkpt>
      <trkpt lat="45.9775" lon="6.44446">
        <ele>1548</ele>
        <time>2021-11-20T13:40:56Z</time>
      </trkpt>
      <trkpt lat="45.97748" lon="6.44446">
        <ele>1547</ele>
        <time>2021-11-20T13:40:59Z</time>
      </trkpt>
      <trkpt lat="45.97746" lon="6.44445">
        <ele>1547</ele>
        <time>2021-11-20T13:41:02Z</time>
      </trkpt>
      <trkpt lat="45.97743" lon="6.44445">
        <ele>1547</ele>
        <time>2021-11-20T13:41:05Z</time>
      </trkpt>
      <trkpt lat="45.97741" lon="6.44444">
        <ele>1546</ele>
        <time>2021-11-20T13:41:07Z</time>
      </trkpt>
      <trkpt lat="45.97738" lon="6.44444">
        <ele>1546</ele>
        <time>2021-11-20T13:41:10Z</time>
      </trkpt>
      <trkpt lat="45.97736" lon="6.44444">
        <ele>1546</ele>
        <time>2021-11-20T13:41:13Z</time>
      </trkpt>
      <trkpt lat="45.97734" lon="6.44444">
        <ele>1545</ele>
        <time>2021-11-20T13:41:15Z</time>
      </trkpt>
      <trkpt lat="45.97732" lon="6.44445">
        <ele>1545</ele>
        <time>2021-11-20T13:41:17Z</time>
      </trkpt>
      <trkpt lat="45.9773" lon="6.44447">
        <ele>1544</ele>
        <time>2021-11-20T13:41:20Z</time>
      </trkpt>
      <trkpt lat="45.97728" lon="6.44448">
        <ele>1544</ele>
        <time>2021-11-20T13:41:22Z</time>
      </trkpt>
      <trkpt lat="45.97726" lon="6.44449">
        <ele>1544</ele>
        <time>2021-11-20T13:41:24Z</time>
      </trkpt>
      <trkpt lat="45.97724" lon="6.44449">
        <ele>1544</ele>
        <time>2021-11-20T13:41:26Z</time>
      </trkpt>
      <trkpt lat="45.97722" lon="6.44449">
        <ele>1544</ele>
        <time>2021-11-20T13:41:28Z</time>
      </trkpt>
      <trkpt lat="45.97719" lon="6.4445">
        <ele>1544</ele>
        <time>2021-11-20T13:41:31Z</time>
      </trkpt>
      <trkpt lat="45.97717" lon="6.4445">
        <ele>1543</ele>
        <time>2021-11-20T13:41:33Z</time>
      </trkpt>
      <trkpt lat="45.97715" lon="6.44451">
        <ele>1543</ele>
        <time>2021-11-20T13:41:35Z</time>
      </trkpt>
      <trkpt lat="45.97712" lon="6.44451">
        <ele>1543</ele>
        <time>2021-11-20T13:41:37Z</time>
      </trkpt>
      <trkpt lat="45.9771" lon="6.44452">
        <ele>1543</ele>
        <time>2021-11-20T13:41:39Z</time>
      </trkpt>
      <trkpt lat="45.97708" lon="6.44452">
        <ele>1543</ele>
        <time>2021-11-20T13:41:41Z</time>
      </trkpt>
      <trkpt lat="45.97706" lon="6.44452">
        <ele>1543</ele>
        <time>2021-11-20T13:41:43Z</time>
      </trkpt>
      <trkpt lat="45.97704" lon="6.44452">
        <ele>1543</ele>
        <time>2021-11-20T13:41:45Z</time>
      </trkpt>
      <trkpt lat="45.97702" lon="6.44451">
        <ele>1543</ele>
        <time>2021-11-20T13:41:47Z</time>
      </trkpt>
      <trkpt lat="45.977" lon="6.4445">
        <ele>1543</ele>
        <time>2021-11-20T13:41:49Z</time>
      </trkpt>
      <trkpt lat="45.97697" lon="6.4445">
        <ele>1543</ele>
        <time>2021-11-20T13:41:51Z</time>
      </trkpt>
      <trkpt lat="45.97695" lon="6.44449">
        <ele>1543</ele>
        <time>2021-11-20T13:41:53Z</time>
      </trkpt>
      <trkpt lat="45.97693" lon="6.44449">
        <ele>1543</ele>
        <time>2021-11-20T13:41:55Z</time>
      </trkpt>
      <trkpt lat="45.97691" lon="6.44449">
        <ele>1543</ele>
        <time>2021-11-20T13:41:57Z</time>
      </trkpt>
      <trkpt lat="45.97689" lon="6.44448">
        <ele>1542</ele>
        <time>2021-11-20T13:41:59Z</time>
      </trkpt>
      <trkpt lat="45.97687" lon="6.44448">
        <ele>1542</ele>
        <time>2021-11-20T13:42:01Z</time>
      </trkpt>
      <trkpt lat="45.97685" lon="6.44448">
        <ele>1542</ele>
        <time>2021-11-20T13:42:04Z</time>
      </trkpt>
      <trkpt lat="45.97683" lon="6.44449">
        <ele>1542</ele>
        <time>2021-11-20T13:42:14Z</time>
      </trkpt>
      <trkpt lat="45.97681" lon="6.44448">
        <ele>1542</ele>
        <time>2021-11-20T13:42:17Z</time>
      </trkpt>
      <trkpt lat="45.97679" lon="6.44447">
        <ele>1541</ele>
        <time>2021-11-20T13:42:19Z</time>
      </trkpt>
      <trkpt lat="45.97677" lon="6.44447">
        <ele>1541</ele>
        <time>2021-11-20T13:42:21Z</time>
      </trkpt>
      <trkpt lat="45.97675" lon="6.44447">
        <ele>1541</ele>
        <time>2021-11-20T13:42:23Z</time>
      </trkpt>
      <trkpt lat="45.97673" lon="6.44447">
        <ele>1541</ele>
        <time>2021-11-20T13:42:25Z</time>
      </trkpt>
      <trkpt lat="45.97671" lon="6.44447">
        <ele>1541</ele>
        <time>2021-11-20T13:42:27Z</time>
      </trkpt>
      <trkpt lat="45.97669" lon="6.44448">
        <ele>1541</ele>
        <time>2021-11-20T13:42:30Z</time>
      </trkpt>
      <trkpt lat="45.97666" lon="6.44448">
        <ele>1540</ele>
        <time>2021-11-20T13:42:33Z</time>
      </trkpt>
      <trkpt lat="45.97664" lon="6.44448">
        <ele>1540</ele>
        <time>2021-11-20T13:42:35Z</time>
      </trkpt>
      <trkpt lat="45.97662" lon="6.44448">
        <ele>1540</ele>
        <time>2021-11-20T13:42:38Z</time>
      </trkpt>
      <trkpt lat="45.9766" lon="6.44448">
        <ele>1540</ele>
        <time>2021-11-20T13:42:40Z</time>
      </trkpt>
      <trkpt lat="45.97657" lon="6.44449">
        <ele>1539</ele>
        <time>2021-11-20T13:42:43Z</time>
      </trkpt>
      <trkpt lat="45.97655" lon="6.44449">
        <ele>1539</ele>
        <time>2021-11-20T13:42:45Z</time>
      </trkpt>
      <trkpt lat="45.97653" lon="6.44448">
        <ele>1539</ele>
        <time>2021-11-20T13:42:47Z</time>
      </trkpt>
      <trkpt lat="45.97651" lon="6.44448">
        <ele>1538</ele>
        <time>2021-11-20T13:42:49Z</time>
      </trkpt>
      <trkpt lat="45.97649" lon="6.44448">
        <ele>1538</ele>
        <time>2021-11-20T13:42:51Z</time>
      </trkpt>
      <trkpt lat="45.97646" lon="6.44447">
        <ele>1538</ele>
        <time>2021-11-20T13:42:53Z</time>
      </trkpt>
      <trkpt lat="45.97644" lon="6.44446">
        <ele>1538</ele>
        <time>2021-11-20T13:42:55Z</time>
      </trkpt>
      <trkpt lat="45.97642" lon="6.44445">
        <ele>1538</ele>
        <time>2021-11-20T13:42:57Z</time>
      </trkpt>
      <trkpt lat="45.9764" lon="6.44445">
        <ele>1538</ele>
        <time>2021-11-20T13:42:59Z</time>
      </trkpt>
      <trkpt lat="45.97638" lon="6.44444">
        <ele>1538</ele>
        <time>2021-11-20T13:43:01Z</time>
      </trkpt>
      <trkpt lat="45.97636" lon="6.44443">
        <ele>1538</ele>
        <time>2021-11-20T13:43:03Z</time>
      </trkpt>
      <trkpt lat="45.97634" lon="6.44443">
        <ele>1538</ele>
        <time>2021-11-20T13:43:05Z</time>
      </trkpt>
      <trkpt lat="45.97632" lon="6.44442">
        <ele>1538</ele>
        <time>2021-11-20T13:43:07Z</time>
      </trkpt>
      <trkpt lat="45.9763" lon="6.44441">
        <ele>1538</ele>
        <time>2021-11-20T13:43:09Z</time>
      </trkpt>
      <trkpt lat="45.97628" lon="6.4444">
        <ele>1538</ele>
        <time>2021-11-20T13:43:11Z</time>
      </trkpt>
      <trkpt lat="45.97626" lon="6.44439">
        <ele>1537</ele>
        <time>2021-11-20T13:43:13Z</time>
      </trkpt>
      <trkpt lat="45.97624" lon="6.44439">
        <ele>1536</ele>
        <time>2021-11-20T13:43:15Z</time>
      </trkpt>
      <trkpt lat="45.97622" lon="6.44438">
        <ele>1536</ele>
        <time>2021-11-20T13:43:17Z</time>
      </trkpt>
      <trkpt lat="45.9762" lon="6.44438">
        <ele>1537</ele>
        <time>2021-11-20T13:43:19Z</time>
      </trkpt>
      <trkpt lat="45.97618" lon="6.44437">
        <ele>1537</ele>
        <time>2021-11-20T13:43:21Z</time>
      </trkpt>
      <trkpt lat="45.97616" lon="6.44436">
        <ele>1537</ele>
        <time>2021-11-20T13:43:23Z</time>
      </trkpt>
      <trkpt lat="45.97615" lon="6.44435">
        <ele>1537</ele>
        <time>2021-11-20T13:43:25Z</time>
      </trkpt>
      <trkpt lat="45.97613" lon="6.44434">
        <ele>1537</ele>
        <time>2021-11-20T13:43:27Z</time>
      </trkpt>
      <trkpt lat="45.97611" lon="6.44431">
        <ele>1537</ele>
        <time>2021-11-20T13:43:30Z</time>
      </trkpt>
      <trkpt lat="45.9761" lon="6.44428">
        <ele>1537</ele>
        <time>2021-11-20T13:43:33Z</time>
      </trkpt>
      <trkpt lat="45.97608" lon="6.44426">
        <ele>1537</ele>
        <time>2021-11-20T13:43:35Z</time>
      </trkpt>
      <trkpt lat="45.97607" lon="6.44424">
        <ele>1537</ele>
        <time>2021-11-20T13:43:37Z</time>
      </trkpt>
      <trkpt lat="45.97605" lon="6.44423">
        <ele>1536</ele>
        <time>2021-11-20T13:43:39Z</time>
      </trkpt>
      <trkpt lat="45.97603" lon="6.44421">
        <ele>1536</ele>
        <time>2021-11-20T13:43:42Z</time>
      </trkpt>
      <trkpt lat="45.97601" lon="6.4442">
        <ele>1536</ele>
        <time>2021-11-20T13:43:54Z</time>
      </trkpt>
      <trkpt lat="45.976" lon="6.44422">
        <ele>1536</ele>
        <time>2021-11-20T13:43:58Z</time>
      </trkpt>
      <trkpt lat="45.97599" lon="6.44425">
        <ele>1536</ele>
        <time>2021-11-20T13:44:01Z</time>
      </trkpt>
      <trkpt lat="45.97599" lon="6.44428">
        <ele>1536</ele>
        <time>2021-11-20T13:44:04Z</time>
      </trkpt>
      <trkpt lat="45.97598" lon="6.44432">
        <ele>1535</ele>
        <time>2021-11-20T13:44:07Z</time>
      </trkpt>
      <trkpt lat="45.97599" lon="6.44436">
        <ele>1534</ele>
        <time>2021-11-20T13:44:10Z</time>
      </trkpt>
      <trkpt lat="45.97599" lon="6.44438">
        <ele>1533</ele>
        <time>2021-11-20T13:44:12Z</time>
      </trkpt>
      <trkpt lat="45.976" lon="6.44442">
        <ele>1533</ele>
        <time>2021-11-20T13:44:15Z</time>
      </trkpt>
      <trkpt lat="45.976" lon="6.44444">
        <ele>1533</ele>
        <time>2021-11-20T13:44:17Z</time>
      </trkpt>
      <trkpt lat="45.97601" lon="6.44447">
        <ele>1533</ele>
        <time>2021-11-20T13:44:19Z</time>
      </trkpt>
      <trkpt lat="45.97602" lon="6.4445">
        <ele>1533</ele>
        <time>2021-11-20T13:44:21Z</time>
      </trkpt>
      <trkpt lat="45.97602" lon="6.44453">
        <ele>1533</ele>
        <time>2021-11-20T13:44:23Z</time>
      </trkpt>
      <trkpt lat="45.97603" lon="6.44456">
        <ele>1532</ele>
        <time>2021-11-20T13:44:26Z</time>
      </trkpt>
      <trkpt lat="45.97604" lon="6.44458">
        <ele>1532</ele>
        <time>2021-11-20T13:44:29Z</time>
      </trkpt>
      <trkpt lat="45.97606" lon="6.44461">
        <ele>1532</ele>
        <time>2021-11-20T13:44:32Z</time>
      </trkpt>
      <trkpt lat="45.97606" lon="6.44464">
        <ele>1532</ele>
        <time>2021-11-20T13:44:35Z</time>
      </trkpt>
      <trkpt lat="45.97604" lon="6.44467">
        <ele>1532</ele>
        <time>2021-11-20T13:44:38Z</time>
      </trkpt>
      <trkpt lat="45.97602" lon="6.44469">
        <ele>1532</ele>
        <time>2021-11-20T13:44:41Z</time>
      </trkpt>
      <trkpt lat="45.976" lon="6.4447">
        <ele>1532</ele>
        <time>2021-11-20T13:44:44Z</time>
      </trkpt>
      <trkpt lat="45.97597" lon="6.4447">
        <ele>1532</ele>
        <time>2021-11-20T13:44:47Z</time>
      </trkpt>
      <trkpt lat="45.97595" lon="6.44471">
        <ele>1532</ele>
        <time>2021-11-20T13:44:50Z</time>
      </trkpt>
      <trkpt lat="45.97592" lon="6.4447">
        <ele>1531</ele>
        <time>2021-11-20T13:44:53Z</time>
      </trkpt>
      <trkpt lat="45.9759" lon="6.4447">
        <ele>1531</ele>
        <time>2021-11-20T13:44:55Z</time>
      </trkpt>
      <trkpt lat="45.97588" lon="6.4447">
        <ele>1531</ele>
        <time>2021-11-20T13:44:57Z</time>
      </trkpt>
      <trkpt lat="45.97586" lon="6.4447">
        <ele>1531</ele>
        <time>2021-11-20T13:44:59Z</time>
      </trkpt>
      <trkpt lat="45.97584" lon="6.44471">
        <ele>1531</ele>
        <time>2021-11-20T13:45:01Z</time>
      </trkpt>
      <trkpt lat="45.97582" lon="6.44472">
        <ele>1531</ele>
        <time>2021-11-20T13:45:03Z</time>
      </trkpt>
      <trkpt lat="45.9758" lon="6.44472">
        <ele>1531</ele>
        <time>2021-11-20T13:45:05Z</time>
      </trkpt>
      <trkpt lat="45.97578" lon="6.44473">
        <ele>1531</ele>
        <time>2021-11-20T13:45:08Z</time>
      </trkpt>
      <trkpt lat="45.97575" lon="6.44473">
        <ele>1531</ele>
        <time>2021-11-20T13:45:11Z</time>
      </trkpt>
      <trkpt lat="45.97573" lon="6.44472">
        <ele>1531</ele>
        <time>2021-11-20T13:45:14Z</time>
      </trkpt>
      <trkpt lat="45.97571" lon="6.44473">
        <ele>1531</ele>
        <time>2021-11-20T13:45:17Z</time>
      </trkpt>
      <trkpt lat="45.97569" lon="6.44474">
        <ele>1531</ele>
        <time>2021-11-20T13:45:19Z</time>
      </trkpt>
      <trkpt lat="45.97566" lon="6.44474">
        <ele>1531</ele>
        <time>2021-11-20T13:45:22Z</time>
      </trkpt>
      <trkpt lat="45.97565" lon="6.44475">
        <ele>1530</ele>
        <time>2021-11-20T13:45:24Z</time>
      </trkpt>
      <trkpt lat="45.97563" lon="6.44475">
        <ele>1530</ele>
        <time>2021-11-20T13:45:26Z</time>
      </trkpt>
      <trkpt lat="45.97561" lon="6.44475">
        <ele>1530</ele>
        <time>2021-11-20T13:45:28Z</time>
      </trkpt>
      <trkpt lat="45.97559" lon="6.44476">
        <ele>1530</ele>
        <time>2021-11-20T13:45:30Z</time>
      </trkpt>
      <trkpt lat="45.97557" lon="6.44475">
        <ele>1530</ele>
        <time>2021-11-20T13:45:32Z</time>
      </trkpt>
      <trkpt lat="45.97555" lon="6.44475">
        <ele>1530</ele>
        <time>2021-11-20T13:45:35Z</time>
      </trkpt>
      <trkpt lat="45.97553" lon="6.44476">
        <ele>1529</ele>
        <time>2021-11-20T13:45:38Z</time>
      </trkpt>
      <trkpt lat="45.9755" lon="6.44476">
        <ele>1530</ele>
        <time>2021-11-20T13:45:42Z</time>
      </trkpt>
      <trkpt lat="45.97549" lon="6.44476">
        <ele>1530</ele>
        <time>2021-11-20T13:45:45Z</time>
      </trkpt>
      <trkpt lat="45.97547" lon="6.44477">
        <ele>1529</ele>
        <time>2021-11-20T13:45:48Z</time>
      </trkpt>
      <trkpt lat="45.97545" lon="6.44479">
        <ele>1528</ele>
        <time>2021-11-20T13:45:51Z</time>
      </trkpt>
      <trkpt lat="45.97543" lon="6.44481">
        <ele>1528</ele>
        <time>2021-11-20T13:45:54Z</time>
      </trkpt>
      <trkpt lat="45.9754" lon="6.44482">
        <ele>1528</ele>
        <time>2021-11-20T13:45:57Z</time>
      </trkpt>
      <trkpt lat="45.97539" lon="6.44485">
        <ele>1528</ele>
        <time>2021-11-20T13:46:00Z</time>
      </trkpt>
      <trkpt lat="45.97537" lon="6.44487">
        <ele>1528</ele>
        <time>2021-11-20T13:46:03Z</time>
      </trkpt>
      <trkpt lat="45.97535" lon="6.44488">
        <ele>1528</ele>
        <time>2021-11-20T13:46:06Z</time>
      </trkpt>
      <trkpt lat="45.97533" lon="6.4449">
        <ele>1528</ele>
        <time>2021-11-20T13:46:09Z</time>
      </trkpt>
      <trkpt lat="45.97531" lon="6.44491">
        <ele>1528</ele>
        <time>2021-11-20T13:46:12Z</time>
      </trkpt>
      <trkpt lat="45.97529" lon="6.44492">
        <ele>1528</ele>
        <time>2021-11-20T13:46:15Z</time>
      </trkpt>
      <trkpt lat="45.97527" lon="6.44494">
        <ele>1528</ele>
        <time>2021-11-20T13:46:18Z</time>
      </trkpt>
      <trkpt lat="45.97526" lon="6.44496">
        <ele>1528</ele>
        <time>2021-11-20T13:46:21Z</time>
      </trkpt>
      <trkpt lat="45.97524" lon="6.44498">
        <ele>1527</ele>
        <time>2021-11-20T13:46:24Z</time>
      </trkpt>
      <trkpt lat="45.97522" lon="6.44499">
        <ele>1527</ele>
        <time>2021-11-20T13:46:27Z</time>
      </trkpt>
      <trkpt lat="45.9752" lon="6.44502">
        <ele>1527</ele>
        <time>2021-11-20T13:46:30Z</time>
      </trkpt>
      <trkpt lat="45.97518" lon="6.44503">
        <ele>1527</ele>
        <time>2021-11-20T13:46:32Z</time>
      </trkpt>
      <trkpt lat="45.97516" lon="6.44504">
        <ele>1527</ele>
        <time>2021-11-20T13:46:34Z</time>
      </trkpt>
      <trkpt lat="45.97515" lon="6.44505">
        <ele>1527</ele>
        <time>2021-11-20T13:46:36Z</time>
      </trkpt>
      <trkpt lat="45.97513" lon="6.44507">
        <ele>1526</ele>
        <time>2021-11-20T13:46:38Z</time>
      </trkpt>
      <trkpt lat="45.97511" lon="6.44508">
        <ele>1526</ele>
        <time>2021-11-20T13:46:40Z</time>
      </trkpt>
      <trkpt lat="45.9751" lon="6.44509">
        <ele>1526</ele>
        <time>2021-11-20T13:46:42Z</time>
      </trkpt>
      <trkpt lat="45.97508" lon="6.44511">
        <ele>1526</ele>
        <time>2021-11-20T13:46:44Z</time>
      </trkpt>
      <trkpt lat="45.97506" lon="6.44512">
        <ele>1526</ele>
        <time>2021-11-20T13:46:47Z</time>
      </trkpt>
      <trkpt lat="45.97505" lon="6.44515">
        <ele>1525</ele>
        <time>2021-11-20T13:46:50Z</time>
      </trkpt>
      <trkpt lat="45.97503" lon="6.44516">
        <ele>1525</ele>
        <time>2021-11-20T13:46:53Z</time>
      </trkpt>
      <trkpt lat="45.97502" lon="6.44519">
        <ele>1524</ele>
        <time>2021-11-20T13:46:56Z</time>
      </trkpt>
      <trkpt lat="45.975" lon="6.44522">
        <ele>1525</ele>
        <time>2021-11-20T13:46:59Z</time>
      </trkpt>
      <trkpt lat="45.97499" lon="6.44525">
        <ele>1524</ele>
        <time>2021-11-20T13:47:02Z</time>
      </trkpt>
      <trkpt lat="45.97498" lon="6.44528">
        <ele>1524</ele>
        <time>2021-11-20T13:47:05Z</time>
      </trkpt>
      <trkpt lat="45.97497" lon="6.44532">
        <ele>1524</ele>
        <time>2021-11-20T13:47:08Z</time>
      </trkpt>
      <trkpt lat="45.97496" lon="6.44534">
        <ele>1524</ele>
        <time>2021-11-20T13:47:10Z</time>
      </trkpt>
      <trkpt lat="45.97496" lon="6.44538">
        <ele>1524</ele>
        <time>2021-11-20T13:47:13Z</time>
      </trkpt>
      <trkpt lat="45.97497" lon="6.4454">
        <ele>1523</ele>
        <time>2021-11-20T13:47:15Z</time>
      </trkpt>
      <trkpt lat="45.97496" lon="6.44543">
        <ele>1523</ele>
        <time>2021-11-20T13:47:17Z</time>
      </trkpt>
      <trkpt lat="45.97495" lon="6.44545">
        <ele>1523</ele>
        <time>2021-11-20T13:47:19Z</time>
      </trkpt>
      <trkpt lat="45.97494" lon="6.44548">
        <ele>1522</ele>
        <time>2021-11-20T13:47:22Z</time>
      </trkpt>
      <trkpt lat="45.97494" lon="6.44551">
        <ele>1522</ele>
        <time>2021-11-20T13:47:25Z</time>
      </trkpt>
      <trkpt lat="45.97495" lon="6.44554">
        <ele>1523</ele>
        <time>2021-11-20T13:47:29Z</time>
      </trkpt>
      <trkpt lat="45.97495" lon="6.44557">
        <ele>1522</ele>
        <time>2021-11-20T13:47:32Z</time>
      </trkpt>
      <trkpt lat="45.97496" lon="6.4456">
        <ele>1521</ele>
        <time>2021-11-20T13:47:36Z</time>
      </trkpt>
      <trkpt lat="45.97496" lon="6.44563">
        <ele>1521</ele>
        <time>2021-11-20T13:47:39Z</time>
      </trkpt>
      <trkpt lat="45.97496" lon="6.44566">
        <ele>1521</ele>
        <time>2021-11-20T13:47:43Z</time>
      </trkpt>
      <trkpt lat="45.97497" lon="6.44569">
        <ele>1520</ele>
        <time>2021-11-20T13:47:47Z</time>
      </trkpt>
      <trkpt lat="45.97498" lon="6.44572">
        <ele>1520</ele>
        <time>2021-11-20T13:47:52Z</time>
      </trkpt>
      <trkpt lat="45.97499" lon="6.44575">
        <ele>1518</ele>
        <time>2021-11-20T13:48:27Z</time>
      </trkpt>
      <trkpt lat="45.97497" lon="6.44577">
        <ele>1518</ele>
        <time>2021-11-20T13:49:17Z</time>
      </trkpt>
      <trkpt lat="45.97499" lon="6.44578">
        <ele>1518</ele>
        <time>2021-11-20T13:49:41Z</time>
      </trkpt>
      <trkpt lat="45.97499" lon="6.44581">
        <ele>1518</ele>
        <time>2021-11-20T13:49:48Z</time>
      </trkpt>
      <trkpt lat="45.975" lon="6.44584">
        <ele>1518</ele>
        <time>2021-11-20T13:49:51Z</time>
      </trkpt>
      <trkpt lat="45.97501" lon="6.44587">
        <ele>1517</ele>
        <time>2021-11-20T13:49:54Z</time>
      </trkpt>
      <trkpt lat="45.97502" lon="6.44589">
        <ele>1516</ele>
        <time>2021-11-20T13:49:57Z</time>
      </trkpt>
      <trkpt lat="45.97503" lon="6.44592">
        <ele>1515</ele>
        <time>2021-11-20T13:50:01Z</time>
      </trkpt>
      <trkpt lat="45.97503" lon="6.44595">
        <ele>1515</ele>
        <time>2021-11-20T13:50:05Z</time>
      </trkpt>
      <trkpt lat="45.97505" lon="6.44597">
        <ele>1515</ele>
        <time>2021-11-20T13:50:09Z</time>
      </trkpt>
      <trkpt lat="45.97506" lon="6.44599">
        <ele>1515</ele>
        <time>2021-11-20T13:50:13Z</time>
      </trkpt>
      <trkpt lat="45.97506" lon="6.44602">
        <ele>1514</ele>
        <time>2021-11-20T13:50:16Z</time>
      </trkpt>
      <trkpt lat="45.97507" lon="6.44605">
        <ele>1513</ele>
        <time>2021-11-20T13:50:20Z</time>
      </trkpt>
      <trkpt lat="45.97508" lon="6.44608">
        <ele>1513</ele>
        <time>2021-11-20T13:50:24Z</time>
      </trkpt>
      <trkpt lat="45.97509" lon="6.44611">
        <ele>1511</ele>
        <time>2021-11-20T13:50:28Z</time>
      </trkpt>
      <trkpt lat="45.9751" lon="6.44614">
        <ele>1511</ele>
        <time>2021-11-20T13:50:32Z</time>
      </trkpt>
      <trkpt lat="45.9751" lon="6.44617">
        <ele>1511</ele>
        <time>2021-11-20T13:50:35Z</time>
      </trkpt>
      <trkpt lat="45.97511" lon="6.4462">
        <ele>1510</ele>
        <time>2021-11-20T13:50:39Z</time>
      </trkpt>
      <trkpt lat="45.97512" lon="6.44622">
        <ele>1509</ele>
        <time>2021-11-20T13:50:43Z</time>
      </trkpt>
      <trkpt lat="45.97513" lon="6.44625">
        <ele>1509</ele>
        <time>2021-11-20T13:50:47Z</time>
      </trkpt>
      <trkpt lat="45.97512" lon="6.44627">
        <ele>1508</ele>
        <time>2021-11-20T13:50:50Z</time>
      </trkpt>
      <trkpt lat="45.97512" lon="6.4463">
        <ele>1507</ele>
        <time>2021-11-20T13:50:54Z</time>
      </trkpt>
      <trkpt lat="45.97512" lon="6.44634">
        <ele>1507</ele>
        <time>2021-11-20T13:50:57Z</time>
      </trkpt>
      <trkpt lat="45.97511" lon="6.44636">
        <ele>1507</ele>
        <time>2021-11-20T13:51:00Z</time>
      </trkpt>
      <trkpt lat="45.9751" lon="6.44638">
        <ele>1506</ele>
        <time>2021-11-20T13:51:03Z</time>
      </trkpt>
      <trkpt lat="45.97508" lon="6.44638">
        <ele>1506</ele>
        <time>2021-11-20T13:51:06Z</time>
      </trkpt>
      <trkpt lat="45.97505" lon="6.44638">
        <ele>1505</ele>
        <time>2021-11-20T13:51:09Z</time>
      </trkpt>
      <trkpt lat="45.97503" lon="6.44641">
        <ele>1505</ele>
        <time>2021-11-20T13:51:13Z</time>
      </trkpt>
      <trkpt lat="45.97503" lon="6.44643">
        <ele>1505</ele>
        <time>2021-11-20T13:51:17Z</time>
      </trkpt>
      <trkpt lat="45.97504" lon="6.44645">
        <ele>1505</ele>
        <time>2021-11-20T13:51:21Z</time>
      </trkpt>
      <trkpt lat="45.97507" lon="6.44646">
        <ele>1504</ele>
        <time>2021-11-20T13:51:24Z</time>
      </trkpt>
      <trkpt lat="45.97509" lon="6.44647">
        <ele>1504</ele>
        <time>2021-11-20T13:51:26Z</time>
      </trkpt>
      <trkpt lat="45.9751" lon="6.44649">
        <ele>1503</ele>
        <time>2021-11-20T13:51:29Z</time>
      </trkpt>
      <trkpt lat="45.9751" lon="6.44652">
        <ele>1503</ele>
        <time>2021-11-20T13:51:31Z</time>
      </trkpt>
      <trkpt lat="45.97509" lon="6.44655">
        <ele>1503</ele>
        <time>2021-11-20T13:51:34Z</time>
      </trkpt>
      <trkpt lat="45.97507" lon="6.44658">
        <ele>1502</ele>
        <time>2021-11-20T13:51:37Z</time>
      </trkpt>
      <trkpt lat="45.97506" lon="6.4466">
        <ele>1502</ele>
        <time>2021-11-20T13:51:39Z</time>
      </trkpt>
      <trkpt lat="45.97505" lon="6.44663">
        <ele>1502</ele>
        <time>2021-11-20T13:51:41Z</time>
      </trkpt>
      <trkpt lat="45.97504" lon="6.44666">
        <ele>1502</ele>
        <time>2021-11-20T13:51:44Z</time>
      </trkpt>
      <trkpt lat="45.97503" lon="6.44669">
        <ele>1502</ele>
        <time>2021-11-20T13:51:47Z</time>
      </trkpt>
      <trkpt lat="45.97502" lon="6.44671">
        <ele>1502</ele>
        <time>2021-11-20T13:51:50Z</time>
      </trkpt>
      <trkpt lat="45.97501" lon="6.44674">
        <ele>1502</ele>
        <time>2021-11-20T13:51:53Z</time>
      </trkpt>
      <trkpt lat="45.97501" lon="6.44677">
        <ele>1502</ele>
        <time>2021-11-20T13:51:55Z</time>
      </trkpt>
      <trkpt lat="45.975" lon="6.4468">
        <ele>1502</ele>
        <time>2021-11-20T13:51:57Z</time>
      </trkpt>
      <trkpt lat="45.975" lon="6.44683">
        <ele>1502</ele>
        <time>2021-11-20T13:52:00Z</time>
      </trkpt>
      <trkpt lat="45.975" lon="6.44687">
        <ele>1502</ele>
        <time>2021-11-20T13:52:03Z</time>
      </trkpt>
      <trkpt lat="45.97499" lon="6.44689">
        <ele>1502</ele>
        <time>2021-11-20T13:52:05Z</time>
      </trkpt>
      <trkpt lat="45.97499" lon="6.44692">
        <ele>1502</ele>
        <time>2021-11-20T13:52:07Z</time>
      </trkpt>
      <trkpt lat="45.97498" lon="6.44694">
        <ele>1501</ele>
        <time>2021-11-20T13:52:09Z</time>
      </trkpt>
      <trkpt lat="45.97497" lon="6.44696">
        <ele>1501</ele>
        <time>2021-11-20T13:52:12Z</time>
      </trkpt>
      <trkpt lat="45.97496" lon="6.44699">
        <ele>1501</ele>
        <time>2021-11-20T13:52:19Z</time>
      </trkpt>
      <trkpt lat="45.97497" lon="6.44702">
        <ele>1500</ele>
        <time>2021-11-20T13:52:28Z</time>
      </trkpt>
      <trkpt lat="45.97497" lon="6.44705">
        <ele>1500</ele>
        <time>2021-11-20T13:52:31Z</time>
      </trkpt>
      <trkpt lat="45.97497" lon="6.44709">
        <ele>1500</ele>
        <time>2021-11-20T13:52:34Z</time>
      </trkpt>
      <trkpt lat="45.97498" lon="6.44712">
        <ele>1499</ele>
        <time>2021-11-20T13:52:37Z</time>
      </trkpt>
      <trkpt lat="45.97499" lon="6.44714">
        <ele>1499</ele>
        <time>2021-11-20T13:52:39Z</time>
      </trkpt>
      <trkpt lat="45.97501" lon="6.44716">
        <ele>1499</ele>
        <time>2021-11-20T13:52:42Z</time>
      </trkpt>
      <trkpt lat="45.97502" lon="6.44718">
        <ele>1499</ele>
        <time>2021-11-20T13:52:45Z</time>
      </trkpt>
      <trkpt lat="45.97502" lon="6.44721">
        <ele>1499</ele>
        <time>2021-11-20T13:52:48Z</time>
      </trkpt>
      <trkpt lat="45.97503" lon="6.44724">
        <ele>1498</ele>
        <time>2021-11-20T13:52:51Z</time>
      </trkpt>
      <trkpt lat="45.97504" lon="6.44726">
        <ele>1498</ele>
        <time>2021-11-20T13:52:54Z</time>
      </trkpt>
      <trkpt lat="45.97505" lon="6.44728">
        <ele>1497</ele>
        <time>2021-11-20T13:52:57Z</time>
      </trkpt>
      <trkpt lat="45.97507" lon="6.4473">
        <ele>1497</ele>
        <time>2021-11-20T13:53:00Z</time>
      </trkpt>
      <trkpt lat="45.97508" lon="6.44732">
        <ele>1496</ele>
        <time>2021-11-20T13:53:03Z</time>
      </trkpt>
      <trkpt lat="45.97509" lon="6.44735">
        <ele>1496</ele>
        <time>2021-11-20T13:53:06Z</time>
      </trkpt>
      <trkpt lat="45.9751" lon="6.44738">
        <ele>1495</ele>
        <time>2021-11-20T13:53:09Z</time>
      </trkpt>
      <trkpt lat="45.97511" lon="6.4474">
        <ele>1495</ele>
        <time>2021-11-20T13:53:12Z</time>
      </trkpt>
      <trkpt lat="45.97511" lon="6.44743">
        <ele>1494</ele>
        <time>2021-11-20T13:53:14Z</time>
      </trkpt>
      <trkpt lat="45.9751" lon="6.44747">
        <ele>1494</ele>
        <time>2021-11-20T13:53:16Z</time>
      </trkpt>
      <trkpt lat="45.9751" lon="6.44749">
        <ele>1493</ele>
        <time>2021-11-20T13:53:18Z</time>
      </trkpt>
      <trkpt lat="45.97508" lon="6.44751">
        <ele>1493</ele>
        <time>2021-11-20T13:53:20Z</time>
      </trkpt>
      <trkpt lat="45.97507" lon="6.44753">
        <ele>1493</ele>
        <time>2021-11-20T13:53:22Z</time>
      </trkpt>
      <trkpt lat="45.97505" lon="6.44754">
        <ele>1493</ele>
        <time>2021-11-20T13:53:24Z</time>
      </trkpt>
      <trkpt lat="45.97504" lon="6.44756">
        <ele>1493</ele>
        <time>2021-11-20T13:53:26Z</time>
      </trkpt>
      <trkpt lat="45.97502" lon="6.44758">
        <ele>1493</ele>
        <time>2021-11-20T13:53:28Z</time>
      </trkpt>
      <trkpt lat="45.97501" lon="6.44759">
        <ele>1494</ele>
        <time>2021-11-20T13:53:30Z</time>
      </trkpt>
      <trkpt lat="45.97499" lon="6.44761">
        <ele>1494</ele>
        <time>2021-11-20T13:53:33Z</time>
      </trkpt>
      <trkpt lat="45.97497" lon="6.44762">
        <ele>1494</ele>
        <time>2021-11-20T13:53:36Z</time>
      </trkpt>
      <trkpt lat="45.97496" lon="6.44765">
        <ele>1494</ele>
        <time>2021-11-20T13:53:39Z</time>
      </trkpt>
      <trkpt lat="45.97495" lon="6.44768">
        <ele>1494</ele>
        <time>2021-11-20T13:53:42Z</time>
      </trkpt>
      <trkpt lat="45.97493" lon="6.44769">
        <ele>1494</ele>
        <time>2021-11-20T13:53:45Z</time>
      </trkpt>
      <trkpt lat="45.97492" lon="6.44769">
        <ele>1494</ele>
        <time>2021-11-20T13:53:59Z</time>
      </trkpt>
      <trkpt lat="45.9749" lon="6.44771">
        <ele>1491</ele>
        <time>2021-11-20T14:03:08Z</time>
      </trkpt>
      <trkpt lat="45.97489" lon="6.44773">
        <ele>1492</ele>
        <time>2021-11-20T14:04:04Z</time>
      </trkpt>
      <trkpt lat="45.97489" lon="6.44776">
        <ele>1492</ele>
        <time>2021-11-20T14:04:17Z</time>
      </trkpt>
      <trkpt lat="45.97489" lon="6.44779">
        <ele>1492</ele>
        <time>2021-11-20T14:04:22Z</time>
      </trkpt>
      <trkpt lat="45.97489" lon="6.44782">
        <ele>1492</ele>
        <time>2021-11-20T14:04:26Z</time>
      </trkpt>
      <trkpt lat="45.97489" lon="6.44785">
        <ele>1492</ele>
        <time>2021-11-20T14:04:31Z</time>
      </trkpt>
      <trkpt lat="45.97489" lon="6.44787">
        <ele>1492</ele>
        <time>2021-11-20T14:04:35Z</time>
      </trkpt>
      <trkpt lat="45.97488" lon="6.4479">
        <ele>1492</ele>
        <time>2021-11-20T14:04:39Z</time>
      </trkpt>
      <trkpt lat="45.97488" lon="6.44793">
        <ele>1492</ele>
        <time>2021-11-20T14:04:43Z</time>
      </trkpt>
      <trkpt lat="45.97487" lon="6.44796">
        <ele>1491</ele>
        <time>2021-11-20T14:04:47Z</time>
      </trkpt>
      <trkpt lat="45.97486" lon="6.44799">
        <ele>1491</ele>
        <time>2021-11-20T14:04:51Z</time>
      </trkpt>
      <trkpt lat="45.97486" lon="6.44802">
        <ele>1491</ele>
        <time>2021-11-20T14:04:54Z</time>
      </trkpt>
      <trkpt lat="45.97486" lon="6.44805">
        <ele>1491</ele>
        <time>2021-11-20T14:04:57Z</time>
      </trkpt>
      <trkpt lat="45.97486" lon="6.44808">
        <ele>1491</ele>
        <time>2021-11-20T14:05:00Z</time>
      </trkpt>
      <trkpt lat="45.97487" lon="6.44811">
        <ele>1490</ele>
        <time>2021-11-20T14:05:03Z</time>
      </trkpt>
      <trkpt lat="45.97487" lon="6.44813">
        <ele>1489</ele>
        <time>2021-11-20T14:05:07Z</time>
      </trkpt>
      <trkpt lat="45.97488" lon="6.44816">
        <ele>1489</ele>
        <time>2021-11-20T14:05:11Z</time>
      </trkpt>
      <trkpt lat="45.97488" lon="6.4482">
        <ele>1489</ele>
        <time>2021-11-20T14:05:15Z</time>
      </trkpt>
      <trkpt lat="45.97488" lon="6.44823">
        <ele>1489</ele>
        <time>2021-11-20T14:05:19Z</time>
      </trkpt>
      <trkpt lat="45.97489" lon="6.44825">
        <ele>1488</ele>
        <time>2021-11-20T14:05:22Z</time>
      </trkpt>
      <trkpt lat="45.97489" lon="6.44828">
        <ele>1487</ele>
        <time>2021-11-20T14:05:26Z</time>
      </trkpt>
      <trkpt lat="45.9749" lon="6.44831">
        <ele>1487</ele>
        <time>2021-11-20T14:05:30Z</time>
      </trkpt>
      <trkpt lat="45.9749" lon="6.44833">
        <ele>1487</ele>
        <time>2021-11-20T14:05:33Z</time>
      </trkpt>
      <trkpt lat="45.97491" lon="6.44837">
        <ele>1487</ele>
        <time>2021-11-20T14:05:36Z</time>
      </trkpt>
      <trkpt lat="45.97492" lon="6.44839">
        <ele>1486</ele>
        <time>2021-11-20T14:05:39Z</time>
      </trkpt>
      <trkpt lat="45.97493" lon="6.44842">
        <ele>1486</ele>
        <time>2021-11-20T14:05:43Z</time>
      </trkpt>
      <trkpt lat="45.97494" lon="6.44844">
        <ele>1484</ele>
        <time>2021-11-20T14:05:53Z</time>
      </trkpt>
      <trkpt lat="45.97495" lon="6.44846">
        <ele>1484</ele>
        <time>2021-11-20T14:05:57Z</time>
      </trkpt>
      <trkpt lat="45.97495" lon="6.44849">
        <ele>1484</ele>
        <time>2021-11-20T14:06:01Z</time>
      </trkpt>
      <trkpt lat="45.97496" lon="6.44851">
        <ele>1484</ele>
        <time>2021-11-20T14:06:04Z</time>
      </trkpt>
      <trkpt lat="45.97497" lon="6.44854">
        <ele>1483</ele>
        <time>2021-11-20T14:06:08Z</time>
      </trkpt>
      <trkpt lat="45.97497" lon="6.44857">
        <ele>1482</ele>
        <time>2021-11-20T14:06:12Z</time>
      </trkpt>
      <trkpt lat="45.97496" lon="6.4486">
        <ele>1482</ele>
        <time>2021-11-20T14:06:16Z</time>
      </trkpt>
      <trkpt lat="45.97497" lon="6.44863">
        <ele>1481</ele>
        <time>2021-11-20T14:06:20Z</time>
      </trkpt>
      <trkpt lat="45.97497" lon="6.44866">
        <ele>1481</ele>
        <time>2021-11-20T14:06:24Z</time>
      </trkpt>
      <trkpt lat="45.97499" lon="6.44868">
        <ele>1480</ele>
        <time>2021-11-20T14:06:28Z</time>
      </trkpt>
      <trkpt lat="45.97499" lon="6.44871">
        <ele>1480</ele>
        <time>2021-11-20T14:06:32Z</time>
      </trkpt>
      <trkpt lat="45.975" lon="6.44874">
        <ele>1479</ele>
        <time>2021-11-20T14:06:37Z</time>
      </trkpt>
      <trkpt lat="45.97501" lon="6.44876">
        <ele>1479</ele>
        <time>2021-11-20T14:06:42Z</time>
      </trkpt>
      <trkpt lat="45.97502" lon="6.44879">
        <ele>1478</ele>
        <time>2021-11-20T14:06:47Z</time>
      </trkpt>
      <trkpt lat="45.97503" lon="6.44882">
        <ele>1476</ele>
        <time>2021-11-20T14:06:52Z</time>
      </trkpt>
      <trkpt lat="45.97503" lon="6.44885">
        <ele>1476</ele>
        <time>2021-11-20T14:06:58Z</time>
      </trkpt>
      <trkpt lat="45.97501" lon="6.44886">
        <ele>1475</ele>
        <time>2021-11-20T14:07:03Z</time>
      </trkpt>
      <trkpt lat="45.975" lon="6.44888">
        <ele>1474</ele>
        <time>2021-11-20T14:07:10Z</time>
      </trkpt>
      <trkpt lat="45.97501" lon="6.4489">
        <ele>1474</ele>
        <time>2021-11-20T14:07:14Z</time>
      </trkpt>
      <trkpt lat="45.97502" lon="6.44893">
        <ele>1473</ele>
        <time>2021-11-20T14:07:17Z</time>
      </trkpt>
      <trkpt lat="45.97503" lon="6.44896">
        <ele>1472</ele>
        <time>2021-11-20T14:07:20Z</time>
      </trkpt>
      <trkpt lat="45.97504" lon="6.44899">
        <ele>1472</ele>
        <time>2021-11-20T14:07:23Z</time>
      </trkpt>
      <trkpt lat="45.97504" lon="6.44903">
        <ele>1472</ele>
        <time>2021-11-20T14:07:26Z</time>
      </trkpt>
      <trkpt lat="45.97505" lon="6.44907">
        <ele>1471</ele>
        <time>2021-11-20T14:07:29Z</time>
      </trkpt>
      <trkpt lat="45.97506" lon="6.4491">
        <ele>1471</ele>
        <time>2021-11-20T14:07:32Z</time>
      </trkpt>
      <trkpt lat="45.97506" lon="6.44913">
        <ele>1470</ele>
        <time>2021-11-20T14:07:34Z</time>
      </trkpt>
      <trkpt lat="45.97507" lon="6.44916">
        <ele>1470</ele>
        <time>2021-11-20T14:07:37Z</time>
      </trkpt>
      <trkpt lat="45.97506" lon="6.44919">
        <ele>1469</ele>
        <time>2021-11-20T14:07:41Z</time>
      </trkpt>
      <trkpt lat="45.97505" lon="6.4492">
        <ele>1468</ele>
        <time>2021-11-20T14:08:11Z</time>
      </trkpt>
      <trkpt lat="45.97502" lon="6.4492">
        <ele>1468</ele>
        <time>2021-11-20T14:08:14Z</time>
      </trkpt>
      <trkpt lat="45.97501" lon="6.44919">
        <ele>1468</ele>
        <time>2021-11-20T14:08:16Z</time>
      </trkpt>
      <trkpt lat="45.97499" lon="6.44918">
        <ele>1468</ele>
        <time>2021-11-20T14:08:18Z</time>
      </trkpt>
      <trkpt lat="45.97497" lon="6.44917">
        <ele>1468</ele>
        <time>2021-11-20T14:08:20Z</time>
      </trkpt>
      <trkpt lat="45.97496" lon="6.44916">
        <ele>1468</ele>
        <time>2021-11-20T14:08:22Z</time>
      </trkpt>
      <trkpt lat="45.97494" lon="6.44914">
        <ele>1467</ele>
        <time>2021-11-20T14:08:25Z</time>
      </trkpt>
      <trkpt lat="45.97492" lon="6.44912">
        <ele>1467</ele>
        <time>2021-11-20T14:08:28Z</time>
      </trkpt>
      <trkpt lat="45.9749" lon="6.4491">
        <ele>1467</ele>
        <time>2021-11-20T14:08:31Z</time>
      </trkpt>
      <trkpt lat="45.97489" lon="6.44907">
        <ele>1467</ele>
        <time>2021-11-20T14:08:34Z</time>
      </trkpt>
      <trkpt lat="45.97487" lon="6.44905">
        <ele>1466</ele>
        <time>2021-11-20T14:08:37Z</time>
      </trkpt>
      <trkpt lat="45.97485" lon="6.44903">
        <ele>1466</ele>
        <time>2021-11-20T14:08:41Z</time>
      </trkpt>
      <trkpt lat="45.97484" lon="6.44901">
        <ele>1465</ele>
        <time>2021-11-20T14:08:45Z</time>
      </trkpt>
      <trkpt lat="45.97482" lon="6.44902">
        <ele>1465</ele>
        <time>2021-11-20T14:08:50Z</time>
      </trkpt>
      <trkpt lat="45.97482" lon="6.44905">
        <ele>1465</ele>
        <time>2021-11-20T14:08:53Z</time>
      </trkpt>
      <trkpt lat="45.97483" lon="6.44908">
        <ele>1465</ele>
        <time>2021-11-20T14:08:56Z</time>
      </trkpt>
      <trkpt lat="45.97483" lon="6.44912">
        <ele>1465</ele>
        <time>2021-11-20T14:08:59Z</time>
      </trkpt>
      <trkpt lat="45.97483" lon="6.44915">
        <ele>1464</ele>
        <time>2021-11-20T14:09:02Z</time>
      </trkpt>
      <trkpt lat="45.97484" lon="6.44918">
        <ele>1463</ele>
        <time>2021-11-20T14:09:06Z</time>
      </trkpt>
      <trkpt lat="45.97484" lon="6.44921">
        <ele>1463</ele>
        <time>2021-11-20T14:09:09Z</time>
      </trkpt>
      <trkpt lat="45.97484" lon="6.44924">
        <ele>1462</ele>
        <time>2021-11-20T14:09:12Z</time>
      </trkpt>
      <trkpt lat="45.97485" lon="6.44928">
        <ele>1462</ele>
        <time>2021-11-20T14:09:15Z</time>
      </trkpt>
      <trkpt lat="45.97485" lon="6.44931">
        <ele>1462</ele>
        <time>2021-11-20T14:09:18Z</time>
      </trkpt>
      <trkpt lat="45.97486" lon="6.44935">
        <ele>1461</ele>
        <time>2021-11-20T14:09:21Z</time>
      </trkpt>
      <trkpt lat="45.97486" lon="6.44938">
        <ele>1461</ele>
        <time>2021-11-20T14:09:23Z</time>
      </trkpt>
      <trkpt lat="45.97487" lon="6.44941">
        <ele>1461</ele>
        <time>2021-11-20T14:09:25Z</time>
      </trkpt>
      <trkpt lat="45.97488" lon="6.44943">
        <ele>1460</ele>
        <time>2021-11-20T14:09:27Z</time>
      </trkpt>
      <trkpt lat="45.97488" lon="6.44946">
        <ele>1460</ele>
        <time>2021-11-20T14:09:30Z</time>
      </trkpt>
      <trkpt lat="45.97489" lon="6.4495">
        <ele>1460</ele>
        <time>2021-11-20T14:09:33Z</time>
      </trkpt>
      <trkpt lat="45.9749" lon="6.44953">
        <ele>1459</ele>
        <time>2021-11-20T14:09:35Z</time>
      </trkpt>
      <trkpt lat="45.97491" lon="6.44956">
        <ele>1459</ele>
        <time>2021-11-20T14:09:38Z</time>
      </trkpt>
      <trkpt lat="45.97491" lon="6.4496">
        <ele>1459</ele>
        <time>2021-11-20T14:09:41Z</time>
      </trkpt>
      <trkpt lat="45.97492" lon="6.44962">
        <ele>1458</ele>
        <time>2021-11-20T14:09:43Z</time>
      </trkpt>
      <trkpt lat="45.97493" lon="6.44965">
        <ele>1458</ele>
        <time>2021-11-20T14:09:45Z</time>
      </trkpt>
      <trkpt lat="45.97494" lon="6.44967">
        <ele>1458</ele>
        <time>2021-11-20T14:09:47Z</time>
      </trkpt>
      <trkpt lat="45.97495" lon="6.4497">
        <ele>1457</ele>
        <time>2021-11-20T14:09:50Z</time>
      </trkpt>
      <trkpt lat="45.97496" lon="6.44972">
        <ele>1457</ele>
        <time>2021-11-20T14:09:52Z</time>
      </trkpt>
      <trkpt lat="45.97497" lon="6.44975">
        <ele>1457</ele>
        <time>2021-11-20T14:09:54Z</time>
      </trkpt>
      <trkpt lat="45.97498" lon="6.44977">
        <ele>1457</ele>
        <time>2021-11-20T14:09:56Z</time>
      </trkpt>
      <trkpt lat="45.975" lon="6.44979">
        <ele>1456</ele>
        <time>2021-11-20T14:09:58Z</time>
      </trkpt>
      <trkpt lat="45.97501" lon="6.44982">
        <ele>1456</ele>
        <time>2021-11-20T14:10:01Z</time>
      </trkpt>
      <trkpt lat="45.97502" lon="6.44984">
        <ele>1456</ele>
        <time>2021-11-20T14:10:03Z</time>
      </trkpt>
      <trkpt lat="45.97503" lon="6.44986">
        <ele>1455</ele>
        <time>2021-11-20T14:10:05Z</time>
      </trkpt>
      <trkpt lat="45.97504" lon="6.44988">
        <ele>1455</ele>
        <time>2021-11-20T14:10:07Z</time>
      </trkpt>
      <trkpt lat="45.97505" lon="6.44991">
        <ele>1455</ele>
        <time>2021-11-20T14:10:09Z</time>
      </trkpt>
      <trkpt lat="45.97506" lon="6.44993">
        <ele>1455</ele>
        <time>2021-11-20T14:10:11Z</time>
      </trkpt>
      <trkpt lat="45.97507" lon="6.44996">
        <ele>1455</ele>
        <time>2021-11-20T14:10:13Z</time>
      </trkpt>
      <trkpt lat="45.97508" lon="6.44998">
        <ele>1455</ele>
        <time>2021-11-20T14:10:15Z</time>
      </trkpt>
      <trkpt lat="45.97509" lon="6.45001">
        <ele>1455</ele>
        <time>2021-11-20T14:10:17Z</time>
      </trkpt>
      <trkpt lat="45.9751" lon="6.45004">
        <ele>1455</ele>
        <time>2021-11-20T14:10:19Z</time>
      </trkpt>
      <trkpt lat="45.97511" lon="6.45007">
        <ele>1455</ele>
        <time>2021-11-20T14:10:21Z</time>
      </trkpt>
      <trkpt lat="45.97511" lon="6.4501">
        <ele>1455</ele>
        <time>2021-11-20T14:10:23Z</time>
      </trkpt>
      <trkpt lat="45.97512" lon="6.45012">
        <ele>1454</ele>
        <time>2021-11-20T14:10:25Z</time>
      </trkpt>
      <trkpt lat="45.97513" lon="6.45015">
        <ele>1454</ele>
        <time>2021-11-20T14:10:27Z</time>
      </trkpt>
      <trkpt lat="45.97513" lon="6.45017">
        <ele>1453</ele>
        <time>2021-11-20T14:10:29Z</time>
      </trkpt>
      <trkpt lat="45.97514" lon="6.45021">
        <ele>1453</ele>
        <time>2021-11-20T14:10:32Z</time>
      </trkpt>
      <trkpt lat="45.97515" lon="6.45024">
        <ele>1453</ele>
        <time>2021-11-20T14:10:35Z</time>
      </trkpt>
      <trkpt lat="45.97516" lon="6.45028">
        <ele>1452</ele>
        <time>2021-11-20T14:10:38Z</time>
      </trkpt>
      <trkpt lat="45.97517" lon="6.45031">
        <ele>1452</ele>
        <time>2021-11-20T14:10:41Z</time>
      </trkpt>
      <trkpt lat="45.97517" lon="6.45035">
        <ele>1452</ele>
        <time>2021-11-20T14:10:44Z</time>
      </trkpt>
      <trkpt lat="45.97518" lon="6.45038">
        <ele>1452</ele>
        <time>2021-11-20T14:10:47Z</time>
      </trkpt>
      <trkpt lat="45.97519" lon="6.45041">
        <ele>1452</ele>
        <time>2021-11-20T14:10:49Z</time>
      </trkpt>
      <trkpt lat="45.9752" lon="6.45043">
        <ele>1452</ele>
        <time>2021-11-20T14:10:51Z</time>
      </trkpt>
      <trkpt lat="45.9752" lon="6.45047">
        <ele>1451</ele>
        <time>2021-11-20T14:10:54Z</time>
      </trkpt>
      <trkpt lat="45.97521" lon="6.4505">
        <ele>1450</ele>
        <time>2021-11-20T14:10:57Z</time>
      </trkpt>
      <trkpt lat="45.97521" lon="6.45052">
        <ele>1450</ele>
        <time>2021-11-20T14:10:59Z</time>
      </trkpt>
      <trkpt lat="45.97519" lon="6.45053">
        <ele>1450</ele>
        <time>2021-11-20T14:11:01Z</time>
      </trkpt>
      <trkpt lat="45.97517" lon="6.45053">
        <ele>1450</ele>
        <time>2021-11-20T14:11:03Z</time>
      </trkpt>
      <trkpt lat="45.97515" lon="6.45052">
        <ele>1449</ele>
        <time>2021-11-20T14:11:05Z</time>
      </trkpt>
      <trkpt lat="45.97513" lon="6.45051">
        <ele>1449</ele>
        <time>2021-11-20T14:11:07Z</time>
      </trkpt>
      <trkpt lat="45.97511" lon="6.4505">
        <ele>1448</ele>
        <time>2021-11-20T14:11:09Z</time>
      </trkpt>
      <trkpt lat="45.97509" lon="6.45048">
        <ele>1448</ele>
        <time>2021-11-20T14:11:12Z</time>
      </trkpt>
      <trkpt lat="45.97507" lon="6.45046">
        <ele>1448</ele>
        <time>2021-11-20T14:11:15Z</time>
      </trkpt>
      <trkpt lat="45.97505" lon="6.45049">
        <ele>1447</ele>
        <time>2021-11-20T14:11:19Z</time>
      </trkpt>
      <trkpt lat="45.97506" lon="6.45052">
        <ele>1446</ele>
        <time>2021-11-20T14:11:22Z</time>
      </trkpt>
      <trkpt lat="45.97506" lon="6.45055">
        <ele>1446</ele>
        <time>2021-11-20T14:11:25Z</time>
      </trkpt>
      <trkpt lat="45.97507" lon="6.45058">
        <ele>1446</ele>
        <time>2021-11-20T14:11:27Z</time>
      </trkpt>
      <trkpt lat="45.97507" lon="6.45061">
        <ele>1445</ele>
        <time>2021-11-20T14:11:30Z</time>
      </trkpt>
      <trkpt lat="45.97508" lon="6.45064">
        <ele>1445</ele>
        <time>2021-11-20T14:11:33Z</time>
      </trkpt>
      <trkpt lat="45.9751" lon="6.45067">
        <ele>1445</ele>
        <time>2021-11-20T14:11:36Z</time>
      </trkpt>
      <trkpt lat="45.97511" lon="6.4507">
        <ele>1444</ele>
        <time>2021-11-20T14:11:39Z</time>
      </trkpt>
      <trkpt lat="45.97513" lon="6.45072">
        <ele>1444</ele>
        <time>2021-11-20T14:11:41Z</time>
      </trkpt>
      <trkpt lat="45.97513" lon="6.45075">
        <ele>1444</ele>
        <time>2021-11-20T14:11:43Z</time>
      </trkpt>
      <trkpt lat="45.97515" lon="6.45077">
        <ele>1443</ele>
        <time>2021-11-20T14:11:45Z</time>
      </trkpt>
      <trkpt lat="45.97516" lon="6.45079">
        <ele>1443</ele>
        <time>2021-11-20T14:11:47Z</time>
      </trkpt>
      <trkpt lat="45.97517" lon="6.45081">
        <ele>1443</ele>
        <time>2021-11-20T14:11:49Z</time>
      </trkpt>
      <trkpt lat="45.97518" lon="6.45083">
        <ele>1442</ele>
        <time>2021-11-20T14:11:51Z</time>
      </trkpt>
      <trkpt lat="45.97519" lon="6.45086">
        <ele>1441</ele>
        <time>2021-11-20T14:11:53Z</time>
      </trkpt>
      <trkpt lat="45.97521" lon="6.45088">
        <ele>1441</ele>
        <time>2021-11-20T14:11:55Z</time>
      </trkpt>
      <trkpt lat="45.97522" lon="6.45091">
        <ele>1441</ele>
        <time>2021-11-20T14:11:57Z</time>
      </trkpt>
      <trkpt lat="45.97523" lon="6.45093">
        <ele>1441</ele>
        <time>2021-11-20T14:11:59Z</time>
      </trkpt>
      <trkpt lat="45.97525" lon="6.45095">
        <ele>1440</ele>
        <time>2021-11-20T14:12:01Z</time>
      </trkpt>
      <trkpt lat="45.97526" lon="6.45098">
        <ele>1440</ele>
        <time>2021-11-20T14:12:03Z</time>
      </trkpt>
      <trkpt lat="45.97528" lon="6.451">
        <ele>1440</ele>
        <time>2021-11-20T14:12:06Z</time>
      </trkpt>
      <trkpt lat="45.9753" lon="6.45102">
        <ele>1440</ele>
        <time>2021-11-20T14:12:08Z</time>
      </trkpt>
      <trkpt lat="45.97532" lon="6.45104">
        <ele>1439</ele>
        <time>2021-11-20T14:12:11Z</time>
      </trkpt>
      <trkpt lat="45.97533" lon="6.45105">
        <ele>1438</ele>
        <time>2021-11-20T14:12:13Z</time>
      </trkpt>
      <trkpt lat="45.97535" lon="6.45108">
        <ele>1438</ele>
        <time>2021-11-20T14:12:16Z</time>
      </trkpt>
      <trkpt lat="45.97536" lon="6.4511">
        <ele>1438</ele>
        <time>2021-11-20T14:12:18Z</time>
      </trkpt>
      <trkpt lat="45.97537" lon="6.45113">
        <ele>1438</ele>
        <time>2021-11-20T14:12:20Z</time>
      </trkpt>
      <trkpt lat="45.97539" lon="6.45115">
        <ele>1437</ele>
        <time>2021-11-20T14:12:23Z</time>
      </trkpt>
      <trkpt lat="45.97541" lon="6.45117">
        <ele>1437</ele>
        <time>2021-11-20T14:12:26Z</time>
      </trkpt>
      <trkpt lat="45.97543" lon="6.45119">
        <ele>1436</ele>
        <time>2021-11-20T14:12:29Z</time>
      </trkpt>
      <trkpt lat="45.97545" lon="6.45119">
        <ele>1436</ele>
        <time>2021-11-20T14:12:34Z</time>
      </trkpt>
      <trkpt lat="45.97547" lon="6.4512">
        <ele>1435</ele>
        <time>2021-11-20T14:12:45Z</time>
      </trkpt>
      <trkpt lat="45.97549" lon="6.45121">
        <ele>1435</ele>
        <time>2021-11-20T14:12:51Z</time>
      </trkpt>
      <trkpt lat="45.9755" lon="6.45124">
        <ele>1435</ele>
        <time>2021-11-20T14:12:54Z</time>
      </trkpt>
      <trkpt lat="45.9755" lon="6.45127">
        <ele>1435</ele>
        <time>2021-11-20T14:12:59Z</time>
      </trkpt>
      <trkpt lat="45.97549" lon="6.4513">
        <ele>1434</ele>
        <time>2021-11-20T14:13:10Z</time>
      </trkpt>
      <trkpt lat="45.97549" lon="6.45132">
        <ele>1434</ele>
        <time>2021-11-20T14:13:12Z</time>
      </trkpt>
      <trkpt lat="45.97549" lon="6.45135">
        <ele>1434</ele>
        <time>2021-11-20T14:13:16Z</time>
      </trkpt>
      <trkpt lat="45.97548" lon="6.45139">
        <ele>1434</ele>
        <time>2021-11-20T14:13:19Z</time>
      </trkpt>
      <trkpt lat="45.97547" lon="6.45142">
        <ele>1433</ele>
        <time>2021-11-20T14:13:22Z</time>
      </trkpt>
      <trkpt lat="45.97547" lon="6.45145">
        <ele>1433</ele>
        <time>2021-11-20T14:13:26Z</time>
      </trkpt>
      <trkpt lat="45.97546" lon="6.45148">
        <ele>1431</ele>
        <time>2021-11-20T14:13:31Z</time>
      </trkpt>
      <trkpt lat="45.97545" lon="6.4515">
        <ele>1431</ele>
        <time>2021-11-20T14:13:34Z</time>
      </trkpt>
      <trkpt lat="45.97544" lon="6.45153">
        <ele>1430</ele>
        <time>2021-11-20T14:13:37Z</time>
      </trkpt>
      <trkpt lat="45.97543" lon="6.45156">
        <ele>1430</ele>
        <time>2021-11-20T14:13:40Z</time>
      </trkpt>
      <trkpt lat="45.97542" lon="6.4516">
        <ele>1430</ele>
        <time>2021-11-20T14:13:43Z</time>
      </trkpt>
      <trkpt lat="45.97541" lon="6.45164">
        <ele>1430</ele>
        <time>2021-11-20T14:13:46Z</time>
      </trkpt>
      <trkpt lat="45.97541" lon="6.45166">
        <ele>1430</ele>
        <time>2021-11-20T14:13:48Z</time>
      </trkpt>
      <trkpt lat="45.97541" lon="6.45169">
        <ele>1430</ele>
        <time>2021-11-20T14:13:50Z</time>
      </trkpt>
      <trkpt lat="45.97541" lon="6.45172">
        <ele>1430</ele>
        <time>2021-11-20T14:13:52Z</time>
      </trkpt>
      <trkpt lat="45.97542" lon="6.45174">
        <ele>1430</ele>
        <time>2021-11-20T14:13:54Z</time>
      </trkpt>
      <trkpt lat="45.97543" lon="6.45177">
        <ele>1429</ele>
        <time>2021-11-20T14:13:57Z</time>
      </trkpt>
      <trkpt lat="45.97545" lon="6.45179">
        <ele>1429</ele>
        <time>2021-11-20T14:14:00Z</time>
      </trkpt>
      <trkpt lat="45.97546" lon="6.45182">
        <ele>1427</ele>
        <time>2021-11-20T14:14:03Z</time>
      </trkpt>
      <trkpt lat="45.97547" lon="6.45184">
        <ele>1427</ele>
        <time>2021-11-20T14:14:06Z</time>
      </trkpt>
      <trkpt lat="45.97548" lon="6.45187">
        <ele>1427</ele>
        <time>2021-11-20T14:14:09Z</time>
      </trkpt>
      <trkpt lat="45.97549" lon="6.4519">
        <ele>1425</ele>
        <time>2021-11-20T14:14:12Z</time>
      </trkpt>
      <trkpt lat="45.9755" lon="6.45193">
        <ele>1425</ele>
        <time>2021-11-20T14:14:14Z</time>
      </trkpt>
      <trkpt lat="45.97551" lon="6.45196">
        <ele>1424</ele>
        <time>2021-11-20T14:14:17Z</time>
      </trkpt>
      <trkpt lat="45.97552" lon="6.452">
        <ele>1424</ele>
        <time>2021-11-20T14:14:20Z</time>
      </trkpt>
      <trkpt lat="45.97552" lon="6.45203">
        <ele>1423</ele>
        <time>2021-11-20T14:14:23Z</time>
      </trkpt>
      <trkpt lat="45.97553" lon="6.45206">
        <ele>1423</ele>
        <time>2021-11-20T14:14:25Z</time>
      </trkpt>
      <trkpt lat="45.97554" lon="6.45208">
        <ele>1422</ele>
        <time>2021-11-20T14:14:27Z</time>
      </trkpt>
      <trkpt lat="45.97554" lon="6.45211">
        <ele>1422</ele>
        <time>2021-11-20T14:14:29Z</time>
      </trkpt>
      <trkpt lat="45.97555" lon="6.45214">
        <ele>1421</ele>
        <time>2021-11-20T14:14:31Z</time>
      </trkpt>
      <trkpt lat="45.97556" lon="6.45216">
        <ele>1421</ele>
        <time>2021-11-20T14:14:33Z</time>
      </trkpt>
      <trkpt lat="45.97557" lon="6.45219">
        <ele>1421</ele>
        <time>2021-11-20T14:14:35Z</time>
      </trkpt>
      <trkpt lat="45.97558" lon="6.45221">
        <ele>1421</ele>
        <time>2021-11-20T14:14:37Z</time>
      </trkpt>
      <trkpt lat="45.97558" lon="6.45224">
        <ele>1420</ele>
        <time>2021-11-20T14:14:39Z</time>
      </trkpt>
      <trkpt lat="45.97559" lon="6.45227">
        <ele>1420</ele>
        <time>2021-11-20T14:14:41Z</time>
      </trkpt>
      <trkpt lat="45.9756" lon="6.45229">
        <ele>1419</ele>
        <time>2021-11-20T14:14:43Z</time>
      </trkpt>
      <trkpt lat="45.97561" lon="6.45232">
        <ele>1419</ele>
        <time>2021-11-20T14:14:45Z</time>
      </trkpt>
      <trkpt lat="45.97562" lon="6.45234">
        <ele>1419</ele>
        <time>2021-11-20T14:14:47Z</time>
      </trkpt>
      <trkpt lat="45.97563" lon="6.45237">
        <ele>1418</ele>
        <time>2021-11-20T14:14:49Z</time>
      </trkpt>
      <trkpt lat="45.97564" lon="6.4524">
        <ele>1418</ele>
        <time>2021-11-20T14:14:51Z</time>
      </trkpt>
      <trkpt lat="45.97565" lon="6.45242">
        <ele>1418</ele>
        <time>2021-11-20T14:14:53Z</time>
      </trkpt>
      <trkpt lat="45.97566" lon="6.45245">
        <ele>1418</ele>
        <time>2021-11-20T14:14:55Z</time>
      </trkpt>
      <trkpt lat="45.97567" lon="6.45248">
        <ele>1418</ele>
        <time>2021-11-20T14:14:57Z</time>
      </trkpt>
      <trkpt lat="45.97568" lon="6.4525">
        <ele>1417</ele>
        <time>2021-11-20T14:14:59Z</time>
      </trkpt>
      <trkpt lat="45.97569" lon="6.45252">
        <ele>1417</ele>
        <time>2021-11-20T14:15:01Z</time>
      </trkpt>
      <trkpt lat="45.9757" lon="6.45254">
        <ele>1415</ele>
        <time>2021-11-20T14:15:03Z</time>
      </trkpt>
      <trkpt lat="45.97572" lon="6.45256">
        <ele>1415</ele>
        <time>2021-11-20T14:15:05Z</time>
      </trkpt>
      <trkpt lat="45.97573" lon="6.45258">
        <ele>1415</ele>
        <time>2021-11-20T14:15:07Z</time>
      </trkpt>
      <trkpt lat="45.97574" lon="6.4526">
        <ele>1415</ele>
        <time>2021-11-20T14:15:09Z</time>
      </trkpt>
      <trkpt lat="45.97576" lon="6.45263">
        <ele>1414</ele>
        <time>2021-11-20T14:15:12Z</time>
      </trkpt>
      <trkpt lat="45.97577" lon="6.45265">
        <ele>1414</ele>
        <time>2021-11-20T14:15:14Z</time>
      </trkpt>
      <trkpt lat="45.97578" lon="6.45267">
        <ele>1414</ele>
        <time>2021-11-20T14:15:16Z</time>
      </trkpt>
      <trkpt lat="45.97579" lon="6.4527">
        <ele>1414</ele>
        <time>2021-11-20T14:15:18Z</time>
      </trkpt>
      <trkpt lat="45.9758" lon="6.45272">
        <ele>1413</ele>
        <time>2021-11-20T14:15:20Z</time>
      </trkpt>
      <trkpt lat="45.97582" lon="6.45275">
        <ele>1413</ele>
        <time>2021-11-20T14:15:23Z</time>
      </trkpt>
      <trkpt lat="45.97582" lon="6.45277">
        <ele>1413</ele>
        <time>2021-11-20T14:15:25Z</time>
      </trkpt>
      <trkpt lat="45.97583" lon="6.4528">
        <ele>1413</ele>
        <time>2021-11-20T14:15:27Z</time>
      </trkpt>
      <trkpt lat="45.97584" lon="6.45282">
        <ele>1412</ele>
        <time>2021-11-20T14:15:29Z</time>
      </trkpt>
      <trkpt lat="45.97585" lon="6.45284">
        <ele>1412</ele>
        <time>2021-11-20T14:15:31Z</time>
      </trkpt>
      <trkpt lat="45.97586" lon="6.45287">
        <ele>1412</ele>
        <time>2021-11-20T14:15:34Z</time>
      </trkpt>
      <trkpt lat="45.97586" lon="6.45291">
        <ele>1411</ele>
        <time>2021-11-20T14:15:37Z</time>
      </trkpt>
      <trkpt lat="45.97587" lon="6.45295">
        <ele>1410</ele>
        <time>2021-11-20T14:15:40Z</time>
      </trkpt>
      <trkpt lat="45.97588" lon="6.45298">
        <ele>1409</ele>
        <time>2021-11-20T14:15:43Z</time>
      </trkpt>
      <trkpt lat="45.97588" lon="6.45301">
        <ele>1409</ele>
        <time>2021-11-20T14:15:45Z</time>
      </trkpt>
      <trkpt lat="45.97589" lon="6.45303">
        <ele>1408</ele>
        <time>2021-11-20T14:15:47Z</time>
      </trkpt>
      <trkpt lat="45.9759" lon="6.45306">
        <ele>1408</ele>
        <time>2021-11-20T14:15:49Z</time>
      </trkpt>
      <trkpt lat="45.97591" lon="6.45308">
        <ele>1408</ele>
        <time>2021-11-20T14:15:51Z</time>
      </trkpt>
      <trkpt lat="45.97591" lon="6.45311">
        <ele>1408</ele>
        <time>2021-11-20T14:15:53Z</time>
      </trkpt>
      <trkpt lat="45.97592" lon="6.45313">
        <ele>1408</ele>
        <time>2021-11-20T14:15:55Z</time>
      </trkpt>
      <trkpt lat="45.97593" lon="6.45316">
        <ele>1408</ele>
        <time>2021-11-20T14:15:57Z</time>
      </trkpt>
      <trkpt lat="45.97594" lon="6.45319">
        <ele>1406</ele>
        <time>2021-11-20T14:15:59Z</time>
      </trkpt>
      <trkpt lat="45.97594" lon="6.45321">
        <ele>1406</ele>
        <time>2021-11-20T14:16:01Z</time>
      </trkpt>
      <trkpt lat="45.97594" lon="6.45325">
        <ele>1406</ele>
        <time>2021-11-20T14:16:04Z</time>
      </trkpt>
      <trkpt lat="45.97594" lon="6.45329">
        <ele>1405</ele>
        <time>2021-11-20T14:16:07Z</time>
      </trkpt>
      <trkpt lat="45.97593" lon="6.45331">
        <ele>1405</ele>
        <time>2021-11-20T14:16:09Z</time>
      </trkpt>
      <trkpt lat="45.97592" lon="6.45335">
        <ele>1404</ele>
        <time>2021-11-20T14:16:12Z</time>
      </trkpt>
      <trkpt lat="45.97591" lon="6.45338">
        <ele>1404</ele>
        <time>2021-11-20T14:16:15Z</time>
      </trkpt>
      <trkpt lat="45.9759" lon="6.4534">
        <ele>1403</ele>
        <time>2021-11-20T14:16:17Z</time>
      </trkpt>
      <trkpt lat="45.97589" lon="6.45343">
        <ele>1403</ele>
        <time>2021-11-20T14:16:19Z</time>
      </trkpt>
      <trkpt lat="45.97588" lon="6.45345">
        <ele>1402</ele>
        <time>2021-11-20T14:16:21Z</time>
      </trkpt>
      <trkpt lat="45.97587" lon="6.45348">
        <ele>1402</ele>
        <time>2021-11-20T14:16:24Z</time>
      </trkpt>
      <trkpt lat="45.97586" lon="6.45351">
        <ele>1402</ele>
        <time>2021-11-20T14:16:26Z</time>
      </trkpt>
      <trkpt lat="45.97585" lon="6.45354">
        <ele>1401</ele>
        <time>2021-11-20T14:16:29Z</time>
      </trkpt>
      <trkpt lat="45.97584" lon="6.45358">
        <ele>1400</ele>
        <time>2021-11-20T14:16:32Z</time>
      </trkpt>
      <trkpt lat="45.97583" lon="6.4536">
        <ele>1400</ele>
        <time>2021-11-20T14:16:34Z</time>
      </trkpt>
      <trkpt lat="45.97583" lon="6.45363">
        <ele>1400</ele>
        <time>2021-11-20T14:16:36Z</time>
      </trkpt>
      <trkpt lat="45.97582" lon="6.45365">
        <ele>1400</ele>
        <time>2021-11-20T14:16:38Z</time>
      </trkpt>
      <trkpt lat="45.97582" lon="6.45368">
        <ele>1399</ele>
        <time>2021-11-20T14:16:40Z</time>
      </trkpt>
      <trkpt lat="45.97581" lon="6.45371">
        <ele>1399</ele>
        <time>2021-11-20T14:16:42Z</time>
      </trkpt>
      <trkpt lat="45.97581" lon="6.45374">
        <ele>1399</ele>
        <time>2021-11-20T14:16:44Z</time>
      </trkpt>
      <trkpt lat="45.9758" lon="6.45376">
        <ele>1399</ele>
        <time>2021-11-20T14:16:46Z</time>
      </trkpt>
      <trkpt lat="45.9758" lon="6.45379">
        <ele>1399</ele>
        <time>2021-11-20T14:16:48Z</time>
      </trkpt>
      <trkpt lat="45.97581" lon="6.45382">
        <ele>1399</ele>
        <time>2021-11-20T14:16:51Z</time>
      </trkpt>
      <trkpt lat="45.97581" lon="6.45386">
        <ele>1399</ele>
        <time>2021-11-20T14:16:54Z</time>
      </trkpt>
      <trkpt lat="45.97582" lon="6.45389">
        <ele>1399</ele>
        <time>2021-11-20T14:16:57Z</time>
      </trkpt>
      <trkpt lat="45.97583" lon="6.45392">
        <ele>1397</ele>
        <time>2021-11-20T14:17:00Z</time>
      </trkpt>
      <trkpt lat="45.97584" lon="6.45395">
        <ele>1397</ele>
        <time>2021-11-20T14:17:03Z</time>
      </trkpt>
      <trkpt lat="45.97585" lon="6.45398">
        <ele>1396</ele>
        <time>2021-11-20T14:17:06Z</time>
      </trkpt>
      <trkpt lat="45.97586" lon="6.45401">
        <ele>1396</ele>
        <time>2021-11-20T14:17:09Z</time>
      </trkpt>
      <trkpt lat="45.97587" lon="6.45403">
        <ele>1395</ele>
        <time>2021-11-20T14:17:12Z</time>
      </trkpt>
      <trkpt lat="45.97588" lon="6.45406">
        <ele>1394</ele>
        <time>2021-11-20T14:17:15Z</time>
      </trkpt>
      <trkpt lat="45.97589" lon="6.45409">
        <ele>1394</ele>
        <time>2021-11-20T14:17:18Z</time>
      </trkpt>
      <trkpt lat="45.9759" lon="6.45412">
        <ele>1393</ele>
        <time>2021-11-20T14:17:21Z</time>
      </trkpt>
      <trkpt lat="45.97592" lon="6.45415">
        <ele>1392</ele>
        <time>2021-11-20T14:17:24Z</time>
      </trkpt>
      <trkpt lat="45.97593" lon="6.45418">
        <ele>1392</ele>
        <time>2021-11-20T14:17:27Z</time>
      </trkpt>
      <trkpt lat="45.97594" lon="6.45421">
        <ele>1392</ele>
        <time>2021-11-20T14:17:30Z</time>
      </trkpt>
      <trkpt lat="45.97595" lon="6.45424">
        <ele>1391</ele>
        <time>2021-11-20T14:17:33Z</time>
      </trkpt>
      <trkpt lat="45.97596" lon="6.45428">
        <ele>1391</ele>
        <time>2021-11-20T14:17:36Z</time>
      </trkpt>
      <trkpt lat="45.97596" lon="6.45431">
        <ele>1390</ele>
        <time>2021-11-20T14:17:39Z</time>
      </trkpt>
      <trkpt lat="45.97597" lon="6.45434">
        <ele>1390</ele>
        <time>2021-11-20T14:17:42Z</time>
      </trkpt>
      <trkpt lat="45.97598" lon="6.45437">
        <ele>1389</ele>
        <time>2021-11-20T14:17:45Z</time>
      </trkpt>
      <trkpt lat="45.97599" lon="6.4544">
        <ele>1389</ele>
        <time>2021-11-20T14:17:48Z</time>
      </trkpt>
      <trkpt lat="45.976" lon="6.45444">
        <ele>1388</ele>
        <time>2021-11-20T14:17:51Z</time>
      </trkpt>
      <trkpt lat="45.976" lon="6.45447">
        <ele>1388</ele>
        <time>2021-11-20T14:17:54Z</time>
      </trkpt>
      <trkpt lat="45.97601" lon="6.4545">
        <ele>1388</ele>
        <time>2021-11-20T14:17:56Z</time>
      </trkpt>
      <trkpt lat="45.97601" lon="6.45453">
        <ele>1387</ele>
        <time>2021-11-20T14:17:58Z</time>
      </trkpt>
      <trkpt lat="45.97601" lon="6.45456">
        <ele>1386</ele>
        <time>2021-11-20T14:18:01Z</time>
      </trkpt>
      <trkpt lat="45.97599" lon="6.4546">
        <ele>1386</ele>
        <time>2021-11-20T14:18:05Z</time>
      </trkpt>
      <trkpt lat="45.97599" lon="6.45464">
        <ele>1385</ele>
        <time>2021-11-20T14:18:08Z</time>
      </trkpt>
      <trkpt lat="45.97599" lon="6.45467">
        <ele>1385</ele>
        <time>2021-11-20T14:18:11Z</time>
      </trkpt>
      <trkpt lat="45.97599" lon="6.45471">
        <ele>1384</ele>
        <time>2021-11-20T14:18:14Z</time>
      </trkpt>
      <trkpt lat="45.97599" lon="6.45474">
        <ele>1384</ele>
        <time>2021-11-20T14:18:17Z</time>
      </trkpt>
      <trkpt lat="45.97599" lon="6.45478">
        <ele>1384</ele>
        <time>2021-11-20T14:18:20Z</time>
      </trkpt>
      <trkpt lat="45.976" lon="6.45481">
        <ele>1383</ele>
        <time>2021-11-20T14:18:23Z</time>
      </trkpt>
      <trkpt lat="45.97601" lon="6.45484">
        <ele>1383</ele>
        <time>2021-11-20T14:18:26Z</time>
      </trkpt>
      <trkpt lat="45.97601" lon="6.45486">
        <ele>1383</ele>
        <time>2021-11-20T14:18:28Z</time>
      </trkpt>
      <trkpt lat="45.97602" lon="6.45489">
        <ele>1383</ele>
        <time>2021-11-20T14:18:30Z</time>
      </trkpt>
      <trkpt lat="45.97603" lon="6.45492">
        <ele>1383</ele>
        <time>2021-11-20T14:18:32Z</time>
      </trkpt>
      <trkpt lat="45.97604" lon="6.45495">
        <ele>1383</ele>
        <time>2021-11-20T14:18:35Z</time>
      </trkpt>
      <trkpt lat="45.97605" lon="6.45497">
        <ele>1382</ele>
        <time>2021-11-20T14:18:37Z</time>
      </trkpt>
      <trkpt lat="45.97606" lon="6.45501">
        <ele>1381</ele>
        <time>2021-11-20T14:18:40Z</time>
      </trkpt>
      <trkpt lat="45.97608" lon="6.45504">
        <ele>1381</ele>
        <time>2021-11-20T14:18:43Z</time>
      </trkpt>
      <trkpt lat="45.97609" lon="6.45507">
        <ele>1381</ele>
        <time>2021-11-20T14:18:46Z</time>
      </trkpt>
      <trkpt lat="45.97611" lon="6.4551">
        <ele>1381</ele>
        <time>2021-11-20T14:18:49Z</time>
      </trkpt>
      <trkpt lat="45.97612" lon="6.45512">
        <ele>1380</ele>
        <time>2021-11-20T14:18:52Z</time>
      </trkpt>
      <trkpt lat="45.97613" lon="6.45516">
        <ele>1380</ele>
        <time>2021-11-20T14:18:55Z</time>
      </trkpt>
      <trkpt lat="45.97614" lon="6.45519">
        <ele>1380</ele>
        <time>2021-11-20T14:18:58Z</time>
      </trkpt>
      <trkpt lat="45.97615" lon="6.45522">
        <ele>1379</ele>
        <time>2021-11-20T14:19:00Z</time>
      </trkpt>
      <trkpt lat="45.97616" lon="6.45524">
        <ele>1379</ele>
        <time>2021-11-20T14:19:02Z</time>
      </trkpt>
      <trkpt lat="45.97616" lon="6.45527">
        <ele>1378</ele>
        <time>2021-11-20T14:19:04Z</time>
      </trkpt>
      <trkpt lat="45.97617" lon="6.4553">
        <ele>1378</ele>
        <time>2021-11-20T14:19:06Z</time>
      </trkpt>
      <trkpt lat="45.97617" lon="6.45533">
        <ele>1377</ele>
        <time>2021-11-20T14:19:09Z</time>
      </trkpt>
      <trkpt lat="45.97618" lon="6.45536">
        <ele>1377</ele>
        <time>2021-11-20T14:19:11Z</time>
      </trkpt>
      <trkpt lat="45.97618" lon="6.45539">
        <ele>1377</ele>
        <time>2021-11-20T14:19:13Z</time>
      </trkpt>
      <trkpt lat="45.97617" lon="6.45543">
        <ele>1376</ele>
        <time>2021-11-20T14:19:16Z</time>
      </trkpt>
      <trkpt lat="45.97617" lon="6.45545">
        <ele>1376</ele>
        <time>2021-11-20T14:19:18Z</time>
      </trkpt>
      <trkpt lat="45.97617" lon="6.45548">
        <ele>1376</ele>
        <time>2021-11-20T14:19:20Z</time>
      </trkpt>
      <trkpt lat="45.97616" lon="6.45552">
        <ele>1376</ele>
        <time>2021-11-20T14:19:23Z</time>
      </trkpt>
      <trkpt lat="45.97616" lon="6.45554">
        <ele>1376</ele>
        <time>2021-11-20T14:19:25Z</time>
      </trkpt>
      <trkpt lat="45.97615" lon="6.45557">
        <ele>1375</ele>
        <time>2021-11-20T14:19:27Z</time>
      </trkpt>
      <trkpt lat="45.97615" lon="6.45559">
        <ele>1375</ele>
        <time>2021-11-20T14:19:29Z</time>
      </trkpt>
      <trkpt lat="45.97614" lon="6.45562">
        <ele>1375</ele>
        <time>2021-11-20T14:19:31Z</time>
      </trkpt>
      <trkpt lat="45.97614" lon="6.45564">
        <ele>1375</ele>
        <time>2021-11-20T14:19:33Z</time>
      </trkpt>
      <trkpt lat="45.97613" lon="6.45567">
        <ele>1374</ele>
        <time>2021-11-20T14:19:35Z</time>
      </trkpt>
      <trkpt lat="45.97613" lon="6.45571">
        <ele>1374</ele>
        <time>2021-11-20T14:19:38Z</time>
      </trkpt>
      <trkpt lat="45.97612" lon="6.45574">
        <ele>1374</ele>
        <time>2021-11-20T14:19:41Z</time>
      </trkpt>
      <trkpt lat="45.97613" lon="6.45578">
        <ele>1374</ele>
        <time>2021-11-20T14:19:45Z</time>
      </trkpt>
      <trkpt lat="45.97612" lon="6.45581">
        <ele>1374</ele>
        <time>2021-11-20T14:19:52Z</time>
      </trkpt>
      <trkpt lat="45.9761" lon="6.45582">
        <ele>1374</ele>
        <time>2021-11-20T14:19:54Z</time>
      </trkpt>
      <trkpt lat="45.97608" lon="6.4558">
        <ele>1374</ele>
        <time>2021-11-20T14:20:00Z</time>
      </trkpt>
      <trkpt lat="45.97606" lon="6.45578">
        <ele>1374</ele>
        <time>2021-11-20T14:20:09Z</time>
      </trkpt>
      <trkpt lat="45.97606" lon="6.45575">
        <ele>1374</ele>
        <time>2021-11-20T14:20:16Z</time>
      </trkpt>
      <trkpt lat="45.97605" lon="6.45574">
        <ele>1374</ele>
        <time>2021-11-20T14:20:34Z</time>
      </trkpt>
    </trkseg>
  </trk>
</gpx>